<?xml version="1.0" encoding="UTF-8" standalone="no" ?>
<gpx xmlns="http://www.topografix.com/GPX/1/1" xmlns:xsi="http://www.w3.org/2001/XMLSchema-instance" xsi:schemaLocation="http://www.topografix.com/GPX/1/1 http://www.topografix.com/GPX/1/1/gpx.xsd" version="1.1" creator="VisuGPX - https://www.visugpx.com">
  <metadata>
    <name>Liege bastogne liege 36 k</name>
  </metadata>
  <wpt lat="50.6453" lon="5.57239">
    <ele>69.5</ele>
    <name><![CDATA[001 Départ]]></name>
  </wpt>
  <wpt lat="50.62056" lon="5.57792">
    <ele>66.9</ele>
    <name><![CDATA[002 Pont de Fragnée]]></name>
  </wpt>
  <wpt lat="50.54973" lon="5.66431">
    <ele>298.8</ele>
    <name><![CDATA[003 Monument]]></name>
  </wpt>
  <wpt lat="50.47986" lon="5.71208">
    <ele>137.1</ele>
    <name><![CDATA[004 Remouchamps]]></name>
  </wpt>
  <wpt lat="50.44105" lon="5.66574">
    <ele>229.5</ele>
    <name><![CDATA[005 Chateau de Harzé]]></name>
  </wpt>
  <wpt lat="50.18216" lon="5.5744">
    <ele>224.1</ele>
    <name><![CDATA[006 La Roche]]></name>
  </wpt>
  <wpt lat="50.00638" lon="5.72083">
    <ele>506.6</ele>
    <name><![CDATA[007 Bastogne]]></name>
  </wpt>
  <wpt lat="50.2877" lon="5.91523">
    <ele>365.7</ele>
    <name><![CDATA[008 Houffalize]]></name>
  </wpt>
  <wpt lat="50.35764" lon="5.91605">
    <ele>480.5</ele>
    <name><![CDATA[009 Wanne]]></name>
  </wpt>
  <wpt lat="50.39326" lon="5.93064">
    <ele>284.6</ele>
    <name><![CDATA[010 Stavelot]]></name>
  </wpt>
  <wpt lat="50.49188" lon="5.86258">
    <ele>252.4</ele>
    <name><![CDATA[011 Spa]]></name>
  </wpt>
  <wpt lat="50.49232" lon="5.69933">
    <ele>287.7</ele>
    <name><![CDATA[012 La Redoute]]></name>
  </wpt>
  <wpt lat="50.65577" lon="5.53003">
    <ele>182.8</ele>
    <name><![CDATA[013 Ans]]></name>
  </wpt>
  <trk>
    <name><![CDATA[Liege bastogne liege 36 k_1]]></name>
    <trkseg>
      <trkpt lat="50.6453" lon="5.57239">
        <ele>69.5</ele>
      </trkpt>
      <trkpt lat="50.62056" lon="5.57792">
        <ele>66.9</ele>
      </trkpt>
      <trkpt lat="50.54973" lon="5.66431">
        <ele>298.8</ele>
      </trkpt>
      <trkpt lat="50.47986" lon="5.71208">
        <ele>137.1</ele>
      </trkpt>
      <trkpt lat="50.44105" lon="5.66574">
        <ele>229.5</ele>
      </trkpt>
      <trkpt lat="50.18216" lon="5.5744">
        <ele>224.1</ele>
      </trkpt>
      <trkpt lat="50.00638" lon="5.72083">
        <ele>506.6</ele>
      </trkpt>
      <trkpt lat="50.2877" lon="5.91523">
        <ele>365.7</ele>
      </trkpt>
      <trkpt lat="50.35764" lon="5.91605">
        <ele>480.5</ele>
      </trkpt>
      <trkpt lat="50.39326" lon="5.93064">
        <ele>284.6</ele>
      </trkpt>
      <trkpt lat="50.49188" lon="5.86258">
        <ele>252.4</ele>
      </trkpt>
      <trkpt lat="50.49232" lon="5.69933">
        <ele>287.7</ele>
      </trkpt>
      <trkpt lat="50.65577" lon="5.53003">
        <ele>182.8</ele>
      </trkpt>
    </trkseg>
  </trk>
  <trk>
    <name><![CDATA[Liege Bastogne Liege]]></name>
    <trkseg>
      <trkpt lat="50.6453" lon="5.57242">
        <ele>69.4</ele>
      </trkpt>
      <trkpt lat="50.64499" lon="5.57251">
        <ele>69</ele>
      </trkpt>
      <trkpt lat="50.64499" lon="5.57252">
        <ele>69</ele>
      </trkpt>
      <trkpt lat="50.64444" lon="5.57274">
        <ele>73</ele>
      </trkpt>
      <trkpt lat="50.64391" lon="5.57153">
        <ele>71.2</ele>
      </trkpt>
      <trkpt lat="50.64396" lon="5.5712">
        <ele>71</ele>
      </trkpt>
      <trkpt lat="50.64388" lon="5.57112">
        <ele>71.1</ele>
      </trkpt>
      <trkpt lat="50.64387" lon="5.57112">
        <ele>71.2</ele>
      </trkpt>
      <trkpt lat="50.64373" lon="5.57113">
        <ele>71.6</ele>
      </trkpt>
      <trkpt lat="50.64353" lon="5.57142">
        <ele>71.9</ele>
      </trkpt>
      <trkpt lat="50.64308" lon="5.57243">
        <ele>72.7</ele>
      </trkpt>
      <trkpt lat="50.6421" lon="5.57346">
        <ele>71.3</ele>
      </trkpt>
      <trkpt lat="50.64106" lon="5.57453">
        <ele>74.5</ele>
      </trkpt>
      <trkpt lat="50.6399" lon="5.57589">
        <ele>88.58</ele>
        <time>2010-03-24T11:34:40Z</time>
      </trkpt>
      <trkpt lat="50.63918" lon="5.57634">
        <ele>81.37</ele>
        <time>2010-03-24T11:34:49Z</time>
      </trkpt>
      <trkpt lat="50.63911" lon="5.57637">
        <ele>79.93</ele>
        <time>2010-03-24T11:34:50Z</time>
      </trkpt>
      <trkpt lat="50.63903" lon="5.57637">
        <ele>78.97</ele>
        <time>2010-03-24T11:34:51Z</time>
      </trkpt>
      <trkpt lat="50.63895" lon="5.57634">
        <ele>78</ele>
        <time>2010-03-24T11:34:52Z</time>
      </trkpt>
      <trkpt lat="50.63886" lon="5.5763">
        <ele>76.56</ele>
        <time>2010-03-24T11:34:53Z</time>
      </trkpt>
      <trkpt lat="50.63877" lon="5.57624">
        <ele>75.6</ele>
        <time>2010-03-24T11:34:54Z</time>
      </trkpt>
      <trkpt lat="50.63753" lon="5.57528">
        <ele>65.51</ele>
        <time>2010-03-24T11:35:15Z</time>
      </trkpt>
      <trkpt lat="50.63747" lon="5.57516">
        <ele>65.03</ele>
        <time>2010-03-24T11:35:17Z</time>
      </trkpt>
      <trkpt lat="50.63745" lon="5.5751">
        <ele>64.55</ele>
        <time>2010-03-24T11:35:18Z</time>
      </trkpt>
      <trkpt lat="50.63743" lon="5.57503">
        <ele>64.55</ele>
        <time>2010-03-24T11:35:19Z</time>
      </trkpt>
      <trkpt lat="50.63742" lon="5.57495">
        <ele>64.07</ele>
        <time>2010-03-24T11:35:20Z</time>
      </trkpt>
      <trkpt lat="50.63739" lon="5.57488">
        <ele>63.58</ele>
        <time>2010-03-24T11:35:21Z</time>
      </trkpt>
      <trkpt lat="50.63735" lon="5.57482">
        <ele>63.58</ele>
        <time>2010-03-24T11:35:22Z</time>
      </trkpt>
      <trkpt lat="50.63729" lon="5.57479">
        <ele>63.58</ele>
        <time>2010-03-24T11:35:23Z</time>
      </trkpt>
      <trkpt lat="50.63722" lon="5.5748">
        <ele>63.58</ele>
        <time>2010-03-24T11:35:24Z</time>
      </trkpt>
      <trkpt lat="50.63715" lon="5.57482">
        <ele>63.58</ele>
        <time>2010-03-24T11:35:25Z</time>
      </trkpt>
      <trkpt lat="50.63707" lon="5.57481">
        <ele>63.1</ele>
        <time>2010-03-24T11:35:26Z</time>
      </trkpt>
      <trkpt lat="50.63699" lon="5.57476">
        <ele>63.1</ele>
        <time>2010-03-24T11:35:27Z</time>
      </trkpt>
      <trkpt lat="50.63692" lon="5.57469">
        <ele>63.1</ele>
        <time>2010-03-24T11:35:28Z</time>
      </trkpt>
      <trkpt lat="50.63685" lon="5.57461">
        <ele>63.1</ele>
        <time>2010-03-24T11:35:29Z</time>
      </trkpt>
      <trkpt lat="50.63678" lon="5.57452">
        <ele>62.62</ele>
        <time>2010-03-24T11:35:30Z</time>
      </trkpt>
      <trkpt lat="50.63628" lon="5.57349">
        <ele>58.78</ele>
        <time>2010-03-24T11:35:37Z</time>
      </trkpt>
      <trkpt lat="50.63572" lon="5.57283">
        <ele>55.89</ele>
        <time>2010-03-24T11:35:42Z</time>
      </trkpt>
      <trkpt lat="50.63471" lon="5.57219">
        <ele>59.74</ele>
        <time>2010-03-24T11:35:51Z</time>
      </trkpt>
      <trkpt lat="50.63349" lon="5.5715">
        <ele>60.7</ele>
        <time>2010-03-24T11:35:59Z</time>
      </trkpt>
      <trkpt lat="50.63127" lon="5.57109">
        <ele>60.7</ele>
        <time>2010-03-24T11:36:13Z</time>
      </trkpt>
      <trkpt lat="50.62929" lon="5.57165">
        <ele>61.18</ele>
        <time>2010-03-24T11:36:26Z</time>
      </trkpt>
      <trkpt lat="50.62809" lon="5.57255">
        <ele>60.7</ele>
        <time>2010-03-24T11:36:35Z</time>
      </trkpt>
      <trkpt lat="50.62788" lon="5.57267">
        <ele>60.22</ele>
        <time>2010-03-24T11:36:37Z</time>
      </trkpt>
      <trkpt lat="50.62778" lon="5.57269">
        <ele>60.22</ele>
        <time>2010-03-24T11:36:38Z</time>
      </trkpt>
      <trkpt lat="50.62767" lon="5.57269">
        <ele>59.74</ele>
        <time>2010-03-24T11:36:39Z</time>
      </trkpt>
      <trkpt lat="50.62756" lon="5.57269">
        <ele>59.74</ele>
        <time>2010-03-24T11:36:40Z</time>
      </trkpt>
      <trkpt lat="50.62745" lon="5.57272">
        <ele>60.22</ele>
        <time>2010-03-24T11:36:41Z</time>
      </trkpt>
      <trkpt lat="50.62735" lon="5.57278">
        <ele>59.74</ele>
        <time>2010-03-24T11:36:42Z</time>
      </trkpt>
      <trkpt lat="50.62725" lon="5.57289">
        <ele>60.22</ele>
        <time>2010-03-24T11:36:43Z</time>
      </trkpt>
      <trkpt lat="50.62716" lon="5.57302">
        <ele>59.74</ele>
        <time>2010-03-24T11:36:44Z</time>
      </trkpt>
      <trkpt lat="50.62706" lon="5.57316">
        <ele>59.74</ele>
        <time>2010-03-24T11:36:45Z</time>
      </trkpt>
      <trkpt lat="50.62589" lon="5.5747">
        <ele>61.66</ele>
        <time>2010-03-24T11:36:57Z</time>
      </trkpt>
      <trkpt lat="50.6244" lon="5.57603">
        <ele>60.7</ele>
        <time>2010-03-24T11:37:09Z</time>
      </trkpt>
      <trkpt lat="50.62248" lon="5.57702">
        <ele>61.66</ele>
        <time>2010-03-24T11:37:22Z</time>
      </trkpt>
      <trkpt lat="50.62159" lon="5.57733">
        <ele>65.51</ele>
        <time>2010-03-24T11:37:30Z</time>
      </trkpt>
      <trkpt lat="50.62138" lon="5.57737">
        <ele>66.95</ele>
        <time>2010-03-24T11:37:36Z</time>
      </trkpt>
      <trkpt lat="50.62115" lon="5.57742">
        <ele>65.99</ele>
        <time>2010-03-24T11:37:48Z</time>
      </trkpt>
      <trkpt lat="50.62108" lon="5.57744">
        <ele>65.51</ele>
        <time>2010-03-24T11:37:59Z</time>
      </trkpt>
      <trkpt lat="50.6209" lon="5.57749">
        <ele>65.99</ele>
        <time>2010-03-24T11:38:08Z</time>
      </trkpt>
      <trkpt lat="50.62079" lon="5.57752">
        <ele>65.99</ele>
        <time>2010-03-24T11:38:15Z</time>
      </trkpt>
      <trkpt lat="50.62065" lon="5.57759">
        <ele>65.51</ele>
        <time>2010-03-24T11:39:32Z</time>
      </trkpt>
      <trkpt lat="50.62061" lon="5.57761">
        <ele>65.03</ele>
        <time>2010-03-24T11:39:33Z</time>
      </trkpt>
      <trkpt lat="50.62057" lon="5.57766">
        <ele>65.51</ele>
        <time>2010-03-24T11:39:34Z</time>
      </trkpt>
      <trkpt lat="50.62055" lon="5.57772">
        <ele>65.51</ele>
        <time>2010-03-24T11:39:35Z</time>
      </trkpt>
      <trkpt lat="50.62054" lon="5.57779">
        <ele>65.51</ele>
        <time>2010-03-24T11:39:36Z</time>
      </trkpt>
      <trkpt lat="50.62054" lon="5.57787">
        <ele>65.51</ele>
        <time>2010-03-24T11:39:37Z</time>
      </trkpt>
      <trkpt lat="50.62056" lon="5.57793">
        <ele>65.51</ele>
        <time>2010-03-24T11:39:38Z</time>
      </trkpt>
      <trkpt lat="50.62057" lon="5.57799">
        <ele>65.51</ele>
        <time>2010-03-24T11:39:39Z</time>
      </trkpt>
      <trkpt lat="50.62067" lon="5.57834">
        <ele>66.47</ele>
        <time>2010-03-24T11:39:49Z</time>
      </trkpt>
      <trkpt lat="50.6209" lon="5.57944">
        <ele>67.43</ele>
        <time>2010-03-24T11:40:01Z</time>
      </trkpt>
      <trkpt lat="50.62115" lon="5.58065">
        <ele>66.47</ele>
        <time>2010-03-24T11:40:11Z</time>
      </trkpt>
      <trkpt lat="50.6213" lon="5.58127">
        <ele>65.99</ele>
        <time>2010-03-24T11:40:16Z</time>
      </trkpt>
      <trkpt lat="50.62135" lon="5.58137">
        <ele>65.99</ele>
        <time>2010-03-24T11:40:17Z</time>
      </trkpt>
      <trkpt lat="50.62139" lon="5.58147">
        <ele>65.99</ele>
        <time>2010-03-24T11:40:18Z</time>
      </trkpt>
      <trkpt lat="50.62145" lon="5.58156">
        <ele>65.51</ele>
        <time>2010-03-24T11:40:19Z</time>
      </trkpt>
      <trkpt lat="50.6215" lon="5.58164">
        <ele>65.51</ele>
        <time>2010-03-24T11:40:20Z</time>
      </trkpt>
      <trkpt lat="50.62192" lon="5.5822">
        <ele>64.07</ele>
        <time>2010-03-24T11:40:31Z</time>
      </trkpt>
      <trkpt lat="50.62201" lon="5.58232">
        <ele>62.62</ele>
        <time>2010-03-24T11:41:03Z</time>
      </trkpt>
      <trkpt lat="50.62204" lon="5.58238">
        <ele>62.14</ele>
        <time>2010-03-24T11:41:04Z</time>
      </trkpt>
      <trkpt lat="50.62206" lon="5.58246">
        <ele>62.62</ele>
        <time>2010-03-24T11:41:05Z</time>
      </trkpt>
      <trkpt lat="50.62206" lon="5.58255">
        <ele>62.62</ele>
        <time>2010-03-24T11:41:06Z</time>
      </trkpt>
      <trkpt lat="50.62204" lon="5.58265">
        <ele>62.62</ele>
        <time>2010-03-24T11:41:07Z</time>
      </trkpt>
      <trkpt lat="50.62196" lon="5.58289">
        <ele>62.62</ele>
        <time>2010-03-24T11:41:09Z</time>
      </trkpt>
      <trkpt lat="50.6219" lon="5.58304">
        <ele>62.62</ele>
        <time>2010-03-24T11:41:10Z</time>
      </trkpt>
      <trkpt lat="50.62121" lon="5.58507">
        <ele>59.26</ele>
        <time>2010-03-24T11:41:20Z</time>
      </trkpt>
      <trkpt lat="50.61974" lon="5.58938">
        <ele>58.78</ele>
        <time>2010-03-24T11:41:37Z</time>
      </trkpt>
      <trkpt lat="50.61887" lon="5.59137">
        <ele>59.74</ele>
        <time>2010-03-24T11:41:47Z</time>
      </trkpt>
      <trkpt lat="50.61847" lon="5.5922">
        <ele>59.74</ele>
        <time>2010-03-24T11:41:53Z</time>
      </trkpt>
      <trkpt lat="50.61845" lon="5.59225">
        <ele>59.26</ele>
        <time>2010-03-24T11:41:59Z</time>
      </trkpt>
      <trkpt lat="50.6183" lon="5.59253">
        <ele>60.7</ele>
        <time>2010-03-24T11:42:26Z</time>
      </trkpt>
      <trkpt lat="50.61776" lon="5.59369">
        <ele>61.18</ele>
        <time>2010-03-24T11:42:34Z</time>
      </trkpt>
      <trkpt lat="50.617" lon="5.59551">
        <ele>61.66</ele>
        <time>2010-03-24T11:42:42Z</time>
      </trkpt>
      <trkpt lat="50.61608" lon="5.59828">
        <ele>62.62</ele>
        <time>2010-03-24T11:42:54Z</time>
      </trkpt>
      <trkpt lat="50.61535" lon="5.6021">
        <ele>54.93</ele>
        <time>2010-03-24T11:43:09Z</time>
      </trkpt>
      <trkpt lat="50.61521" lon="5.60487">
        <ele>57.82</ele>
        <time>2010-03-24T11:43:20Z</time>
      </trkpt>
      <trkpt lat="50.61498" lon="5.60925">
        <ele>61.66</ele>
        <time>2010-03-24T11:43:37Z</time>
      </trkpt>
      <trkpt lat="50.61493" lon="5.60948">
        <ele>61.66</ele>
        <time>2010-03-24T11:43:38Z</time>
      </trkpt>
      <trkpt lat="50.61486" lon="5.60971">
        <ele>61.66</ele>
        <time>2010-03-24T11:43:39Z</time>
      </trkpt>
      <trkpt lat="50.61477" lon="5.60992">
        <ele>62.14</ele>
        <time>2010-03-24T11:43:40Z</time>
      </trkpt>
      <trkpt lat="50.61466" lon="5.61012">
        <ele>62.14</ele>
        <time>2010-03-24T11:43:41Z</time>
      </trkpt>
      <trkpt lat="50.61455" lon="5.61031">
        <ele>62.62</ele>
        <time>2010-03-24T11:43:42Z</time>
      </trkpt>
      <trkpt lat="50.61309" lon="5.61237">
        <ele>64.07</ele>
        <time>2010-03-24T11:43:55Z</time>
      </trkpt>
      <trkpt lat="50.61243" lon="5.61308">
        <ele>63.1</ele>
        <time>2010-03-24T11:44:03Z</time>
      </trkpt>
      <trkpt lat="50.61219" lon="5.61344">
        <ele>62.14</ele>
        <time>2010-03-24T11:44:10Z</time>
      </trkpt>
      <trkpt lat="50.61197" lon="5.61383">
        <ele>62.14</ele>
        <time>2010-03-24T11:44:14Z</time>
      </trkpt>
      <trkpt lat="50.61189" lon="5.61391">
        <ele>62.14</ele>
        <time>2010-03-24T11:44:15Z</time>
      </trkpt>
      <trkpt lat="50.61179" lon="5.61396">
        <ele>62.62</ele>
        <time>2010-03-24T11:44:16Z</time>
      </trkpt>
      <trkpt lat="50.61168" lon="5.61398">
        <ele>63.1</ele>
        <time>2010-03-24T11:44:17Z</time>
      </trkpt>
      <trkpt lat="50.61155" lon="5.614">
        <ele>63.58</ele>
        <time>2010-03-24T11:44:18Z</time>
      </trkpt>
      <trkpt lat="50.61004" lon="5.61419">
        <ele>63.58</ele>
        <time>2010-03-24T11:44:30Z</time>
      </trkpt>
      <trkpt lat="50.60967" lon="5.61418">
        <ele>63.1</ele>
        <time>2010-03-24T11:44:37Z</time>
      </trkpt>
      <trkpt lat="50.60965" lon="5.61417">
        <ele>61.18</ele>
        <time>2010-03-24T11:44:52Z</time>
      </trkpt>
      <trkpt lat="50.60937" lon="5.61419">
        <ele>61.18</ele>
        <time>2010-03-24T11:45:06Z</time>
      </trkpt>
      <trkpt lat="50.60871" lon="5.61407">
        <ele>61.66</ele>
        <time>2010-03-24T11:45:13Z</time>
      </trkpt>
      <trkpt lat="50.60841" lon="5.6139">
        <ele>61.66</ele>
        <time>2010-03-24T11:45:16Z</time>
      </trkpt>
      <trkpt lat="50.60786" lon="5.61353">
        <ele>65.51</ele>
        <time>2010-03-24T11:45:23Z</time>
      </trkpt>
      <trkpt lat="50.60776" lon="5.61345">
        <ele>67.43</ele>
        <time>2010-03-24T11:45:55Z</time>
      </trkpt>
      <trkpt lat="50.60712" lon="5.61304">
        <ele>66.47</ele>
        <time>2010-03-24T11:46:03Z</time>
      </trkpt>
      <trkpt lat="50.60665" lon="5.61278">
        <ele>65.99</ele>
        <time>2010-03-24T11:46:11Z</time>
      </trkpt>
      <trkpt lat="50.60657" lon="5.61276">
        <ele>66.47</ele>
        <time>2010-03-24T11:46:14Z</time>
      </trkpt>
      <trkpt lat="50.60653" lon="5.61278">
        <ele>66.47</ele>
        <time>2010-03-24T11:46:15Z</time>
      </trkpt>
      <trkpt lat="50.60649" lon="5.61282">
        <ele>66.95</ele>
        <time>2010-03-24T11:46:16Z</time>
      </trkpt>
      <trkpt lat="50.60646" lon="5.61288">
        <ele>66.95</ele>
        <time>2010-03-24T11:46:17Z</time>
      </trkpt>
      <trkpt lat="50.60644" lon="5.61297">
        <ele>66.95</ele>
        <time>2010-03-24T11:46:18Z</time>
      </trkpt>
      <trkpt lat="50.60643" lon="5.61307">
        <ele>66.95</ele>
        <time>2010-03-24T11:46:19Z</time>
      </trkpt>
      <trkpt lat="50.60641" lon="5.61319">
        <ele>66.95</ele>
        <time>2010-03-24T11:46:20Z</time>
      </trkpt>
      <trkpt lat="50.60627" lon="5.61434">
        <ele>66.95</ele>
        <time>2010-03-24T11:46:28Z</time>
      </trkpt>
      <trkpt lat="50.60622" lon="5.61446">
        <ele>67.43</ele>
        <time>2010-03-24T11:46:29Z</time>
      </trkpt>
      <trkpt lat="50.60615" lon="5.61455">
        <ele>67.43</ele>
        <time>2010-03-24T11:46:30Z</time>
      </trkpt>
      <trkpt lat="50.60605" lon="5.61461">
        <ele>67.91</ele>
        <time>2010-03-24T11:46:31Z</time>
      </trkpt>
      <trkpt lat="50.60593" lon="5.61463">
        <ele>68.39</ele>
        <time>2010-03-24T11:46:32Z</time>
      </trkpt>
      <trkpt lat="50.6058" lon="5.61464">
        <ele>68.39</ele>
        <time>2010-03-24T11:46:33Z</time>
      </trkpt>
      <trkpt lat="50.60567" lon="5.61463">
        <ele>68.87</ele>
        <time>2010-03-24T11:46:34Z</time>
      </trkpt>
      <trkpt lat="50.60554" lon="5.61461">
        <ele>69.35</ele>
        <time>2010-03-24T11:46:35Z</time>
      </trkpt>
      <trkpt lat="50.60414" lon="5.61441">
        <ele>76.08</ele>
        <time>2010-03-24T11:46:44Z</time>
      </trkpt>
      <trkpt lat="50.6029" lon="5.61404">
        <ele>82.81</ele>
        <time>2010-03-24T11:46:51Z</time>
      </trkpt>
      <trkpt lat="50.60271" lon="5.61393">
        <ele>84.25</ele>
        <time>2010-03-24T11:46:52Z</time>
      </trkpt>
      <trkpt lat="50.60103" lon="5.61265">
        <ele>93.87</ele>
        <time>2010-03-24T11:47:01Z</time>
      </trkpt>
      <trkpt lat="50.60008" lon="5.61121">
        <ele>102.52</ele>
        <time>2010-03-24T11:47:08Z</time>
      </trkpt>
      <trkpt lat="50.59963" lon="5.61028">
        <ele>105.88</ele>
        <time>2010-03-24T11:47:13Z</time>
      </trkpt>
      <trkpt lat="50.59949" lon="5.61016">
        <ele>106.36</ele>
        <time>2010-03-24T11:47:14Z</time>
      </trkpt>
      <trkpt lat="50.59933" lon="5.61004">
        <ele>107.32</ele>
        <time>2010-03-24T11:47:15Z</time>
      </trkpt>
      <trkpt lat="50.59849" lon="5.60942">
        <ele>113.09</ele>
        <time>2010-03-24T11:47:21Z</time>
      </trkpt>
      <trkpt lat="50.59836" lon="5.6094">
        <ele>114.05</ele>
        <time>2010-03-24T11:47:22Z</time>
      </trkpt>
      <trkpt lat="50.59824" lon="5.60946">
        <ele>115.01</ele>
        <time>2010-03-24T11:47:23Z</time>
      </trkpt>
      <trkpt lat="50.59811" lon="5.60953">
        <ele>115.98</ele>
        <time>2010-03-24T11:47:24Z</time>
      </trkpt>
      <trkpt lat="50.59801" lon="5.60963">
        <ele>117.42</ele>
        <time>2010-03-24T11:47:25Z</time>
      </trkpt>
      <trkpt lat="50.5979" lon="5.60975">
        <ele>117.9</ele>
        <time>2010-03-24T11:47:26Z</time>
      </trkpt>
      <trkpt lat="50.59778" lon="5.60992">
        <ele>118.38</ele>
        <time>2010-03-24T11:47:27Z</time>
      </trkpt>
      <trkpt lat="50.59768" lon="5.61008">
        <ele>118.86</ele>
        <time>2010-03-24T11:47:28Z</time>
      </trkpt>
      <trkpt lat="50.59759" lon="5.61024">
        <ele>119.34</ele>
        <time>2010-03-24T11:47:29Z</time>
      </trkpt>
      <trkpt lat="50.59731" lon="5.61075">
        <ele>123.67</ele>
        <time>2010-03-24T11:47:33Z</time>
      </trkpt>
      <trkpt lat="50.59723" lon="5.61078">
        <ele>125.59</ele>
        <time>2010-03-24T11:47:34Z</time>
      </trkpt>
      <trkpt lat="50.59713" lon="5.6107">
        <ele>125.11</ele>
        <time>2010-03-24T11:47:35Z</time>
      </trkpt>
      <trkpt lat="50.59705" lon="5.61057">
        <ele>125.59</ele>
        <time>2010-03-24T11:47:36Z</time>
      </trkpt>
      <trkpt lat="50.597" lon="5.61041">
        <ele>127.03</ele>
        <time>2010-03-24T11:47:37Z</time>
      </trkpt>
      <trkpt lat="50.59699" lon="5.61023">
        <ele>127.99</ele>
        <time>2010-03-24T11:47:38Z</time>
      </trkpt>
      <trkpt lat="50.59698" lon="5.61006">
        <ele>128.47</ele>
        <time>2010-03-24T11:47:39Z</time>
      </trkpt>
      <trkpt lat="50.59698" lon="5.60988">
        <ele>129.43</ele>
        <time>2010-03-24T11:47:40Z</time>
      </trkpt>
      <trkpt lat="50.597" lon="5.60969">
        <ele>129.43</ele>
        <time>2010-03-24T11:47:41Z</time>
      </trkpt>
      <trkpt lat="50.59701" lon="5.60949">
        <ele>129.92</ele>
        <time>2010-03-24T11:47:42Z</time>
      </trkpt>
      <trkpt lat="50.59703" lon="5.60866">
        <ele>131.84</ele>
        <time>2010-03-24T11:47:46Z</time>
      </trkpt>
      <trkpt lat="50.59699" lon="5.60847">
        <ele>131.36</ele>
        <time>2010-03-24T11:47:47Z</time>
      </trkpt>
      <trkpt lat="50.59694" lon="5.6083">
        <ele>130.88</ele>
        <time>2010-03-24T11:47:48Z</time>
      </trkpt>
      <trkpt lat="50.59688" lon="5.60815">
        <ele>131.36</ele>
        <time>2010-03-24T11:47:49Z</time>
      </trkpt>
      <trkpt lat="50.5968" lon="5.60804">
        <ele>131.36</ele>
        <time>2010-03-24T11:47:50Z</time>
      </trkpt>
      <trkpt lat="50.59672" lon="5.60794">
        <ele>131.84</ele>
        <time>2010-03-24T11:47:51Z</time>
      </trkpt>
      <trkpt lat="50.59663" lon="5.60785">
        <ele>131.84</ele>
        <time>2010-03-24T11:47:52Z</time>
      </trkpt>
      <trkpt lat="50.59654" lon="5.60777">
        <ele>132.32</ele>
        <time>2010-03-24T11:47:53Z</time>
      </trkpt>
      <trkpt lat="50.59644" lon="5.60772">
        <ele>132.8</ele>
        <time>2010-03-24T11:47:54Z</time>
      </trkpt>
      <trkpt lat="50.59635" lon="5.60767">
        <ele>132.8</ele>
        <time>2010-03-24T11:47:55Z</time>
      </trkpt>
      <trkpt lat="50.59625" lon="5.60763">
        <ele>133.28</ele>
        <time>2010-03-24T11:47:56Z</time>
      </trkpt>
      <trkpt lat="50.59453" lon="5.60694">
        <ele>137.61</ele>
        <time>2010-03-24T11:48:12Z</time>
      </trkpt>
      <trkpt lat="50.59321" lon="5.60636">
        <ele>141.45</ele>
        <time>2010-03-24T11:48:24Z</time>
      </trkpt>
      <trkpt lat="50.59299" lon="5.60625">
        <ele>141.93</ele>
        <time>2010-03-24T11:48:27Z</time>
      </trkpt>
      <trkpt lat="50.59293" lon="5.6062">
        <ele>141.93</ele>
        <time>2010-03-24T11:48:28Z</time>
      </trkpt>
      <trkpt lat="50.59287" lon="5.60616">
        <ele>141.93</ele>
        <time>2010-03-24T11:48:29Z</time>
      </trkpt>
      <trkpt lat="50.59282" lon="5.60613">
        <ele>141.93</ele>
        <time>2010-03-24T11:48:30Z</time>
      </trkpt>
      <trkpt lat="50.59277" lon="5.60612">
        <ele>142.41</ele>
        <time>2010-03-24T11:48:31Z</time>
      </trkpt>
      <trkpt lat="50.59272" lon="5.60612">
        <ele>141.93</ele>
        <time>2010-03-24T11:48:32Z</time>
      </trkpt>
      <trkpt lat="50.59196" lon="5.60613">
        <ele>146.74</ele>
        <time>2010-03-24T11:50:08Z</time>
      </trkpt>
      <trkpt lat="50.59159" lon="5.6062">
        <ele>149.14</ele>
        <time>2010-03-24T12:02:20Z</time>
      </trkpt>
      <trkpt lat="50.59088" lon="5.60653">
        <ele>152.51</ele>
        <time>2010-03-24T12:02:28Z</time>
      </trkpt>
      <trkpt lat="50.58997" lon="5.60728">
        <ele>155.87</ele>
        <time>2010-03-24T12:02:37Z</time>
      </trkpt>
      <trkpt lat="50.58893" lon="5.60862">
        <ele>160.2</ele>
        <time>2010-03-24T12:02:47Z</time>
      </trkpt>
      <trkpt lat="50.58719" lon="5.61133">
        <ele>168.37</ele>
        <time>2010-03-24T12:03:03Z</time>
      </trkpt>
      <trkpt lat="50.58492" lon="5.61483">
        <ele>178.46</ele>
        <time>2010-03-24T12:03:22Z</time>
      </trkpt>
      <trkpt lat="50.58356" lon="5.61681">
        <ele>185.19</ele>
        <time>2010-03-24T12:03:34Z</time>
      </trkpt>
      <trkpt lat="50.58344" lon="5.6169">
        <ele>185.67</ele>
        <time>2010-03-24T12:03:35Z</time>
      </trkpt>
      <trkpt lat="50.58332" lon="5.61696">
        <ele>186.15</ele>
        <time>2010-03-24T12:03:36Z</time>
      </trkpt>
      <trkpt lat="50.5832" lon="5.61698">
        <ele>186.63</ele>
        <time>2010-03-24T12:03:37Z</time>
      </trkpt>
      <trkpt lat="50.58307" lon="5.61697">
        <ele>187.11</ele>
        <time>2010-03-24T12:03:38Z</time>
      </trkpt>
      <trkpt lat="50.58294" lon="5.61689">
        <ele>188.08</ele>
        <time>2010-03-24T12:03:39Z</time>
      </trkpt>
      <trkpt lat="50.58282" lon="5.61678">
        <ele>188.08</ele>
        <time>2010-03-24T12:03:40Z</time>
      </trkpt>
      <trkpt lat="50.5827" lon="5.61665">
        <ele>188.08</ele>
        <time>2010-03-24T12:03:41Z</time>
      </trkpt>
      <trkpt lat="50.58248" lon="5.61633">
        <ele>188.56</ele>
        <time>2010-03-24T12:03:43Z</time>
      </trkpt>
      <trkpt lat="50.58239" lon="5.61615">
        <ele>189.52</ele>
        <time>2010-03-24T12:03:44Z</time>
      </trkpt>
      <trkpt lat="50.58151" lon="5.61467">
        <ele>198.65</ele>
        <time>2010-03-24T12:03:53Z</time>
      </trkpt>
      <trkpt lat="50.5814" lon="5.61464">
        <ele>199.61</ele>
        <time>2010-03-24T12:03:54Z</time>
      </trkpt>
      <trkpt lat="50.58128" lon="5.61468">
        <ele>200.09</ele>
        <time>2010-03-24T12:03:55Z</time>
      </trkpt>
      <trkpt lat="50.58119" lon="5.61478">
        <ele>201.05</ele>
        <time>2010-03-24T12:03:56Z</time>
      </trkpt>
      <trkpt lat="50.58113" lon="5.61494">
        <ele>201.53</ele>
        <time>2010-03-24T12:03:57Z</time>
      </trkpt>
      <trkpt lat="50.58109" lon="5.61511">
        <ele>202.49</ele>
        <time>2010-03-24T12:03:58Z</time>
      </trkpt>
      <trkpt lat="50.58106" lon="5.61531">
        <ele>203.46</ele>
        <time>2010-03-24T12:03:59Z</time>
      </trkpt>
      <trkpt lat="50.58104" lon="5.61552">
        <ele>202.98</ele>
        <time>2010-03-24T12:04:00Z</time>
      </trkpt>
      <trkpt lat="50.58089" lon="5.61698">
        <ele>207.3</ele>
        <time>2010-03-24T12:04:07Z</time>
      </trkpt>
      <trkpt lat="50.58083" lon="5.61715">
        <ele>207.78</ele>
        <time>2010-03-24T12:04:08Z</time>
      </trkpt>
      <trkpt lat="50.58074" lon="5.61727">
        <ele>208.26</ele>
        <time>2010-03-24T12:04:09Z</time>
      </trkpt>
      <trkpt lat="50.58062" lon="5.61733">
        <ele>209.22</ele>
        <time>2010-03-24T12:04:10Z</time>
      </trkpt>
      <trkpt lat="50.58049" lon="5.61736">
        <ele>210.19</ele>
        <time>2010-03-24T12:04:11Z</time>
      </trkpt>
      <trkpt lat="50.58036" lon="5.61737">
        <ele>210.67</ele>
        <time>2010-03-24T12:04:12Z</time>
      </trkpt>
      <trkpt lat="50.58022" lon="5.61737">
        <ele>211.15</ele>
        <time>2010-03-24T12:04:13Z</time>
      </trkpt>
      <trkpt lat="50.57876" lon="5.61739">
        <ele>217.88</ele>
        <time>2010-03-24T12:04:22Z</time>
      </trkpt>
      <trkpt lat="50.57719" lon="5.61779">
        <ele>226.53</ele>
        <time>2010-03-24T12:04:31Z</time>
      </trkpt>
      <trkpt lat="50.57432" lon="5.61878">
        <ele>243.83</ele>
        <time>2010-03-24T12:04:47Z</time>
      </trkpt>
      <trkpt lat="50.57225" lon="5.61962">
        <ele>258.25</ele>
        <time>2010-03-24T12:05:00Z</time>
      </trkpt>
      <trkpt lat="50.57065" lon="5.6203">
        <ele>264.5</ele>
        <time>2010-03-24T12:05:13Z</time>
      </trkpt>
      <trkpt lat="50.56957" lon="5.62096">
        <ele>270.27</ele>
        <time>2010-03-24T12:05:24Z</time>
      </trkpt>
      <trkpt lat="50.5695" lon="5.62104">
        <ele>270.27</ele>
        <time>2010-03-24T12:05:25Z</time>
      </trkpt>
      <trkpt lat="50.56945" lon="5.62115">
        <ele>270.27</ele>
        <time>2010-03-24T12:05:26Z</time>
      </trkpt>
      <trkpt lat="50.5694" lon="5.62127">
        <ele>270.75</ele>
        <time>2010-03-24T12:05:27Z</time>
      </trkpt>
      <trkpt lat="50.56935" lon="5.62141">
        <ele>270.27</ele>
        <time>2010-03-24T12:05:28Z</time>
      </trkpt>
      <trkpt lat="50.56932" lon="5.62156">
        <ele>270.27</ele>
        <time>2010-03-24T12:05:29Z</time>
      </trkpt>
      <trkpt lat="50.56869" lon="5.62373">
        <ele>268.35</ele>
        <time>2010-03-24T12:05:42Z</time>
      </trkpt>
      <trkpt lat="50.56777" lon="5.62607">
        <ele>268.83</ele>
        <time>2010-03-24T12:05:56Z</time>
      </trkpt>
      <trkpt lat="50.56706" lon="5.62847">
        <ele>269.31</ele>
        <time>2010-03-24T12:06:09Z</time>
      </trkpt>
      <trkpt lat="50.56624" lon="5.63111">
        <ele>269.79</ele>
        <time>2010-03-24T12:06:23Z</time>
      </trkpt>
      <trkpt lat="50.56525" lon="5.63317">
        <ele>270.75</ele>
        <time>2010-03-24T12:06:36Z</time>
      </trkpt>
      <trkpt lat="50.56451" lon="5.63458">
        <ele>271.71</ele>
        <time>2010-03-24T12:06:47Z</time>
      </trkpt>
      <trkpt lat="50.56448" lon="5.63463">
        <ele>271.71</ele>
        <time>2010-03-24T12:06:48Z</time>
      </trkpt>
      <trkpt lat="50.56443" lon="5.63468">
        <ele>272.19</ele>
        <time>2010-03-24T12:06:49Z</time>
      </trkpt>
      <trkpt lat="50.56377" lon="5.63518">
        <ele>272.67</ele>
        <time>2010-03-24T12:06:57Z</time>
      </trkpt>
      <trkpt lat="50.56184" lon="5.63627">
        <ele>277.96</ele>
        <time>2010-03-24T12:07:14Z</time>
      </trkpt>
      <trkpt lat="50.5599" lon="5.63733">
        <ele>283.25</ele>
        <time>2010-03-24T12:07:30Z</time>
      </trkpt>
      <trkpt lat="50.55908" lon="5.63785">
        <ele>287.09</ele>
        <time>2010-03-24T12:07:40Z</time>
      </trkpt>
      <trkpt lat="50.55903" lon="5.63793">
        <ele>291.9</ele>
        <time>2010-03-24T12:07:48Z</time>
      </trkpt>
      <trkpt lat="50.5591" lon="5.63794">
        <ele>304.88</ele>
        <time>2010-03-24T12:08:17Z</time>
      </trkpt>
      <trkpt lat="50.55892" lon="5.63827">
        <ele>302.47</ele>
        <time>2010-03-24T12:08:28Z</time>
      </trkpt>
      <trkpt lat="50.55863" lon="5.63914">
        <ele>297.18</ele>
        <time>2010-03-24T12:08:35Z</time>
      </trkpt>
      <trkpt lat="50.5586" lon="5.6393">
        <ele>295.26</ele>
        <time>2010-03-24T12:08:41Z</time>
      </trkpt>
      <trkpt lat="50.55849" lon="5.63971">
        <ele>293.34</ele>
        <time>2010-03-24T12:08:47Z</time>
      </trkpt>
      <trkpt lat="50.55816" lon="5.6409">
        <ele>290.94</ele>
        <time>2010-03-24T12:08:54Z</time>
      </trkpt>
      <trkpt lat="50.55725" lon="5.64417">
        <ele>285.17</ele>
        <time>2010-03-24T12:09:11Z</time>
      </trkpt>
      <trkpt lat="50.55635" lon="5.64746">
        <ele>285.65</ele>
        <time>2010-03-24T12:09:25Z</time>
      </trkpt>
      <trkpt lat="50.55534" lon="5.65108">
        <ele>283.73</ele>
        <time>2010-03-24T12:09:38Z</time>
      </trkpt>
      <trkpt lat="50.55389" lon="5.65627">
        <ele>282.28</ele>
        <time>2010-03-24T12:09:57Z</time>
      </trkpt>
      <trkpt lat="50.55303" lon="5.65785">
        <ele>285.17</ele>
        <time>2010-03-24T12:10:04Z</time>
      </trkpt>
      <trkpt lat="50.55133" lon="5.66053">
        <ele>296.22</ele>
        <time>2010-03-24T12:10:18Z</time>
      </trkpt>
      <trkpt lat="50.55109" lon="5.66103">
        <ele>298.15</ele>
        <time>2010-03-24T12:10:21Z</time>
      </trkpt>
      <trkpt lat="50.55022" lon="5.66334">
        <ele>299.11</ele>
        <time>2010-03-24T12:10:34Z</time>
      </trkpt>
      <trkpt lat="50.5502" lon="5.66345">
        <ele>299.11</ele>
        <time>2010-03-24T12:10:35Z</time>
      </trkpt>
      <trkpt lat="50.55019" lon="5.66352">
        <ele>298.63</ele>
        <time>2010-03-24T12:10:36Z</time>
      </trkpt>
      <trkpt lat="50.55019" lon="5.66356">
        <ele>299.11</ele>
        <time>2010-03-24T12:10:37Z</time>
      </trkpt>
      <trkpt lat="50.55019" lon="5.66355">
        <ele>299.59</ele>
        <time>2010-03-24T12:10:47Z</time>
      </trkpt>
      <trkpt lat="50.55003" lon="5.66388">
        <ele>302.47</ele>
        <time>2010-03-24T12:11:33Z</time>
      </trkpt>
      <trkpt lat="50.54998" lon="5.66398">
        <ele>302.47</ele>
        <time>2010-03-24T12:11:34Z</time>
      </trkpt>
      <trkpt lat="50.54946" lon="5.6653">
        <ele>302.47</ele>
        <time>2010-03-24T12:11:42Z</time>
      </trkpt>
      <trkpt lat="50.5484" lon="5.66803">
        <ele>298.15</ele>
        <time>2010-03-24T12:11:54Z</time>
      </trkpt>
      <trkpt lat="50.547" lon="5.6716">
        <ele>284.69</ele>
        <time>2010-03-24T12:12:09Z</time>
      </trkpt>
      <trkpt lat="50.54562" lon="5.67491">
        <ele>273.63</ele>
        <time>2010-03-24T12:12:25Z</time>
      </trkpt>
      <trkpt lat="50.54446" lon="5.67661">
        <ele>265.94</ele>
        <time>2010-03-24T12:12:36Z</time>
      </trkpt>
      <trkpt lat="50.54438" lon="5.67675">
        <ele>264.98</ele>
        <time>2010-03-24T12:12:37Z</time>
      </trkpt>
      <trkpt lat="50.5443" lon="5.67692">
        <ele>263.54</ele>
        <time>2010-03-24T12:12:38Z</time>
      </trkpt>
      <trkpt lat="50.54426" lon="5.67712">
        <ele>262.58</ele>
        <time>2010-03-24T12:12:39Z</time>
      </trkpt>
      <trkpt lat="50.54425" lon="5.67733">
        <ele>261.14</ele>
        <time>2010-03-24T12:12:40Z</time>
      </trkpt>
      <trkpt lat="50.54425" lon="5.67754">
        <ele>259.69</ele>
        <time>2010-03-24T12:12:41Z</time>
      </trkpt>
      <trkpt lat="50.54426" lon="5.67777">
        <ele>258.25</ele>
        <time>2010-03-24T12:12:42Z</time>
      </trkpt>
      <trkpt lat="50.54427" lon="5.68045">
        <ele>242.87</ele>
        <time>2010-03-24T12:12:52Z</time>
      </trkpt>
      <trkpt lat="50.54426" lon="5.68245">
        <ele>230.85</ele>
        <time>2010-03-24T12:12:59Z</time>
      </trkpt>
      <trkpt lat="50.54422" lon="5.6827">
        <ele>228.93</ele>
        <time>2010-03-24T12:13:00Z</time>
      </trkpt>
      <trkpt lat="50.54384" lon="5.68392">
        <ele>218.36</ele>
        <time>2010-03-24T12:13:05Z</time>
      </trkpt>
      <trkpt lat="50.54374" lon="5.68411">
        <ele>216.91</ele>
        <time>2010-03-24T12:13:06Z</time>
      </trkpt>
      <trkpt lat="50.5435" lon="5.68456">
        <ele>212.11</ele>
        <time>2010-03-24T12:13:09Z</time>
      </trkpt>
      <trkpt lat="50.54345" lon="5.68472">
        <ele>210.67</ele>
        <time>2010-03-24T12:13:10Z</time>
      </trkpt>
      <trkpt lat="50.54346" lon="5.68489">
        <ele>209.22</ele>
        <time>2010-03-24T12:13:11Z</time>
      </trkpt>
      <trkpt lat="50.54348" lon="5.68508">
        <ele>208.26</ele>
        <time>2010-03-24T12:13:12Z</time>
      </trkpt>
      <trkpt lat="50.54353" lon="5.68528">
        <ele>206.82</ele>
        <time>2010-03-24T12:13:13Z</time>
      </trkpt>
      <trkpt lat="50.54386" lon="5.6877">
        <ele>193.84</ele>
        <time>2010-03-24T12:13:23Z</time>
      </trkpt>
      <trkpt lat="50.54406" lon="5.69042">
        <ele>175.58</ele>
        <time>2010-03-24T12:13:34Z</time>
      </trkpt>
      <trkpt lat="50.54406" lon="5.69062">
        <ele>174.62</ele>
        <time>2010-03-24T12:13:35Z</time>
      </trkpt>
      <trkpt lat="50.54404" lon="5.69083">
        <ele>173.66</ele>
        <time>2010-03-24T12:13:36Z</time>
      </trkpt>
      <trkpt lat="50.54401" lon="5.69103">
        <ele>173.17</ele>
        <time>2010-03-24T12:13:37Z</time>
      </trkpt>
      <trkpt lat="50.54396" lon="5.69124">
        <ele>172.69</ele>
        <time>2010-03-24T12:13:38Z</time>
      </trkpt>
      <trkpt lat="50.5439" lon="5.69144">
        <ele>172.21</ele>
        <time>2010-03-24T12:13:39Z</time>
      </trkpt>
      <trkpt lat="50.54383" lon="5.69163">
        <ele>171.73</ele>
        <time>2010-03-24T12:13:40Z</time>
      </trkpt>
      <trkpt lat="50.54374" lon="5.69183">
        <ele>171.25</ele>
        <time>2010-03-24T12:13:41Z</time>
      </trkpt>
      <trkpt lat="50.54363" lon="5.692">
        <ele>171.25</ele>
        <time>2010-03-24T12:13:42Z</time>
      </trkpt>
      <trkpt lat="50.54351" lon="5.69216">
        <ele>171.25</ele>
        <time>2010-03-24T12:13:43Z</time>
      </trkpt>
      <trkpt lat="50.54337" lon="5.6923">
        <ele>170.77</ele>
        <time>2010-03-24T12:13:44Z</time>
      </trkpt>
      <trkpt lat="50.54322" lon="5.69242">
        <ele>171.25</ele>
        <time>2010-03-24T12:13:45Z</time>
      </trkpt>
      <trkpt lat="50.54307" lon="5.69251">
        <ele>171.73</ele>
        <time>2010-03-24T12:13:46Z</time>
      </trkpt>
      <trkpt lat="50.54291" lon="5.6926">
        <ele>171.25</ele>
        <time>2010-03-24T12:13:47Z</time>
      </trkpt>
      <trkpt lat="50.54194" lon="5.69306">
        <ele>175.1</ele>
        <time>2010-03-24T12:13:53Z</time>
      </trkpt>
      <trkpt lat="50.54177" lon="5.69308">
        <ele>175.58</ele>
        <time>2010-03-24T12:13:54Z</time>
      </trkpt>
      <trkpt lat="50.54162" lon="5.69306">
        <ele>176.54</ele>
        <time>2010-03-24T12:13:55Z</time>
      </trkpt>
      <trkpt lat="50.54096" lon="5.69281">
        <ele>178.94</ele>
        <time>2010-03-24T12:14:01Z</time>
      </trkpt>
      <trkpt lat="50.53991" lon="5.69245">
        <ele>184.23</ele>
        <time>2010-03-24T12:14:09Z</time>
      </trkpt>
      <trkpt lat="50.53845" lon="5.69167">
        <ele>189.04</ele>
        <time>2010-03-24T12:14:19Z</time>
      </trkpt>
      <trkpt lat="50.53831" lon="5.69165">
        <ele>189.52</ele>
        <time>2010-03-24T12:14:20Z</time>
      </trkpt>
      <trkpt lat="50.53817" lon="5.69164">
        <ele>190</ele>
        <time>2010-03-24T12:14:21Z</time>
      </trkpt>
      <trkpt lat="50.53802" lon="5.69168">
        <ele>191.44</ele>
        <time>2010-03-24T12:14:22Z</time>
      </trkpt>
      <trkpt lat="50.53788" lon="5.69173">
        <ele>192.4</ele>
        <time>2010-03-24T12:14:23Z</time>
      </trkpt>
      <trkpt lat="50.53774" lon="5.69183">
        <ele>192.88</ele>
        <time>2010-03-24T12:14:24Z</time>
      </trkpt>
      <trkpt lat="50.5376" lon="5.69194">
        <ele>193.84</ele>
        <time>2010-03-24T12:14:25Z</time>
      </trkpt>
      <trkpt lat="50.53747" lon="5.69205">
        <ele>194.32</ele>
        <time>2010-03-24T12:14:26Z</time>
      </trkpt>
      <trkpt lat="50.53736" lon="5.69219">
        <ele>194.8</ele>
        <time>2010-03-24T12:14:27Z</time>
      </trkpt>
      <trkpt lat="50.53724" lon="5.69236">
        <ele>194.32</ele>
        <time>2010-03-24T12:14:28Z</time>
      </trkpt>
      <trkpt lat="50.53714" lon="5.69255">
        <ele>194.8</ele>
        <time>2010-03-24T12:14:29Z</time>
      </trkpt>
      <trkpt lat="50.53704" lon="5.69275">
        <ele>194.8</ele>
        <time>2010-03-24T12:14:30Z</time>
      </trkpt>
      <trkpt lat="50.53695" lon="5.69296">
        <ele>194.8</ele>
        <time>2010-03-24T12:14:31Z</time>
      </trkpt>
      <trkpt lat="50.53642" lon="5.695">
        <ele>196.25</ele>
        <time>2010-03-24T12:14:39Z</time>
      </trkpt>
      <trkpt lat="50.53618" lon="5.69746">
        <ele>201.53</ele>
        <time>2010-03-24T12:14:48Z</time>
      </trkpt>
      <trkpt lat="50.53604" lon="5.7001">
        <ele>200.57</ele>
        <time>2010-03-24T12:14:58Z</time>
      </trkpt>
      <trkpt lat="50.53573" lon="5.70441">
        <ele>201.05</ele>
        <time>2010-03-24T12:15:13Z</time>
      </trkpt>
      <trkpt lat="50.53542" lon="5.70777">
        <ele>211.63</ele>
        <time>2010-03-24T12:15:25Z</time>
      </trkpt>
      <trkpt lat="50.53544" lon="5.70799">
        <ele>212.59</ele>
        <time>2010-03-24T12:15:26Z</time>
      </trkpt>
      <trkpt lat="50.53547" lon="5.70819">
        <ele>213.07</ele>
        <time>2010-03-24T12:15:27Z</time>
      </trkpt>
      <trkpt lat="50.53557" lon="5.70873">
        <ele>215.47</ele>
        <time>2010-03-24T12:15:30Z</time>
      </trkpt>
      <trkpt lat="50.53557" lon="5.70889">
        <ele>215.95</ele>
        <time>2010-03-24T12:15:31Z</time>
      </trkpt>
      <trkpt lat="50.53554" lon="5.70904">
        <ele>216.43</ele>
        <time>2010-03-24T12:15:32Z</time>
      </trkpt>
      <trkpt lat="50.53547" lon="5.70912">
        <ele>217.4</ele>
        <time>2010-03-24T12:15:33Z</time>
      </trkpt>
      <trkpt lat="50.53538" lon="5.70916">
        <ele>217.88</ele>
        <time>2010-03-24T12:15:34Z</time>
      </trkpt>
      <trkpt lat="50.53527" lon="5.70915">
        <ele>218.36</ele>
        <time>2010-03-24T12:15:35Z</time>
      </trkpt>
      <trkpt lat="50.53517" lon="5.70909">
        <ele>219.32</ele>
        <time>2010-03-24T12:15:36Z</time>
      </trkpt>
      <trkpt lat="50.53507" lon="5.709">
        <ele>219.8</ele>
        <time>2010-03-24T12:15:37Z</time>
      </trkpt>
      <trkpt lat="50.53498" lon="5.7089">
        <ele>220.76</ele>
        <time>2010-03-24T12:15:38Z</time>
      </trkpt>
      <trkpt lat="50.53401" lon="5.70789">
        <ele>225.09</ele>
        <time>2010-03-24T12:15:46Z</time>
      </trkpt>
      <trkpt lat="50.53244" lon="5.70633">
        <ele>226.05</ele>
        <time>2010-03-24T12:15:59Z</time>
      </trkpt>
      <trkpt lat="50.53233" lon="5.70628">
        <ele>226.53</ele>
        <time>2010-03-24T12:16:00Z</time>
      </trkpt>
      <trkpt lat="50.53221" lon="5.70628">
        <ele>226.53</ele>
        <time>2010-03-24T12:16:01Z</time>
      </trkpt>
      <trkpt lat="50.5321" lon="5.70632">
        <ele>226.05</ele>
        <time>2010-03-24T12:16:02Z</time>
      </trkpt>
      <trkpt lat="50.532" lon="5.70645">
        <ele>226.05</ele>
        <time>2010-03-24T12:16:03Z</time>
      </trkpt>
      <trkpt lat="50.53191" lon="5.70661">
        <ele>226.05</ele>
        <time>2010-03-24T12:16:04Z</time>
      </trkpt>
      <trkpt lat="50.53184" lon="5.70678">
        <ele>226.05</ele>
        <time>2010-03-24T12:16:05Z</time>
      </trkpt>
      <trkpt lat="50.5318" lon="5.70697">
        <ele>226.05</ele>
        <time>2010-03-24T12:16:06Z</time>
      </trkpt>
      <trkpt lat="50.5318" lon="5.70716">
        <ele>226.53</ele>
        <time>2010-03-24T12:16:07Z</time>
      </trkpt>
      <trkpt lat="50.53182" lon="5.70735">
        <ele>226.53</ele>
        <time>2010-03-24T12:16:08Z</time>
      </trkpt>
      <trkpt lat="50.53186" lon="5.70753">
        <ele>227.01</ele>
        <time>2010-03-24T12:16:09Z</time>
      </trkpt>
      <trkpt lat="50.5319" lon="5.70772">
        <ele>227.01</ele>
        <time>2010-03-24T12:16:10Z</time>
      </trkpt>
      <trkpt lat="50.53193" lon="5.70792">
        <ele>227.97</ele>
        <time>2010-03-24T12:16:11Z</time>
      </trkpt>
      <trkpt lat="50.53203" lon="5.70868">
        <ele>230.37</ele>
        <time>2010-03-24T12:16:15Z</time>
      </trkpt>
      <trkpt lat="50.53204" lon="5.70888">
        <ele>231.33</ele>
        <time>2010-03-24T12:16:16Z</time>
      </trkpt>
      <trkpt lat="50.53202" lon="5.70908">
        <ele>231.81</ele>
        <time>2010-03-24T12:16:17Z</time>
      </trkpt>
      <trkpt lat="50.53198" lon="5.70927">
        <ele>232.3</ele>
        <time>2010-03-24T12:16:18Z</time>
      </trkpt>
      <trkpt lat="50.53193" lon="5.70946">
        <ele>233.26</ele>
        <time>2010-03-24T12:16:19Z</time>
      </trkpt>
      <trkpt lat="50.53185" lon="5.70963">
        <ele>234.22</ele>
        <time>2010-03-24T12:16:20Z</time>
      </trkpt>
      <trkpt lat="50.53176" lon="5.70978">
        <ele>235.18</ele>
        <time>2010-03-24T12:16:21Z</time>
      </trkpt>
      <trkpt lat="50.53165" lon="5.70992">
        <ele>236.14</ele>
        <time>2010-03-24T12:16:22Z</time>
      </trkpt>
      <trkpt lat="50.53153" lon="5.71005">
        <ele>237.1</ele>
        <time>2010-03-24T12:16:23Z</time>
      </trkpt>
      <trkpt lat="50.53141" lon="5.71016">
        <ele>237.58</ele>
        <time>2010-03-24T12:16:24Z</time>
      </trkpt>
      <trkpt lat="50.53129" lon="5.71026">
        <ele>238.54</ele>
        <time>2010-03-24T12:16:25Z</time>
      </trkpt>
      <trkpt lat="50.53061" lon="5.71075">
        <ele>242.87</ele>
        <time>2010-03-24T12:16:31Z</time>
      </trkpt>
      <trkpt lat="50.53053" lon="5.71087">
        <ele>242.87</ele>
        <time>2010-03-24T12:16:32Z</time>
      </trkpt>
      <trkpt lat="50.53046" lon="5.71102">
        <ele>243.35</ele>
        <time>2010-03-24T12:16:33Z</time>
      </trkpt>
      <trkpt lat="50.53042" lon="5.71119">
        <ele>243.35</ele>
        <time>2010-03-24T12:16:34Z</time>
      </trkpt>
      <trkpt lat="50.5304" lon="5.71137">
        <ele>243.35</ele>
        <time>2010-03-24T12:16:35Z</time>
      </trkpt>
      <trkpt lat="50.53038" lon="5.71156">
        <ele>243.35</ele>
        <time>2010-03-24T12:16:36Z</time>
      </trkpt>
      <trkpt lat="50.53037" lon="5.71175">
        <ele>243.83</ele>
        <time>2010-03-24T12:16:37Z</time>
      </trkpt>
      <trkpt lat="50.53033" lon="5.71325">
        <ele>249.12</ele>
        <time>2010-03-24T12:16:45Z</time>
      </trkpt>
      <trkpt lat="50.53035" lon="5.71343">
        <ele>249.12</ele>
        <time>2010-03-24T12:16:46Z</time>
      </trkpt>
      <trkpt lat="50.53042" lon="5.71448">
        <ele>250.56</ele>
        <time>2010-03-24T12:16:52Z</time>
      </trkpt>
      <trkpt lat="50.53016" lon="5.71647">
        <ele>254.89</ele>
        <time>2010-03-24T12:17:03Z</time>
      </trkpt>
      <trkpt lat="50.52977" lon="5.7183">
        <ele>261.14</ele>
        <time>2010-03-24T12:17:14Z</time>
      </trkpt>
      <trkpt lat="50.52943" lon="5.71937">
        <ele>264.5</ele>
        <time>2010-03-24T12:17:22Z</time>
      </trkpt>
      <trkpt lat="50.52936" lon="5.71945">
        <ele>264.98</ele>
        <time>2010-03-24T12:17:23Z</time>
      </trkpt>
      <trkpt lat="50.52928" lon="5.71952">
        <ele>264.98</ele>
        <time>2010-03-24T12:17:24Z</time>
      </trkpt>
      <trkpt lat="50.52919" lon="5.71958">
        <ele>264.98</ele>
        <time>2010-03-24T12:17:25Z</time>
      </trkpt>
      <trkpt lat="50.5291" lon="5.71965">
        <ele>264.98</ele>
        <time>2010-03-24T12:17:26Z</time>
      </trkpt>
      <trkpt lat="50.51987" lon="5.72746">
        <ele>257.29</ele>
        <time>2010-03-24T12:19:48Z</time>
      </trkpt>
      <trkpt lat="50.51974" lon="5.72764">
        <ele>256.33</ele>
        <time>2010-03-24T12:19:54Z</time>
      </trkpt>
      <trkpt lat="50.51972" lon="5.72765">
        <ele>256.81</ele>
        <time>2010-03-24T12:20:11Z</time>
      </trkpt>
      <trkpt lat="50.51972" lon="5.72765">
        <ele>256.81</ele>
        <time>2010-03-24T12:20:15Z</time>
      </trkpt>
      <trkpt lat="50.51959" lon="5.7277">
        <ele>254.89</ele>
        <time>2010-03-24T13:34:49Z</time>
      </trkpt>
      <trkpt lat="50.51955" lon="5.72772">
        <ele>254.89</ele>
        <time>2010-03-24T13:34:50Z</time>
      </trkpt>
      <trkpt lat="50.5195" lon="5.72775">
        <ele>254.89</ele>
        <time>2010-03-24T13:34:51Z</time>
      </trkpt>
      <trkpt lat="50.51945" lon="5.72779">
        <ele>254.89</ele>
        <time>2010-03-24T13:34:52Z</time>
      </trkpt>
      <trkpt lat="50.5194" lon="5.72783">
        <ele>254.41</ele>
        <time>2010-03-24T13:34:53Z</time>
      </trkpt>
      <trkpt lat="50.51869" lon="5.72835">
        <ele>253.93</ele>
        <time>2010-03-24T13:35:02Z</time>
      </trkpt>
      <trkpt lat="50.51743" lon="5.72885">
        <ele>255.37</ele>
        <time>2010-03-24T13:35:13Z</time>
      </trkpt>
      <trkpt lat="50.50431" lon="5.72761">
        <ele>207.3</ele>
        <time>2010-03-24T13:36:29Z</time>
      </trkpt>
      <trkpt lat="50.50415" lon="5.7275">
        <ele>206.82</ele>
        <time>2010-03-24T13:36:30Z</time>
      </trkpt>
      <trkpt lat="50.504" lon="5.72736">
        <ele>206.34</ele>
        <time>2010-03-24T13:36:31Z</time>
      </trkpt>
      <trkpt lat="50.50385" lon="5.7272">
        <ele>205.38</ele>
        <time>2010-03-24T13:36:32Z</time>
      </trkpt>
      <trkpt lat="50.50371" lon="5.72703">
        <ele>204.9</ele>
        <time>2010-03-24T13:36:33Z</time>
      </trkpt>
      <trkpt lat="50.50299" lon="5.72623">
        <ele>202.49</ele>
        <time>2010-03-24T13:36:38Z</time>
      </trkpt>
      <trkpt lat="50.50283" lon="5.72612">
        <ele>202.01</ele>
        <time>2010-03-24T13:36:39Z</time>
      </trkpt>
      <trkpt lat="50.50266" lon="5.72604">
        <ele>201.53</ele>
        <time>2010-03-24T13:36:40Z</time>
      </trkpt>
      <trkpt lat="50.50248" lon="5.72601">
        <ele>201.05</ele>
        <time>2010-03-24T13:36:41Z</time>
      </trkpt>
      <trkpt lat="50.50231" lon="5.72604">
        <ele>201.05</ele>
        <time>2010-03-24T13:36:42Z</time>
      </trkpt>
      <trkpt lat="50.50213" lon="5.72608">
        <ele>200.57</ele>
        <time>2010-03-24T13:36:43Z</time>
      </trkpt>
      <trkpt lat="50.50196" lon="5.72617">
        <ele>200.57</ele>
        <time>2010-03-24T13:36:44Z</time>
      </trkpt>
      <trkpt lat="50.50181" lon="5.72625">
        <ele>200.09</ele>
        <time>2010-03-24T13:36:45Z</time>
      </trkpt>
      <trkpt lat="50.50138" lon="5.72649">
        <ele>198.65</ele>
        <time>2010-03-24T13:36:48Z</time>
      </trkpt>
      <trkpt lat="50.50123" lon="5.72652">
        <ele>198.65</ele>
        <time>2010-03-24T13:36:49Z</time>
      </trkpt>
      <trkpt lat="50.50108" lon="5.7265">
        <ele>197.69</ele>
        <time>2010-03-24T13:36:50Z</time>
      </trkpt>
      <trkpt lat="50.50093" lon="5.72643">
        <ele>197.21</ele>
        <time>2010-03-24T13:36:51Z</time>
      </trkpt>
      <trkpt lat="50.50078" lon="5.72631">
        <ele>196.73</ele>
        <time>2010-03-24T13:36:52Z</time>
      </trkpt>
      <trkpt lat="50.50065" lon="5.72614">
        <ele>195.77</ele>
        <time>2010-03-24T13:36:53Z</time>
      </trkpt>
      <trkpt lat="50.50052" lon="5.72598">
        <ele>194.8</ele>
        <time>2010-03-24T13:36:54Z</time>
      </trkpt>
      <trkpt lat="50.49845" lon="5.72179">
        <ele>189.04</ele>
        <time>2010-03-24T13:37:14Z</time>
      </trkpt>
      <trkpt lat="50.49809" lon="5.72098">
        <ele>187.11</ele>
        <time>2010-03-24T13:37:18Z</time>
      </trkpt>
      <trkpt lat="50.49798" lon="5.72082">
        <ele>187.11</ele>
        <time>2010-03-24T13:37:19Z</time>
      </trkpt>
      <trkpt lat="50.49784" lon="5.7207">
        <ele>186.63</ele>
        <time>2010-03-24T13:37:20Z</time>
      </trkpt>
      <trkpt lat="50.4977" lon="5.72061">
        <ele>186.15</ele>
        <time>2010-03-24T13:37:21Z</time>
      </trkpt>
      <trkpt lat="50.49755" lon="5.72056">
        <ele>185.67</ele>
        <time>2010-03-24T13:37:22Z</time>
      </trkpt>
      <trkpt lat="50.49739" lon="5.72054">
        <ele>185.19</ele>
        <time>2010-03-24T13:37:23Z</time>
      </trkpt>
      <trkpt lat="50.49724" lon="5.72053">
        <ele>184.71</ele>
        <time>2010-03-24T13:37:24Z</time>
      </trkpt>
      <trkpt lat="50.49117" lon="5.72006">
        <ele>173.17</ele>
        <time>2010-03-24T13:38:00Z</time>
      </trkpt>
      <trkpt lat="50.49018" lon="5.71971">
        <ele>171.25</ele>
        <time>2010-03-24T13:38:08Z</time>
      </trkpt>
      <trkpt lat="50.489" lon="5.71915">
        <ele>168.37</ele>
        <time>2010-03-24T13:38:18Z</time>
      </trkpt>
      <trkpt lat="50.48793" lon="5.71929">
        <ele>165.48</ele>
        <time>2010-03-24T13:38:25Z</time>
      </trkpt>
      <trkpt lat="50.48601" lon="5.71977">
        <ele>163.56</ele>
        <time>2010-03-24T13:38:37Z</time>
      </trkpt>
      <trkpt lat="50.48587" lon="5.71976">
        <ele>163.56</ele>
        <time>2010-03-24T13:38:38Z</time>
      </trkpt>
      <trkpt lat="50.48574" lon="5.71971">
        <ele>163.08</ele>
        <time>2010-03-24T13:38:39Z</time>
      </trkpt>
      <trkpt lat="50.48561" lon="5.71962">
        <ele>162.6</ele>
        <time>2010-03-24T13:38:40Z</time>
      </trkpt>
      <trkpt lat="50.48549" lon="5.71951">
        <ele>162.6</ele>
        <time>2010-03-24T13:38:41Z</time>
      </trkpt>
      <trkpt lat="50.48537" lon="5.71939">
        <ele>162.12</ele>
        <time>2010-03-24T13:38:42Z</time>
      </trkpt>
      <trkpt lat="50.48525" lon="5.71925">
        <ele>161.64</ele>
        <time>2010-03-24T13:38:43Z</time>
      </trkpt>
      <trkpt lat="50.48257" lon="5.71584">
        <ele>149.62</ele>
        <time>2010-03-24T13:39:06Z</time>
      </trkpt>
      <trkpt lat="50.48227" lon="5.71511">
        <ele>146.74</ele>
        <time>2010-03-24T13:39:10Z</time>
      </trkpt>
      <trkpt lat="50.48218" lon="5.71496">
        <ele>145.78</ele>
        <time>2010-03-24T13:39:11Z</time>
      </trkpt>
      <trkpt lat="50.48207" lon="5.71483">
        <ele>145.78</ele>
        <time>2010-03-24T13:39:12Z</time>
      </trkpt>
      <trkpt lat="50.48194" lon="5.71472">
        <ele>145.3</ele>
        <time>2010-03-24T13:39:13Z</time>
      </trkpt>
      <trkpt lat="50.48181" lon="5.71464">
        <ele>144.34</ele>
        <time>2010-03-24T13:39:14Z</time>
      </trkpt>
      <trkpt lat="50.48168" lon="5.71458">
        <ele>143.85</ele>
        <time>2010-03-24T13:39:15Z</time>
      </trkpt>
      <trkpt lat="50.48083" lon="5.71417">
        <ele>140.01</ele>
        <time>2010-03-24T13:39:22Z</time>
      </trkpt>
      <trkpt lat="50.48074" lon="5.71408">
        <ele>139.53</ele>
        <time>2010-03-24T13:39:23Z</time>
      </trkpt>
      <trkpt lat="50.48028" lon="5.71343">
        <ele>135.2</ele>
        <time>2010-03-24T13:39:30Z</time>
      </trkpt>
      <trkpt lat="50.48021" lon="5.71328">
        <ele>133.28</ele>
        <time>2010-03-24T13:39:39Z</time>
      </trkpt>
      <trkpt lat="50.47999" lon="5.71267">
        <ele>131.84</ele>
        <time>2010-03-24T13:39:46Z</time>
      </trkpt>
      <trkpt lat="50.47995" lon="5.71253">
        <ele>131.36</ele>
        <time>2010-03-24T13:39:47Z</time>
      </trkpt>
      <trkpt lat="50.47993" lon="5.71237">
        <ele>131.36</ele>
        <time>2010-03-24T13:39:48Z</time>
      </trkpt>
      <trkpt lat="50.47966" lon="5.70955">
        <ele>129.43</ele>
        <time>2010-03-24T13:40:03Z</time>
      </trkpt>
      <trkpt lat="50.47988" lon="5.70771">
        <ele>127.99</ele>
        <time>2010-03-24T13:40:11Z</time>
      </trkpt>
      <trkpt lat="50.48008" lon="5.70669">
        <ele>127.99</ele>
        <time>2010-03-24T13:40:17Z</time>
      </trkpt>
      <trkpt lat="50.48012" lon="5.70659">
        <ele>127.99</ele>
        <time>2010-03-24T13:40:18Z</time>
      </trkpt>
      <trkpt lat="50.48017" lon="5.70651">
        <ele>128.47</ele>
        <time>2010-03-24T13:40:19Z</time>
      </trkpt>
      <trkpt lat="50.4802" lon="5.70643">
        <ele>128.47</ele>
        <time>2010-03-24T13:40:20Z</time>
      </trkpt>
      <trkpt lat="50.48022" lon="5.70634">
        <ele>128.47</ele>
        <time>2010-03-24T13:40:21Z</time>
      </trkpt>
      <trkpt lat="50.48021" lon="5.70624">
        <ele>128.47</ele>
        <time>2010-03-24T13:40:22Z</time>
      </trkpt>
      <trkpt lat="50.48018" lon="5.70613">
        <ele>128.47</ele>
        <time>2010-03-24T13:40:23Z</time>
      </trkpt>
      <trkpt lat="50.48015" lon="5.706">
        <ele>128.47</ele>
        <time>2010-03-24T13:40:24Z</time>
      </trkpt>
      <trkpt lat="50.48012" lon="5.70585">
        <ele>128.47</ele>
        <time>2010-03-24T13:40:25Z</time>
      </trkpt>
      <trkpt lat="50.4801" lon="5.70568">
        <ele>128.47</ele>
        <time>2010-03-24T13:40:26Z</time>
      </trkpt>
      <trkpt lat="50.47987" lon="5.70295">
        <ele>130.88</ele>
        <time>2010-03-24T13:40:39Z</time>
      </trkpt>
      <trkpt lat="50.47964" lon="5.70064">
        <ele>131.36</ele>
        <time>2010-03-24T13:40:50Z</time>
      </trkpt>
      <trkpt lat="50.47918" lon="5.69851">
        <ele>130.4</ele>
        <time>2010-03-24T13:41:02Z</time>
      </trkpt>
      <trkpt lat="50.47866" lon="5.69632">
        <ele>132.32</ele>
        <time>2010-03-24T13:41:17Z</time>
      </trkpt>
      <trkpt lat="50.4786" lon="5.69614">
        <ele>132.32</ele>
        <time>2010-03-24T13:41:19Z</time>
      </trkpt>
      <trkpt lat="50.47856" lon="5.69604">
        <ele>132.32</ele>
        <time>2010-03-24T13:41:20Z</time>
      </trkpt>
      <trkpt lat="50.47794" lon="5.69465">
        <ele>132.8</ele>
        <time>2010-03-24T13:41:31Z</time>
      </trkpt>
      <trkpt lat="50.47726" lon="5.69312">
        <ele>133.76</ele>
        <time>2010-03-24T13:41:44Z</time>
      </trkpt>
      <trkpt lat="50.47666" lon="5.69174">
        <ele>132.8</ele>
        <time>2010-03-24T13:41:59Z</time>
      </trkpt>
      <trkpt lat="50.47595" lon="5.6901">
        <ele>133.76</ele>
        <time>2010-03-24T13:42:10Z</time>
      </trkpt>
      <trkpt lat="50.47529" lon="5.68828">
        <ele>135.2</ele>
        <time>2010-03-24T13:42:21Z</time>
      </trkpt>
      <trkpt lat="50.4748" lon="5.68475">
        <ele>134.24</ele>
        <time>2010-03-24T13:42:39Z</time>
      </trkpt>
      <trkpt lat="50.47426" lon="5.68111">
        <ele>133.28</ele>
        <time>2010-03-24T13:42:57Z</time>
      </trkpt>
      <trkpt lat="50.47401" lon="5.67937">
        <ele>131.36</ele>
        <time>2010-03-24T13:43:08Z</time>
      </trkpt>
      <trkpt lat="50.47387" lon="5.67837">
        <ele>130.4</ele>
        <time>2010-03-24T13:43:20Z</time>
      </trkpt>
      <trkpt lat="50.47386" lon="5.67823">
        <ele>130.4</ele>
        <time>2010-03-24T13:43:30Z</time>
      </trkpt>
      <trkpt lat="50.4738" lon="5.67785">
        <ele>130.4</ele>
        <time>2010-03-24T13:43:51Z</time>
      </trkpt>
      <trkpt lat="50.47369" lon="5.67714">
        <ele>128.95</ele>
        <time>2010-03-24T13:44:03Z</time>
      </trkpt>
      <trkpt lat="50.47358" lon="5.67632">
        <ele>127.99</ele>
        <time>2010-03-24T13:44:13Z</time>
      </trkpt>
      <trkpt lat="50.47358" lon="5.67628">
        <ele>128.47</ele>
        <time>2010-03-24T13:44:23Z</time>
      </trkpt>
      <trkpt lat="50.47357" lon="5.67595">
        <ele>130.4</ele>
        <time>2010-03-24T13:44:38Z</time>
      </trkpt>
      <trkpt lat="50.47357" lon="5.67588">
        <ele>130.4</ele>
        <time>2010-03-24T13:44:51Z</time>
      </trkpt>
      <trkpt lat="50.47355" lon="5.6758">
        <ele>121.74</ele>
        <time>2010-03-24T13:45:08Z</time>
      </trkpt>
      <trkpt lat="50.47351" lon="5.67579">
        <ele>121.74</ele>
        <time>2010-03-24T13:45:09Z</time>
      </trkpt>
      <trkpt lat="50.47346" lon="5.6758">
        <ele>122.22</ele>
        <time>2010-03-24T13:45:10Z</time>
      </trkpt>
      <trkpt lat="50.47341" lon="5.67581">
        <ele>123.67</ele>
        <time>2010-03-24T13:45:11Z</time>
      </trkpt>
      <trkpt lat="50.47334" lon="5.67582">
        <ele>124.63</ele>
        <time>2010-03-24T13:45:12Z</time>
      </trkpt>
      <trkpt lat="50.47326" lon="5.67582">
        <ele>126.07</ele>
        <time>2010-03-24T13:45:13Z</time>
      </trkpt>
      <trkpt lat="50.47235" lon="5.67584">
        <ele>130.88</ele>
        <time>2010-03-24T13:45:24Z</time>
      </trkpt>
      <trkpt lat="50.47136" lon="5.67621">
        <ele>137.61</ele>
        <time>2010-03-24T13:45:34Z</time>
      </trkpt>
      <trkpt lat="50.47126" lon="5.67629">
        <ele>138.09</ele>
        <time>2010-03-24T13:45:35Z</time>
      </trkpt>
      <trkpt lat="50.47117" lon="5.67641">
        <ele>138.09</ele>
        <time>2010-03-24T13:45:36Z</time>
      </trkpt>
      <trkpt lat="50.47109" lon="5.67654">
        <ele>138.09</ele>
        <time>2010-03-24T13:45:37Z</time>
      </trkpt>
      <trkpt lat="50.47102" lon="5.6767">
        <ele>138.57</ele>
        <time>2010-03-24T13:45:38Z</time>
      </trkpt>
      <trkpt lat="50.47096" lon="5.67686">
        <ele>138.57</ele>
        <time>2010-03-24T13:45:39Z</time>
      </trkpt>
      <trkpt lat="50.4704" lon="5.6783">
        <ele>139.53</ele>
        <time>2010-03-24T13:45:47Z</time>
      </trkpt>
      <trkpt lat="50.47032" lon="5.67843">
        <ele>140.01</ele>
        <time>2010-03-24T13:45:48Z</time>
      </trkpt>
      <trkpt lat="50.47022" lon="5.67853">
        <ele>140.49</ele>
        <time>2010-03-24T13:45:49Z</time>
      </trkpt>
      <trkpt lat="50.47011" lon="5.67859">
        <ele>140.97</ele>
        <time>2010-03-24T13:45:50Z</time>
      </trkpt>
      <trkpt lat="50.46999" lon="5.67861">
        <ele>141.45</ele>
        <time>2010-03-24T13:45:51Z</time>
      </trkpt>
      <trkpt lat="50.46986" lon="5.67861">
        <ele>141.93</ele>
        <time>2010-03-24T13:45:52Z</time>
      </trkpt>
      <trkpt lat="50.46827" lon="5.67856">
        <ele>146.74</ele>
        <time>2010-03-24T13:46:03Z</time>
      </trkpt>
      <trkpt lat="50.46692" lon="5.67868">
        <ele>149.14</ele>
        <time>2010-03-24T13:46:12Z</time>
      </trkpt>
      <trkpt lat="50.46675" lon="5.67864">
        <ele>149.62</ele>
        <time>2010-03-24T13:46:13Z</time>
      </trkpt>
      <trkpt lat="50.46523" lon="5.67809">
        <ele>154.43</ele>
        <time>2010-03-24T13:46:23Z</time>
      </trkpt>
      <trkpt lat="50.46404" lon="5.6773">
        <ele>156.83</ele>
        <time>2010-03-24T13:46:32Z</time>
      </trkpt>
      <trkpt lat="50.46261" lon="5.67565">
        <ele>161.16</ele>
        <time>2010-03-24T13:46:43Z</time>
      </trkpt>
      <trkpt lat="50.46114" lon="5.67396">
        <ele>165.48</ele>
        <time>2010-03-24T13:46:54Z</time>
      </trkpt>
      <trkpt lat="50.46098" lon="5.67389">
        <ele>165.48</ele>
        <time>2010-03-24T13:46:55Z</time>
      </trkpt>
      <trkpt lat="50.46082" lon="5.67385">
        <ele>165.96</ele>
        <time>2010-03-24T13:46:56Z</time>
      </trkpt>
      <trkpt lat="50.46065" lon="5.67387">
        <ele>165.96</ele>
        <time>2010-03-24T13:46:57Z</time>
      </trkpt>
      <trkpt lat="50.4605" lon="5.67392">
        <ele>165.96</ele>
        <time>2010-03-24T13:46:58Z</time>
      </trkpt>
      <trkpt lat="50.46034" lon="5.67401">
        <ele>166.45</ele>
        <time>2010-03-24T13:46:59Z</time>
      </trkpt>
      <trkpt lat="50.4602" lon="5.67412">
        <ele>166.45</ele>
        <time>2010-03-24T13:47:00Z</time>
      </trkpt>
      <trkpt lat="50.45989" lon="5.67431">
        <ele>167.41</ele>
        <time>2010-03-24T13:47:02Z</time>
      </trkpt>
      <trkpt lat="50.45974" lon="5.67435">
        <ele>167.89</ele>
        <time>2010-03-24T13:47:03Z</time>
      </trkpt>
      <trkpt lat="50.45957" lon="5.67435">
        <ele>168.85</ele>
        <time>2010-03-24T13:47:04Z</time>
      </trkpt>
      <trkpt lat="50.4582" lon="5.67396">
        <ele>171.25</ele>
        <time>2010-03-24T13:47:12Z</time>
      </trkpt>
      <trkpt lat="50.45633" lon="5.67312">
        <ele>174.14</ele>
        <time>2010-03-24T13:47:23Z</time>
      </trkpt>
      <trkpt lat="50.45463" lon="5.67284">
        <ele>177.02</ele>
        <time>2010-03-24T13:47:34Z</time>
      </trkpt>
      <trkpt lat="50.45453" lon="5.6727">
        <ele>177.98</ele>
        <time>2010-03-24T13:47:35Z</time>
      </trkpt>
      <trkpt lat="50.45446" lon="5.67252">
        <ele>177.98</ele>
        <time>2010-03-24T13:47:36Z</time>
      </trkpt>
      <trkpt lat="50.4544" lon="5.67233">
        <ele>178.46</ele>
        <time>2010-03-24T13:47:37Z</time>
      </trkpt>
      <trkpt lat="50.45436" lon="5.67211">
        <ele>178.94</ele>
        <time>2010-03-24T13:47:38Z</time>
      </trkpt>
      <trkpt lat="50.45432" lon="5.67187">
        <ele>179.42</ele>
        <time>2010-03-24T13:47:39Z</time>
      </trkpt>
      <trkpt lat="50.45412" lon="5.66973">
        <ele>182.79</ele>
        <time>2010-03-24T13:47:47Z</time>
      </trkpt>
      <trkpt lat="50.45406" lon="5.66919">
        <ele>183.75</ele>
        <time>2010-03-24T13:47:49Z</time>
      </trkpt>
      <trkpt lat="50.45385" lon="5.6685">
        <ele>185.19</ele>
        <time>2010-03-24T13:47:52Z</time>
      </trkpt>
      <trkpt lat="50.45372" lon="5.66832">
        <ele>185.19</ele>
        <time>2010-03-24T13:47:53Z</time>
      </trkpt>
      <trkpt lat="50.45359" lon="5.66816">
        <ele>185.19</ele>
        <time>2010-03-24T13:47:54Z</time>
      </trkpt>
      <trkpt lat="50.45343" lon="5.66805">
        <ele>185.67</ele>
        <time>2010-03-24T13:47:55Z</time>
      </trkpt>
      <trkpt lat="50.45325" lon="5.66799">
        <ele>185.67</ele>
        <time>2010-03-24T13:47:56Z</time>
      </trkpt>
      <trkpt lat="50.45293" lon="5.66793">
        <ele>186.15</ele>
        <time>2010-03-24T13:47:58Z</time>
      </trkpt>
      <trkpt lat="50.45277" lon="5.66794">
        <ele>186.15</ele>
        <time>2010-03-24T13:47:59Z</time>
      </trkpt>
      <trkpt lat="50.4526" lon="5.66797">
        <ele>187.11</ele>
        <time>2010-03-24T13:48:00Z</time>
      </trkpt>
      <trkpt lat="50.45244" lon="5.66801">
        <ele>187.11</ele>
        <time>2010-03-24T13:48:01Z</time>
      </trkpt>
      <trkpt lat="50.45015" lon="5.6685">
        <ele>193.36</ele>
        <time>2010-03-24T13:48:15Z</time>
      </trkpt>
      <trkpt lat="50.44999" lon="5.66844">
        <ele>193.84</ele>
        <time>2010-03-24T13:48:16Z</time>
      </trkpt>
      <trkpt lat="50.44983" lon="5.66836">
        <ele>194.32</ele>
        <time>2010-03-24T13:48:17Z</time>
      </trkpt>
      <trkpt lat="50.44968" lon="5.66824">
        <ele>194.32</ele>
        <time>2010-03-24T13:48:18Z</time>
      </trkpt>
      <trkpt lat="50.44953" lon="5.66811">
        <ele>194.8</ele>
        <time>2010-03-24T13:48:19Z</time>
      </trkpt>
      <trkpt lat="50.44768" lon="5.66682">
        <ele>200.09</ele>
        <time>2010-03-24T13:48:30Z</time>
      </trkpt>
      <trkpt lat="50.44634" lon="5.66668">
        <ele>202.98</ele>
        <time>2010-03-24T13:48:38Z</time>
      </trkpt>
      <trkpt lat="50.44464" lon="5.66668">
        <ele>207.78</ele>
        <time>2010-03-24T13:48:49Z</time>
      </trkpt>
      <trkpt lat="50.4436" lon="5.66667">
        <ele>212.59</ele>
        <time>2010-03-24T13:48:56Z</time>
      </trkpt>
      <trkpt lat="50.44347" lon="5.66662">
        <ele>213.07</ele>
        <time>2010-03-24T13:48:57Z</time>
      </trkpt>
      <trkpt lat="50.44335" lon="5.66655">
        <ele>214.03</ele>
        <time>2010-03-24T13:48:58Z</time>
      </trkpt>
      <trkpt lat="50.44325" lon="5.66649">
        <ele>214.51</ele>
        <time>2010-03-24T13:48:59Z</time>
      </trkpt>
      <trkpt lat="50.44317" lon="5.66643">
        <ele>214.99</ele>
        <time>2010-03-24T13:49:00Z</time>
      </trkpt>
      <trkpt lat="50.44284" lon="5.66611">
        <ele>215.95</ele>
        <time>2010-03-24T13:49:07Z</time>
      </trkpt>
      <trkpt lat="50.44235" lon="5.66545">
        <ele>219.32</ele>
        <time>2010-03-24T13:49:13Z</time>
      </trkpt>
      <trkpt lat="50.44193" lon="5.66497">
        <ele>222.2</ele>
        <time>2010-03-24T13:49:17Z</time>
      </trkpt>
      <trkpt lat="50.4418" lon="5.66489">
        <ele>222.68</ele>
        <time>2010-03-24T13:49:18Z</time>
      </trkpt>
      <trkpt lat="50.44167" lon="5.66484">
        <ele>223.64</ele>
        <time>2010-03-24T13:49:19Z</time>
      </trkpt>
      <trkpt lat="50.44153" lon="5.66484">
        <ele>224.61</ele>
        <time>2010-03-24T13:49:20Z</time>
      </trkpt>
      <trkpt lat="50.4414" lon="5.66491">
        <ele>225.09</ele>
        <time>2010-03-24T13:49:21Z</time>
      </trkpt>
      <trkpt lat="50.44128" lon="5.66501">
        <ele>225.57</ele>
        <time>2010-03-24T13:49:22Z</time>
      </trkpt>
      <trkpt lat="50.4412" lon="5.66516">
        <ele>227.01</ele>
        <time>2010-03-24T13:49:23Z</time>
      </trkpt>
      <trkpt lat="50.44112" lon="5.66533">
        <ele>227.97</ele>
        <time>2010-03-24T13:49:24Z</time>
      </trkpt>
      <trkpt lat="50.44105" lon="5.66554">
        <ele>228.45</ele>
        <time>2010-03-24T13:49:25Z</time>
      </trkpt>
      <trkpt lat="50.441" lon="5.66575">
        <ele>229.41</ele>
        <time>2010-03-24T13:49:26Z</time>
      </trkpt>
      <trkpt lat="50.44097" lon="5.66597">
        <ele>230.37</ele>
        <time>2010-03-24T13:49:27Z</time>
      </trkpt>
      <trkpt lat="50.44094" lon="5.66619">
        <ele>230.85</ele>
        <time>2010-03-24T13:49:28Z</time>
      </trkpt>
      <trkpt lat="50.44092" lon="5.6664">
        <ele>231.81</ele>
        <time>2010-03-24T13:49:29Z</time>
      </trkpt>
      <trkpt lat="50.44085" lon="5.66678">
        <ele>233.26</ele>
        <time>2010-03-24T13:49:31Z</time>
      </trkpt>
      <trkpt lat="50.44078" lon="5.66693">
        <ele>234.22</ele>
        <time>2010-03-24T13:49:32Z</time>
      </trkpt>
      <trkpt lat="50.44068" lon="5.66698">
        <ele>235.18</ele>
        <time>2010-03-24T13:49:33Z</time>
      </trkpt>
      <trkpt lat="50.44061" lon="5.66705">
        <ele>236.62</ele>
        <time>2010-03-24T13:49:34Z</time>
      </trkpt>
      <trkpt lat="50.44054" lon="5.6671">
        <ele>236.62</ele>
        <time>2010-03-24T13:49:35Z</time>
      </trkpt>
      <trkpt lat="50.44046" lon="5.66714">
        <ele>238.06</ele>
        <time>2010-03-24T13:49:36Z</time>
      </trkpt>
      <trkpt lat="50.43962" lon="5.66736">
        <ele>243.35</ele>
        <time>2010-03-24T13:49:45Z</time>
      </trkpt>
      <trkpt lat="50.43884" lon="5.66752">
        <ele>248.16</ele>
        <time>2010-03-24T13:49:54Z</time>
      </trkpt>
      <trkpt lat="50.4383" lon="5.66762">
        <ele>249.6</ele>
        <time>2010-03-24T13:50:00Z</time>
      </trkpt>
      <trkpt lat="50.4382" lon="5.66762">
        <ele>249.6</ele>
        <time>2010-03-24T13:50:01Z</time>
      </trkpt>
      <trkpt lat="50.43809" lon="5.6676">
        <ele>250.08</ele>
        <time>2010-03-24T13:50:02Z</time>
      </trkpt>
      <trkpt lat="50.43799" lon="5.66756">
        <ele>250.56</ele>
        <time>2010-03-24T13:50:03Z</time>
      </trkpt>
      <trkpt lat="50.43788" lon="5.66751">
        <ele>250.56</ele>
        <time>2010-03-24T13:50:04Z</time>
      </trkpt>
      <trkpt lat="50.43778" lon="5.66745">
        <ele>251.04</ele>
        <time>2010-03-24T13:50:05Z</time>
      </trkpt>
      <trkpt lat="50.43767" lon="5.66737">
        <ele>252</ele>
        <time>2010-03-24T13:50:06Z</time>
      </trkpt>
      <trkpt lat="50.43521" lon="5.66543">
        <ele>257.29</ele>
        <time>2010-03-24T13:52:13Z</time>
      </trkpt>
      <trkpt lat="50.43506" lon="5.66537">
        <ele>257.77</ele>
        <time>2010-03-24T13:52:14Z</time>
      </trkpt>
      <trkpt lat="50.43348" lon="5.66508">
        <ele>263.54</ele>
        <time>2010-03-24T13:52:25Z</time>
      </trkpt>
      <trkpt lat="50.43334" lon="5.66511">
        <ele>264.02</ele>
        <time>2010-03-24T13:52:26Z</time>
      </trkpt>
      <trkpt lat="50.4332" lon="5.66516">
        <ele>264.5</ele>
        <time>2010-03-24T13:52:27Z</time>
      </trkpt>
      <trkpt lat="50.43307" lon="5.66524">
        <ele>264.98</ele>
        <time>2010-03-24T13:52:28Z</time>
      </trkpt>
      <trkpt lat="50.43295" lon="5.66534">
        <ele>265.94</ele>
        <time>2010-03-24T13:52:29Z</time>
      </trkpt>
      <trkpt lat="50.43283" lon="5.66547">
        <ele>266.42</ele>
        <time>2010-03-24T13:52:30Z</time>
      </trkpt>
      <trkpt lat="50.43274" lon="5.66563">
        <ele>267.38</ele>
        <time>2010-03-24T13:52:31Z</time>
      </trkpt>
      <trkpt lat="50.43265" lon="5.66582">
        <ele>268.35</ele>
        <time>2010-03-24T13:52:32Z</time>
      </trkpt>
      <trkpt lat="50.43258" lon="5.66602">
        <ele>268.83</ele>
        <time>2010-03-24T13:52:33Z</time>
      </trkpt>
      <trkpt lat="50.4314" lon="5.67224">
        <ele>285.65</ele>
        <time>2010-03-24T13:52:56Z</time>
      </trkpt>
      <trkpt lat="50.4313" lon="5.67248">
        <ele>286.61</ele>
        <time>2010-03-24T13:52:57Z</time>
      </trkpt>
      <trkpt lat="50.4312" lon="5.67268">
        <ele>287.57</ele>
        <time>2010-03-24T13:52:58Z</time>
      </trkpt>
      <trkpt lat="50.43108" lon="5.67287">
        <ele>288.53</ele>
        <time>2010-03-24T13:52:59Z</time>
      </trkpt>
      <trkpt lat="50.43095" lon="5.67306">
        <ele>289.49</ele>
        <time>2010-03-24T13:53:00Z</time>
      </trkpt>
      <trkpt lat="50.43083" lon="5.67326">
        <ele>290.46</ele>
        <time>2010-03-24T13:53:01Z</time>
      </trkpt>
      <trkpt lat="50.43074" lon="5.67348">
        <ele>291.42</ele>
        <time>2010-03-24T13:53:02Z</time>
      </trkpt>
      <trkpt lat="50.43068" lon="5.67373">
        <ele>292.38</ele>
        <time>2010-03-24T13:53:03Z</time>
      </trkpt>
      <trkpt lat="50.43065" lon="5.674">
        <ele>293.34</ele>
        <time>2010-03-24T13:53:04Z</time>
      </trkpt>
      <trkpt lat="50.43064" lon="5.67426">
        <ele>294.3</ele>
        <time>2010-03-24T13:53:05Z</time>
      </trkpt>
      <trkpt lat="50.43065" lon="5.67453">
        <ele>295.26</ele>
        <time>2010-03-24T13:53:06Z</time>
      </trkpt>
      <trkpt lat="50.43067" lon="5.6748">
        <ele>296.22</ele>
        <time>2010-03-24T13:53:07Z</time>
      </trkpt>
      <trkpt lat="50.43067" lon="5.67619">
        <ele>301.51</ele>
        <time>2010-03-24T13:53:12Z</time>
      </trkpt>
      <trkpt lat="50.43063" lon="5.67646">
        <ele>302.47</ele>
        <time>2010-03-24T13:53:13Z</time>
      </trkpt>
      <trkpt lat="50.43056" lon="5.67671">
        <ele>303.43</ele>
        <time>2010-03-24T13:53:14Z</time>
      </trkpt>
      <trkpt lat="50.43047" lon="5.67694">
        <ele>304.39</ele>
        <time>2010-03-24T13:53:15Z</time>
      </trkpt>
      <trkpt lat="50.43035" lon="5.67714">
        <ele>305.36</ele>
        <time>2010-03-24T13:53:16Z</time>
      </trkpt>
      <trkpt lat="50.43022" lon="5.67732">
        <ele>306.8</ele>
        <time>2010-03-24T13:53:17Z</time>
      </trkpt>
      <trkpt lat="50.43008" lon="5.67748">
        <ele>307.76</ele>
        <time>2010-03-24T13:53:18Z</time>
      </trkpt>
      <trkpt lat="50.42994" lon="5.67763">
        <ele>309.2</ele>
        <time>2010-03-24T13:53:19Z</time>
      </trkpt>
      <trkpt lat="50.42894" lon="5.67817">
        <ele>316.41</ele>
        <time>2010-03-24T13:53:25Z</time>
      </trkpt>
      <trkpt lat="50.42878" lon="5.67819">
        <ele>317.37</ele>
        <time>2010-03-24T13:53:26Z</time>
      </trkpt>
      <trkpt lat="50.42817" lon="5.67824">
        <ele>318.33</ele>
        <time>2010-03-24T13:53:30Z</time>
      </trkpt>
      <trkpt lat="50.42801" lon="5.67829">
        <ele>318.33</ele>
        <time>2010-03-24T13:53:31Z</time>
      </trkpt>
      <trkpt lat="50.42785" lon="5.67838">
        <ele>318.33</ele>
        <time>2010-03-24T13:53:32Z</time>
      </trkpt>
      <trkpt lat="50.4277" lon="5.6785">
        <ele>318.33</ele>
        <time>2010-03-24T13:53:33Z</time>
      </trkpt>
      <trkpt lat="50.42756" lon="5.67867">
        <ele>318.81</ele>
        <time>2010-03-24T13:53:34Z</time>
      </trkpt>
      <trkpt lat="50.42743" lon="5.67886">
        <ele>319.3</ele>
        <time>2010-03-24T13:53:35Z</time>
      </trkpt>
      <trkpt lat="50.42731" lon="5.67908">
        <ele>319.3</ele>
        <time>2010-03-24T13:53:36Z</time>
      </trkpt>
      <trkpt lat="50.4272" lon="5.67931">
        <ele>319.78</ele>
        <time>2010-03-24T13:53:37Z</time>
      </trkpt>
      <trkpt lat="50.42657" lon="5.68066">
        <ele>325.54</ele>
        <time>2010-03-24T13:53:43Z</time>
      </trkpt>
      <trkpt lat="50.42645" lon="5.68078">
        <ele>326.02</ele>
        <time>2010-03-24T13:53:44Z</time>
      </trkpt>
      <trkpt lat="50.42631" lon="5.68087">
        <ele>326.99</ele>
        <time>2010-03-24T13:53:45Z</time>
      </trkpt>
      <trkpt lat="50.42488" lon="5.68154">
        <ele>335.1</ele>
      </trkpt>
      <trkpt lat="50.42355" lon="5.68253">
        <ele>330.5</ele>
      </trkpt>
      <trkpt lat="50.4235" lon="5.68253">
        <ele>329.9</ele>
      </trkpt>
      <trkpt lat="50.42287" lon="5.6829">
        <ele>325.2</ele>
      </trkpt>
      <trkpt lat="50.42215" lon="5.68295">
        <ele>319.8</ele>
      </trkpt>
      <trkpt lat="50.4221" lon="5.68292">
        <ele>319.6</ele>
      </trkpt>
      <trkpt lat="50.42002" lon="5.67696">
        <ele>306.32</ele>
        <time>2010-04-02T07:06:02Z</time>
      </trkpt>
      <trkpt lat="50.41991" lon="5.67643">
        <ele>305.36</ele>
        <time>2010-04-02T07:06:04Z</time>
      </trkpt>
      <trkpt lat="50.41988" lon="5.67616">
        <ele>304.88</ele>
        <time>2010-04-02T07:06:05Z</time>
      </trkpt>
      <trkpt lat="50.41987" lon="5.6759">
        <ele>303.91</ele>
        <time>2010-04-02T07:06:06Z</time>
      </trkpt>
      <trkpt lat="50.41987" lon="5.67565">
        <ele>303.43</ele>
        <time>2010-04-02T07:06:07Z</time>
      </trkpt>
      <trkpt lat="50.41988" lon="5.67541">
        <ele>302.95</ele>
        <time>2010-04-02T07:06:08Z</time>
      </trkpt>
      <trkpt lat="50.41989" lon="5.67496">
        <ele>302.95</ele>
        <time>2010-04-02T07:06:10Z</time>
      </trkpt>
      <trkpt lat="50.41987" lon="5.67474">
        <ele>302.47</ele>
        <time>2010-04-02T07:06:11Z</time>
      </trkpt>
      <trkpt lat="50.41982" lon="5.67453">
        <ele>301.99</ele>
        <time>2010-04-02T07:06:12Z</time>
      </trkpt>
      <trkpt lat="50.41976" lon="5.67432">
        <ele>301.51</ele>
        <time>2010-04-02T07:06:13Z</time>
      </trkpt>
      <trkpt lat="50.41967" lon="5.67413">
        <ele>301.51</ele>
        <time>2010-04-02T07:06:14Z</time>
      </trkpt>
      <trkpt lat="50.41954" lon="5.67395">
        <ele>301.03</ele>
        <time>2010-04-02T07:06:15Z</time>
      </trkpt>
      <trkpt lat="50.41938" lon="5.67382">
        <ele>300.55</ele>
        <time>2010-04-02T07:06:16Z</time>
      </trkpt>
      <trkpt lat="50.4192" lon="5.67371">
        <ele>301.51</ele>
        <time>2010-04-02T07:06:17Z</time>
      </trkpt>
      <trkpt lat="50.41903" lon="5.67365">
        <ele>301.99</ele>
        <time>2010-04-02T07:06:18Z</time>
      </trkpt>
      <trkpt lat="50.41885" lon="5.67364">
        <ele>301.99</ele>
        <time>2010-04-02T07:06:19Z</time>
      </trkpt>
      <trkpt lat="50.41867" lon="5.67367">
        <ele>301.99</ele>
        <time>2010-04-02T07:06:20Z</time>
      </trkpt>
      <trkpt lat="50.4185" lon="5.67372">
        <ele>302.47</ele>
        <time>2010-04-02T07:06:21Z</time>
      </trkpt>
      <trkpt lat="50.41832" lon="5.67378">
        <ele>303.43</ele>
        <time>2010-04-02T07:06:22Z</time>
      </trkpt>
      <trkpt lat="50.4163" lon="5.67407">
        <ele>309.68</ele>
        <time>2010-04-02T07:06:33Z</time>
      </trkpt>
      <trkpt lat="50.41376" lon="5.67364">
        <ele>319.3</ele>
        <time>2010-04-02T07:06:46Z</time>
      </trkpt>
      <trkpt lat="50.41123" lon="5.67335">
        <ele>330.83</ele>
        <time>2010-04-02T07:06:58Z</time>
      </trkpt>
      <trkpt lat="50.40986" lon="5.67377">
        <ele>336.6</ele>
        <time>2010-04-02T07:07:05Z</time>
      </trkpt>
      <trkpt lat="50.40951" lon="5.67408">
        <ele>338.52</ele>
        <time>2010-04-02T07:07:07Z</time>
      </trkpt>
      <trkpt lat="50.40937" lon="5.67428">
        <ele>339</ele>
        <time>2010-04-02T07:07:08Z</time>
      </trkpt>
      <trkpt lat="50.40923" lon="5.67451">
        <ele>340.44</ele>
        <time>2010-04-02T07:07:09Z</time>
      </trkpt>
      <trkpt lat="50.4091" lon="5.67474">
        <ele>341.89</ele>
        <time>2010-04-02T07:07:10Z</time>
      </trkpt>
      <trkpt lat="50.40898" lon="5.67498">
        <ele>343.33</ele>
        <time>2010-04-02T07:07:11Z</time>
      </trkpt>
      <trkpt lat="50.40887" lon="5.67521">
        <ele>344.29</ele>
        <time>2010-04-02T07:07:12Z</time>
      </trkpt>
      <trkpt lat="50.40826" lon="5.67643">
        <ele>350.54</ele>
        <time>2010-04-02T07:07:18Z</time>
      </trkpt>
      <trkpt lat="50.40815" lon="5.67656">
        <ele>351.5</ele>
        <time>2010-04-02T07:07:19Z</time>
      </trkpt>
      <trkpt lat="50.40802" lon="5.67663">
        <ele>352.46</ele>
        <time>2010-04-02T07:07:20Z</time>
      </trkpt>
      <trkpt lat="50.40787" lon="5.67661">
        <ele>353.42</ele>
        <time>2010-04-02T07:07:21Z</time>
      </trkpt>
      <trkpt lat="50.40773" lon="5.67659">
        <ele>354.38</ele>
        <time>2010-04-02T07:07:22Z</time>
      </trkpt>
      <trkpt lat="50.40761" lon="5.67648">
        <ele>353.9</ele>
        <time>2010-04-02T07:07:23Z</time>
      </trkpt>
      <trkpt lat="50.40747" lon="5.67639">
        <ele>354.86</ele>
        <time>2010-04-02T07:07:24Z</time>
      </trkpt>
      <trkpt lat="50.40734" lon="5.67628">
        <ele>355.34</ele>
        <time>2010-04-02T07:07:25Z</time>
      </trkpt>
      <trkpt lat="50.4072" lon="5.67616">
        <ele>355.83</ele>
        <time>2010-04-02T07:07:26Z</time>
      </trkpt>
      <trkpt lat="50.40556" lon="5.67481">
        <ele>359.19</ele>
        <time>2010-04-02T07:07:37Z</time>
      </trkpt>
      <trkpt lat="50.40376" lon="5.6739">
        <ele>361.11</ele>
        <time>2010-04-02T07:07:47Z</time>
      </trkpt>
      <trkpt lat="50.4024" lon="5.67403">
        <ele>362.07</ele>
        <time>2010-04-02T07:07:54Z</time>
      </trkpt>
      <trkpt lat="50.40104" lon="5.67495">
        <ele>370.73</ele>
        <time>2010-04-02T07:08:02Z</time>
      </trkpt>
      <trkpt lat="50.40018" lon="5.67619">
        <ele>378.9</ele>
        <time>2010-04-02T07:08:09Z</time>
      </trkpt>
      <trkpt lat="50.39919" lon="5.67718">
        <ele>385.63</ele>
        <time>2010-04-02T07:08:16Z</time>
      </trkpt>
      <trkpt lat="50.39748" lon="5.67802">
        <ele>392.36</ele>
        <time>2010-04-02T07:08:26Z</time>
      </trkpt>
      <trkpt lat="50.39577" lon="5.67784">
        <ele>395.72</ele>
        <time>2010-04-02T07:08:35Z</time>
      </trkpt>
      <trkpt lat="50.39369" lon="5.67735">
        <ele>398.6</ele>
        <time>2010-04-02T07:08:46Z</time>
      </trkpt>
      <trkpt lat="50.3935" lon="5.67737">
        <ele>399.57</ele>
        <time>2010-04-02T07:08:47Z</time>
      </trkpt>
      <trkpt lat="50.39331" lon="5.67742">
        <ele>400.05</ele>
        <time>2010-04-02T07:08:48Z</time>
      </trkpt>
      <trkpt lat="50.39295" lon="5.6776">
        <ele>401.01</ele>
        <time>2010-04-02T07:08:50Z</time>
      </trkpt>
      <trkpt lat="50.39278" lon="5.67773">
        <ele>401.97</ele>
        <time>2010-04-02T07:08:51Z</time>
      </trkpt>
      <trkpt lat="50.39262" lon="5.67787">
        <ele>402.45</ele>
        <time>2010-04-02T07:08:52Z</time>
      </trkpt>
      <trkpt lat="50.39247" lon="5.67805">
        <ele>402.93</ele>
        <time>2010-04-02T07:08:53Z</time>
      </trkpt>
      <trkpt lat="50.39232" lon="5.67824">
        <ele>402.93</ele>
        <time>2010-04-02T07:08:54Z</time>
      </trkpt>
      <trkpt lat="50.39017" lon="5.68117">
        <ele>411.1</ele>
        <time>2010-04-02T07:09:10Z</time>
      </trkpt>
      <trkpt lat="50.38774" lon="5.6844">
        <ele>418.79</ele>
        <time>2010-04-02T07:09:29Z</time>
      </trkpt>
      <trkpt lat="50.3876" lon="5.68452">
        <ele>419.27</ele>
        <time>2010-04-02T07:09:30Z</time>
      </trkpt>
      <trkpt lat="50.38746" lon="5.68463">
        <ele>419.27</ele>
        <time>2010-04-02T07:09:31Z</time>
      </trkpt>
      <trkpt lat="50.38732" lon="5.68471">
        <ele>419.75</ele>
        <time>2010-04-02T07:09:32Z</time>
      </trkpt>
      <trkpt lat="50.38717" lon="5.68475">
        <ele>419.75</ele>
        <time>2010-04-02T07:09:33Z</time>
      </trkpt>
      <trkpt lat="50.38702" lon="5.68477">
        <ele>419.75</ele>
        <time>2010-04-02T07:09:34Z</time>
      </trkpt>
      <trkpt lat="50.38687" lon="5.68476">
        <ele>419.75</ele>
        <time>2010-04-02T07:09:35Z</time>
      </trkpt>
      <trkpt lat="50.38671" lon="5.68474">
        <ele>419.75</ele>
        <time>2010-04-02T07:09:36Z</time>
      </trkpt>
      <trkpt lat="50.38655" lon="5.6847">
        <ele>420.23</ele>
        <time>2010-04-02T07:09:37Z</time>
      </trkpt>
      <trkpt lat="50.3864" lon="5.68464">
        <ele>420.23</ele>
        <time>2010-04-02T07:09:38Z</time>
      </trkpt>
      <trkpt lat="50.38624" lon="5.68457">
        <ele>420.23</ele>
        <time>2010-04-02T07:09:39Z</time>
      </trkpt>
      <trkpt lat="50.38609" lon="5.68448">
        <ele>420.23</ele>
        <time>2010-04-02T07:09:40Z</time>
      </trkpt>
      <trkpt lat="50.38319" lon="5.68288">
        <ele>431.29</ele>
        <time>2010-04-02T07:09:58Z</time>
      </trkpt>
      <trkpt lat="50.38143" lon="5.68191">
        <ele>437.06</ele>
        <time>2010-04-02T07:10:10Z</time>
      </trkpt>
      <trkpt lat="50.38099" lon="5.68165">
        <ele>437.54</ele>
        <time>2010-04-02T07:10:16Z</time>
      </trkpt>
      <trkpt lat="50.38096" lon="5.68161">
        <ele>437.54</ele>
        <time>2010-04-02T07:10:17Z</time>
      </trkpt>
      <trkpt lat="50.38087" lon="5.68151">
        <ele>437.54</ele>
        <time>2010-04-02T07:10:19Z</time>
      </trkpt>
      <trkpt lat="50.38081" lon="5.68147">
        <ele>437.54</ele>
        <time>2010-04-02T07:10:20Z</time>
      </trkpt>
      <trkpt lat="50.38074" lon="5.68146">
        <ele>438.02</ele>
        <time>2010-04-02T07:10:21Z</time>
      </trkpt>
      <trkpt lat="50.38051" lon="5.6814">
        <ele>438.02</ele>
        <time>2010-04-02T07:10:24Z</time>
      </trkpt>
      <trkpt lat="50.38041" lon="5.68136">
        <ele>438.02</ele>
        <time>2010-04-02T07:10:25Z</time>
      </trkpt>
      <trkpt lat="50.36195" lon="5.67137">
        <ele>470.7</ele>
        <time>2010-04-02T07:12:13Z</time>
      </trkpt>
      <trkpt lat="50.35874" lon="5.66988">
        <ele>464.93</ele>
        <time>2010-04-02T07:12:29Z</time>
      </trkpt>
      <trkpt lat="50.35534" lon="5.6697">
        <ele>463.01</ele>
        <time>2010-04-02T07:12:45Z</time>
      </trkpt>
      <trkpt lat="50.35514" lon="5.66976">
        <ele>463.49</ele>
        <time>2010-04-02T07:12:46Z</time>
      </trkpt>
      <trkpt lat="50.35496" lon="5.66987">
        <ele>463.97</ele>
        <time>2010-04-02T07:12:47Z</time>
      </trkpt>
      <trkpt lat="50.35477" lon="5.67">
        <ele>464.45</ele>
        <time>2010-04-02T07:12:48Z</time>
      </trkpt>
      <trkpt lat="50.3546" lon="5.67015">
        <ele>464.45</ele>
        <time>2010-04-02T07:12:49Z</time>
      </trkpt>
      <trkpt lat="50.34438" lon="5.67948">
        <ele>469.74</ele>
        <time>2010-04-02T07:13:43Z</time>
      </trkpt>
      <trkpt lat="50.34417" lon="5.67957">
        <ele>470.7</ele>
        <time>2010-04-02T07:13:44Z</time>
      </trkpt>
      <trkpt lat="50.34394" lon="5.67963">
        <ele>471.18</ele>
        <time>2010-04-02T07:13:45Z</time>
      </trkpt>
      <trkpt lat="50.34372" lon="5.67966">
        <ele>472.14</ele>
        <time>2010-04-02T07:13:46Z</time>
      </trkpt>
      <trkpt lat="50.34349" lon="5.67966">
        <ele>473.11</ele>
        <time>2010-04-02T07:13:47Z</time>
      </trkpt>
      <trkpt lat="50.32565" lon="5.67941">
        <ele>498.58</ele>
        <time>2010-04-02T07:15:09Z</time>
      </trkpt>
      <trkpt lat="50.32364" lon="5.67928">
        <ele>499.54</ele>
        <time>2010-04-02T07:15:19Z</time>
      </trkpt>
      <trkpt lat="50.32345" lon="5.67919">
        <ele>499.06</ele>
        <time>2010-04-02T07:15:20Z</time>
      </trkpt>
      <trkpt lat="50.32111" lon="5.67765">
        <ele>498.1</ele>
        <time>2010-04-02T07:15:33Z</time>
      </trkpt>
      <trkpt lat="50.31839" lon="5.67586">
        <ele>496.66</ele>
        <time>2010-04-02T07:15:47Z</time>
      </trkpt>
      <trkpt lat="50.31494" lon="5.67367">
        <ele>497.14</ele>
        <time>2010-04-02T07:16:04Z</time>
      </trkpt>
      <trkpt lat="50.31471" lon="5.67366">
        <ele>497.62</ele>
        <time>2010-04-02T07:16:05Z</time>
      </trkpt>
      <trkpt lat="50.31448" lon="5.6737">
        <ele>498.1</ele>
        <time>2010-04-02T07:16:06Z</time>
      </trkpt>
      <trkpt lat="50.31425" lon="5.67377">
        <ele>498.58</ele>
        <time>2010-04-02T07:16:07Z</time>
      </trkpt>
      <trkpt lat="50.31403" lon="5.67387">
        <ele>499.06</ele>
        <time>2010-04-02T07:16:08Z</time>
      </trkpt>
      <trkpt lat="50.31382" lon="5.67401">
        <ele>499.54</ele>
        <time>2010-04-02T07:16:09Z</time>
      </trkpt>
      <trkpt lat="50.31361" lon="5.67416">
        <ele>500.02</ele>
        <time>2010-04-02T07:16:10Z</time>
      </trkpt>
      <trkpt lat="50.31041" lon="5.67627">
        <ele>505.79</ele>
        <time>2010-04-02T07:16:26Z</time>
      </trkpt>
      <trkpt lat="50.30869" lon="5.67662">
        <ele>504.83</ele>
        <time>2010-04-02T07:16:34Z</time>
      </trkpt>
      <trkpt lat="50.30711" lon="5.67612">
        <ele>496.18</ele>
        <time>2010-04-02T07:16:41Z</time>
      </trkpt>
      <trkpt lat="50.30564" lon="5.6749">
        <ele>489.45</ele>
        <time>2010-04-02T07:16:48Z</time>
      </trkpt>
      <trkpt lat="50.30295" lon="5.67164">
        <ele>472.63</ele>
        <time>2010-04-02T07:17:03Z</time>
      </trkpt>
      <trkpt lat="50.30277" lon="5.6715">
        <ele>471.66</ele>
        <time>2010-04-02T07:17:04Z</time>
      </trkpt>
      <trkpt lat="50.30258" lon="5.67137">
        <ele>470.7</ele>
        <time>2010-04-02T07:17:05Z</time>
      </trkpt>
      <trkpt lat="50.30239" lon="5.67128">
        <ele>469.74</ele>
        <time>2010-04-02T07:17:06Z</time>
      </trkpt>
      <trkpt lat="50.30219" lon="5.6712">
        <ele>468.78</ele>
        <time>2010-04-02T07:17:07Z</time>
      </trkpt>
      <trkpt lat="50.30199" lon="5.67114">
        <ele>467.82</ele>
        <time>2010-04-02T07:17:08Z</time>
      </trkpt>
      <trkpt lat="50.29852" lon="5.67036">
        <ele>451.96</ele>
        <time>2010-04-02T07:17:25Z</time>
      </trkpt>
      <trkpt lat="50.29737" lon="5.67107">
        <ele>446.67</ele>
        <time>2010-04-02T07:17:31Z</time>
      </trkpt>
      <trkpt lat="50.29491" lon="5.67327">
        <ele>443.79</ele>
        <time>2010-04-02T07:17:46Z</time>
      </trkpt>
      <trkpt lat="50.29277" lon="5.67516">
        <ele>443.79</ele>
        <time>2010-04-02T07:18:02Z</time>
      </trkpt>
      <trkpt lat="50.29182" lon="5.67598">
        <ele>443.79</ele>
        <time>2010-04-02T07:18:10Z</time>
      </trkpt>
      <trkpt lat="50.29155" lon="5.67624">
        <ele>444.75</ele>
        <time>2010-04-02T07:18:15Z</time>
      </trkpt>
      <trkpt lat="50.29171" lon="5.67617">
        <ele>445.23</ele>
        <time>2010-04-02T07:18:20Z</time>
      </trkpt>
      <trkpt lat="50.29175" lon="5.67612">
        <ele>445.23</ele>
        <time>2010-04-02T07:18:21Z</time>
      </trkpt>
      <trkpt lat="50.2918" lon="5.67607">
        <ele>445.23</ele>
        <time>2010-04-02T07:18:22Z</time>
      </trkpt>
      <trkpt lat="50.29185" lon="5.67601">
        <ele>445.23</ele>
        <time>2010-04-02T07:18:23Z</time>
      </trkpt>
      <trkpt lat="50.29226" lon="5.67565">
        <ele>444.75</ele>
        <time>2010-04-02T07:18:31Z</time>
      </trkpt>
      <trkpt lat="50.2923" lon="5.67563">
        <ele>444.75</ele>
        <time>2010-04-02T07:18:32Z</time>
      </trkpt>
      <trkpt lat="50.29234" lon="5.67562">
        <ele>444.75</ele>
        <time>2010-04-02T07:18:33Z</time>
      </trkpt>
      <trkpt lat="50.29237" lon="5.67563">
        <ele>444.27</ele>
        <time>2010-04-02T07:18:34Z</time>
      </trkpt>
      <trkpt lat="50.29239" lon="5.67565">
        <ele>443.79</ele>
        <time>2010-04-02T07:18:35Z</time>
      </trkpt>
      <trkpt lat="50.29241" lon="5.67568">
        <ele>443.79</ele>
        <time>2010-04-02T07:18:36Z</time>
      </trkpt>
      <trkpt lat="50.29242" lon="5.6757">
        <ele>443.79</ele>
        <time>2010-04-02T07:18:37Z</time>
      </trkpt>
      <trkpt lat="50.29243" lon="5.67572">
        <ele>443.31</ele>
        <time>2010-04-02T07:18:38Z</time>
      </trkpt>
      <trkpt lat="50.29244" lon="5.67572">
        <ele>444.75</ele>
        <time>2010-04-02T07:19:01Z</time>
      </trkpt>
      <trkpt lat="50.29247" lon="5.67573">
        <ele>452.92</ele>
        <time>2010-04-02T07:24:25Z</time>
      </trkpt>
      <trkpt lat="50.29243" lon="5.67572">
        <ele>444.75</ele>
        <time>2010-04-02T07:28:33Z</time>
      </trkpt>
      <trkpt lat="50.29243" lon="5.67575">
        <ele>450.52</ele>
        <time>2010-04-02T07:31:34Z</time>
      </trkpt>
      <trkpt lat="50.29251" lon="5.67569">
        <ele>444.27</ele>
        <time>2010-04-02T07:36:53Z</time>
      </trkpt>
      <trkpt lat="50.29254" lon="5.67596">
        <ele>444.75</ele>
        <time>2010-04-02T07:37:01Z</time>
      </trkpt>
      <trkpt lat="50.29254" lon="5.67598">
        <ele>444.75</ele>
        <time>2010-04-02T07:37:02Z</time>
      </trkpt>
      <trkpt lat="50.29256" lon="5.67599">
        <ele>444.75</ele>
        <time>2010-04-02T07:37:08Z</time>
      </trkpt>
      <trkpt lat="50.29257" lon="5.67596">
        <ele>445.23</ele>
        <time>2010-04-02T07:37:09Z</time>
      </trkpt>
      <trkpt lat="50.29257" lon="5.67593">
        <ele>445.23</ele>
        <time>2010-04-02T07:37:10Z</time>
      </trkpt>
      <trkpt lat="50.29256" lon="5.67588">
        <ele>445.23</ele>
        <time>2010-04-02T07:37:11Z</time>
      </trkpt>
      <trkpt lat="50.29254" lon="5.67583">
        <ele>445.23</ele>
        <time>2010-04-02T07:37:12Z</time>
      </trkpt>
      <trkpt lat="50.29252" lon="5.67578">
        <ele>445.71</ele>
        <time>2010-04-02T07:37:13Z</time>
      </trkpt>
      <trkpt lat="50.29244" lon="5.67555">
        <ele>445.71</ele>
        <time>2010-04-02T07:37:22Z</time>
      </trkpt>
      <trkpt lat="50.2921" lon="5.67547">
        <ele>445.23</ele>
        <time>2010-04-02T07:37:31Z</time>
      </trkpt>
      <trkpt lat="50.29135" lon="5.6754">
        <ele>444.75</ele>
        <time>2010-04-02T07:37:41Z</time>
      </trkpt>
      <trkpt lat="50.29127" lon="5.67536">
        <ele>444.75</ele>
        <time>2010-04-02T07:37:42Z</time>
      </trkpt>
      <trkpt lat="50.2912" lon="5.6753">
        <ele>444.75</ele>
        <time>2010-04-02T07:37:43Z</time>
      </trkpt>
      <trkpt lat="50.29084" lon="5.67492">
        <ele>444.75</ele>
        <time>2010-04-02T07:37:49Z</time>
      </trkpt>
      <trkpt lat="50.29078" lon="5.67489">
        <ele>444.27</ele>
        <time>2010-04-02T07:37:50Z</time>
      </trkpt>
      <trkpt lat="50.29072" lon="5.67485">
        <ele>444.27</ele>
        <time>2010-04-02T07:37:51Z</time>
      </trkpt>
      <trkpt lat="50.29067" lon="5.6748">
        <ele>444.75</ele>
        <time>2010-04-02T07:37:52Z</time>
      </trkpt>
      <trkpt lat="50.29062" lon="5.67475">
        <ele>444.75</ele>
        <time>2010-04-02T07:37:53Z</time>
      </trkpt>
      <trkpt lat="50.29008" lon="5.67414">
        <ele>445.23</ele>
        <time>2010-04-02T07:38:01Z</time>
      </trkpt>
      <trkpt lat="50.2799" lon="5.66322">
        <ele>461.09</ele>
        <time>2010-04-02T07:39:12Z</time>
      </trkpt>
      <trkpt lat="50.27702" lon="5.66059">
        <ele>455.32</ele>
        <time>2010-04-02T07:39:30Z</time>
      </trkpt>
      <trkpt lat="50.27546" lon="5.65919">
        <ele>451</ele>
        <time>2010-04-02T07:39:42Z</time>
      </trkpt>
      <trkpt lat="50.27512" lon="5.65887">
        <ele>450.03</ele>
        <time>2010-04-02T07:39:46Z</time>
      </trkpt>
      <trkpt lat="50.27504" lon="5.65877">
        <ele>449.55</ele>
        <time>2010-04-02T07:39:47Z</time>
      </trkpt>
      <trkpt lat="50.27497" lon="5.65865">
        <ele>449.07</ele>
        <time>2010-04-02T07:39:48Z</time>
      </trkpt>
      <trkpt lat="50.27491" lon="5.65851">
        <ele>448.59</ele>
        <time>2010-04-02T07:39:49Z</time>
      </trkpt>
      <trkpt lat="50.27485" lon="5.65835">
        <ele>448.11</ele>
        <time>2010-04-02T07:39:50Z</time>
      </trkpt>
      <trkpt lat="50.27408" lon="5.65671">
        <ele>439.46</ele>
        <time>2010-04-02T07:40:01Z</time>
      </trkpt>
      <trkpt lat="50.27392" lon="5.65644">
        <ele>438.02</ele>
        <time>2010-04-02T07:40:03Z</time>
      </trkpt>
      <trkpt lat="50.27386" lon="5.65629">
        <ele>437.54</ele>
        <time>2010-04-02T07:40:04Z</time>
      </trkpt>
      <trkpt lat="50.27308" lon="5.65456">
        <ele>429.85</ele>
        <time>2010-04-02T07:40:15Z</time>
      </trkpt>
      <trkpt lat="50.27244" lon="5.65358">
        <ele>426.48</ele>
        <time>2010-04-02T07:40:24Z</time>
      </trkpt>
      <trkpt lat="50.27214" lon="5.65323">
        <ele>425.04</ele>
        <time>2010-04-02T07:40:27Z</time>
      </trkpt>
      <trkpt lat="50.27202" lon="5.65313">
        <ele>424.56</ele>
        <time>2010-04-02T07:40:28Z</time>
      </trkpt>
      <trkpt lat="50.27189" lon="5.65305">
        <ele>424.08</ele>
        <time>2010-04-02T07:40:29Z</time>
      </trkpt>
      <trkpt lat="50.27045" lon="5.65222">
        <ele>423.12</ele>
        <time>2010-04-02T07:40:40Z</time>
      </trkpt>
      <trkpt lat="50.26933" lon="5.65162">
        <ele>420.71</ele>
        <time>2010-04-02T07:40:49Z</time>
      </trkpt>
      <trkpt lat="50.26784" lon="5.65082">
        <ele>414.95</ele>
        <time>2010-04-02T07:41:01Z</time>
      </trkpt>
      <trkpt lat="50.26772" lon="5.65078">
        <ele>414.47</ele>
        <time>2010-04-02T07:41:02Z</time>
      </trkpt>
      <trkpt lat="50.2676" lon="5.65078">
        <ele>413.5</ele>
        <time>2010-04-02T07:41:03Z</time>
      </trkpt>
      <trkpt lat="50.26747" lon="5.65081">
        <ele>413.02</ele>
        <time>2010-04-02T07:41:04Z</time>
      </trkpt>
      <trkpt lat="50.26734" lon="5.65086">
        <ele>412.06</ele>
        <time>2010-04-02T07:41:05Z</time>
      </trkpt>
      <trkpt lat="50.26721" lon="5.65092">
        <ele>411.1</ele>
        <time>2010-04-02T07:41:06Z</time>
      </trkpt>
      <trkpt lat="50.26696" lon="5.65106">
        <ele>409.18</ele>
        <time>2010-04-02T07:41:08Z</time>
      </trkpt>
      <trkpt lat="50.26685" lon="5.65117">
        <ele>408.7</ele>
        <time>2010-04-02T07:41:09Z</time>
      </trkpt>
      <trkpt lat="50.26675" lon="5.65131">
        <ele>408.22</ele>
        <time>2010-04-02T07:41:10Z</time>
      </trkpt>
      <trkpt lat="50.26666" lon="5.65147">
        <ele>407.26</ele>
        <time>2010-04-02T07:41:11Z</time>
      </trkpt>
      <trkpt lat="50.26657" lon="5.65165">
        <ele>406.29</ele>
        <time>2010-04-02T07:41:12Z</time>
      </trkpt>
      <trkpt lat="50.26648" lon="5.65184">
        <ele>405.81</ele>
        <time>2010-04-02T07:41:13Z</time>
      </trkpt>
      <trkpt lat="50.26545" lon="5.65389">
        <ele>399.08</ele>
        <time>2010-04-02T07:41:24Z</time>
      </trkpt>
      <trkpt lat="50.26426" lon="5.6556">
        <ele>398.6</ele>
        <time>2010-04-02T07:41:35Z</time>
      </trkpt>
      <trkpt lat="50.26345" lon="5.65668">
        <ele>399.08</ele>
        <time>2010-04-02T07:41:43Z</time>
      </trkpt>
      <trkpt lat="50.26334" lon="5.65675">
        <ele>398.6</ele>
        <time>2010-04-02T07:41:44Z</time>
      </trkpt>
      <trkpt lat="50.2632" lon="5.65674">
        <ele>399.08</ele>
        <time>2010-04-02T07:41:45Z</time>
      </trkpt>
      <trkpt lat="50.26308" lon="5.65675">
        <ele>399.08</ele>
        <time>2010-04-02T07:41:46Z</time>
      </trkpt>
      <trkpt lat="50.26296" lon="5.65671">
        <ele>399.08</ele>
        <time>2010-04-02T07:41:47Z</time>
      </trkpt>
      <trkpt lat="50.26286" lon="5.65661">
        <ele>399.08</ele>
        <time>2010-04-02T07:41:48Z</time>
      </trkpt>
      <trkpt lat="50.26276" lon="5.65648">
        <ele>398.6</ele>
        <time>2010-04-02T07:41:49Z</time>
      </trkpt>
      <trkpt lat="50.26265" lon="5.65635">
        <ele>399.08</ele>
        <time>2010-04-02T07:41:50Z</time>
      </trkpt>
      <trkpt lat="50.26237" lon="5.65597">
        <ele>399.57</ele>
        <time>2010-04-02T07:41:53Z</time>
      </trkpt>
      <trkpt lat="50.26229" lon="5.65581">
        <ele>399.08</ele>
        <time>2010-04-02T07:41:54Z</time>
      </trkpt>
      <trkpt lat="50.26222" lon="5.65562">
        <ele>399.08</ele>
        <time>2010-04-02T07:41:55Z</time>
      </trkpt>
      <trkpt lat="50.26218" lon="5.65539">
        <ele>398.6</ele>
        <time>2010-04-02T07:41:56Z</time>
      </trkpt>
      <trkpt lat="50.26215" lon="5.65516">
        <ele>398.6</ele>
        <time>2010-04-02T07:41:57Z</time>
      </trkpt>
      <trkpt lat="50.26214" lon="5.65492">
        <ele>399.08</ele>
        <time>2010-04-02T07:41:58Z</time>
      </trkpt>
      <trkpt lat="50.26212" lon="5.65467">
        <ele>400.05</ele>
        <time>2010-04-02T07:41:59Z</time>
      </trkpt>
      <trkpt lat="50.26196" lon="5.65348">
        <ele>405.33</ele>
        <time>2010-04-02T07:42:04Z</time>
      </trkpt>
      <trkpt lat="50.2619" lon="5.65324">
        <ele>406.29</ele>
        <time>2010-04-02T07:42:05Z</time>
      </trkpt>
      <trkpt lat="50.26182" lon="5.65303">
        <ele>407.74</ele>
        <time>2010-04-02T07:42:06Z</time>
      </trkpt>
      <trkpt lat="50.26173" lon="5.65281">
        <ele>408.7</ele>
        <time>2010-04-02T07:42:07Z</time>
      </trkpt>
      <trkpt lat="50.26163" lon="5.65261">
        <ele>409.66</ele>
        <time>2010-04-02T07:42:08Z</time>
      </trkpt>
      <trkpt lat="50.26152" lon="5.65241">
        <ele>411.1</ele>
        <time>2010-04-02T07:42:09Z</time>
      </trkpt>
      <trkpt lat="50.2614" lon="5.65223">
        <ele>412.54</ele>
        <time>2010-04-02T07:42:10Z</time>
      </trkpt>
      <trkpt lat="50.26127" lon="5.65207">
        <ele>413.98</ele>
        <time>2010-04-02T07:42:11Z</time>
      </trkpt>
      <trkpt lat="50.26113" lon="5.65194">
        <ele>415.43</ele>
        <time>2010-04-02T07:42:12Z</time>
      </trkpt>
      <trkpt lat="50.26096" lon="5.65184">
        <ele>416.39</ele>
        <time>2010-04-02T07:42:13Z</time>
      </trkpt>
      <trkpt lat="50.26079" lon="5.65176">
        <ele>417.35</ele>
        <time>2010-04-02T07:42:14Z</time>
      </trkpt>
      <trkpt lat="50.26062" lon="5.65169">
        <ele>418.31</ele>
        <time>2010-04-02T07:42:15Z</time>
      </trkpt>
      <trkpt lat="50.25863" lon="5.65089">
        <ele>430.81</ele>
        <time>2010-04-02T07:42:27Z</time>
      </trkpt>
      <trkpt lat="50.2573" lon="5.65063">
        <ele>438.5</ele>
        <time>2010-04-02T07:42:36Z</time>
      </trkpt>
      <trkpt lat="50.25719" lon="5.65057">
        <ele>438.98</ele>
        <time>2010-04-02T07:42:37Z</time>
      </trkpt>
      <trkpt lat="50.2571" lon="5.65046">
        <ele>439.94</ele>
        <time>2010-04-02T07:42:38Z</time>
      </trkpt>
      <trkpt lat="50.25702" lon="5.65033">
        <ele>440.42</ele>
        <time>2010-04-02T07:42:39Z</time>
      </trkpt>
      <trkpt lat="50.25698" lon="5.65015">
        <ele>440.9</ele>
        <time>2010-04-02T07:42:40Z</time>
      </trkpt>
      <trkpt lat="50.25693" lon="5.65">
        <ele>441.38</ele>
        <time>2010-04-02T07:42:41Z</time>
      </trkpt>
      <trkpt lat="50.25687" lon="5.64986">
        <ele>441.38</ele>
        <time>2010-04-02T07:42:42Z</time>
      </trkpt>
      <trkpt lat="50.25682" lon="5.64974">
        <ele>442.34</ele>
        <time>2010-04-02T07:42:43Z</time>
      </trkpt>
      <trkpt lat="50.25661" lon="5.6494">
        <ele>443.31</ele>
        <time>2010-04-02T07:42:47Z</time>
      </trkpt>
      <trkpt lat="50.25656" lon="5.64936">
        <ele>443.79</ele>
        <time>2010-04-02T07:42:48Z</time>
      </trkpt>
      <trkpt lat="50.25652" lon="5.64932">
        <ele>443.79</ele>
        <time>2010-04-02T07:42:49Z</time>
      </trkpt>
      <trkpt lat="50.25649" lon="5.64926">
        <ele>443.79</ele>
        <time>2010-04-02T07:42:50Z</time>
      </trkpt>
      <trkpt lat="50.25645" lon="5.64919">
        <ele>444.27</ele>
        <time>2010-04-02T07:42:51Z</time>
      </trkpt>
      <trkpt lat="50.25594" lon="5.64855">
        <ele>445.23</ele>
        <time>2010-04-02T07:42:58Z</time>
      </trkpt>
      <trkpt lat="50.25544" lon="5.648">
        <ele>445.71</ele>
        <time>2010-04-02T07:43:06Z</time>
      </trkpt>
      <trkpt lat="50.25481" lon="5.64737">
        <ele>447.15</ele>
        <time>2010-04-02T07:43:13Z</time>
      </trkpt>
      <trkpt lat="50.25401" lon="5.6463">
        <ele>451.96</ele>
        <time>2010-04-02T07:43:20Z</time>
      </trkpt>
      <trkpt lat="50.2533" lon="5.64522">
        <ele>458.21</ele>
        <time>2010-04-02T07:43:26Z</time>
      </trkpt>
      <trkpt lat="50.25315" lon="5.64509">
        <ele>459.17</ele>
        <time>2010-04-02T07:43:27Z</time>
      </trkpt>
      <trkpt lat="50.253" lon="5.64498">
        <ele>460.13</ele>
        <time>2010-04-02T07:43:28Z</time>
      </trkpt>
      <trkpt lat="50.25283" lon="5.64489">
        <ele>461.09</ele>
        <time>2010-04-02T07:43:29Z</time>
      </trkpt>
      <trkpt lat="50.25266" lon="5.64482">
        <ele>462.05</ele>
        <time>2010-04-02T07:43:30Z</time>
      </trkpt>
      <trkpt lat="50.25249" lon="5.64476">
        <ele>463.01</ele>
        <time>2010-04-02T07:43:31Z</time>
      </trkpt>
      <trkpt lat="50.25077" lon="5.64387">
        <ele>466.38</ele>
        <time>2010-04-02T07:43:41Z</time>
      </trkpt>
      <trkpt lat="50.24871" lon="5.64256">
        <ele>472.63</ele>
        <time>2010-04-02T07:43:55Z</time>
      </trkpt>
      <trkpt lat="50.24757" lon="5.64177">
        <ele>473.59</ele>
        <time>2010-04-02T07:44:04Z</time>
      </trkpt>
      <trkpt lat="50.24572" lon="5.64011">
        <ele>470.7</ele>
        <time>2010-04-02T07:44:18Z</time>
      </trkpt>
      <trkpt lat="50.24502" lon="5.63953">
        <ele>467.34</ele>
        <time>2010-04-02T07:44:23Z</time>
      </trkpt>
      <trkpt lat="50.24486" lon="5.63947">
        <ele>466.86</ele>
        <time>2010-04-02T07:44:24Z</time>
      </trkpt>
      <trkpt lat="50.2447" lon="5.63944">
        <ele>465.42</ele>
        <time>2010-04-02T07:44:25Z</time>
      </trkpt>
      <trkpt lat="50.24396" lon="5.63931">
        <ele>459.65</ele>
        <time>2010-04-02T07:44:30Z</time>
      </trkpt>
      <trkpt lat="50.24382" lon="5.63923">
        <ele>459.17</ele>
        <time>2010-04-02T07:44:31Z</time>
      </trkpt>
      <trkpt lat="50.24368" lon="5.6391">
        <ele>458.21</ele>
        <time>2010-04-02T07:44:32Z</time>
      </trkpt>
      <trkpt lat="50.24356" lon="5.63894">
        <ele>457.72</ele>
        <time>2010-04-02T07:44:33Z</time>
      </trkpt>
      <trkpt lat="50.24345" lon="5.63876">
        <ele>457.24</ele>
        <time>2010-04-02T07:44:34Z</time>
      </trkpt>
      <trkpt lat="50.24336" lon="5.63854">
        <ele>457.72</ele>
        <time>2010-04-02T07:44:35Z</time>
      </trkpt>
      <trkpt lat="50.24327" lon="5.63832">
        <ele>457.72</ele>
        <time>2010-04-02T07:44:36Z</time>
      </trkpt>
      <trkpt lat="50.24251" lon="5.63654">
        <ele>458.69</ele>
        <time>2010-04-02T07:44:44Z</time>
      </trkpt>
      <trkpt lat="50.24244" lon="5.63629">
        <ele>458.69</ele>
        <time>2010-04-02T07:44:45Z</time>
      </trkpt>
      <trkpt lat="50.2418" lon="5.63394">
        <ele>459.65</ele>
        <time>2010-04-02T07:44:55Z</time>
      </trkpt>
      <trkpt lat="50.24158" lon="5.63336">
        <ele>459.65</ele>
        <time>2010-04-02T07:44:58Z</time>
      </trkpt>
      <trkpt lat="50.24149" lon="5.63324">
        <ele>459.65</ele>
        <time>2010-04-02T07:44:59Z</time>
      </trkpt>
      <trkpt lat="50.24137" lon="5.63316">
        <ele>459.17</ele>
        <time>2010-04-02T07:45:00Z</time>
      </trkpt>
      <trkpt lat="50.24124" lon="5.63313">
        <ele>458.69</ele>
        <time>2010-04-02T07:45:01Z</time>
      </trkpt>
      <trkpt lat="50.2411" lon="5.63315">
        <ele>458.21</ele>
        <time>2010-04-02T07:45:02Z</time>
      </trkpt>
      <trkpt lat="50.24096" lon="5.6332">
        <ele>457.72</ele>
        <time>2010-04-02T07:45:03Z</time>
      </trkpt>
      <trkpt lat="50.24082" lon="5.63326">
        <ele>457.24</ele>
        <time>2010-04-02T07:45:04Z</time>
      </trkpt>
      <trkpt lat="50.24068" lon="5.63334">
        <ele>456.76</ele>
        <time>2010-04-02T07:45:05Z</time>
      </trkpt>
      <trkpt lat="50.24052" lon="5.63339">
        <ele>456.76</ele>
        <time>2010-04-02T07:45:06Z</time>
      </trkpt>
      <trkpt lat="50.23967" lon="5.63406">
        <ele>453.4</ele>
        <time>2010-04-02T07:45:13Z</time>
      </trkpt>
      <trkpt lat="50.23957" lon="5.63419">
        <ele>453.4</ele>
        <time>2010-04-02T07:45:14Z</time>
      </trkpt>
      <trkpt lat="50.23949" lon="5.63435">
        <ele>453.4</ele>
        <time>2010-04-02T07:45:15Z</time>
      </trkpt>
      <trkpt lat="50.23943" lon="5.63456">
        <ele>452.92</ele>
        <time>2010-04-02T07:45:16Z</time>
      </trkpt>
      <trkpt lat="50.23936" lon="5.63474">
        <ele>451.96</ele>
        <time>2010-04-02T07:45:17Z</time>
      </trkpt>
      <trkpt lat="50.23904" lon="5.63539">
        <ele>450.03</ele>
        <time>2010-04-02T07:45:21Z</time>
      </trkpt>
      <trkpt lat="50.23894" lon="5.63551">
        <ele>449.07</ele>
        <time>2010-04-02T07:45:22Z</time>
      </trkpt>
      <trkpt lat="50.23882" lon="5.63558">
        <ele>448.11</ele>
        <time>2010-04-02T07:45:23Z</time>
      </trkpt>
      <trkpt lat="50.23869" lon="5.63562">
        <ele>446.67</ele>
        <time>2010-04-02T07:45:24Z</time>
      </trkpt>
      <trkpt lat="50.23855" lon="5.63568">
        <ele>445.71</ele>
        <time>2010-04-02T07:45:25Z</time>
      </trkpt>
      <trkpt lat="50.23749" lon="5.63647">
        <ele>438.98</ele>
        <time>2010-04-02T07:45:33Z</time>
      </trkpt>
      <trkpt lat="50.23607" lon="5.63703">
        <ele>433.69</ele>
        <time>2010-04-02T07:45:43Z</time>
      </trkpt>
      <trkpt lat="50.23597" lon="5.63705">
        <ele>432.25</ele>
        <time>2010-04-02T07:45:44Z</time>
      </trkpt>
      <trkpt lat="50.23588" lon="5.63704">
        <ele>430.81</ele>
        <time>2010-04-02T07:45:45Z</time>
      </trkpt>
      <trkpt lat="50.2358" lon="5.63701">
        <ele>429.37</ele>
        <time>2010-04-02T07:45:46Z</time>
      </trkpt>
      <trkpt lat="50.23569" lon="5.63686">
        <ele>428.89</ele>
        <time>2010-04-02T07:45:48Z</time>
      </trkpt>
      <trkpt lat="50.23566" lon="5.63674">
        <ele>427.92</ele>
        <time>2010-04-02T07:45:49Z</time>
      </trkpt>
      <trkpt lat="50.23564" lon="5.63662">
        <ele>426.96</ele>
        <time>2010-04-02T07:45:50Z</time>
      </trkpt>
      <trkpt lat="50.23567" lon="5.63648">
        <ele>427.44</ele>
        <time>2010-04-02T07:45:51Z</time>
      </trkpt>
      <trkpt lat="50.2357" lon="5.63635">
        <ele>427.92</ele>
        <time>2010-04-02T07:45:52Z</time>
      </trkpt>
      <trkpt lat="50.23572" lon="5.63622">
        <ele>427.92</ele>
        <time>2010-04-02T07:45:53Z</time>
      </trkpt>
      <trkpt lat="50.23577" lon="5.63609">
        <ele>428.4</ele>
        <time>2010-04-02T07:45:54Z</time>
      </trkpt>
      <trkpt lat="50.23584" lon="5.63595">
        <ele>429.37</ele>
        <time>2010-04-02T07:45:55Z</time>
      </trkpt>
      <trkpt lat="50.23592" lon="5.63582">
        <ele>429.85</ele>
        <time>2010-04-02T07:45:56Z</time>
      </trkpt>
      <trkpt lat="50.23628" lon="5.63496">
        <ele>432.73</ele>
        <time>2010-04-02T07:46:02Z</time>
      </trkpt>
      <trkpt lat="50.23631" lon="5.6348">
        <ele>433.21</ele>
        <time>2010-04-02T07:46:03Z</time>
      </trkpt>
      <trkpt lat="50.23633" lon="5.63463">
        <ele>433.69</ele>
        <time>2010-04-02T07:46:04Z</time>
      </trkpt>
      <trkpt lat="50.23633" lon="5.63446">
        <ele>434.17</ele>
        <time>2010-04-02T07:46:05Z</time>
      </trkpt>
      <trkpt lat="50.23631" lon="5.63428">
        <ele>435.13</ele>
        <time>2010-04-02T07:46:06Z</time>
      </trkpt>
      <trkpt lat="50.23629" lon="5.63411">
        <ele>435.61</ele>
        <time>2010-04-02T07:46:07Z</time>
      </trkpt>
      <trkpt lat="50.23626" lon="5.63394">
        <ele>436.58</ele>
        <time>2010-04-02T07:46:08Z</time>
      </trkpt>
      <trkpt lat="50.23622" lon="5.63377">
        <ele>437.54</ele>
        <time>2010-04-02T07:46:09Z</time>
      </trkpt>
      <trkpt lat="50.23617" lon="5.63361">
        <ele>438.02</ele>
        <time>2010-04-02T07:46:10Z</time>
      </trkpt>
      <trkpt lat="50.2355" lon="5.63141">
        <ele>448.11</ele>
        <time>2010-04-02T07:46:24Z</time>
      </trkpt>
      <trkpt lat="50.23534" lon="5.63013">
        <ele>453.88</ele>
        <time>2010-04-02T07:46:31Z</time>
      </trkpt>
      <trkpt lat="50.23535" lon="5.62994">
        <ele>454.84</ele>
        <time>2010-04-02T07:46:32Z</time>
      </trkpt>
      <trkpt lat="50.23538" lon="5.62976">
        <ele>455.32</ele>
        <time>2010-04-02T07:46:33Z</time>
      </trkpt>
      <trkpt lat="50.23541" lon="5.62957">
        <ele>456.28</ele>
        <time>2010-04-02T07:46:34Z</time>
      </trkpt>
      <trkpt lat="50.23546" lon="5.6294">
        <ele>457.24</ele>
        <time>2010-04-02T07:46:35Z</time>
      </trkpt>
      <trkpt lat="50.23551" lon="5.62923">
        <ele>458.21</ele>
        <time>2010-04-02T07:46:36Z</time>
      </trkpt>
      <trkpt lat="50.23588" lon="5.62772">
        <ele>464.45</ele>
        <time>2010-04-02T07:46:45Z</time>
      </trkpt>
      <trkpt lat="50.23588" lon="5.62754">
        <ele>464.93</ele>
        <time>2010-04-02T07:46:46Z</time>
      </trkpt>
      <trkpt lat="50.23588" lon="5.62737">
        <ele>465.9</ele>
        <time>2010-04-02T07:46:47Z</time>
      </trkpt>
      <trkpt lat="50.23586" lon="5.62721">
        <ele>466.38</ele>
        <time>2010-04-02T07:46:48Z</time>
      </trkpt>
      <trkpt lat="50.23582" lon="5.62706">
        <ele>467.34</ele>
        <time>2010-04-02T07:46:49Z</time>
      </trkpt>
      <trkpt lat="50.23575" lon="5.62694">
        <ele>468.3</ele>
        <time>2010-04-02T07:46:50Z</time>
      </trkpt>
      <trkpt lat="50.23567" lon="5.62684">
        <ele>469.26</ele>
        <time>2010-04-02T07:46:51Z</time>
      </trkpt>
      <trkpt lat="50.23559" lon="5.62676">
        <ele>469.74</ele>
        <time>2010-04-02T07:46:52Z</time>
      </trkpt>
      <trkpt lat="50.2355" lon="5.62668">
        <ele>470.7</ele>
        <time>2010-04-02T07:46:53Z</time>
      </trkpt>
      <trkpt lat="50.23534" lon="5.62652">
        <ele>471.66</ele>
        <time>2010-04-02T07:46:55Z</time>
      </trkpt>
      <trkpt lat="50.23526" lon="5.62642">
        <ele>472.63</ele>
        <time>2010-04-02T07:46:56Z</time>
      </trkpt>
      <trkpt lat="50.2343" lon="5.62523">
        <ele>475.03</ele>
        <time>2010-04-02T07:47:08Z</time>
      </trkpt>
      <trkpt lat="50.23421" lon="5.62517">
        <ele>475.03</ele>
        <time>2010-04-02T07:47:09Z</time>
      </trkpt>
      <trkpt lat="50.2341" lon="5.62512">
        <ele>475.51</ele>
        <time>2010-04-02T07:47:10Z</time>
      </trkpt>
      <trkpt lat="50.2339" lon="5.62501">
        <ele>475.99</ele>
        <time>2010-04-02T07:47:12Z</time>
      </trkpt>
      <trkpt lat="50.2338" lon="5.62493">
        <ele>475.99</ele>
        <time>2010-04-02T07:47:13Z</time>
      </trkpt>
      <trkpt lat="50.2337" lon="5.62483">
        <ele>476.47</ele>
        <time>2010-04-02T07:47:14Z</time>
      </trkpt>
      <trkpt lat="50.23288" lon="5.62403">
        <ele>479.84</ele>
        <time>2010-04-02T07:47:23Z</time>
      </trkpt>
      <trkpt lat="50.23281" lon="5.624">
        <ele>479.84</ele>
        <time>2010-04-02T07:47:24Z</time>
      </trkpt>
      <trkpt lat="50.23273" lon="5.62401">
        <ele>480.32</ele>
        <time>2010-04-02T07:47:25Z</time>
      </trkpt>
      <trkpt lat="50.23267" lon="5.62403">
        <ele>480.32</ele>
        <time>2010-04-02T07:47:26Z</time>
      </trkpt>
      <trkpt lat="50.23262" lon="5.62407">
        <ele>480.8</ele>
        <time>2010-04-02T07:47:27Z</time>
      </trkpt>
      <trkpt lat="50.23259" lon="5.62409">
        <ele>480.8</ele>
        <time>2010-04-02T07:47:28Z</time>
      </trkpt>
      <trkpt lat="50.23252" lon="5.62418">
        <ele>480.8</ele>
        <time>2010-04-02T07:47:31Z</time>
      </trkpt>
      <trkpt lat="50.23204" lon="5.62477">
        <ele>479.84</ele>
        <time>2010-04-02T07:47:39Z</time>
      </trkpt>
      <trkpt lat="50.23195" lon="5.62483">
        <ele>480.32</ele>
        <time>2010-04-02T07:47:40Z</time>
      </trkpt>
      <trkpt lat="50.23186" lon="5.62486">
        <ele>480.32</ele>
        <time>2010-04-02T07:47:41Z</time>
      </trkpt>
      <trkpt lat="50.23174" lon="5.62484">
        <ele>480.8</ele>
        <time>2010-04-02T07:47:42Z</time>
      </trkpt>
      <trkpt lat="50.23061" lon="5.62458">
        <ele>484.64</ele>
        <time>2010-04-02T07:47:50Z</time>
      </trkpt>
      <trkpt lat="50.22831" lon="5.6242">
        <ele>491.85</ele>
        <time>2010-04-02T07:48:04Z</time>
      </trkpt>
      <trkpt lat="50.22692" lon="5.62399">
        <ele>500.98</ele>
        <time>2010-04-02T07:48:13Z</time>
      </trkpt>
      <trkpt lat="50.22678" lon="5.62391">
        <ele>501.95</ele>
        <time>2010-04-02T07:48:14Z</time>
      </trkpt>
      <trkpt lat="50.22664" lon="5.62381">
        <ele>502.91</ele>
        <time>2010-04-02T07:48:15Z</time>
      </trkpt>
      <trkpt lat="50.22522" lon="5.62308">
        <ele>511.08</ele>
        <time>2010-04-02T07:48:25Z</time>
      </trkpt>
      <trkpt lat="50.22508" lon="5.62307">
        <ele>511.56</ele>
        <time>2010-04-02T07:48:26Z</time>
      </trkpt>
      <trkpt lat="50.22493" lon="5.62309">
        <ele>512.04</ele>
        <time>2010-04-02T07:48:27Z</time>
      </trkpt>
      <trkpt lat="50.22479" lon="5.62312">
        <ele>513</ele>
        <time>2010-04-02T07:48:28Z</time>
      </trkpt>
      <trkpt lat="50.22423" lon="5.62323">
        <ele>516.37</ele>
        <time>2010-04-02T07:48:32Z</time>
      </trkpt>
      <trkpt lat="50.22408" lon="5.6232">
        <ele>517.81</ele>
        <time>2010-04-02T07:48:33Z</time>
      </trkpt>
      <trkpt lat="50.22336" lon="5.62309">
        <ele>522.61</ele>
        <time>2010-04-02T07:48:38Z</time>
      </trkpt>
      <trkpt lat="50.22322" lon="5.62312">
        <ele>523.58</ele>
        <time>2010-04-02T07:48:39Z</time>
      </trkpt>
      <trkpt lat="50.22307" lon="5.62318">
        <ele>524.06</ele>
        <time>2010-04-02T07:48:40Z</time>
      </trkpt>
      <trkpt lat="50.22293" lon="5.62325">
        <ele>524.54</ele>
        <time>2010-04-02T07:48:41Z</time>
      </trkpt>
      <trkpt lat="50.22279" lon="5.62334">
        <ele>525.5</ele>
        <time>2010-04-02T07:48:42Z</time>
      </trkpt>
      <trkpt lat="50.22265" lon="5.62344">
        <ele>526.46</ele>
        <time>2010-04-02T07:48:43Z</time>
      </trkpt>
      <trkpt lat="50.22252" lon="5.62357">
        <ele>527.9</ele>
        <time>2010-04-02T07:48:44Z</time>
      </trkpt>
      <trkpt lat="50.2224" lon="5.62376">
        <ele>529.82</ele>
        <time>2010-04-02T07:48:45Z</time>
      </trkpt>
      <trkpt lat="50.22226" lon="5.62389">
        <ele>530.79</ele>
        <time>2010-04-02T07:48:46Z</time>
      </trkpt>
      <trkpt lat="50.22164" lon="5.62489">
        <ele>534.63</ele>
        <time>2010-04-02T07:48:52Z</time>
      </trkpt>
      <trkpt lat="50.22159" lon="5.62512">
        <ele>535.11</ele>
        <time>2010-04-02T07:48:53Z</time>
      </trkpt>
      <trkpt lat="50.22152" lon="5.62535">
        <ele>535.59</ele>
        <time>2010-04-02T07:48:54Z</time>
      </trkpt>
      <trkpt lat="50.22143" lon="5.62556">
        <ele>536.07</ele>
        <time>2010-04-02T07:48:55Z</time>
      </trkpt>
      <trkpt lat="50.22133" lon="5.62576">
        <ele>537.03</ele>
        <time>2010-04-02T07:48:56Z</time>
      </trkpt>
      <trkpt lat="50.22122" lon="5.62596">
        <ele>537.51</ele>
        <time>2010-04-02T07:48:57Z</time>
      </trkpt>
      <trkpt lat="50.21967" lon="5.62836">
        <ele>543.76</ele>
        <time>2010-04-02T07:49:11Z</time>
      </trkpt>
      <trkpt lat="50.21925" lon="5.62896">
        <ele>544.72</ele>
        <time>2010-04-02T07:49:15Z</time>
      </trkpt>
      <trkpt lat="50.21912" lon="5.62907">
        <ele>544.72</ele>
        <time>2010-04-02T07:49:16Z</time>
      </trkpt>
      <trkpt lat="50.21899" lon="5.62917">
        <ele>544.24</ele>
        <time>2010-04-02T07:49:17Z</time>
      </trkpt>
      <trkpt lat="50.21772" lon="5.63034">
        <ele>542.8</ele>
        <time>2010-04-02T07:49:26Z</time>
      </trkpt>
      <trkpt lat="50.2165" lon="5.63167">
        <ele>539.92</ele>
        <time>2010-04-02T07:49:35Z</time>
      </trkpt>
      <trkpt lat="50.21405" lon="5.63391">
        <ele>547.13</ele>
        <time>2010-04-02T07:49:53Z</time>
      </trkpt>
      <trkpt lat="50.21305" lon="5.63459">
        <ele>547.61</ele>
        <time>2010-04-02T07:50:01Z</time>
      </trkpt>
      <trkpt lat="50.21291" lon="5.6346">
        <ele>547.13</ele>
        <time>2010-04-02T07:50:02Z</time>
      </trkpt>
      <trkpt lat="50.21276" lon="5.63458">
        <ele>547.13</ele>
        <time>2010-04-02T07:50:03Z</time>
      </trkpt>
      <trkpt lat="50.21261" lon="5.63455">
        <ele>546.65</ele>
        <time>2010-04-02T07:50:04Z</time>
      </trkpt>
      <trkpt lat="50.21247" lon="5.6345">
        <ele>546.65</ele>
        <time>2010-04-02T07:50:05Z</time>
      </trkpt>
      <trkpt lat="50.21126" lon="5.6341">
        <ele>543.76</ele>
        <time>2010-04-02T07:50:15Z</time>
      </trkpt>
      <trkpt lat="50.2112" lon="5.63406">
        <ele>543.76</ele>
        <time>2010-04-02T07:50:16Z</time>
      </trkpt>
      <trkpt lat="50.21116" lon="5.63401">
        <ele>543.76</ele>
        <time>2010-04-02T07:50:17Z</time>
      </trkpt>
      <trkpt lat="50.21113" lon="5.63397">
        <ele>543.76</ele>
        <time>2010-04-02T07:50:18Z</time>
      </trkpt>
      <trkpt lat="50.2111" lon="5.63392">
        <ele>543.28</ele>
        <time>2010-04-02T07:50:19Z</time>
      </trkpt>
      <trkpt lat="50.21108" lon="5.63386">
        <ele>543.28</ele>
        <time>2010-04-02T07:50:20Z</time>
      </trkpt>
      <trkpt lat="50.21106" lon="5.63375">
        <ele>543.76</ele>
        <time>2010-04-02T07:50:21Z</time>
      </trkpt>
      <trkpt lat="50.21105" lon="5.63362">
        <ele>543.76</ele>
        <time>2010-04-02T07:50:22Z</time>
      </trkpt>
      <trkpt lat="50.21102" lon="5.63348">
        <ele>543.28</ele>
        <time>2010-04-02T07:50:23Z</time>
      </trkpt>
      <trkpt lat="50.21083" lon="5.63194">
        <ele>539.44</ele>
        <time>2010-04-02T07:50:31Z</time>
      </trkpt>
      <trkpt lat="50.21048" lon="5.62843">
        <ele>531.27</ele>
        <time>2010-04-02T07:50:44Z</time>
      </trkpt>
      <trkpt lat="50.21007" lon="5.62376">
        <ele>522.13</ele>
        <time>2010-04-02T07:51:00Z</time>
      </trkpt>
      <trkpt lat="50.21009" lon="5.62346">
        <ele>522.13</ele>
        <time>2010-04-02T07:51:01Z</time>
      </trkpt>
      <trkpt lat="50.21013" lon="5.62317">
        <ele>521.65</ele>
        <time>2010-04-02T07:51:02Z</time>
      </trkpt>
      <trkpt lat="50.21019" lon="5.62289">
        <ele>520.69</ele>
        <time>2010-04-02T07:51:03Z</time>
      </trkpt>
      <trkpt lat="50.21027" lon="5.62262">
        <ele>520.21</ele>
        <time>2010-04-02T07:51:04Z</time>
      </trkpt>
      <trkpt lat="50.21037" lon="5.62237">
        <ele>519.25</ele>
        <time>2010-04-02T07:51:05Z</time>
      </trkpt>
      <trkpt lat="50.21049" lon="5.62215">
        <ele>517.81</ele>
        <time>2010-04-02T07:51:06Z</time>
      </trkpt>
      <trkpt lat="50.21063" lon="5.62194">
        <ele>516.85</ele>
        <time>2010-04-02T07:51:07Z</time>
      </trkpt>
      <trkpt lat="50.21077" lon="5.62175">
        <ele>516.37</ele>
        <time>2010-04-02T07:51:08Z</time>
      </trkpt>
      <trkpt lat="50.21091" lon="5.62156">
        <ele>515.4</ele>
        <time>2010-04-02T07:51:09Z</time>
      </trkpt>
      <trkpt lat="50.21228" lon="5.61997">
        <ele>509.64</ele>
        <time>2010-04-02T07:51:18Z</time>
      </trkpt>
      <trkpt lat="50.21241" lon="5.61975">
        <ele>509.16</ele>
        <time>2010-04-02T07:51:19Z</time>
      </trkpt>
      <trkpt lat="50.21252" lon="5.61952">
        <ele>508.19</ele>
        <time>2010-04-02T07:51:20Z</time>
      </trkpt>
      <trkpt lat="50.21262" lon="5.61927">
        <ele>507.71</ele>
        <time>2010-04-02T07:51:21Z</time>
      </trkpt>
      <trkpt lat="50.2127" lon="5.619">
        <ele>506.75</ele>
        <time>2010-04-02T07:51:22Z</time>
      </trkpt>
      <trkpt lat="50.21277" lon="5.61872">
        <ele>505.79</ele>
        <time>2010-04-02T07:51:23Z</time>
      </trkpt>
      <trkpt lat="50.2129" lon="5.61758">
        <ele>500.02</ele>
        <time>2010-04-02T07:51:27Z</time>
      </trkpt>
      <trkpt lat="50.21298" lon="5.61609">
        <ele>495.7</ele>
        <time>2010-04-02T07:51:32Z</time>
      </trkpt>
      <trkpt lat="50.21304" lon="5.61582">
        <ele>494.74</ele>
        <time>2010-04-02T07:51:33Z</time>
      </trkpt>
      <trkpt lat="50.21311" lon="5.61555">
        <ele>494.26</ele>
        <time>2010-04-02T07:51:34Z</time>
      </trkpt>
      <trkpt lat="50.2132" lon="5.61529">
        <ele>493.29</ele>
        <time>2010-04-02T07:51:35Z</time>
      </trkpt>
      <trkpt lat="50.21331" lon="5.61505">
        <ele>492.33</ele>
        <time>2010-04-02T07:51:36Z</time>
      </trkpt>
      <trkpt lat="50.21343" lon="5.61482">
        <ele>491.37</ele>
        <time>2010-04-02T07:51:37Z</time>
      </trkpt>
      <trkpt lat="50.21356" lon="5.61461">
        <ele>490.41</ele>
        <time>2010-04-02T07:51:38Z</time>
      </trkpt>
      <trkpt lat="50.2137" lon="5.61441">
        <ele>489.93</ele>
        <time>2010-04-02T07:51:39Z</time>
      </trkpt>
      <trkpt lat="50.21386" lon="5.61424">
        <ele>489.45</ele>
        <time>2010-04-02T07:51:40Z</time>
      </trkpt>
      <trkpt lat="50.21402" lon="5.61409">
        <ele>488.97</ele>
        <time>2010-04-02T07:51:41Z</time>
      </trkpt>
      <trkpt lat="50.21418" lon="5.61394">
        <ele>488.49</ele>
        <time>2010-04-02T07:51:42Z</time>
      </trkpt>
      <trkpt lat="50.21507" lon="5.61288">
        <ele>483.68</ele>
        <time>2010-04-02T07:51:48Z</time>
      </trkpt>
      <trkpt lat="50.21518" lon="5.61263">
        <ele>482.24</ele>
        <time>2010-04-02T07:51:49Z</time>
      </trkpt>
      <trkpt lat="50.21526" lon="5.61235">
        <ele>481.76</ele>
        <time>2010-04-02T07:51:50Z</time>
      </trkpt>
      <trkpt lat="50.21533" lon="5.61206">
        <ele>480.32</ele>
        <time>2010-04-02T07:51:51Z</time>
      </trkpt>
      <trkpt lat="50.21538" lon="5.61177">
        <ele>478.87</ele>
        <time>2010-04-02T07:51:52Z</time>
      </trkpt>
      <trkpt lat="50.21542" lon="5.61146">
        <ele>477.91</ele>
        <time>2010-04-02T07:51:53Z</time>
      </trkpt>
      <trkpt lat="50.21547" lon="5.61116">
        <ele>476.95</ele>
        <time>2010-04-02T07:51:54Z</time>
      </trkpt>
      <trkpt lat="50.216" lon="5.60667">
        <ele>463.97</ele>
        <time>2010-04-02T07:52:09Z</time>
      </trkpt>
      <trkpt lat="50.21568" lon="5.60546">
        <ele>462.05</ele>
        <time>2010-04-02T07:52:13Z</time>
      </trkpt>
      <trkpt lat="50.21558" lon="5.60518">
        <ele>461.09</ele>
        <time>2010-04-02T07:52:14Z</time>
      </trkpt>
      <trkpt lat="50.21547" lon="5.6049">
        <ele>460.13</ele>
        <time>2010-04-02T07:52:15Z</time>
      </trkpt>
      <trkpt lat="50.21446" lon="5.60289">
        <ele>452.44</ele>
        <time>2010-04-02T07:52:23Z</time>
      </trkpt>
      <trkpt lat="50.21366" lon="5.60183">
        <ele>446.19</ele>
        <time>2010-04-02T07:52:29Z</time>
      </trkpt>
      <trkpt lat="50.21347" lon="5.60183">
        <ele>444.75</ele>
        <time>2010-04-02T07:52:30Z</time>
      </trkpt>
      <trkpt lat="50.21328" lon="5.60183">
        <ele>444.27</ele>
        <time>2010-04-02T07:52:31Z</time>
      </trkpt>
      <trkpt lat="50.21309" lon="5.60183">
        <ele>443.31</ele>
        <time>2010-04-02T07:52:32Z</time>
      </trkpt>
      <trkpt lat="50.21289" lon="5.60181">
        <ele>442.82</ele>
        <time>2010-04-02T07:52:33Z</time>
      </trkpt>
      <trkpt lat="50.21169" lon="5.6012">
        <ele>434.65</ele>
        <time>2010-04-02T07:52:40Z</time>
      </trkpt>
      <trkpt lat="50.21155" lon="5.60103">
        <ele>433.69</ele>
        <time>2010-04-02T07:52:41Z</time>
      </trkpt>
      <trkpt lat="50.21142" lon="5.60087">
        <ele>432.25</ele>
        <time>2010-04-02T07:52:42Z</time>
      </trkpt>
      <trkpt lat="50.21116" lon="5.60059">
        <ele>431.29</ele>
        <time>2010-04-02T07:52:44Z</time>
      </trkpt>
      <trkpt lat="50.211" lon="5.6005">
        <ele>431.29</ele>
        <time>2010-04-02T07:52:45Z</time>
      </trkpt>
      <trkpt lat="50.21083" lon="5.60049">
        <ele>430.33</ele>
        <time>2010-04-02T07:52:46Z</time>
      </trkpt>
      <trkpt lat="50.21053" lon="5.60057">
        <ele>428.4</ele>
        <time>2010-04-02T07:52:48Z</time>
      </trkpt>
      <trkpt lat="50.2104" lon="5.60072">
        <ele>428.4</ele>
        <time>2010-04-02T07:52:49Z</time>
      </trkpt>
      <trkpt lat="50.21029" lon="5.60088">
        <ele>428.4</ele>
        <time>2010-04-02T07:52:50Z</time>
      </trkpt>
      <trkpt lat="50.21018" lon="5.60103">
        <ele>427.92</ele>
        <time>2010-04-02T07:52:51Z</time>
      </trkpt>
      <trkpt lat="50.21008" lon="5.6012">
        <ele>426.96</ele>
        <time>2010-04-02T07:52:52Z</time>
      </trkpt>
      <trkpt lat="50.20975" lon="5.60207">
        <ele>423.12</ele>
        <time>2010-04-02T07:52:56Z</time>
      </trkpt>
      <trkpt lat="50.20971" lon="5.60228">
        <ele>421.68</ele>
        <time>2010-04-02T07:52:57Z</time>
      </trkpt>
      <trkpt lat="50.20968" lon="5.60247">
        <ele>421.19</ele>
        <time>2010-04-02T07:52:58Z</time>
      </trkpt>
      <trkpt lat="50.20964" lon="5.60265">
        <ele>421.19</ele>
        <time>2010-04-02T07:52:59Z</time>
      </trkpt>
      <trkpt lat="50.20956" lon="5.60279">
        <ele>421.19</ele>
        <time>2010-04-02T07:53:00Z</time>
      </trkpt>
      <trkpt lat="50.20946" lon="5.60286">
        <ele>420.71</ele>
        <time>2010-04-02T07:53:01Z</time>
      </trkpt>
      <trkpt lat="50.20936" lon="5.60287">
        <ele>419.27</ele>
        <time>2010-04-02T07:53:02Z</time>
      </trkpt>
      <trkpt lat="50.20925" lon="5.60282">
        <ele>418.31</ele>
        <time>2010-04-02T07:53:03Z</time>
      </trkpt>
      <trkpt lat="50.20915" lon="5.60273">
        <ele>417.83</ele>
        <time>2010-04-02T07:53:04Z</time>
      </trkpt>
      <trkpt lat="50.20905" lon="5.60262">
        <ele>417.35</ele>
        <time>2010-04-02T07:53:05Z</time>
      </trkpt>
      <trkpt lat="50.20899" lon="5.60244">
        <ele>414.95</ele>
        <time>2010-04-02T07:53:06Z</time>
      </trkpt>
      <trkpt lat="50.20892" lon="5.60225">
        <ele>412.06</ele>
        <time>2010-04-02T07:53:07Z</time>
      </trkpt>
      <trkpt lat="50.20885" lon="5.60207">
        <ele>410.14</ele>
        <time>2010-04-02T07:53:08Z</time>
      </trkpt>
      <trkpt lat="50.20881" lon="5.60188">
        <ele>410.62</ele>
        <time>2010-04-02T07:53:09Z</time>
      </trkpt>
      <trkpt lat="50.20878" lon="5.60168">
        <ele>409.66</ele>
        <time>2010-04-02T07:53:10Z</time>
      </trkpt>
      <trkpt lat="50.20876" lon="5.60147">
        <ele>410.14</ele>
        <time>2010-04-02T07:53:11Z</time>
      </trkpt>
      <trkpt lat="50.20876" lon="5.60126">
        <ele>410.14</ele>
        <time>2010-04-02T07:53:12Z</time>
      </trkpt>
      <trkpt lat="50.20878" lon="5.60104">
        <ele>409.66</ele>
        <time>2010-04-02T07:53:13Z</time>
      </trkpt>
      <trkpt lat="50.2088" lon="5.60082">
        <ele>408.7</ele>
        <time>2010-04-02T07:53:14Z</time>
      </trkpt>
      <trkpt lat="50.20882" lon="5.6006">
        <ele>408.22</ele>
        <time>2010-04-02T07:53:15Z</time>
      </trkpt>
      <trkpt lat="50.20923" lon="5.59847">
        <ele>404.37</ele>
        <time>2010-04-02T07:53:24Z</time>
      </trkpt>
      <trkpt lat="50.20941" lon="5.59628">
        <ele>398.12</ele>
        <time>2010-04-02T07:53:33Z</time>
      </trkpt>
      <trkpt lat="50.20939" lon="5.59605">
        <ele>397.64</ele>
        <time>2010-04-02T07:53:34Z</time>
      </trkpt>
      <trkpt lat="50.20935" lon="5.59583">
        <ele>397.16</ele>
        <time>2010-04-02T07:53:35Z</time>
      </trkpt>
      <trkpt lat="50.20923" lon="5.59566">
        <ele>396.68</ele>
        <time>2010-04-02T07:53:36Z</time>
      </trkpt>
      <trkpt lat="50.20913" lon="5.59551">
        <ele>396.68</ele>
        <time>2010-04-02T07:53:37Z</time>
      </trkpt>
      <trkpt lat="50.209" lon="5.59538">
        <ele>396.2</ele>
        <time>2010-04-02T07:53:38Z</time>
      </trkpt>
      <trkpt lat="50.20888" lon="5.59524">
        <ele>395.72</ele>
        <time>2010-04-02T07:53:39Z</time>
      </trkpt>
      <trkpt lat="50.20821" lon="5.59385">
        <ele>388.51</ele>
        <time>2010-04-02T07:53:46Z</time>
      </trkpt>
      <trkpt lat="50.20816" lon="5.59361">
        <ele>387.07</ele>
        <time>2010-04-02T07:53:47Z</time>
      </trkpt>
      <trkpt lat="50.20812" lon="5.59336">
        <ele>386.59</ele>
        <time>2010-04-02T07:53:48Z</time>
      </trkpt>
      <trkpt lat="50.20782" lon="5.59226">
        <ele>383.22</ele>
        <time>2010-04-02T07:53:53Z</time>
      </trkpt>
      <trkpt lat="50.2076" lon="5.59192">
        <ele>381.78</ele>
        <time>2010-04-02T07:53:55Z</time>
      </trkpt>
      <trkpt lat="50.20747" lon="5.59176">
        <ele>381.3</ele>
        <time>2010-04-02T07:53:56Z</time>
      </trkpt>
      <trkpt lat="50.20646" lon="5.59005">
        <ele>377.45</ele>
        <time>2010-04-02T07:54:05Z</time>
      </trkpt>
      <trkpt lat="50.20593" lon="5.58942">
        <ele>374.09</ele>
        <time>2010-04-02T07:54:09Z</time>
      </trkpt>
      <trkpt lat="50.20577" lon="5.58935">
        <ele>373.13</ele>
        <time>2010-04-02T07:54:10Z</time>
      </trkpt>
      <trkpt lat="50.20542" lon="5.58925">
        <ele>370.73</ele>
        <time>2010-04-02T07:54:12Z</time>
      </trkpt>
      <trkpt lat="50.20525" lon="5.58926">
        <ele>368.32</ele>
        <time>2010-04-02T07:54:13Z</time>
      </trkpt>
      <trkpt lat="50.20372" lon="5.58879">
        <ele>359.19</ele>
        <time>2010-04-02T07:54:22Z</time>
      </trkpt>
      <trkpt lat="50.20252" lon="5.58757">
        <ele>353.9</ele>
        <time>2010-04-02T07:54:30Z</time>
      </trkpt>
      <trkpt lat="50.20138" lon="5.58589">
        <ele>348.13</ele>
        <time>2010-04-02T07:54:39Z</time>
      </trkpt>
      <trkpt lat="50.20133" lon="5.58567">
        <ele>347.65</ele>
        <time>2010-04-02T07:54:40Z</time>
      </trkpt>
      <trkpt lat="50.20126" lon="5.58548">
        <ele>347.65</ele>
        <time>2010-04-02T07:54:41Z</time>
      </trkpt>
      <trkpt lat="50.20118" lon="5.58533">
        <ele>346.69</ele>
        <time>2010-04-02T07:54:42Z</time>
      </trkpt>
      <trkpt lat="50.20108" lon="5.58522">
        <ele>345.25</ele>
        <time>2010-04-02T07:54:43Z</time>
      </trkpt>
      <trkpt lat="50.20094" lon="5.58521">
        <ele>344.29</ele>
        <time>2010-04-02T07:54:44Z</time>
      </trkpt>
      <trkpt lat="50.20081" lon="5.58521">
        <ele>343.33</ele>
        <time>2010-04-02T07:54:45Z</time>
      </trkpt>
      <trkpt lat="50.20068" lon="5.58523">
        <ele>342.37</ele>
        <time>2010-04-02T07:54:46Z</time>
      </trkpt>
      <trkpt lat="50.20055" lon="5.58524">
        <ele>342.37</ele>
        <time>2010-04-02T07:54:47Z</time>
      </trkpt>
      <trkpt lat="50.20032" lon="5.58518">
        <ele>340.92</ele>
        <time>2010-04-02T07:54:49Z</time>
      </trkpt>
      <trkpt lat="50.20021" lon="5.58506">
        <ele>339.96</ele>
        <time>2010-04-02T07:54:50Z</time>
      </trkpt>
      <trkpt lat="50.20015" lon="5.5849">
        <ele>339</ele>
        <time>2010-04-02T07:54:51Z</time>
      </trkpt>
      <trkpt lat="50.2001" lon="5.58471">
        <ele>333.71</ele>
        <time>2010-04-02T07:54:52Z</time>
      </trkpt>
      <trkpt lat="50.20021" lon="5.58445">
        <ele>335.16</ele>
        <time>2010-04-02T07:54:53Z</time>
      </trkpt>
      <trkpt lat="50.20022" lon="5.58429">
        <ele>335.16</ele>
        <time>2010-04-02T07:54:54Z</time>
      </trkpt>
      <trkpt lat="50.20028" lon="5.58414">
        <ele>333.71</ele>
        <time>2010-04-02T07:54:55Z</time>
      </trkpt>
      <trkpt lat="50.20036" lon="5.58399">
        <ele>332.75</ele>
        <time>2010-04-02T07:54:56Z</time>
      </trkpt>
      <trkpt lat="50.20044" lon="5.58383">
        <ele>330.83</ele>
        <time>2010-04-02T07:54:57Z</time>
      </trkpt>
      <trkpt lat="50.20072" lon="5.58311">
        <ele>332.75</ele>
        <time>2010-04-02T07:55:01Z</time>
      </trkpt>
      <trkpt lat="50.20072" lon="5.58289">
        <ele>332.75</ele>
        <time>2010-04-02T07:55:02Z</time>
      </trkpt>
      <trkpt lat="50.20068" lon="5.58266">
        <ele>332.75</ele>
        <time>2010-04-02T07:55:03Z</time>
      </trkpt>
      <trkpt lat="50.20063" lon="5.58246">
        <ele>331.79</ele>
        <time>2010-04-02T07:55:04Z</time>
      </trkpt>
      <trkpt lat="50.20057" lon="5.58225">
        <ele>331.31</ele>
        <time>2010-04-02T07:55:05Z</time>
      </trkpt>
      <trkpt lat="50.20051" lon="5.58203">
        <ele>330.83</ele>
        <time>2010-04-02T07:55:06Z</time>
      </trkpt>
      <trkpt lat="50.2" lon="5.58005">
        <ele>326.02</ele>
        <time>2010-04-02T07:55:15Z</time>
      </trkpt>
      <trkpt lat="50.19928" lon="5.57775">
        <ele>319.3</ele>
        <time>2010-04-02T07:55:26Z</time>
      </trkpt>
      <trkpt lat="50.19893" lon="5.57696">
        <ele>315.93</ele>
        <time>2010-04-02T07:55:30Z</time>
      </trkpt>
      <trkpt lat="50.19888" lon="5.57674">
        <ele>315.45</ele>
        <time>2010-04-02T07:55:31Z</time>
      </trkpt>
      <trkpt lat="50.19821" lon="5.57491">
        <ele>305.36</ele>
        <time>2010-04-02T07:55:40Z</time>
      </trkpt>
      <trkpt lat="50.198" lon="5.57462">
        <ele>304.39</ele>
        <time>2010-04-02T07:55:42Z</time>
      </trkpt>
      <trkpt lat="50.19788" lon="5.57451">
        <ele>303.91</ele>
        <time>2010-04-02T07:55:43Z</time>
      </trkpt>
      <trkpt lat="50.19774" lon="5.57441">
        <ele>303.91</ele>
        <time>2010-04-02T07:55:44Z</time>
      </trkpt>
      <trkpt lat="50.19659" lon="5.57344">
        <ele>301.03</ele>
        <time>2010-04-02T07:55:51Z</time>
      </trkpt>
      <trkpt lat="50.19472" lon="5.57169">
        <ele>289.97</ele>
        <time>2010-04-02T07:56:01Z</time>
      </trkpt>
      <trkpt lat="50.19424" lon="5.57111">
        <ele>286.61</ele>
        <time>2010-04-02T07:56:05Z</time>
      </trkpt>
      <trkpt lat="50.19413" lon="5.57105">
        <ele>285.17</ele>
        <time>2010-04-02T07:56:06Z</time>
      </trkpt>
      <trkpt lat="50.19403" lon="5.57107">
        <ele>283.73</ele>
        <time>2010-04-02T07:56:07Z</time>
      </trkpt>
      <trkpt lat="50.19392" lon="5.57114">
        <ele>282.28</ele>
        <time>2010-04-02T07:56:08Z</time>
      </trkpt>
      <trkpt lat="50.19382" lon="5.57126">
        <ele>281.32</ele>
        <time>2010-04-02T07:56:09Z</time>
      </trkpt>
      <trkpt lat="50.19374" lon="5.5714">
        <ele>280.36</ele>
        <time>2010-04-02T07:56:10Z</time>
      </trkpt>
      <trkpt lat="50.19369" lon="5.57156">
        <ele>279.88</ele>
        <time>2010-04-02T07:56:11Z</time>
      </trkpt>
      <trkpt lat="50.19364" lon="5.57172">
        <ele>279.88</ele>
        <time>2010-04-02T07:56:12Z</time>
      </trkpt>
      <trkpt lat="50.1936" lon="5.57191">
        <ele>279.4</ele>
        <time>2010-04-02T07:56:13Z</time>
      </trkpt>
      <trkpt lat="50.19342" lon="5.57252">
        <ele>277.96</ele>
        <time>2010-04-02T07:56:16Z</time>
      </trkpt>
      <trkpt lat="50.19263" lon="5.57514">
        <ele>272.19</ele>
        <time>2010-04-02T07:56:28Z</time>
      </trkpt>
      <trkpt lat="50.19166" lon="5.57715">
        <ele>261.62</ele>
        <time>2010-04-02T07:56:38Z</time>
      </trkpt>
      <trkpt lat="50.19114" lon="5.57784">
        <ele>258.73</ele>
        <time>2010-04-02T07:56:42Z</time>
      </trkpt>
      <trkpt lat="50.191" lon="5.57797">
        <ele>257.29</ele>
        <time>2010-04-02T07:56:43Z</time>
      </trkpt>
      <trkpt lat="50.18953" lon="5.57886">
        <ele>251.52</ele>
        <time>2010-04-02T07:56:52Z</time>
      </trkpt>
      <trkpt lat="50.188" lon="5.5796">
        <ele>239.02</ele>
        <time>2010-04-02T07:57:02Z</time>
      </trkpt>
      <trkpt lat="50.18771" lon="5.57965">
        <ele>236.14</ele>
        <time>2010-04-02T07:57:04Z</time>
      </trkpt>
      <trkpt lat="50.18756" lon="5.57965">
        <ele>234.7</ele>
        <time>2010-04-02T07:57:05Z</time>
      </trkpt>
      <trkpt lat="50.18741" lon="5.57965">
        <ele>233.74</ele>
        <time>2010-04-02T07:57:06Z</time>
      </trkpt>
      <trkpt lat="50.18726" lon="5.57967">
        <ele>232.78</ele>
        <time>2010-04-02T07:57:07Z</time>
      </trkpt>
      <trkpt lat="50.18711" lon="5.57969">
        <ele>231.81</ele>
        <time>2010-04-02T07:57:08Z</time>
      </trkpt>
      <trkpt lat="50.18609" lon="5.57944">
        <ele>223.64</ele>
        <time>2010-04-02T07:57:15Z</time>
      </trkpt>
      <trkpt lat="50.18584" lon="5.57922">
        <ele>220.76</ele>
        <time>2010-04-02T07:57:17Z</time>
      </trkpt>
      <trkpt lat="50.18572" lon="5.57909">
        <ele>219.32</ele>
        <time>2010-04-02T07:57:18Z</time>
      </trkpt>
      <trkpt lat="50.18497" lon="5.57813">
        <ele>217.88</ele>
        <time>2010-04-02T07:57:25Z</time>
      </trkpt>
      <trkpt lat="50.18488" lon="5.57799">
        <ele>216.43</ele>
        <time>2010-04-02T07:57:26Z</time>
      </trkpt>
      <trkpt lat="50.18481" lon="5.57785">
        <ele>215.95</ele>
        <time>2010-04-02T07:57:27Z</time>
      </trkpt>
      <trkpt lat="50.18475" lon="5.5777">
        <ele>215.47</ele>
        <time>2010-04-02T07:57:28Z</time>
      </trkpt>
      <trkpt lat="50.18469" lon="5.57755">
        <ele>214.99</ele>
        <time>2010-04-02T07:57:29Z</time>
      </trkpt>
      <trkpt lat="50.18421" lon="5.5761">
        <ele>217.4</ele>
        <time>2010-04-02T07:57:40Z</time>
      </trkpt>
      <trkpt lat="50.18401" lon="5.5757">
        <ele>217.88</ele>
        <time>2010-04-02T07:57:44Z</time>
      </trkpt>
      <trkpt lat="50.18344" lon="5.57506">
        <ele>218.84</ele>
        <time>2010-04-02T07:57:55Z</time>
      </trkpt>
      <trkpt lat="50.18232" lon="5.57456">
        <ele>217.88</ele>
        <time>2010-04-02T07:58:09Z</time>
      </trkpt>
      <trkpt lat="50.18158" lon="5.57421">
        <ele>218.36</ele>
        <time>2010-04-02T07:58:18Z</time>
      </trkpt>
      <trkpt lat="50.18147" lon="5.57419">
        <ele>218.84</ele>
        <time>2010-04-02T07:58:19Z</time>
      </trkpt>
      <trkpt lat="50.18137" lon="5.57419">
        <ele>219.32</ele>
        <time>2010-04-02T07:58:20Z</time>
      </trkpt>
      <trkpt lat="50.18128" lon="5.57423">
        <ele>219.8</ele>
        <time>2010-04-02T07:58:21Z</time>
      </trkpt>
      <trkpt lat="50.1812" lon="5.57429">
        <ele>220.28</ele>
        <time>2010-04-02T07:58:22Z</time>
      </trkpt>
      <trkpt lat="50.18113" lon="5.57436">
        <ele>220.76</ele>
        <time>2010-04-02T07:58:23Z</time>
      </trkpt>
      <trkpt lat="50.18106" lon="5.57444">
        <ele>221.24</ele>
        <time>2010-04-02T07:58:24Z</time>
      </trkpt>
      <trkpt lat="50.181" lon="5.57451">
        <ele>222.68</ele>
        <time>2010-04-02T07:58:25Z</time>
      </trkpt>
      <trkpt lat="50.18092" lon="5.57455">
        <ele>226.53</ele>
        <time>2010-04-02T07:58:26Z</time>
      </trkpt>
      <trkpt lat="50.18091" lon="5.57466">
        <ele>226.53</ele>
        <time>2010-04-02T07:58:27Z</time>
      </trkpt>
      <trkpt lat="50.18093" lon="5.57479">
        <ele>226.05</ele>
        <time>2010-04-02T07:58:28Z</time>
      </trkpt>
      <trkpt lat="50.18095" lon="5.57491">
        <ele>226.05</ele>
        <time>2010-04-02T07:58:29Z</time>
      </trkpt>
      <trkpt lat="50.18104" lon="5.5756">
        <ele>222.2</ele>
        <time>2010-04-02T07:58:37Z</time>
      </trkpt>
      <trkpt lat="50.18102" lon="5.57564">
        <ele>221.72</ele>
        <time>2010-04-02T07:58:38Z</time>
      </trkpt>
      <trkpt lat="50.18099" lon="5.57567">
        <ele>221.72</ele>
        <time>2010-04-02T07:58:39Z</time>
      </trkpt>
      <trkpt lat="50.18095" lon="5.57571">
        <ele>222.2</ele>
        <time>2010-04-02T07:58:40Z</time>
      </trkpt>
      <trkpt lat="50.1809" lon="5.57573">
        <ele>221.72</ele>
        <time>2010-04-02T07:58:41Z</time>
      </trkpt>
      <trkpt lat="50.18063" lon="5.57595">
        <ele>221.72</ele>
        <time>2010-04-02T07:58:47Z</time>
      </trkpt>
      <trkpt lat="50.1806" lon="5.576">
        <ele>222.2</ele>
        <time>2010-04-02T07:58:48Z</time>
      </trkpt>
      <trkpt lat="50.18035" lon="5.57609">
        <ele>226.53</ele>
        <time>2010-04-02T07:58:53Z</time>
      </trkpt>
      <trkpt lat="50.18031" lon="5.5761">
        <ele>226.53</ele>
        <time>2010-04-02T07:58:54Z</time>
      </trkpt>
      <trkpt lat="50.18001" lon="5.57617">
        <ele>226.05</ele>
        <time>2010-04-02T07:59:03Z</time>
      </trkpt>
      <trkpt lat="50.18002" lon="5.57622">
        <ele>226.05</ele>
        <time>2010-04-02T07:59:04Z</time>
      </trkpt>
      <trkpt lat="50.18002" lon="5.57629">
        <ele>225.57</ele>
        <time>2010-04-02T07:59:05Z</time>
      </trkpt>
      <trkpt lat="50.18004" lon="5.5766">
        <ele>224.12</ele>
        <time>2010-04-02T07:59:10Z</time>
      </trkpt>
      <trkpt lat="50.18002" lon="5.57666">
        <ele>223.64</ele>
        <time>2010-04-02T07:59:11Z</time>
      </trkpt>
      <trkpt lat="50.18" lon="5.57671">
        <ele>223.64</ele>
        <time>2010-04-02T07:59:12Z</time>
      </trkpt>
      <trkpt lat="50.17996" lon="5.57676">
        <ele>223.16</ele>
        <time>2010-04-02T07:59:13Z</time>
      </trkpt>
      <trkpt lat="50.17992" lon="5.57681">
        <ele>223.16</ele>
        <time>2010-04-02T07:59:14Z</time>
      </trkpt>
      <trkpt lat="50.17987" lon="5.57685">
        <ele>223.16</ele>
        <time>2010-04-02T07:59:15Z</time>
      </trkpt>
      <trkpt lat="50.17983" lon="5.57689">
        <ele>223.16</ele>
        <time>2010-04-02T07:59:16Z</time>
      </trkpt>
      <trkpt lat="50.17924" lon="5.57733">
        <ele>225.57</ele>
        <time>2010-04-02T07:59:24Z</time>
      </trkpt>
      <trkpt lat="50.17821" lon="5.57743">
        <ele>232.3</ele>
        <time>2010-04-02T07:59:34Z</time>
      </trkpt>
      <trkpt lat="50.17726" lon="5.57737">
        <ele>237.58</ele>
        <time>2010-04-02T07:59:42Z</time>
      </trkpt>
      <trkpt lat="50.17712" lon="5.5774">
        <ele>238.54</ele>
        <time>2010-04-02T07:59:43Z</time>
      </trkpt>
      <trkpt lat="50.17698" lon="5.57745">
        <ele>239.02</ele>
        <time>2010-04-02T07:59:44Z</time>
      </trkpt>
      <trkpt lat="50.17684" lon="5.57753">
        <ele>239.99</ele>
        <time>2010-04-02T07:59:45Z</time>
      </trkpt>
      <trkpt lat="50.17671" lon="5.57761">
        <ele>240.47</ele>
        <time>2010-04-02T07:59:46Z</time>
      </trkpt>
      <trkpt lat="50.17657" lon="5.57774">
        <ele>240.95</ele>
        <time>2010-04-02T07:59:47Z</time>
      </trkpt>
      <trkpt lat="50.17633" lon="5.57805">
        <ele>242.39</ele>
        <time>2010-04-02T07:59:49Z</time>
      </trkpt>
      <trkpt lat="50.17622" lon="5.57823">
        <ele>243.35</ele>
        <time>2010-04-02T07:59:50Z</time>
      </trkpt>
      <trkpt lat="50.17612" lon="5.57842">
        <ele>244.31</ele>
        <time>2010-04-02T07:59:51Z</time>
      </trkpt>
      <trkpt lat="50.17603" lon="5.57861">
        <ele>245.27</ele>
        <time>2010-04-02T07:59:52Z</time>
      </trkpt>
      <trkpt lat="50.17596" lon="5.57884">
        <ele>246.23</ele>
        <time>2010-04-02T07:59:53Z</time>
      </trkpt>
      <trkpt lat="50.17589" lon="5.57906">
        <ele>247.2</ele>
        <time>2010-04-02T07:59:54Z</time>
      </trkpt>
      <trkpt lat="50.17549" lon="5.58077">
        <ele>254.89</ele>
        <time>2010-04-02T08:00:02Z</time>
      </trkpt>
      <trkpt lat="50.17497" lon="5.58175">
        <ele>261.14</ele>
        <time>2010-04-02T08:00:08Z</time>
      </trkpt>
      <trkpt lat="50.17486" lon="5.58188">
        <ele>262.1</ele>
        <time>2010-04-02T08:00:09Z</time>
      </trkpt>
      <trkpt lat="50.17435" lon="5.58222">
        <ele>265.94</ele>
        <time>2010-04-02T08:00:13Z</time>
      </trkpt>
      <trkpt lat="50.17419" lon="5.58225">
        <ele>266.9</ele>
        <time>2010-04-02T08:00:14Z</time>
      </trkpt>
      <trkpt lat="50.17277" lon="5.58255">
        <ele>276.52</ele>
        <time>2010-04-02T08:00:23Z</time>
      </trkpt>
      <trkpt lat="50.1715" lon="5.5832">
        <ele>285.17</ele>
        <time>2010-04-02T08:00:32Z</time>
      </trkpt>
      <trkpt lat="50.17047" lon="5.5841">
        <ele>293.34</ele>
        <time>2010-04-02T08:00:40Z</time>
      </trkpt>
      <trkpt lat="50.16972" lon="5.58494">
        <ele>298.63</ele>
        <time>2010-04-02T08:00:47Z</time>
      </trkpt>
      <trkpt lat="50.16881" lon="5.58641">
        <ele>305.84</ele>
        <time>2010-04-02T08:00:56Z</time>
      </trkpt>
      <trkpt lat="50.16868" lon="5.58648">
        <ele>306.8</ele>
        <time>2010-04-02T08:00:57Z</time>
      </trkpt>
      <trkpt lat="50.16854" lon="5.58648">
        <ele>307.76</ele>
        <time>2010-04-02T08:00:58Z</time>
      </trkpt>
      <trkpt lat="50.16826" lon="5.58655">
        <ele>309.68</ele>
        <time>2010-04-02T08:01:00Z</time>
      </trkpt>
      <trkpt lat="50.16813" lon="5.58663">
        <ele>310.64</ele>
        <time>2010-04-02T08:01:01Z</time>
      </trkpt>
      <trkpt lat="50.16759" lon="5.58761">
        <ele>316.41</ele>
        <time>2010-04-02T08:01:07Z</time>
      </trkpt>
      <trkpt lat="50.16756" lon="5.58785">
        <ele>317.85</ele>
        <time>2010-04-02T08:01:08Z</time>
      </trkpt>
      <trkpt lat="50.16755" lon="5.5881">
        <ele>318.33</ele>
        <time>2010-04-02T08:01:09Z</time>
      </trkpt>
      <trkpt lat="50.16755" lon="5.58835">
        <ele>319.78</ele>
        <time>2010-04-02T08:01:10Z</time>
      </trkpt>
      <trkpt lat="50.16756" lon="5.58861">
        <ele>320.74</ele>
        <time>2010-04-02T08:01:11Z</time>
      </trkpt>
      <trkpt lat="50.16759" lon="5.58886">
        <ele>322.18</ele>
        <time>2010-04-02T08:01:12Z</time>
      </trkpt>
      <trkpt lat="50.16763" lon="5.58912">
        <ele>323.14</ele>
        <time>2010-04-02T08:01:13Z</time>
      </trkpt>
      <trkpt lat="50.16768" lon="5.58936">
        <ele>324.1</ele>
        <time>2010-04-02T08:01:14Z</time>
      </trkpt>
      <trkpt lat="50.16774" lon="5.5896">
        <ele>325.06</ele>
        <time>2010-04-02T08:01:15Z</time>
      </trkpt>
      <trkpt lat="50.16777" lon="5.58983">
        <ele>326.5</ele>
        <time>2010-04-02T08:01:16Z</time>
      </trkpt>
      <trkpt lat="50.16778" lon="5.59007">
        <ele>327.47</ele>
        <time>2010-04-02T08:01:17Z</time>
      </trkpt>
      <trkpt lat="50.16776" lon="5.59029">
        <ele>328.43</ele>
        <time>2010-04-02T08:01:18Z</time>
      </trkpt>
      <trkpt lat="50.1677" lon="5.59051">
        <ele>329.39</ele>
        <time>2010-04-02T08:01:19Z</time>
      </trkpt>
      <trkpt lat="50.16763" lon="5.5907">
        <ele>330.35</ele>
        <time>2010-04-02T08:01:20Z</time>
      </trkpt>
      <trkpt lat="50.16757" lon="5.59089">
        <ele>331.31</ele>
        <time>2010-04-02T08:01:21Z</time>
      </trkpt>
      <trkpt lat="50.1675" lon="5.59105">
        <ele>332.27</ele>
        <time>2010-04-02T08:01:22Z</time>
      </trkpt>
      <trkpt lat="50.16741" lon="5.59119">
        <ele>332.75</ele>
        <time>2010-04-02T08:01:23Z</time>
      </trkpt>
      <trkpt lat="50.1673" lon="5.59125">
        <ele>333.23</ele>
        <time>2010-04-02T08:01:24Z</time>
      </trkpt>
      <trkpt lat="50.16716" lon="5.59125">
        <ele>334.2</ele>
        <time>2010-04-02T08:01:25Z</time>
      </trkpt>
      <trkpt lat="50.16704" lon="5.59123">
        <ele>334.68</ele>
        <time>2010-04-02T08:01:26Z</time>
      </trkpt>
      <trkpt lat="50.16691" lon="5.59121">
        <ele>335.16</ele>
        <time>2010-04-02T08:01:27Z</time>
      </trkpt>
      <trkpt lat="50.16652" lon="5.5912">
        <ele>337.56</ele>
        <time>2010-04-02T08:01:30Z</time>
      </trkpt>
      <trkpt lat="50.16639" lon="5.59126">
        <ele>338.52</ele>
        <time>2010-04-02T08:01:31Z</time>
      </trkpt>
      <trkpt lat="50.16626" lon="5.59135">
        <ele>339.48</ele>
        <time>2010-04-02T08:01:32Z</time>
      </trkpt>
      <trkpt lat="50.16614" lon="5.59146">
        <ele>340.44</ele>
        <time>2010-04-02T08:01:33Z</time>
      </trkpt>
      <trkpt lat="50.16602" lon="5.59158">
        <ele>340.92</ele>
        <time>2010-04-02T08:01:34Z</time>
      </trkpt>
      <trkpt lat="50.16539" lon="5.5927">
        <ele>348.62</ele>
        <time>2010-04-02T08:01:41Z</time>
      </trkpt>
      <trkpt lat="50.16544" lon="5.59296">
        <ele>349.58</ele>
        <time>2010-04-02T08:01:42Z</time>
      </trkpt>
      <trkpt lat="50.16552" lon="5.59317">
        <ele>351.02</ele>
        <time>2010-04-02T08:01:43Z</time>
      </trkpt>
      <trkpt lat="50.16559" lon="5.59336">
        <ele>352.46</ele>
        <time>2010-04-02T08:01:44Z</time>
      </trkpt>
      <trkpt lat="50.16568" lon="5.59353">
        <ele>353.9</ele>
        <time>2010-04-02T08:01:45Z</time>
      </trkpt>
      <trkpt lat="50.16577" lon="5.59368">
        <ele>355.34</ele>
        <time>2010-04-02T08:01:46Z</time>
      </trkpt>
      <trkpt lat="50.16585" lon="5.59385">
        <ele>356.31</ele>
        <time>2010-04-02T08:01:47Z</time>
      </trkpt>
      <trkpt lat="50.16603" lon="5.5942">
        <ele>358.71</ele>
        <time>2010-04-02T08:01:49Z</time>
      </trkpt>
      <trkpt lat="50.16634" lon="5.59522">
        <ele>365.92</ele>
        <time>2010-04-02T08:01:54Z</time>
      </trkpt>
      <trkpt lat="50.16631" lon="5.59546">
        <ele>366.4</ele>
        <time>2010-04-02T08:01:55Z</time>
      </trkpt>
      <trkpt lat="50.16625" lon="5.59568">
        <ele>367.36</ele>
        <time>2010-04-02T08:01:56Z</time>
      </trkpt>
      <trkpt lat="50.16617" lon="5.5959">
        <ele>368.32</ele>
        <time>2010-04-02T08:01:57Z</time>
      </trkpt>
      <trkpt lat="50.16606" lon="5.59609">
        <ele>369.28</ele>
        <time>2010-04-02T08:01:58Z</time>
      </trkpt>
      <trkpt lat="50.16594" lon="5.59627">
        <ele>370.73</ele>
        <time>2010-04-02T08:01:59Z</time>
      </trkpt>
      <trkpt lat="50.1658" lon="5.59642">
        <ele>371.69</ele>
        <time>2010-04-02T08:02:00Z</time>
      </trkpt>
      <trkpt lat="50.16564" lon="5.59649">
        <ele>372.65</ele>
        <time>2010-04-02T08:02:01Z</time>
      </trkpt>
      <trkpt lat="50.16549" lon="5.59655">
        <ele>373.61</ele>
        <time>2010-04-02T08:02:02Z</time>
      </trkpt>
      <trkpt lat="50.16533" lon="5.59662">
        <ele>375.53</ele>
        <time>2010-04-02T08:02:03Z</time>
      </trkpt>
      <trkpt lat="50.16519" lon="5.59671">
        <ele>376.97</ele>
        <time>2010-04-02T08:02:04Z</time>
      </trkpt>
      <trkpt lat="50.16506" lon="5.59684">
        <ele>377.94</ele>
        <time>2010-04-02T08:02:05Z</time>
      </trkpt>
      <trkpt lat="50.16493" lon="5.597">
        <ele>378.9</ele>
        <time>2010-04-02T08:02:06Z</time>
      </trkpt>
      <trkpt lat="50.16481" lon="5.59717">
        <ele>379.38</ele>
        <time>2010-04-02T08:02:07Z</time>
      </trkpt>
      <trkpt lat="50.16469" lon="5.59735">
        <ele>379.86</ele>
        <time>2010-04-02T08:02:08Z</time>
      </trkpt>
      <trkpt lat="50.16275" lon="5.60034">
        <ele>381.78</ele>
        <time>2010-04-02T08:02:23Z</time>
      </trkpt>
      <trkpt lat="50.1587" lon="5.60768">
        <ele>375.53</ele>
        <time>2010-04-02T08:02:55Z</time>
      </trkpt>
      <trkpt lat="50.15858" lon="5.60789">
        <ele>375.53</ele>
        <time>2010-04-02T08:02:56Z</time>
      </trkpt>
      <trkpt lat="50.15844" lon="5.60807">
        <ele>376.01</ele>
        <time>2010-04-02T08:02:57Z</time>
      </trkpt>
      <trkpt lat="50.15742" lon="5.60964">
        <ele>376.49</ele>
        <time>2010-04-02T08:03:05Z</time>
      </trkpt>
      <trkpt lat="50.15678" lon="5.61105">
        <ele>374.09</ele>
        <time>2010-04-02T08:03:11Z</time>
      </trkpt>
      <trkpt lat="50.15546" lon="5.61234">
        <ele>376.97</ele>
        <time>2010-04-02T08:03:19Z</time>
      </trkpt>
      <trkpt lat="50.15494" lon="5.61279">
        <ele>383.7</ele>
        <time>2010-04-02T08:03:22Z</time>
      </trkpt>
      <trkpt lat="50.15475" lon="5.61288">
        <ele>386.11</ele>
        <time>2010-04-02T08:03:23Z</time>
      </trkpt>
      <trkpt lat="50.15403" lon="5.61329">
        <ele>393.32</ele>
        <time>2010-04-02T08:03:27Z</time>
      </trkpt>
      <trkpt lat="50.15386" lon="5.61344">
        <ele>394.76</ele>
        <time>2010-04-02T08:03:28Z</time>
      </trkpt>
      <trkpt lat="50.15371" lon="5.61361">
        <ele>396.2</ele>
        <time>2010-04-02T08:03:29Z</time>
      </trkpt>
      <trkpt lat="50.15185" lon="5.61554">
        <ele>407.26</ele>
        <time>2010-04-02T08:03:41Z</time>
      </trkpt>
      <trkpt lat="50.15167" lon="5.6156">
        <ele>406.77</ele>
        <time>2010-04-02T08:03:42Z</time>
      </trkpt>
      <trkpt lat="50.15148" lon="5.61562">
        <ele>404.85</ele>
        <time>2010-04-02T08:03:43Z</time>
      </trkpt>
      <trkpt lat="50.14975" lon="5.61581">
        <ele>397.16</ele>
        <time>2010-04-02T08:03:51Z</time>
      </trkpt>
      <trkpt lat="50.14953" lon="5.61589">
        <ele>396.68</ele>
        <time>2010-04-02T08:03:52Z</time>
      </trkpt>
      <trkpt lat="50.14932" lon="5.61601">
        <ele>396.2</ele>
        <time>2010-04-02T08:03:53Z</time>
      </trkpt>
      <trkpt lat="50.13768" lon="5.62268">
        <ele>430.33</ele>
        <time>2010-04-02T08:04:49Z</time>
      </trkpt>
      <trkpt lat="50.13748" lon="5.62275">
        <ele>430.81</ele>
        <time>2010-04-02T08:04:50Z</time>
      </trkpt>
      <trkpt lat="50.13727" lon="5.62278">
        <ele>431.77</ele>
        <time>2010-04-02T08:04:51Z</time>
      </trkpt>
      <trkpt lat="50.13706" lon="5.62276">
        <ele>433.21</ele>
        <time>2010-04-02T08:04:52Z</time>
      </trkpt>
      <trkpt lat="50.13687" lon="5.62266">
        <ele>434.17</ele>
        <time>2010-04-02T08:04:53Z</time>
      </trkpt>
      <trkpt lat="50.13669" lon="5.62253">
        <ele>435.13</ele>
        <time>2010-04-02T08:04:54Z</time>
      </trkpt>
      <trkpt lat="50.13652" lon="5.62237">
        <ele>436.1</ele>
        <time>2010-04-02T08:04:55Z</time>
      </trkpt>
      <trkpt lat="50.13636" lon="5.62219">
        <ele>437.06</ele>
        <time>2010-04-02T08:04:56Z</time>
      </trkpt>
      <trkpt lat="50.1362" lon="5.622">
        <ele>438.02</ele>
        <time>2010-04-02T08:04:57Z</time>
      </trkpt>
      <trkpt lat="50.1343" lon="5.62015">
        <ele>440.42</ele>
        <time>2010-04-02T08:05:08Z</time>
      </trkpt>
      <trkpt lat="50.13172" lon="5.61844">
        <ele>438.5</ele>
        <time>2010-04-02T08:05:21Z</time>
      </trkpt>
      <trkpt lat="50.12931" lon="5.61784">
        <ele>437.06</ele>
        <time>2010-04-02T08:05:33Z</time>
      </trkpt>
      <trkpt lat="50.12913" lon="5.61773">
        <ele>436.58</ele>
        <time>2010-04-02T08:05:34Z</time>
      </trkpt>
      <trkpt lat="50.12896" lon="5.61759">
        <ele>436.58</ele>
        <time>2010-04-02T08:05:35Z</time>
      </trkpt>
      <trkpt lat="50.12702" lon="5.61565">
        <ele>424.08</ele>
        <time>2010-04-02T08:05:47Z</time>
      </trkpt>
      <trkpt lat="50.12653" lon="5.61514">
        <ele>420.71</ele>
        <time>2010-04-02T08:05:50Z</time>
      </trkpt>
      <trkpt lat="50.12635" lon="5.61503">
        <ele>419.75</ele>
        <time>2010-04-02T08:05:51Z</time>
      </trkpt>
      <trkpt lat="50.12616" lon="5.61495">
        <ele>418.79</ele>
        <time>2010-04-02T08:05:52Z</time>
      </trkpt>
      <trkpt lat="50.12597" lon="5.61489">
        <ele>417.83</ele>
        <time>2010-04-02T08:05:53Z</time>
      </trkpt>
      <trkpt lat="50.12578" lon="5.61487">
        <ele>416.87</ele>
        <time>2010-04-02T08:05:54Z</time>
      </trkpt>
      <trkpt lat="50.12561" lon="5.61487">
        <ele>415.91</ele>
        <time>2010-04-02T08:05:55Z</time>
      </trkpt>
      <trkpt lat="50.12548" lon="5.61489">
        <ele>414.95</ele>
        <time>2010-04-02T08:05:56Z</time>
      </trkpt>
      <trkpt lat="50.12536" lon="5.61492">
        <ele>414.47</ele>
        <time>2010-04-02T08:05:57Z</time>
      </trkpt>
      <trkpt lat="50.12509" lon="5.61496">
        <ele>413.5</ele>
        <time>2010-04-02T08:06:00Z</time>
      </trkpt>
      <trkpt lat="50.12501" lon="5.61501">
        <ele>413.5</ele>
        <time>2010-04-02T08:06:01Z</time>
      </trkpt>
      <trkpt lat="50.12494" lon="5.61511">
        <ele>413.02</ele>
        <time>2010-04-02T08:06:02Z</time>
      </trkpt>
      <trkpt lat="50.12432" lon="5.616">
        <ele>409.18</ele>
        <time>2010-04-02T08:06:08Z</time>
      </trkpt>
      <trkpt lat="50.12334" lon="5.61802">
        <ele>406.77</ele>
        <time>2010-04-02T08:06:16Z</time>
      </trkpt>
      <trkpt lat="50.12214" lon="5.62003">
        <ele>413.5</ele>
        <time>2010-04-02T08:06:24Z</time>
      </trkpt>
      <trkpt lat="50.12196" lon="5.6202">
        <ele>413.98</ele>
        <time>2010-04-02T08:06:25Z</time>
      </trkpt>
      <trkpt lat="50.12177" lon="5.62034">
        <ele>414.47</ele>
        <time>2010-04-02T08:06:26Z</time>
      </trkpt>
      <trkpt lat="50.11762" lon="5.62317">
        <ele>392.36</ele>
        <time>2010-04-02T08:06:46Z</time>
      </trkpt>
      <trkpt lat="50.11746" lon="5.62344">
        <ele>390.91</ele>
        <time>2010-04-02T08:06:47Z</time>
      </trkpt>
      <trkpt lat="50.11736" lon="5.62382">
        <ele>388.03</ele>
        <time>2010-04-02T08:06:48Z</time>
      </trkpt>
      <trkpt lat="50.1172" lon="5.62409">
        <ele>385.63</ele>
        <time>2010-04-02T08:06:49Z</time>
      </trkpt>
      <trkpt lat="50.11702" lon="5.62434">
        <ele>384.18</ele>
        <time>2010-04-02T08:06:50Z</time>
      </trkpt>
      <trkpt lat="50.11684" lon="5.62457">
        <ele>383.22</ele>
        <time>2010-04-02T08:06:51Z</time>
      </trkpt>
      <trkpt lat="50.11401" lon="5.62855">
        <ele>378.42</ele>
        <time>2010-04-02T08:07:08Z</time>
      </trkpt>
      <trkpt lat="50.11388" lon="5.62874">
        <ele>377.94</ele>
        <time>2010-04-02T08:07:09Z</time>
      </trkpt>
      <trkpt lat="50.11355" lon="5.62894">
        <ele>377.45</ele>
        <time>2010-04-02T08:07:11Z</time>
      </trkpt>
      <trkpt lat="50.11337" lon="5.62894">
        <ele>376.97</ele>
        <time>2010-04-02T08:07:12Z</time>
      </trkpt>
      <trkpt lat="50.11319" lon="5.62894">
        <ele>376.49</ele>
        <time>2010-04-02T08:07:13Z</time>
      </trkpt>
      <trkpt lat="50.11301" lon="5.62889">
        <ele>376.01</ele>
        <time>2010-04-02T08:07:14Z</time>
      </trkpt>
      <trkpt lat="50.11284" lon="5.6288">
        <ele>375.53</ele>
        <time>2010-04-02T08:07:15Z</time>
      </trkpt>
      <trkpt lat="50.11268" lon="5.62868">
        <ele>375.05</ele>
        <time>2010-04-02T08:07:16Z</time>
      </trkpt>
      <trkpt lat="50.11251" lon="5.62857">
        <ele>374.57</ele>
        <time>2010-04-02T08:07:17Z</time>
      </trkpt>
      <trkpt lat="50.11233" lon="5.6285">
        <ele>374.09</ele>
        <time>2010-04-02T08:07:18Z</time>
      </trkpt>
      <trkpt lat="50.11215" lon="5.62845">
        <ele>373.13</ele>
        <time>2010-04-02T08:07:19Z</time>
      </trkpt>
      <trkpt lat="50.11196" lon="5.62847">
        <ele>372.65</ele>
        <time>2010-04-02T08:07:20Z</time>
      </trkpt>
      <trkpt lat="50.11177" lon="5.62852">
        <ele>371.69</ele>
        <time>2010-04-02T08:07:21Z</time>
      </trkpt>
      <trkpt lat="50.11157" lon="5.62856">
        <ele>370.73</ele>
        <time>2010-04-02T08:07:22Z</time>
      </trkpt>
      <trkpt lat="50.10992" lon="5.62895">
        <ele>363.52</ele>
        <time>2010-04-02T08:07:30Z</time>
      </trkpt>
      <trkpt lat="50.10952" lon="5.62922">
        <ele>362.55</ele>
        <time>2010-04-02T08:07:32Z</time>
      </trkpt>
      <trkpt lat="50.10933" lon="5.62941">
        <ele>362.07</ele>
        <time>2010-04-02T08:07:33Z</time>
      </trkpt>
      <trkpt lat="50.10915" lon="5.62962">
        <ele>360.63</ele>
        <time>2010-04-02T08:07:34Z</time>
      </trkpt>
      <trkpt lat="50.10897" lon="5.62985">
        <ele>359.19</ele>
        <time>2010-04-02T08:07:35Z</time>
      </trkpt>
      <trkpt lat="50.1088" lon="5.6301">
        <ele>358.23</ele>
        <time>2010-04-02T08:07:36Z</time>
      </trkpt>
      <trkpt lat="50.10862" lon="5.63037">
        <ele>357.27</ele>
        <time>2010-04-02T08:07:37Z</time>
      </trkpt>
      <trkpt lat="50.1068" lon="5.63333">
        <ele>348.62</ele>
        <time>2010-04-02T08:07:48Z</time>
      </trkpt>
      <trkpt lat="50.10571" lon="5.63635">
        <ele>345.25</ele>
        <time>2010-04-02T08:07:58Z</time>
      </trkpt>
      <trkpt lat="50.10566" lon="5.63667">
        <ele>344.29</ele>
        <time>2010-04-02T08:07:59Z</time>
      </trkpt>
      <trkpt lat="50.10565" lon="5.63702">
        <ele>343.81</ele>
        <time>2010-04-02T08:08:00Z</time>
      </trkpt>
      <trkpt lat="50.10567" lon="5.63736">
        <ele>342.37</ele>
        <time>2010-04-02T08:08:01Z</time>
      </trkpt>
      <trkpt lat="50.10571" lon="5.63768">
        <ele>340.44</ele>
        <time>2010-04-02T08:08:02Z</time>
      </trkpt>
      <trkpt lat="50.10578" lon="5.63798">
        <ele>339</ele>
        <time>2010-04-02T08:08:03Z</time>
      </trkpt>
      <trkpt lat="50.10585" lon="5.63826">
        <ele>337.08</ele>
        <time>2010-04-02T08:08:04Z</time>
      </trkpt>
      <trkpt lat="50.10601" lon="5.639">
        <ele>333.23</ele>
        <time>2010-04-02T08:08:07Z</time>
      </trkpt>
      <trkpt lat="50.10603" lon="5.63924">
        <ele>331.79</ele>
        <time>2010-04-02T08:08:08Z</time>
      </trkpt>
      <trkpt lat="50.10599" lon="5.63945">
        <ele>330.35</ele>
        <time>2010-04-02T08:08:09Z</time>
      </trkpt>
      <trkpt lat="50.1059" lon="5.63966">
        <ele>328.43</ele>
        <time>2010-04-02T08:08:10Z</time>
      </trkpt>
      <trkpt lat="50.10577" lon="5.63988">
        <ele>327.47</ele>
        <time>2010-04-02T08:08:11Z</time>
      </trkpt>
      <trkpt lat="50.10564" lon="5.64009">
        <ele>326.02</ele>
        <time>2010-04-02T08:08:12Z</time>
      </trkpt>
      <trkpt lat="50.10549" lon="5.64024">
        <ele>324.58</ele>
        <time>2010-04-02T08:08:13Z</time>
      </trkpt>
      <trkpt lat="50.10529" lon="5.64026">
        <ele>324.1</ele>
        <time>2010-04-02T08:08:14Z</time>
      </trkpt>
      <trkpt lat="50.10514" lon="5.64038">
        <ele>322.66</ele>
        <time>2010-04-02T08:08:15Z</time>
      </trkpt>
      <trkpt lat="50.10332" lon="5.64152">
        <ele>310.64</ele>
        <time>2010-04-02T08:08:26Z</time>
      </trkpt>
      <trkpt lat="50.10278" lon="5.64218">
        <ele>306.8</ele>
        <time>2010-04-02T08:08:30Z</time>
      </trkpt>
      <trkpt lat="50.10272" lon="5.64249">
        <ele>305.36</ele>
        <time>2010-04-02T08:08:31Z</time>
      </trkpt>
      <trkpt lat="50.10268" lon="5.64277">
        <ele>304.39</ele>
        <time>2010-04-02T08:08:32Z</time>
      </trkpt>
      <trkpt lat="50.10266" lon="5.64306">
        <ele>302.95</ele>
        <time>2010-04-02T08:08:33Z</time>
      </trkpt>
      <trkpt lat="50.10268" lon="5.64334">
        <ele>301.99</ele>
        <time>2010-04-02T08:08:34Z</time>
      </trkpt>
      <trkpt lat="50.10271" lon="5.64362">
        <ele>301.99</ele>
        <time>2010-04-02T08:08:35Z</time>
      </trkpt>
      <trkpt lat="50.10276" lon="5.64387">
        <ele>301.99</ele>
        <time>2010-04-02T08:08:36Z</time>
      </trkpt>
      <trkpt lat="50.10285" lon="5.6441">
        <ele>301.99</ele>
        <time>2010-04-02T08:08:37Z</time>
      </trkpt>
      <trkpt lat="50.10294" lon="5.64432">
        <ele>301.99</ele>
        <time>2010-04-02T08:08:38Z</time>
      </trkpt>
      <trkpt lat="50.10305" lon="5.64451">
        <ele>301.99</ele>
        <time>2010-04-02T08:08:39Z</time>
      </trkpt>
      <trkpt lat="50.10317" lon="5.64468">
        <ele>301.99</ele>
        <time>2010-04-02T08:08:40Z</time>
      </trkpt>
      <trkpt lat="50.1033" lon="5.64482">
        <ele>301.51</ele>
        <time>2010-04-02T08:08:41Z</time>
      </trkpt>
      <trkpt lat="50.10344" lon="5.64493">
        <ele>301.51</ele>
        <time>2010-04-02T08:08:42Z</time>
      </trkpt>
      <trkpt lat="50.10359" lon="5.64501">
        <ele>301.51</ele>
        <time>2010-04-02T08:08:43Z</time>
      </trkpt>
      <trkpt lat="50.10375" lon="5.64505">
        <ele>301.51</ele>
        <time>2010-04-02T08:08:44Z</time>
      </trkpt>
      <trkpt lat="50.10392" lon="5.64507">
        <ele>301.51</ele>
        <time>2010-04-02T08:08:45Z</time>
      </trkpt>
      <trkpt lat="50.10409" lon="5.64508">
        <ele>301.51</ele>
        <time>2010-04-02T08:08:46Z</time>
      </trkpt>
      <trkpt lat="50.10427" lon="5.64508">
        <ele>302.47</ele>
        <time>2010-04-02T08:08:47Z</time>
      </trkpt>
      <trkpt lat="50.10592" lon="5.64516">
        <ele>301.03</ele>
        <time>2010-04-02T08:08:56Z</time>
      </trkpt>
      <trkpt lat="50.1061" lon="5.64525">
        <ele>300.55</ele>
        <time>2010-04-02T08:08:57Z</time>
      </trkpt>
      <trkpt lat="50.10628" lon="5.64538">
        <ele>300.55</ele>
        <time>2010-04-02T08:08:58Z</time>
      </trkpt>
      <trkpt lat="50.10644" lon="5.64556">
        <ele>300.07</ele>
        <time>2010-04-02T08:08:59Z</time>
      </trkpt>
      <trkpt lat="50.10658" lon="5.64577">
        <ele>300.07</ele>
        <time>2010-04-02T08:09:00Z</time>
      </trkpt>
      <trkpt lat="50.10671" lon="5.646">
        <ele>299.59</ele>
        <time>2010-04-02T08:09:01Z</time>
      </trkpt>
      <trkpt lat="50.10683" lon="5.64622">
        <ele>299.59</ele>
        <time>2010-04-02T08:09:02Z</time>
      </trkpt>
      <trkpt lat="50.10818" lon="5.64887">
        <ele>299.11</ele>
        <time>2010-04-02T08:09:14Z</time>
      </trkpt>
      <trkpt lat="50.10826" lon="5.64911">
        <ele>299.11</ele>
        <time>2010-04-02T08:09:15Z</time>
      </trkpt>
      <trkpt lat="50.10833" lon="5.64938">
        <ele>299.59</ele>
        <time>2010-04-02T08:09:16Z</time>
      </trkpt>
      <trkpt lat="50.10837" lon="5.64966">
        <ele>299.59</ele>
        <time>2010-04-02T08:09:17Z</time>
      </trkpt>
      <trkpt lat="50.1084" lon="5.64995">
        <ele>299.59</ele>
        <time>2010-04-02T08:09:18Z</time>
      </trkpt>
      <trkpt lat="50.10839" lon="5.65024">
        <ele>299.59</ele>
        <time>2010-04-02T08:09:19Z</time>
      </trkpt>
      <trkpt lat="50.10836" lon="5.65054">
        <ele>299.59</ele>
        <time>2010-04-02T08:09:20Z</time>
      </trkpt>
      <trkpt lat="50.10829" lon="5.65083">
        <ele>299.59</ele>
        <time>2010-04-02T08:09:21Z</time>
      </trkpt>
      <trkpt lat="50.10821" lon="5.6511">
        <ele>300.07</ele>
        <time>2010-04-02T08:09:22Z</time>
      </trkpt>
      <trkpt lat="50.10811" lon="5.65134">
        <ele>300.55</ele>
        <time>2010-04-02T08:09:23Z</time>
      </trkpt>
      <trkpt lat="50.10798" lon="5.65158">
        <ele>300.07</ele>
        <time>2010-04-02T08:09:24Z</time>
      </trkpt>
      <trkpt lat="50.10784" lon="5.6518">
        <ele>299.59</ele>
        <time>2010-04-02T08:09:25Z</time>
      </trkpt>
      <trkpt lat="50.10767" lon="5.65196">
        <ele>299.59</ele>
        <time>2010-04-02T08:09:26Z</time>
      </trkpt>
      <trkpt lat="50.10752" lon="5.6521">
        <ele>299.59</ele>
        <time>2010-04-02T08:09:27Z</time>
      </trkpt>
      <trkpt lat="50.10734" lon="5.65223">
        <ele>299.11</ele>
        <time>2010-04-02T08:09:28Z</time>
      </trkpt>
      <trkpt lat="50.10714" lon="5.6523">
        <ele>299.11</ele>
        <time>2010-04-02T08:09:29Z</time>
      </trkpt>
      <trkpt lat="50.10694" lon="5.65235">
        <ele>299.11</ele>
        <time>2010-04-02T08:09:30Z</time>
      </trkpt>
      <trkpt lat="50.10672" lon="5.65233">
        <ele>299.59</ele>
        <time>2010-04-02T08:09:31Z</time>
      </trkpt>
      <trkpt lat="50.1065" lon="5.65229">
        <ele>300.07</ele>
        <time>2010-04-02T08:09:32Z</time>
      </trkpt>
      <trkpt lat="50.10628" lon="5.65224">
        <ele>300.07</ele>
        <time>2010-04-02T08:09:33Z</time>
      </trkpt>
      <trkpt lat="50.10608" lon="5.65219">
        <ele>300.07</ele>
        <time>2010-04-02T08:09:34Z</time>
      </trkpt>
      <trkpt lat="50.10589" lon="5.65216">
        <ele>301.03</ele>
        <time>2010-04-02T08:09:35Z</time>
      </trkpt>
      <trkpt lat="50.1042" lon="5.65194">
        <ele>301.99</ele>
        <time>2010-04-02T08:09:45Z</time>
      </trkpt>
      <trkpt lat="50.10361" lon="5.65227">
        <ele>306.8</ele>
        <time>2010-04-02T08:09:49Z</time>
      </trkpt>
      <trkpt lat="50.10328" lon="5.65269">
        <ele>307.28</ele>
        <time>2010-04-02T08:09:52Z</time>
      </trkpt>
      <trkpt lat="50.10319" lon="5.65287">
        <ele>307.76</ele>
        <time>2010-04-02T08:09:53Z</time>
      </trkpt>
      <trkpt lat="50.10311" lon="5.65305">
        <ele>308.24</ele>
        <time>2010-04-02T08:09:54Z</time>
      </trkpt>
      <trkpt lat="50.10303" lon="5.65325">
        <ele>307.28</ele>
        <time>2010-04-02T08:09:55Z</time>
      </trkpt>
      <trkpt lat="50.10296" lon="5.65348">
        <ele>307.28</ele>
        <time>2010-04-02T08:09:56Z</time>
      </trkpt>
      <trkpt lat="50.10288" lon="5.6537">
        <ele>306.32</ele>
        <time>2010-04-02T08:09:57Z</time>
      </trkpt>
      <trkpt lat="50.10275" lon="5.65417">
        <ele>304.39</ele>
        <time>2010-04-02T08:09:59Z</time>
      </trkpt>
      <trkpt lat="50.10271" lon="5.65441">
        <ele>302.95</ele>
        <time>2010-04-02T08:10:00Z</time>
      </trkpt>
      <trkpt lat="50.1027" lon="5.65468">
        <ele>302.47</ele>
        <time>2010-04-02T08:10:01Z</time>
      </trkpt>
      <trkpt lat="50.10271" lon="5.65494">
        <ele>302.47</ele>
        <time>2010-04-02T08:10:02Z</time>
      </trkpt>
      <trkpt lat="50.10273" lon="5.65519">
        <ele>302.47</ele>
        <time>2010-04-02T08:10:03Z</time>
      </trkpt>
      <trkpt lat="50.10276" lon="5.65543">
        <ele>302.47</ele>
        <time>2010-04-02T08:10:04Z</time>
      </trkpt>
      <trkpt lat="50.10324" lon="5.65695">
        <ele>302.47</ele>
        <time>2010-04-02T08:10:11Z</time>
      </trkpt>
      <trkpt lat="50.10421" lon="5.65837">
        <ele>301.99</ele>
        <time>2010-04-02T08:10:19Z</time>
      </trkpt>
      <trkpt lat="50.10518" lon="5.65907">
        <ele>304.88</ele>
        <time>2010-04-02T08:10:26Z</time>
      </trkpt>
      <trkpt lat="50.1053" lon="5.65909">
        <ele>305.36</ele>
        <time>2010-04-02T08:10:27Z</time>
      </trkpt>
      <trkpt lat="50.10551" lon="5.65913">
        <ele>305.36</ele>
        <time>2010-04-02T08:10:29Z</time>
      </trkpt>
      <trkpt lat="50.1056" lon="5.65915">
        <ele>305.84</ele>
        <time>2010-04-02T08:10:30Z</time>
      </trkpt>
      <trkpt lat="50.10567" lon="5.65926">
        <ele>305.84</ele>
        <time>2010-04-02T08:10:31Z</time>
      </trkpt>
      <trkpt lat="50.10572" lon="5.65939">
        <ele>306.32</ele>
        <time>2010-04-02T08:10:32Z</time>
      </trkpt>
      <trkpt lat="50.10575" lon="5.65954">
        <ele>306.32</ele>
        <time>2010-04-02T08:10:33Z</time>
      </trkpt>
      <trkpt lat="50.10578" lon="5.65972">
        <ele>306.32</ele>
        <time>2010-04-02T08:10:34Z</time>
      </trkpt>
      <trkpt lat="50.1058" lon="5.65992">
        <ele>306.32</ele>
        <time>2010-04-02T08:10:35Z</time>
      </trkpt>
      <trkpt lat="50.10582" lon="5.66014">
        <ele>306.32</ele>
        <time>2010-04-02T08:10:36Z</time>
      </trkpt>
      <trkpt lat="50.10581" lon="5.66037">
        <ele>307.28</ele>
        <time>2010-04-02T08:10:37Z</time>
      </trkpt>
      <trkpt lat="50.10578" lon="5.6606">
        <ele>308.24</ele>
        <time>2010-04-02T08:10:38Z</time>
      </trkpt>
      <trkpt lat="50.10571" lon="5.66085">
        <ele>308.24</ele>
        <time>2010-04-02T08:10:39Z</time>
      </trkpt>
      <trkpt lat="50.10565" lon="5.66108">
        <ele>309.2</ele>
        <time>2010-04-02T08:10:40Z</time>
      </trkpt>
      <trkpt lat="50.10499" lon="5.66359">
        <ele>321.7</ele>
        <time>2010-04-02T08:10:51Z</time>
      </trkpt>
      <trkpt lat="50.10406" lon="5.66553">
        <ele>329.39</ele>
        <time>2010-04-02T08:11:00Z</time>
      </trkpt>
      <trkpt lat="50.104" lon="5.66578">
        <ele>330.35</ele>
        <time>2010-04-02T08:11:01Z</time>
      </trkpt>
      <trkpt lat="50.10395" lon="5.66602">
        <ele>330.83</ele>
        <time>2010-04-02T08:11:02Z</time>
      </trkpt>
      <trkpt lat="50.10392" lon="5.66627">
        <ele>330.83</ele>
        <time>2010-04-02T08:11:03Z</time>
      </trkpt>
      <trkpt lat="50.10386" lon="5.66862">
        <ele>334.2</ele>
        <time>2010-04-02T08:11:13Z</time>
      </trkpt>
      <trkpt lat="50.10368" lon="5.67015">
        <ele>338.04</ele>
        <time>2010-04-02T08:11:20Z</time>
      </trkpt>
      <trkpt lat="50.10306" lon="5.67179">
        <ele>343.81</ele>
        <time>2010-04-02T08:11:28Z</time>
      </trkpt>
      <trkpt lat="50.10291" lon="5.6719">
        <ele>344.29</ele>
        <time>2010-04-02T08:11:29Z</time>
      </trkpt>
      <trkpt lat="50.10273" lon="5.67195">
        <ele>345.25</ele>
        <time>2010-04-02T08:11:30Z</time>
      </trkpt>
      <trkpt lat="50.10192" lon="5.67271">
        <ele>357.27</ele>
        <time>2010-04-02T08:11:37Z</time>
      </trkpt>
      <trkpt lat="50.10178" lon="5.67293">
        <ele>360.15</ele>
        <time>2010-04-02T08:11:38Z</time>
      </trkpt>
      <trkpt lat="50.10112" lon="5.67373">
        <ele>363.04</ele>
        <time>2010-04-02T08:11:43Z</time>
      </trkpt>
      <trkpt lat="50.10091" lon="5.67372">
        <ele>363.04</ele>
        <time>2010-04-02T08:11:44Z</time>
      </trkpt>
      <trkpt lat="50.10074" lon="5.67374">
        <ele>363.04</ele>
        <time>2010-04-02T08:11:45Z</time>
      </trkpt>
      <trkpt lat="50.10056" lon="5.67371">
        <ele>364.48</ele>
        <time>2010-04-02T08:11:46Z</time>
      </trkpt>
      <trkpt lat="50.10039" lon="5.67365">
        <ele>365.92</ele>
        <time>2010-04-02T08:11:47Z</time>
      </trkpt>
      <trkpt lat="50.10022" lon="5.67354">
        <ele>365.44</ele>
        <time>2010-04-02T08:11:48Z</time>
      </trkpt>
      <trkpt lat="50.10004" lon="5.67342">
        <ele>365.44</ele>
        <time>2010-04-02T08:11:49Z</time>
      </trkpt>
      <trkpt lat="50.09986" lon="5.67332">
        <ele>366.4</ele>
        <time>2010-04-02T08:11:50Z</time>
      </trkpt>
      <trkpt lat="50.09968" lon="5.67326">
        <ele>365.44</ele>
        <time>2010-04-02T08:11:51Z</time>
      </trkpt>
      <trkpt lat="50.09919" lon="5.67324">
        <ele>362.55</ele>
        <time>2010-04-02T08:11:54Z</time>
      </trkpt>
      <trkpt lat="50.09904" lon="5.67327">
        <ele>360.63</ele>
        <time>2010-04-02T08:11:55Z</time>
      </trkpt>
      <trkpt lat="50.09889" lon="5.67332">
        <ele>359.67</ele>
        <time>2010-04-02T08:11:56Z</time>
      </trkpt>
      <trkpt lat="50.09837" lon="5.6737">
        <ele>361.11</ele>
        <time>2010-04-02T08:12:00Z</time>
      </trkpt>
      <trkpt lat="50.09828" lon="5.67387">
        <ele>360.63</ele>
        <time>2010-04-02T08:12:01Z</time>
      </trkpt>
      <trkpt lat="50.09819" lon="5.67408">
        <ele>363.52</ele>
        <time>2010-04-02T08:12:02Z</time>
      </trkpt>
      <trkpt lat="50.0981" lon="5.67429">
        <ele>365.92</ele>
        <time>2010-04-02T08:12:03Z</time>
      </trkpt>
      <trkpt lat="50.09802" lon="5.67449">
        <ele>367.36</ele>
        <time>2010-04-02T08:12:04Z</time>
      </trkpt>
      <trkpt lat="50.09796" lon="5.67471">
        <ele>368.8</ele>
        <time>2010-04-02T08:12:05Z</time>
      </trkpt>
      <trkpt lat="50.09791" lon="5.67493">
        <ele>369.76</ele>
        <time>2010-04-02T08:12:06Z</time>
      </trkpt>
      <trkpt lat="50.09787" lon="5.67516">
        <ele>370.73</ele>
        <time>2010-04-02T08:12:07Z</time>
      </trkpt>
      <trkpt lat="50.09786" lon="5.67538">
        <ele>371.69</ele>
        <time>2010-04-02T08:12:08Z</time>
      </trkpt>
      <trkpt lat="50.09785" lon="5.67559">
        <ele>372.17</ele>
        <time>2010-04-02T08:12:09Z</time>
      </trkpt>
      <trkpt lat="50.09783" lon="5.67579">
        <ele>373.13</ele>
        <time>2010-04-02T08:12:10Z</time>
      </trkpt>
      <trkpt lat="50.09779" lon="5.67593">
        <ele>374.09</ele>
        <time>2010-04-02T08:12:11Z</time>
      </trkpt>
      <trkpt lat="50.09757" lon="5.67614">
        <ele>375.05</ele>
        <time>2010-04-02T08:12:13Z</time>
      </trkpt>
      <trkpt lat="50.09743" lon="5.67614">
        <ele>375.05</ele>
        <time>2010-04-02T08:12:14Z</time>
      </trkpt>
      <trkpt lat="50.09729" lon="5.67606">
        <ele>376.01</ele>
        <time>2010-04-02T08:12:15Z</time>
      </trkpt>
      <trkpt lat="50.09717" lon="5.67597">
        <ele>376.97</ele>
        <time>2010-04-02T08:12:16Z</time>
      </trkpt>
      <trkpt lat="50.09706" lon="5.67583">
        <ele>377.94</ele>
        <time>2010-04-02T08:12:17Z</time>
      </trkpt>
      <trkpt lat="50.09693" lon="5.67567">
        <ele>378.9</ele>
        <time>2010-04-02T08:12:18Z</time>
      </trkpt>
      <trkpt lat="50.09677" lon="5.67551">
        <ele>379.86</ele>
        <time>2010-04-02T08:12:19Z</time>
      </trkpt>
      <trkpt lat="50.09627" lon="5.67515">
        <ele>381.3</ele>
        <time>2010-04-02T08:12:22Z</time>
      </trkpt>
      <trkpt lat="50.09499" lon="5.67475">
        <ele>378.9</ele>
        <time>2010-04-02T08:12:28Z</time>
      </trkpt>
      <trkpt lat="50.09354" lon="5.67426">
        <ele>386.59</ele>
        <time>2010-04-02T08:12:35Z</time>
      </trkpt>
      <trkpt lat="50.09335" lon="5.67434">
        <ele>388.03</ele>
        <time>2010-04-02T08:12:36Z</time>
      </trkpt>
      <trkpt lat="50.09316" lon="5.67445">
        <ele>391.39</ele>
        <time>2010-04-02T08:12:37Z</time>
      </trkpt>
      <trkpt lat="50.09297" lon="5.67457">
        <ele>394.28</ele>
        <time>2010-04-02T08:12:38Z</time>
      </trkpt>
      <trkpt lat="50.09281" lon="5.67471">
        <ele>395.24</ele>
        <time>2010-04-02T08:12:39Z</time>
      </trkpt>
      <trkpt lat="50.09266" lon="5.67486">
        <ele>395.24</ele>
        <time>2010-04-02T08:12:40Z</time>
      </trkpt>
      <trkpt lat="50.09251" lon="5.675">
        <ele>395.24</ele>
        <time>2010-04-02T08:12:41Z</time>
      </trkpt>
      <trkpt lat="50.09235" lon="5.67508">
        <ele>395.24</ele>
        <time>2010-04-02T08:12:42Z</time>
      </trkpt>
      <trkpt lat="50.09217" lon="5.6751">
        <ele>395.72</ele>
        <time>2010-04-02T08:12:43Z</time>
      </trkpt>
      <trkpt lat="50.09199" lon="5.67505">
        <ele>395.24</ele>
        <time>2010-04-02T08:12:44Z</time>
      </trkpt>
      <trkpt lat="50.0918" lon="5.67498">
        <ele>395.24</ele>
        <time>2010-04-02T08:12:45Z</time>
      </trkpt>
      <trkpt lat="50.09162" lon="5.6749">
        <ele>395.72</ele>
        <time>2010-04-02T08:12:46Z</time>
      </trkpt>
      <trkpt lat="50.09144" lon="5.67481">
        <ele>395.72</ele>
        <time>2010-04-02T08:12:47Z</time>
      </trkpt>
      <trkpt lat="50.09128" lon="5.67467">
        <ele>395.72</ele>
        <time>2010-04-02T08:12:48Z</time>
      </trkpt>
      <trkpt lat="50.09113" lon="5.67449">
        <ele>396.2</ele>
        <time>2010-04-02T08:12:49Z</time>
      </trkpt>
      <trkpt lat="50.09098" lon="5.67428">
        <ele>396.2</ele>
        <time>2010-04-02T08:12:50Z</time>
      </trkpt>
      <trkpt lat="50.09085" lon="5.67406">
        <ele>396.68</ele>
        <time>2010-04-02T08:12:51Z</time>
      </trkpt>
      <trkpt lat="50.09072" lon="5.67383">
        <ele>396.68</ele>
        <time>2010-04-02T08:12:52Z</time>
      </trkpt>
      <trkpt lat="50.08991" lon="5.67213">
        <ele>398.12</ele>
        <time>2010-04-02T08:12:59Z</time>
      </trkpt>
      <trkpt lat="50.08976" lon="5.67192">
        <ele>398.6</ele>
        <time>2010-04-02T08:13:00Z</time>
      </trkpt>
      <trkpt lat="50.08829" lon="5.67006">
        <ele>402.45</ele>
        <time>2010-04-02T08:13:10Z</time>
      </trkpt>
      <trkpt lat="50.08814" lon="5.66991">
        <ele>402.93</ele>
        <time>2010-04-02T08:13:11Z</time>
      </trkpt>
      <trkpt lat="50.08798" lon="5.66979">
        <ele>403.41</ele>
        <time>2010-04-02T08:13:12Z</time>
      </trkpt>
      <trkpt lat="50.08717" lon="5.66942">
        <ele>404.85</ele>
        <time>2010-04-02T08:13:17Z</time>
      </trkpt>
      <trkpt lat="50.087" lon="5.66942">
        <ele>405.33</ele>
        <time>2010-04-02T08:13:18Z</time>
      </trkpt>
      <trkpt lat="50.08684" lon="5.66944">
        <ele>406.29</ele>
        <time>2010-04-02T08:13:19Z</time>
      </trkpt>
      <trkpt lat="50.08667" lon="5.66948">
        <ele>407.26</ele>
        <time>2010-04-02T08:13:20Z</time>
      </trkpt>
      <trkpt lat="50.08652" lon="5.66954">
        <ele>408.22</ele>
        <time>2010-04-02T08:13:21Z</time>
      </trkpt>
      <trkpt lat="50.08638" lon="5.66963">
        <ele>408.7</ele>
        <time>2010-04-02T08:13:22Z</time>
      </trkpt>
      <trkpt lat="50.08625" lon="5.66972">
        <ele>409.66</ele>
        <time>2010-04-02T08:13:23Z</time>
      </trkpt>
      <trkpt lat="50.08614" lon="5.66985">
        <ele>410.62</ele>
        <time>2010-04-02T08:13:24Z</time>
      </trkpt>
      <trkpt lat="50.08605" lon="5.67">
        <ele>411.1</ele>
        <time>2010-04-02T08:13:25Z</time>
      </trkpt>
      <trkpt lat="50.08597" lon="5.67014">
        <ele>411.58</ele>
        <time>2010-04-02T08:13:26Z</time>
      </trkpt>
      <trkpt lat="50.08589" lon="5.67027">
        <ele>412.54</ele>
        <time>2010-04-02T08:13:27Z</time>
      </trkpt>
      <trkpt lat="50.08564" lon="5.67042">
        <ele>415.43</ele>
        <time>2010-04-02T08:13:30Z</time>
      </trkpt>
      <trkpt lat="50.08556" lon="5.67031">
        <ele>416.39</ele>
        <time>2010-04-02T08:13:31Z</time>
      </trkpt>
      <trkpt lat="50.08549" lon="5.6702">
        <ele>417.83</ele>
        <time>2010-04-02T08:13:32Z</time>
      </trkpt>
      <trkpt lat="50.08541" lon="5.67008">
        <ele>418.31</ele>
        <time>2010-04-02T08:13:33Z</time>
      </trkpt>
      <trkpt lat="50.08537" lon="5.66993">
        <ele>419.27</ele>
        <time>2010-04-02T08:13:34Z</time>
      </trkpt>
      <trkpt lat="50.08534" lon="5.66977">
        <ele>420.23</ele>
        <time>2010-04-02T08:13:35Z</time>
      </trkpt>
      <trkpt lat="50.08532" lon="5.6696">
        <ele>420.71</ele>
        <time>2010-04-02T08:13:36Z</time>
      </trkpt>
      <trkpt lat="50.0853" lon="5.66942">
        <ele>421.19</ele>
        <time>2010-04-02T08:13:37Z</time>
      </trkpt>
      <trkpt lat="50.08518" lon="5.66891">
        <ele>423.6</ele>
        <time>2010-04-02T08:13:40Z</time>
      </trkpt>
      <trkpt lat="50.08512" lon="5.66874">
        <ele>424.08</ele>
        <time>2010-04-02T08:13:41Z</time>
      </trkpt>
      <trkpt lat="50.08505" lon="5.66857">
        <ele>424.08</ele>
        <time>2010-04-02T08:13:42Z</time>
      </trkpt>
      <trkpt lat="50.08479" lon="5.66812">
        <ele>426.48</ele>
        <time>2010-04-02T08:13:45Z</time>
      </trkpt>
      <trkpt lat="50.08468" lon="5.66799">
        <ele>426.96</ele>
        <time>2010-04-02T08:13:46Z</time>
      </trkpt>
      <trkpt lat="50.08456" lon="5.66788">
        <ele>426.96</ele>
        <time>2010-04-02T08:13:47Z</time>
      </trkpt>
      <trkpt lat="50.08442" lon="5.6678">
        <ele>427.44</ele>
        <time>2010-04-02T08:13:48Z</time>
      </trkpt>
      <trkpt lat="50.08428" lon="5.66773">
        <ele>427.92</ele>
        <time>2010-04-02T08:13:49Z</time>
      </trkpt>
      <trkpt lat="50.08282" lon="5.6668">
        <ele>434.17</ele>
        <time>2010-04-02T08:14:01Z</time>
      </trkpt>
      <trkpt lat="50.08127" lon="5.66516">
        <ele>438.98</ele>
        <time>2010-04-02T08:14:15Z</time>
      </trkpt>
      <trkpt lat="50.08095" lon="5.66492">
        <ele>438.98</ele>
        <time>2010-04-02T08:14:18Z</time>
      </trkpt>
      <trkpt lat="50.08048" lon="5.66472">
        <ele>438.02</ele>
        <time>2010-04-02T08:14:23Z</time>
      </trkpt>
      <trkpt lat="50.08039" lon="5.66474">
        <ele>438.02</ele>
        <time>2010-04-02T08:14:24Z</time>
      </trkpt>
      <trkpt lat="50.07995" lon="5.66495">
        <ele>438.02</ele>
        <time>2010-04-02T08:14:28Z</time>
      </trkpt>
      <trkpt lat="50.07984" lon="5.66504">
        <ele>438.5</ele>
        <time>2010-04-02T08:14:29Z</time>
      </trkpt>
      <trkpt lat="50.07972" lon="5.66515">
        <ele>438.98</ele>
        <time>2010-04-02T08:14:30Z</time>
      </trkpt>
      <trkpt lat="50.07961" lon="5.66527">
        <ele>439.46</ele>
        <time>2010-04-02T08:14:31Z</time>
      </trkpt>
      <trkpt lat="50.07951" lon="5.66541">
        <ele>439.46</ele>
        <time>2010-04-02T08:14:32Z</time>
      </trkpt>
      <trkpt lat="50.07941" lon="5.66557">
        <ele>439.94</ele>
        <time>2010-04-02T08:14:33Z</time>
      </trkpt>
      <trkpt lat="50.07931" lon="5.66575">
        <ele>439.94</ele>
        <time>2010-04-02T08:14:34Z</time>
      </trkpt>
      <trkpt lat="50.07805" lon="5.668">
        <ele>441.38</ele>
        <time>2010-04-02T08:14:45Z</time>
      </trkpt>
      <trkpt lat="50.07068" lon="5.67694">
        <ele>461.09</ele>
        <time>2010-04-02T08:15:27Z</time>
      </trkpt>
      <trkpt lat="50.06889" lon="5.67843">
        <ele>468.3</ele>
        <time>2010-04-02T08:15:37Z</time>
      </trkpt>
      <trkpt lat="50.06624" lon="5.68074">
        <ele>476.95</ele>
        <time>2010-04-02T08:15:52Z</time>
      </trkpt>
      <trkpt lat="50.06612" lon="5.68098">
        <ele>476.47</ele>
        <time>2010-04-02T08:15:53Z</time>
      </trkpt>
      <trkpt lat="50.06555" lon="5.68198">
        <ele>473.59</ele>
        <time>2010-04-02T08:15:57Z</time>
      </trkpt>
      <trkpt lat="50.06399" lon="5.68361">
        <ele>460.13</ele>
        <time>2010-04-02T08:16:05Z</time>
      </trkpt>
      <trkpt lat="50.06188" lon="5.68514">
        <ele>459.17</ele>
        <time>2010-04-02T08:16:16Z</time>
      </trkpt>
      <trkpt lat="50.0592" lon="5.68706">
        <ele>449.55</ele>
        <time>2010-04-02T08:16:30Z</time>
      </trkpt>
      <trkpt lat="50.05813" lon="5.6886">
        <ele>452.44</ele>
        <time>2010-04-02T08:16:37Z</time>
      </trkpt>
      <trkpt lat="50.05723" lon="5.69114">
        <ele>471.66</ele>
        <time>2010-04-02T08:16:47Z</time>
      </trkpt>
      <trkpt lat="50.05713" lon="5.69135">
        <ele>473.11</ele>
        <time>2010-04-02T08:16:48Z</time>
      </trkpt>
      <trkpt lat="50.05701" lon="5.69154">
        <ele>474.55</ele>
        <time>2010-04-02T08:16:49Z</time>
      </trkpt>
      <trkpt lat="50.05689" lon="5.69167">
        <ele>475.51</ele>
        <time>2010-04-02T08:16:50Z</time>
      </trkpt>
      <trkpt lat="50.05674" lon="5.69175">
        <ele>476.95</ele>
        <time>2010-04-02T08:16:51Z</time>
      </trkpt>
      <trkpt lat="50.05659" lon="5.69181">
        <ele>477.91</ele>
        <time>2010-04-02T08:16:52Z</time>
      </trkpt>
      <trkpt lat="50.05643" lon="5.69181">
        <ele>478.39</ele>
        <time>2010-04-02T08:16:53Z</time>
      </trkpt>
      <trkpt lat="50.05627" lon="5.69177">
        <ele>478.87</ele>
        <time>2010-04-02T08:16:54Z</time>
      </trkpt>
      <trkpt lat="50.05611" lon="5.6917">
        <ele>478.39</ele>
        <time>2010-04-02T08:16:55Z</time>
      </trkpt>
      <trkpt lat="50.05595" lon="5.69162">
        <ele>478.39</ele>
        <time>2010-04-02T08:16:56Z</time>
      </trkpt>
      <trkpt lat="50.05421" lon="5.69102">
        <ele>465.42</ele>
        <time>2010-04-02T08:17:06Z</time>
      </trkpt>
      <trkpt lat="50.05378" lon="5.69083">
        <ele>461.09</ele>
        <time>2010-04-02T08:17:09Z</time>
      </trkpt>
      <trkpt lat="50.05366" lon="5.69072">
        <ele>460.13</ele>
        <time>2010-04-02T08:17:10Z</time>
      </trkpt>
      <trkpt lat="50.05324" lon="5.69017">
        <ele>456.76</ele>
        <time>2010-04-02T08:17:14Z</time>
      </trkpt>
      <trkpt lat="50.05312" lon="5.69009">
        <ele>455.8</ele>
        <time>2010-04-02T08:17:15Z</time>
      </trkpt>
      <trkpt lat="50.05297" lon="5.69005">
        <ele>455.32</ele>
        <time>2010-04-02T08:17:16Z</time>
      </trkpt>
      <trkpt lat="50.05255" lon="5.68993">
        <ele>451.48</ele>
        <time>2010-04-02T08:17:19Z</time>
      </trkpt>
      <trkpt lat="50.05241" lon="5.68985">
        <ele>450.03</ele>
        <time>2010-04-02T08:17:20Z</time>
      </trkpt>
      <trkpt lat="50.05227" lon="5.68972">
        <ele>448.11</ele>
        <time>2010-04-02T08:17:21Z</time>
      </trkpt>
      <trkpt lat="50.05214" lon="5.68957">
        <ele>446.67</ele>
        <time>2010-04-02T08:17:22Z</time>
      </trkpt>
      <trkpt lat="50.05202" lon="5.68941">
        <ele>445.71</ele>
        <time>2010-04-02T08:17:23Z</time>
      </trkpt>
      <trkpt lat="50.05191" lon="5.68923">
        <ele>444.75</ele>
        <time>2010-04-02T08:17:24Z</time>
      </trkpt>
      <trkpt lat="50.0513" lon="5.68844">
        <ele>438.5</ele>
        <time>2010-04-02T08:17:29Z</time>
      </trkpt>
      <trkpt lat="50.05116" lon="5.68835">
        <ele>437.54</ele>
        <time>2010-04-02T08:17:30Z</time>
      </trkpt>
      <trkpt lat="50.051" lon="5.6883">
        <ele>435.61</ele>
        <time>2010-04-02T08:17:31Z</time>
      </trkpt>
      <trkpt lat="50.04984" lon="5.68793">
        <ele>426</ele>
        <time>2010-04-02T08:17:40Z</time>
      </trkpt>
      <trkpt lat="50.04974" lon="5.68791">
        <ele>425.04</ele>
        <time>2010-04-02T08:17:45Z</time>
      </trkpt>
      <trkpt lat="50.04954" lon="5.68791">
        <ele>424.56</ele>
        <time>2010-04-02T08:18:29Z</time>
      </trkpt>
      <trkpt lat="50.04877" lon="5.68781">
        <ele>426.48</ele>
        <time>2010-04-02T08:18:36Z</time>
      </trkpt>
      <trkpt lat="50.04749" lon="5.68746">
        <ele>434.65</ele>
        <time>2010-04-02T08:18:45Z</time>
      </trkpt>
      <trkpt lat="50.04654" lon="5.68632">
        <ele>443.31</ele>
        <time>2010-04-02T08:18:53Z</time>
      </trkpt>
      <trkpt lat="50.04632" lon="5.68603">
        <ele>445.23</ele>
        <time>2010-04-02T08:18:55Z</time>
      </trkpt>
      <trkpt lat="50.0462" lon="5.68592">
        <ele>446.67</ele>
        <time>2010-04-02T08:18:56Z</time>
      </trkpt>
      <trkpt lat="50.04607" lon="5.68587">
        <ele>447.63</ele>
        <time>2010-04-02T08:18:57Z</time>
      </trkpt>
      <trkpt lat="50.04593" lon="5.68586">
        <ele>448.59</ele>
        <time>2010-04-02T08:18:58Z</time>
      </trkpt>
      <trkpt lat="50.04579" lon="5.68591">
        <ele>450.03</ele>
        <time>2010-04-02T08:18:59Z</time>
      </trkpt>
      <trkpt lat="50.04565" lon="5.686">
        <ele>451</ele>
        <time>2010-04-02T08:19:00Z</time>
      </trkpt>
      <trkpt lat="50.04556" lon="5.68622">
        <ele>451.48</ele>
        <time>2010-04-02T08:19:01Z</time>
      </trkpt>
      <trkpt lat="50.04548" lon="5.68642">
        <ele>453.4</ele>
        <time>2010-04-02T08:19:02Z</time>
      </trkpt>
      <trkpt lat="50.04542" lon="5.68663">
        <ele>454.84</ele>
        <time>2010-04-02T08:19:03Z</time>
      </trkpt>
      <trkpt lat="50.04539" lon="5.68686">
        <ele>455.8</ele>
        <time>2010-04-02T08:19:04Z</time>
      </trkpt>
      <trkpt lat="50.04538" lon="5.68708">
        <ele>456.76</ele>
        <time>2010-04-02T08:19:05Z</time>
      </trkpt>
      <trkpt lat="50.04538" lon="5.6873">
        <ele>458.21</ele>
        <time>2010-04-02T08:19:06Z</time>
      </trkpt>
      <trkpt lat="50.04536" lon="5.68772">
        <ele>461.09</ele>
        <time>2010-04-02T08:19:08Z</time>
      </trkpt>
      <trkpt lat="50.04532" lon="5.68791">
        <ele>462.05</ele>
        <time>2010-04-02T08:19:09Z</time>
      </trkpt>
      <trkpt lat="50.04526" lon="5.68808">
        <ele>463.01</ele>
        <time>2010-04-02T08:19:10Z</time>
      </trkpt>
      <trkpt lat="50.04518" lon="5.68824">
        <ele>463.97</ele>
        <time>2010-04-02T08:19:11Z</time>
      </trkpt>
      <trkpt lat="50.04508" lon="5.68837">
        <ele>465.42</ele>
        <time>2010-04-02T08:19:12Z</time>
      </trkpt>
      <trkpt lat="50.04496" lon="5.68848">
        <ele>466.38</ele>
        <time>2010-04-02T08:19:13Z</time>
      </trkpt>
      <trkpt lat="50.04484" lon="5.68856">
        <ele>467.34</ele>
        <time>2010-04-02T08:19:14Z</time>
      </trkpt>
      <trkpt lat="50.04471" lon="5.68862">
        <ele>468.3</ele>
        <time>2010-04-02T08:19:15Z</time>
      </trkpt>
      <trkpt lat="50.04457" lon="5.68867">
        <ele>469.26</ele>
        <time>2010-04-02T08:19:16Z</time>
      </trkpt>
      <trkpt lat="50.04297" lon="5.68941">
        <ele>471.18</ele>
        <time>2010-04-02T08:19:26Z</time>
      </trkpt>
      <trkpt lat="50.04068" lon="5.69074">
        <ele>468.3</ele>
        <time>2010-04-02T08:19:38Z</time>
      </trkpt>
      <trkpt lat="50.03847" lon="5.69196">
        <ele>456.76</ele>
        <time>2010-04-02T08:19:49Z</time>
      </trkpt>
      <trkpt lat="50.03695" lon="5.69339">
        <ele>457.72</ele>
        <time>2010-04-02T08:19:57Z</time>
      </trkpt>
      <trkpt lat="50.03492" lon="5.69649">
        <ele>451.96</ele>
        <time>2010-04-02T08:20:10Z</time>
      </trkpt>
      <trkpt lat="50.03456" lon="5.69684">
        <ele>451.48</ele>
        <time>2010-04-02T08:20:12Z</time>
      </trkpt>
      <trkpt lat="50.03437" lon="5.69698">
        <ele>451.96</ele>
        <time>2010-04-02T08:20:13Z</time>
      </trkpt>
      <trkpt lat="50.03417" lon="5.6971">
        <ele>451.96</ele>
        <time>2010-04-02T08:20:14Z</time>
      </trkpt>
      <trkpt lat="50.03396" lon="5.69717">
        <ele>452.44</ele>
        <time>2010-04-02T08:20:15Z</time>
      </trkpt>
      <trkpt lat="50.03375" lon="5.69724">
        <ele>452.92</ele>
        <time>2010-04-02T08:20:16Z</time>
      </trkpt>
      <trkpt lat="50.03354" lon="5.69731">
        <ele>453.4</ele>
        <time>2010-04-02T08:20:17Z</time>
      </trkpt>
      <trkpt lat="50.03168" lon="5.6975">
        <ele>461.09</ele>
        <time>2010-04-02T08:20:26Z</time>
      </trkpt>
      <trkpt lat="50.03073" lon="5.69782">
        <ele>458.69</ele>
        <time>2010-04-02T08:20:30Z</time>
      </trkpt>
      <trkpt lat="50.03051" lon="5.69796">
        <ele>459.17</ele>
        <time>2010-04-02T08:20:31Z</time>
      </trkpt>
      <trkpt lat="50.03029" lon="5.69815">
        <ele>459.65</ele>
        <time>2010-04-02T08:20:32Z</time>
      </trkpt>
      <trkpt lat="50.0301" lon="5.69838">
        <ele>460.61</ele>
        <time>2010-04-02T08:20:33Z</time>
      </trkpt>
      <trkpt lat="50.02993" lon="5.69862">
        <ele>461.57</ele>
        <time>2010-04-02T08:20:34Z</time>
      </trkpt>
      <trkpt lat="50.02981" lon="5.69895">
        <ele>461.09</ele>
        <time>2010-04-02T08:20:35Z</time>
      </trkpt>
      <trkpt lat="50.02968" lon="5.69924">
        <ele>462.05</ele>
        <time>2010-04-02T08:20:36Z</time>
      </trkpt>
      <trkpt lat="50.02956" lon="5.69954">
        <ele>463.97</ele>
        <time>2010-04-02T08:20:37Z</time>
      </trkpt>
      <trkpt lat="50.02946" lon="5.69986">
        <ele>465.42</ele>
        <time>2010-04-02T08:20:38Z</time>
      </trkpt>
      <trkpt lat="50.02936" lon="5.70017">
        <ele>467.82</ele>
        <time>2010-04-02T08:20:39Z</time>
      </trkpt>
      <trkpt lat="50.02894" lon="5.70175">
        <ele>476.47</ele>
        <time>2010-04-02T08:20:44Z</time>
      </trkpt>
      <trkpt lat="50.02883" lon="5.70202">
        <ele>477.91</ele>
        <time>2010-04-02T08:20:45Z</time>
      </trkpt>
      <trkpt lat="50.0287" lon="5.70226">
        <ele>478.87</ele>
        <time>2010-04-02T08:20:46Z</time>
      </trkpt>
      <trkpt lat="50.02778" lon="5.70351">
        <ele>486.08</ele>
        <time>2010-04-02T08:20:52Z</time>
      </trkpt>
      <trkpt lat="50.0276" lon="5.70365">
        <ele>487.53</ele>
        <time>2010-04-02T08:20:53Z</time>
      </trkpt>
      <trkpt lat="50.0274" lon="5.70375">
        <ele>488.97</ele>
        <time>2010-04-02T08:20:54Z</time>
      </trkpt>
      <trkpt lat="50.02719" lon="5.70383">
        <ele>490.41</ele>
        <time>2010-04-02T08:20:55Z</time>
      </trkpt>
      <trkpt lat="50.02699" lon="5.7039">
        <ele>491.85</ele>
        <time>2010-04-02T08:20:56Z</time>
      </trkpt>
      <trkpt lat="50.02288" lon="5.70522">
        <ele>515.4</ele>
        <time>2010-04-02T08:21:17Z</time>
      </trkpt>
      <trkpt lat="50.02072" lon="5.70623">
        <ele>508.19</ele>
        <time>2010-04-02T08:21:29Z</time>
      </trkpt>
      <trkpt lat="50.01771" lon="5.70774">
        <ele>503.87</ele>
        <time>2010-04-02T08:21:45Z</time>
      </trkpt>
      <trkpt lat="50.0164" lon="5.70833">
        <ele>499.54</ele>
        <time>2010-04-02T08:21:54Z</time>
      </trkpt>
      <trkpt lat="50.01593" lon="5.70856">
        <ele>496.66</ele>
        <time>2010-04-02T08:22:01Z</time>
      </trkpt>
      <trkpt lat="50.01589" lon="5.70858">
        <ele>496.18</ele>
        <time>2010-04-02T08:22:10Z</time>
      </trkpt>
      <trkpt lat="50.01577" lon="5.70863">
        <ele>495.7</ele>
        <time>2010-04-02T08:22:25Z</time>
      </trkpt>
      <trkpt lat="50.01519" lon="5.70893">
        <ele>496.18</ele>
        <time>2010-04-02T08:22:33Z</time>
      </trkpt>
      <trkpt lat="50.01419" lon="5.70952">
        <ele>496.18</ele>
        <time>2010-04-02T08:22:41Z</time>
      </trkpt>
      <trkpt lat="50.01277" lon="5.71092">
        <ele>496.18</ele>
        <time>2010-04-02T08:22:53Z</time>
      </trkpt>
      <trkpt lat="50.01153" lon="5.71258">
        <ele>497.62</ele>
        <time>2010-04-02T08:23:05Z</time>
      </trkpt>
      <trkpt lat="50.01093" lon="5.71438">
        <ele>499.06</ele>
        <time>2010-04-02T08:23:14Z</time>
      </trkpt>
      <trkpt lat="50.01082" lon="5.71529">
        <ele>499.06</ele>
        <time>2010-04-02T08:23:18Z</time>
      </trkpt>
      <trkpt lat="50.01077" lon="5.71552">
        <ele>499.06</ele>
        <time>2010-04-02T08:23:19Z</time>
      </trkpt>
      <trkpt lat="50.01071" lon="5.71572">
        <ele>499.06</ele>
        <time>2010-04-02T08:23:20Z</time>
      </trkpt>
      <trkpt lat="50.01062" lon="5.71592">
        <ele>499.06</ele>
        <time>2010-04-02T08:23:21Z</time>
      </trkpt>
      <trkpt lat="50.01052" lon="5.7161">
        <ele>499.54</ele>
        <time>2010-04-02T08:23:22Z</time>
      </trkpt>
      <trkpt lat="50.01041" lon="5.71626">
        <ele>499.54</ele>
        <time>2010-04-02T08:23:23Z</time>
      </trkpt>
      <trkpt lat="50.01029" lon="5.7164">
        <ele>499.54</ele>
        <time>2010-04-02T08:23:24Z</time>
      </trkpt>
      <trkpt lat="50.01016" lon="5.71651">
        <ele>500.02</ele>
        <time>2010-04-02T08:23:25Z</time>
      </trkpt>
      <trkpt lat="50.01003" lon="5.71661">
        <ele>500.02</ele>
        <time>2010-04-02T08:23:26Z</time>
      </trkpt>
      <trkpt lat="50.00989" lon="5.71669">
        <ele>500.02</ele>
        <time>2010-04-02T08:23:27Z</time>
      </trkpt>
      <trkpt lat="50.00909" lon="5.71722">
        <ele>502.43</ele>
        <time>2010-04-02T08:23:33Z</time>
      </trkpt>
      <trkpt lat="50.00815" lon="5.71838">
        <ele>503.39</ele>
        <time>2010-04-02T08:23:42Z</time>
      </trkpt>
      <trkpt lat="50.0074" lon="5.71925">
        <ele>504.35</ele>
        <time>2010-04-02T08:23:51Z</time>
      </trkpt>
      <trkpt lat="50.00732" lon="5.71936">
        <ele>503.87</ele>
        <time>2010-04-02T08:23:52Z</time>
      </trkpt>
      <trkpt lat="50.00667" lon="5.72059">
        <ele>505.79</ele>
        <time>2010-04-02T08:24:04Z</time>
      </trkpt>
      <trkpt lat="50.00661" lon="5.72071">
        <ele>507.6</ele>
      </trkpt>
      <trkpt lat="50.00661" lon="5.72084">
        <ele>507.7</ele>
      </trkpt>
      <trkpt lat="50.00663" lon="5.72094">
        <ele>507.7</ele>
      </trkpt>
      <trkpt lat="50.00672" lon="5.72094">
        <ele>507.9</ele>
      </trkpt>
      <trkpt lat="50.00672" lon="5.72093">
        <ele>509.16</ele>
        <time>2010-04-02T09:30:11Z</time>
      </trkpt>
      <trkpt lat="50.00678" lon="5.72092">
        <ele>509.64</ele>
        <time>2010-04-02T09:30:12Z</time>
      </trkpt>
      <trkpt lat="50.00684" lon="5.7209">
        <ele>512.04</ele>
        <time>2010-04-02T09:30:13Z</time>
      </trkpt>
      <trkpt lat="50.00691" lon="5.72091">
        <ele>513.48</ele>
        <time>2010-04-02T09:30:14Z</time>
      </trkpt>
      <trkpt lat="50.00698" lon="5.72093">
        <ele>513.48</ele>
        <time>2010-04-02T09:30:15Z</time>
      </trkpt>
      <trkpt lat="50.00705" lon="5.72095">
        <ele>513.48</ele>
        <time>2010-04-02T09:30:16Z</time>
      </trkpt>
      <trkpt lat="50.00711" lon="5.72097">
        <ele>514.44</ele>
        <time>2010-04-02T09:30:17Z</time>
      </trkpt>
      <trkpt lat="50.00827" lon="5.7215">
        <ele>516.85</ele>
        <time>2010-04-02T09:30:31Z</time>
      </trkpt>
      <trkpt lat="50.0099" lon="5.72229">
        <ele>516.85</ele>
        <time>2010-04-02T09:30:46Z</time>
      </trkpt>
      <trkpt lat="50.01171" lon="5.72311">
        <ele>521.17</ele>
        <time>2010-04-02T09:31:03Z</time>
      </trkpt>
      <trkpt lat="50.0137" lon="5.72405">
        <ele>525.02</ele>
        <time>2010-04-02T09:31:22Z</time>
      </trkpt>
      <trkpt lat="50.01538" lon="5.72488">
        <ele>527.9</ele>
        <time>2010-04-02T09:31:37Z</time>
      </trkpt>
      <trkpt lat="50.03844" lon="5.74509">
        <ele>537.51</ele>
        <time>2010-04-02T09:34:14Z</time>
      </trkpt>
      <trkpt lat="50.04126" lon="5.7469">
        <ele>528.38</ele>
        <time>2010-04-02T09:34:30Z</time>
      </trkpt>
      <trkpt lat="50.10404" lon="5.78585">
        <ele>435.13</ele>
        <time>2010-04-02T09:41:06Z</time>
      </trkpt>
      <trkpt lat="50.10696" lon="5.78767">
        <ele>454.84</ele>
        <time>2010-04-02T09:41:23Z</time>
      </trkpt>
      <trkpt lat="50.10928" lon="5.78878">
        <ele>456.76</ele>
        <time>2010-04-02T09:41:37Z</time>
      </trkpt>
      <trkpt lat="50.11279" lon="5.78999">
        <ele>451.48</ele>
        <time>2010-04-02T09:41:57Z</time>
      </trkpt>
      <trkpt lat="50.11597" lon="5.7911">
        <ele>439.94</ele>
        <time>2010-04-02T09:42:14Z</time>
      </trkpt>
      <trkpt lat="50.11784" lon="5.79178">
        <ele>432.73</ele>
        <time>2010-04-02T09:42:24Z</time>
      </trkpt>
      <trkpt lat="50.11801" lon="5.79191">
        <ele>431.77</ele>
        <time>2010-04-02T09:42:25Z</time>
      </trkpt>
      <trkpt lat="50.11816" lon="5.79207">
        <ele>431.77</ele>
        <time>2010-04-02T09:42:26Z</time>
      </trkpt>
      <trkpt lat="50.1183" lon="5.79226">
        <ele>431.29</ele>
        <time>2010-04-02T09:42:27Z</time>
      </trkpt>
      <trkpt lat="50.11843" lon="5.79248">
        <ele>431.29</ele>
        <time>2010-04-02T09:42:28Z</time>
      </trkpt>
      <trkpt lat="50.11853" lon="5.79271">
        <ele>430.81</ele>
        <time>2010-04-02T09:42:29Z</time>
      </trkpt>
      <trkpt lat="50.11863" lon="5.79296">
        <ele>430.33</ele>
        <time>2010-04-02T09:42:30Z</time>
      </trkpt>
      <trkpt lat="50.12013" lon="5.79706">
        <ele>424.08</ele>
        <time>2010-04-02T09:42:46Z</time>
      </trkpt>
      <trkpt lat="50.12025" lon="5.79728">
        <ele>423.6</ele>
        <time>2010-04-02T09:42:47Z</time>
      </trkpt>
      <trkpt lat="50.12039" lon="5.79747">
        <ele>423.12</ele>
        <time>2010-04-02T09:42:48Z</time>
      </trkpt>
      <trkpt lat="50.12054" lon="5.79762">
        <ele>423.12</ele>
        <time>2010-04-02T09:42:49Z</time>
      </trkpt>
      <trkpt lat="50.1207" lon="5.79773">
        <ele>422.64</ele>
        <time>2010-04-02T09:42:50Z</time>
      </trkpt>
      <trkpt lat="50.12087" lon="5.79781">
        <ele>422.16</ele>
        <time>2010-04-02T09:42:51Z</time>
      </trkpt>
      <trkpt lat="50.12105" lon="5.79788">
        <ele>422.16</ele>
        <time>2010-04-02T09:42:52Z</time>
      </trkpt>
      <trkpt lat="50.12171" lon="5.79814">
        <ele>420.71</ele>
        <time>2010-04-02T09:42:56Z</time>
      </trkpt>
      <trkpt lat="50.12186" lon="5.79828">
        <ele>420.71</ele>
        <time>2010-04-02T09:42:57Z</time>
      </trkpt>
      <trkpt lat="50.12211" lon="5.79864">
        <ele>420.71</ele>
        <time>2010-04-02T09:42:59Z</time>
      </trkpt>
      <trkpt lat="50.12222" lon="5.79884">
        <ele>420.23</ele>
        <time>2010-04-02T09:43:00Z</time>
      </trkpt>
      <trkpt lat="50.12232" lon="5.79906">
        <ele>420.23</ele>
        <time>2010-04-02T09:43:01Z</time>
      </trkpt>
      <trkpt lat="50.12241" lon="5.7993">
        <ele>420.71</ele>
        <time>2010-04-02T09:43:02Z</time>
      </trkpt>
      <trkpt lat="50.12251" lon="5.79954">
        <ele>420.23</ele>
        <time>2010-04-02T09:43:03Z</time>
      </trkpt>
      <trkpt lat="50.12363" lon="5.80133">
        <ele>408.7</ele>
        <time>2010-04-02T09:43:12Z</time>
      </trkpt>
      <trkpt lat="50.12411" lon="5.80191">
        <ele>405.81</ele>
        <time>2010-04-02T09:43:17Z</time>
      </trkpt>
      <trkpt lat="50.12417" lon="5.80191">
        <ele>406.29</ele>
        <time>2010-04-02T09:43:18Z</time>
      </trkpt>
      <trkpt lat="50.12424" lon="5.80194">
        <ele>405.81</ele>
        <time>2010-04-02T09:43:19Z</time>
      </trkpt>
      <trkpt lat="50.12427" lon="5.80198">
        <ele>405.33</ele>
        <time>2010-04-02T09:43:20Z</time>
      </trkpt>
      <trkpt lat="50.12428" lon="5.80202">
        <ele>405.33</ele>
        <time>2010-04-02T09:43:21Z</time>
      </trkpt>
      <trkpt lat="50.12427" lon="5.80207">
        <ele>404.85</ele>
        <time>2010-04-02T09:43:22Z</time>
      </trkpt>
      <trkpt lat="50.12416" lon="5.80208">
        <ele>404.37</ele>
        <time>2010-04-02T09:43:24Z</time>
      </trkpt>
      <trkpt lat="50.1241" lon="5.80206">
        <ele>404.37</ele>
        <time>2010-04-02T09:43:25Z</time>
      </trkpt>
      <trkpt lat="50.12396" lon="5.80195">
        <ele>402.93</ele>
        <time>2010-04-02T09:43:27Z</time>
      </trkpt>
      <trkpt lat="50.12389" lon="5.80188">
        <ele>401.97</ele>
        <time>2010-04-02T09:43:28Z</time>
      </trkpt>
      <trkpt lat="50.12381" lon="5.80179">
        <ele>400.53</ele>
        <time>2010-04-02T09:43:29Z</time>
      </trkpt>
      <trkpt lat="50.12348" lon="5.80145">
        <ele>396.68</ele>
        <time>2010-04-02T09:43:33Z</time>
      </trkpt>
      <trkpt lat="50.12338" lon="5.80139">
        <ele>395.72</ele>
        <time>2010-04-02T09:43:34Z</time>
      </trkpt>
      <trkpt lat="50.12224" lon="5.80067">
        <ele>392.36</ele>
        <time>2010-04-02T09:43:44Z</time>
      </trkpt>
      <trkpt lat="50.12127" lon="5.79993">
        <ele>389.47</ele>
        <time>2010-04-02T09:43:52Z</time>
      </trkpt>
      <trkpt lat="50.12115" lon="5.7998">
        <ele>388.51</ele>
        <time>2010-04-02T09:43:53Z</time>
      </trkpt>
      <trkpt lat="50.12104" lon="5.79976">
        <ele>387.55</ele>
        <time>2010-04-02T09:43:54Z</time>
      </trkpt>
      <trkpt lat="50.12091" lon="5.79979">
        <ele>387.07</ele>
        <time>2010-04-02T09:43:55Z</time>
      </trkpt>
      <trkpt lat="50.12079" lon="5.79978">
        <ele>386.59</ele>
        <time>2010-04-02T09:43:56Z</time>
      </trkpt>
      <trkpt lat="50.12068" lon="5.79978">
        <ele>386.11</ele>
        <time>2010-04-02T09:43:57Z</time>
      </trkpt>
      <trkpt lat="50.12057" lon="5.79979">
        <ele>386.11</ele>
        <time>2010-04-02T09:43:58Z</time>
      </trkpt>
      <trkpt lat="50.12047" lon="5.79977">
        <ele>386.11</ele>
        <time>2010-04-02T09:43:59Z</time>
      </trkpt>
      <trkpt lat="50.12038" lon="5.79975">
        <ele>385.15</ele>
        <time>2010-04-02T09:44:00Z</time>
      </trkpt>
      <trkpt lat="50.12029" lon="5.79975">
        <ele>383.7</ele>
        <time>2010-04-02T09:44:01Z</time>
      </trkpt>
      <trkpt lat="50.12021" lon="5.79978">
        <ele>381.78</ele>
        <time>2010-04-02T09:44:02Z</time>
      </trkpt>
      <trkpt lat="50.12012" lon="5.79987">
        <ele>380.82</ele>
        <time>2010-04-02T09:44:03Z</time>
      </trkpt>
      <trkpt lat="50.12002" lon="5.79994">
        <ele>379.38</ele>
        <time>2010-04-02T09:44:04Z</time>
      </trkpt>
      <trkpt lat="50.11992" lon="5.79999">
        <ele>377.94</ele>
        <time>2010-04-02T09:44:05Z</time>
      </trkpt>
      <trkpt lat="50.11981" lon="5.80004">
        <ele>377.45</ele>
        <time>2010-04-02T09:44:06Z</time>
      </trkpt>
      <trkpt lat="50.11961" lon="5.80017">
        <ele>375.05</ele>
        <time>2010-04-02T09:44:08Z</time>
      </trkpt>
      <trkpt lat="50.11931" lon="5.80041">
        <ele>372.65</ele>
        <time>2010-04-02T09:44:11Z</time>
      </trkpt>
      <trkpt lat="50.11919" lon="5.80045">
        <ele>372.65</ele>
        <time>2010-04-02T09:44:12Z</time>
      </trkpt>
      <trkpt lat="50.11908" lon="5.80046">
        <ele>373.13</ele>
        <time>2010-04-02T09:44:13Z</time>
      </trkpt>
      <trkpt lat="50.11896" lon="5.80048">
        <ele>374.57</ele>
        <time>2010-04-02T09:44:14Z</time>
      </trkpt>
      <trkpt lat="50.11885" lon="5.80049">
        <ele>374.57</ele>
        <time>2010-04-02T09:44:15Z</time>
      </trkpt>
      <trkpt lat="50.11874" lon="5.80052">
        <ele>376.01</ele>
        <time>2010-04-02T09:44:16Z</time>
      </trkpt>
      <trkpt lat="50.11864" lon="5.80054">
        <ele>375.05</ele>
        <time>2010-04-02T09:44:17Z</time>
      </trkpt>
      <trkpt lat="50.11854" lon="5.80059">
        <ele>374.09</ele>
        <time>2010-04-02T09:44:18Z</time>
      </trkpt>
      <trkpt lat="50.11845" lon="5.80066">
        <ele>373.61</ele>
        <time>2010-04-02T09:44:19Z</time>
      </trkpt>
      <trkpt lat="50.11835" lon="5.80074">
        <ele>373.61</ele>
        <time>2010-04-02T09:44:20Z</time>
      </trkpt>
      <trkpt lat="50.11757" lon="5.80146">
        <ele>373.61</ele>
        <time>2010-04-02T09:44:28Z</time>
      </trkpt>
      <trkpt lat="50.1175" lon="5.80157">
        <ele>373.61</ele>
        <time>2010-04-02T09:44:29Z</time>
      </trkpt>
      <trkpt lat="50.11744" lon="5.80171">
        <ele>373.61</ele>
        <time>2010-04-02T09:44:30Z</time>
      </trkpt>
      <trkpt lat="50.11739" lon="5.80187">
        <ele>373.61</ele>
        <time>2010-04-02T09:44:31Z</time>
      </trkpt>
      <trkpt lat="50.11736" lon="5.80205">
        <ele>373.61</ele>
        <time>2010-04-02T09:44:32Z</time>
      </trkpt>
      <trkpt lat="50.11733" lon="5.80224">
        <ele>374.09</ele>
        <time>2010-04-02T09:44:33Z</time>
      </trkpt>
      <trkpt lat="50.11733" lon="5.80244">
        <ele>373.13</ele>
        <time>2010-04-02T09:44:34Z</time>
      </trkpt>
      <trkpt lat="50.11733" lon="5.80263">
        <ele>372.17</ele>
        <time>2010-04-02T09:44:35Z</time>
      </trkpt>
      <trkpt lat="50.11734" lon="5.80284">
        <ele>371.21</ele>
        <time>2010-04-02T09:44:36Z</time>
      </trkpt>
      <trkpt lat="50.11758" lon="5.80437">
        <ele>371.69</ele>
        <time>2010-04-02T09:44:44Z</time>
      </trkpt>
      <trkpt lat="50.11752" lon="5.80466">
        <ele>372.17</ele>
        <time>2010-04-02T09:44:46Z</time>
      </trkpt>
      <trkpt lat="50.11742" lon="5.80476">
        <ele>373.13</ele>
        <time>2010-04-02T09:44:47Z</time>
      </trkpt>
      <trkpt lat="50.1173" lon="5.8048">
        <ele>373.61</ele>
        <time>2010-04-02T09:44:48Z</time>
      </trkpt>
      <trkpt lat="50.11718" lon="5.80482">
        <ele>373.13</ele>
        <time>2010-04-02T09:44:49Z</time>
      </trkpt>
      <trkpt lat="50.11706" lon="5.80479">
        <ele>373.61</ele>
        <time>2010-04-02T09:44:50Z</time>
      </trkpt>
      <trkpt lat="50.11693" lon="5.80475">
        <ele>374.57</ele>
        <time>2010-04-02T09:44:51Z</time>
      </trkpt>
      <trkpt lat="50.1168" lon="5.80472">
        <ele>374.57</ele>
        <time>2010-04-02T09:44:52Z</time>
      </trkpt>
      <trkpt lat="50.11667" lon="5.80472">
        <ele>375.05</ele>
        <time>2010-04-02T09:44:53Z</time>
      </trkpt>
      <trkpt lat="50.11654" lon="5.80476">
        <ele>375.05</ele>
        <time>2010-04-02T09:44:54Z</time>
      </trkpt>
      <trkpt lat="50.11641" lon="5.80485">
        <ele>375.05</ele>
        <time>2010-04-02T09:44:55Z</time>
      </trkpt>
      <trkpt lat="50.11629" lon="5.80497">
        <ele>375.53</ele>
        <time>2010-04-02T09:44:56Z</time>
      </trkpt>
      <trkpt lat="50.11618" lon="5.80509">
        <ele>375.53</ele>
        <time>2010-04-02T09:44:57Z</time>
      </trkpt>
      <trkpt lat="50.11558" lon="5.80559">
        <ele>376.49</ele>
        <time>2010-04-02T09:45:02Z</time>
      </trkpt>
      <trkpt lat="50.11545" lon="5.80563">
        <ele>376.49</ele>
        <time>2010-04-02T09:45:03Z</time>
      </trkpt>
      <trkpt lat="50.11531" lon="5.80564">
        <ele>376.97</ele>
        <time>2010-04-02T09:45:04Z</time>
      </trkpt>
      <trkpt lat="50.11503" lon="5.80561">
        <ele>377.45</ele>
        <time>2010-04-02T09:45:06Z</time>
      </trkpt>
      <trkpt lat="50.1149" lon="5.80556">
        <ele>377.94</ele>
        <time>2010-04-02T09:45:07Z</time>
      </trkpt>
      <trkpt lat="50.11423" lon="5.80535">
        <ele>379.38</ele>
        <time>2010-04-02T09:45:12Z</time>
      </trkpt>
      <trkpt lat="50.11408" lon="5.8054">
        <ele>379.86</ele>
        <time>2010-04-02T09:45:13Z</time>
      </trkpt>
      <trkpt lat="50.11395" lon="5.80545">
        <ele>380.82</ele>
        <time>2010-04-02T09:45:14Z</time>
      </trkpt>
      <trkpt lat="50.11381" lon="5.80557">
        <ele>381.3</ele>
        <time>2010-04-02T09:45:15Z</time>
      </trkpt>
      <trkpt lat="50.11369" lon="5.80573">
        <ele>381.78</ele>
        <time>2010-04-02T09:45:16Z</time>
      </trkpt>
      <trkpt lat="50.11358" lon="5.8059">
        <ele>382.26</ele>
        <time>2010-04-02T09:45:17Z</time>
      </trkpt>
      <trkpt lat="50.11347" lon="5.8061">
        <ele>381.78</ele>
        <time>2010-04-02T09:45:18Z</time>
      </trkpt>
      <trkpt lat="50.11338" lon="5.8063">
        <ele>381.78</ele>
        <time>2010-04-02T09:45:19Z</time>
      </trkpt>
      <trkpt lat="50.1133" lon="5.80651">
        <ele>381.78</ele>
        <time>2010-04-02T09:45:20Z</time>
      </trkpt>
      <trkpt lat="50.11323" lon="5.80672">
        <ele>382.26</ele>
        <time>2010-04-02T09:45:21Z</time>
      </trkpt>
      <trkpt lat="50.11317" lon="5.80693">
        <ele>382.74</ele>
        <time>2010-04-02T09:45:22Z</time>
      </trkpt>
      <trkpt lat="50.11312" lon="5.80717">
        <ele>382.74</ele>
        <time>2010-04-02T09:45:23Z</time>
      </trkpt>
      <trkpt lat="50.11308" lon="5.80741">
        <ele>383.22</ele>
        <time>2010-04-02T09:45:24Z</time>
      </trkpt>
      <trkpt lat="50.11305" lon="5.80765">
        <ele>383.22</ele>
        <time>2010-04-02T09:45:25Z</time>
      </trkpt>
      <trkpt lat="50.11284" lon="5.80882">
        <ele>384.18</ele>
        <time>2010-04-02T09:45:30Z</time>
      </trkpt>
      <trkpt lat="50.11276" lon="5.80902">
        <ele>384.66</ele>
        <time>2010-04-02T09:45:31Z</time>
      </trkpt>
      <trkpt lat="50.11267" lon="5.80921">
        <ele>383.7</ele>
        <time>2010-04-02T09:45:32Z</time>
      </trkpt>
      <trkpt lat="50.11257" lon="5.80937">
        <ele>384.18</ele>
        <time>2010-04-02T09:45:33Z</time>
      </trkpt>
      <trkpt lat="50.11246" lon="5.80953">
        <ele>384.66</ele>
        <time>2010-04-02T09:45:34Z</time>
      </trkpt>
      <trkpt lat="50.11218" lon="5.80993">
        <ele>387.07</ele>
        <time>2010-04-02T09:45:37Z</time>
      </trkpt>
      <trkpt lat="50.1121" lon="5.81008">
        <ele>388.51</ele>
        <time>2010-04-02T09:45:38Z</time>
      </trkpt>
      <trkpt lat="50.11204" lon="5.81025">
        <ele>389.47</ele>
        <time>2010-04-02T09:45:39Z</time>
      </trkpt>
      <trkpt lat="50.11201" lon="5.81044">
        <ele>390.43</ele>
        <time>2010-04-02T09:45:40Z</time>
      </trkpt>
      <trkpt lat="50.11198" lon="5.81064">
        <ele>390.91</ele>
        <time>2010-04-02T09:45:41Z</time>
      </trkpt>
      <trkpt lat="50.11196" lon="5.81084">
        <ele>391.39</ele>
        <time>2010-04-02T09:45:42Z</time>
      </trkpt>
      <trkpt lat="50.11195" lon="5.81104">
        <ele>391.87</ele>
        <time>2010-04-02T09:45:43Z</time>
      </trkpt>
      <trkpt lat="50.11195" lon="5.81123">
        <ele>392.36</ele>
        <time>2010-04-02T09:45:44Z</time>
      </trkpt>
      <trkpt lat="50.11198" lon="5.81143">
        <ele>392.84</ele>
        <time>2010-04-02T09:45:45Z</time>
      </trkpt>
      <trkpt lat="50.11201" lon="5.81162">
        <ele>393.32</ele>
        <time>2010-04-02T09:45:46Z</time>
      </trkpt>
      <trkpt lat="50.11206" lon="5.81181">
        <ele>393.8</ele>
        <time>2010-04-02T09:45:47Z</time>
      </trkpt>
      <trkpt lat="50.11244" lon="5.81302">
        <ele>400.05</ele>
        <time>2010-04-02T09:45:55Z</time>
      </trkpt>
      <trkpt lat="50.11263" lon="5.81456">
        <ele>405.33</ele>
        <time>2010-04-02T09:46:03Z</time>
      </trkpt>
      <trkpt lat="50.1126" lon="5.8148">
        <ele>406.29</ele>
        <time>2010-04-02T09:46:04Z</time>
      </trkpt>
      <trkpt lat="50.11251" lon="5.816">
        <ele>409.66</ele>
        <time>2010-04-02T09:46:09Z</time>
      </trkpt>
      <trkpt lat="50.11253" lon="5.81622">
        <ele>410.62</ele>
        <time>2010-04-02T09:46:10Z</time>
      </trkpt>
      <trkpt lat="50.11256" lon="5.81644">
        <ele>411.1</ele>
        <time>2010-04-02T09:46:11Z</time>
      </trkpt>
      <trkpt lat="50.11261" lon="5.81666">
        <ele>412.06</ele>
        <time>2010-04-02T09:46:12Z</time>
      </trkpt>
      <trkpt lat="50.11267" lon="5.81686">
        <ele>413.02</ele>
        <time>2010-04-02T09:46:13Z</time>
      </trkpt>
      <trkpt lat="50.11274" lon="5.81706">
        <ele>413.98</ele>
        <time>2010-04-02T09:46:14Z</time>
      </trkpt>
      <trkpt lat="50.11301" lon="5.81783">
        <ele>417.83</ele>
        <time>2010-04-02T09:46:18Z</time>
      </trkpt>
      <trkpt lat="50.11306" lon="5.81804">
        <ele>418.79</ele>
        <time>2010-04-02T09:46:19Z</time>
      </trkpt>
      <trkpt lat="50.11308" lon="5.81826">
        <ele>419.75</ele>
        <time>2010-04-02T09:46:20Z</time>
      </trkpt>
      <trkpt lat="50.11308" lon="5.81848">
        <ele>420.71</ele>
        <time>2010-04-02T09:46:21Z</time>
      </trkpt>
      <trkpt lat="50.11306" lon="5.81871">
        <ele>421.19</ele>
        <time>2010-04-02T09:46:22Z</time>
      </trkpt>
      <trkpt lat="50.11304" lon="5.81895">
        <ele>422.16</ele>
        <time>2010-04-02T09:46:23Z</time>
      </trkpt>
      <trkpt lat="50.11292" lon="5.81994">
        <ele>426</ele>
        <time>2010-04-02T09:46:27Z</time>
      </trkpt>
      <trkpt lat="50.11291" lon="5.82019">
        <ele>426.96</ele>
        <time>2010-04-02T09:46:28Z</time>
      </trkpt>
      <trkpt lat="50.11293" lon="5.82045">
        <ele>427.92</ele>
        <time>2010-04-02T09:46:29Z</time>
      </trkpt>
      <trkpt lat="50.11309" lon="5.82286">
        <ele>436.1</ele>
        <time>2010-04-02T09:46:38Z</time>
      </trkpt>
      <trkpt lat="50.11314" lon="5.82392">
        <ele>439.94</ele>
        <time>2010-04-02T09:46:42Z</time>
      </trkpt>
      <trkpt lat="50.11311" lon="5.82418">
        <ele>441.38</ele>
        <time>2010-04-02T09:46:43Z</time>
      </trkpt>
      <trkpt lat="50.11305" lon="5.82442">
        <ele>442.34</ele>
        <time>2010-04-02T09:46:44Z</time>
      </trkpt>
      <trkpt lat="50.11297" lon="5.82466">
        <ele>443.31</ele>
        <time>2010-04-02T09:46:45Z</time>
      </trkpt>
      <trkpt lat="50.11287" lon="5.82487">
        <ele>444.27</ele>
        <time>2010-04-02T09:46:46Z</time>
      </trkpt>
      <trkpt lat="50.11275" lon="5.82506">
        <ele>445.23</ele>
        <time>2010-04-02T09:46:47Z</time>
      </trkpt>
      <trkpt lat="50.11262" lon="5.82525">
        <ele>446.19</ele>
        <time>2010-04-02T09:46:48Z</time>
      </trkpt>
      <trkpt lat="50.11123" lon="5.8273">
        <ele>455.32</ele>
        <time>2010-04-02T09:47:00Z</time>
      </trkpt>
      <trkpt lat="50.11104" lon="5.82763">
        <ele>455.32</ele>
        <time>2010-04-02T09:47:02Z</time>
      </trkpt>
      <trkpt lat="50.11096" lon="5.82782">
        <ele>455.32</ele>
        <time>2010-04-02T09:47:03Z</time>
      </trkpt>
      <trkpt lat="50.1109" lon="5.82802">
        <ele>455.32</ele>
        <time>2010-04-02T09:47:04Z</time>
      </trkpt>
      <trkpt lat="50.11085" lon="5.82823">
        <ele>455.32</ele>
        <time>2010-04-02T09:47:05Z</time>
      </trkpt>
      <trkpt lat="50.11081" lon="5.82844">
        <ele>455.32</ele>
        <time>2010-04-02T09:47:06Z</time>
      </trkpt>
      <trkpt lat="50.11079" lon="5.82866">
        <ele>455.32</ele>
        <time>2010-04-02T09:47:07Z</time>
      </trkpt>
      <trkpt lat="50.11078" lon="5.82888">
        <ele>455.32</ele>
        <time>2010-04-02T09:47:08Z</time>
      </trkpt>
      <trkpt lat="50.11078" lon="5.8291">
        <ele>455.32</ele>
        <time>2010-04-02T09:47:09Z</time>
      </trkpt>
      <trkpt lat="50.11088" lon="5.83267">
        <ele>447.63</ele>
        <time>2010-04-02T09:47:26Z</time>
      </trkpt>
      <trkpt lat="50.11051" lon="5.83411">
        <ele>441.86</ele>
        <time>2010-04-02T09:47:33Z</time>
      </trkpt>
      <trkpt lat="50.1099" lon="5.83582">
        <ele>434.17</ele>
        <time>2010-04-02T09:47:43Z</time>
      </trkpt>
      <trkpt lat="50.10936" lon="5.83688">
        <ele>429.37</ele>
        <time>2010-04-02T09:47:53Z</time>
      </trkpt>
      <trkpt lat="50.10849" lon="5.83791">
        <ele>422.16</ele>
        <time>2010-04-02T09:48:05Z</time>
      </trkpt>
      <trkpt lat="50.10847" lon="5.83797">
        <ele>421.68</ele>
        <time>2010-04-02T09:48:06Z</time>
      </trkpt>
      <trkpt lat="50.10846" lon="5.83805">
        <ele>421.19</ele>
        <time>2010-04-02T09:48:07Z</time>
      </trkpt>
      <trkpt lat="50.10847" lon="5.83813">
        <ele>421.19</ele>
        <time>2010-04-02T09:48:08Z</time>
      </trkpt>
      <trkpt lat="50.10854" lon="5.83838">
        <ele>422.16</ele>
        <time>2010-04-02T09:48:11Z</time>
      </trkpt>
      <trkpt lat="50.10856" lon="5.83847">
        <ele>422.64</ele>
        <time>2010-04-02T09:48:12Z</time>
      </trkpt>
      <trkpt lat="50.10887" lon="5.83939">
        <ele>427.92</ele>
        <time>2010-04-02T09:48:23Z</time>
      </trkpt>
      <trkpt lat="50.10891" lon="5.83944">
        <ele>427.92</ele>
        <time>2010-04-02T09:48:24Z</time>
      </trkpt>
      <trkpt lat="50.10897" lon="5.83945">
        <ele>428.4</ele>
        <time>2010-04-02T09:48:25Z</time>
      </trkpt>
      <trkpt lat="50.10902" lon="5.83943">
        <ele>428.89</ele>
        <time>2010-04-02T09:48:26Z</time>
      </trkpt>
      <trkpt lat="50.10908" lon="5.83939">
        <ele>429.85</ele>
        <time>2010-04-02T09:48:27Z</time>
      </trkpt>
      <trkpt lat="50.10925" lon="5.83929">
        <ele>430.81</ele>
        <time>2010-04-02T09:48:30Z</time>
      </trkpt>
      <trkpt lat="50.10931" lon="5.83929">
        <ele>431.29</ele>
        <time>2010-04-02T09:48:31Z</time>
      </trkpt>
      <trkpt lat="50.10936" lon="5.83932">
        <ele>431.77</ele>
        <time>2010-04-02T09:48:32Z</time>
      </trkpt>
      <trkpt lat="50.1094" lon="5.83938">
        <ele>432.25</ele>
        <time>2010-04-02T09:48:33Z</time>
      </trkpt>
      <trkpt lat="50.10944" lon="5.83946">
        <ele>432.73</ele>
        <time>2010-04-02T09:48:34Z</time>
      </trkpt>
      <trkpt lat="50.10947" lon="5.83955">
        <ele>433.21</ele>
        <time>2010-04-02T09:48:35Z</time>
      </trkpt>
      <trkpt lat="50.10951" lon="5.83966">
        <ele>433.69</ele>
        <time>2010-04-02T09:48:36Z</time>
      </trkpt>
      <trkpt lat="50.10963" lon="5.84">
        <ele>435.61</ele>
        <time>2010-04-02T09:48:39Z</time>
      </trkpt>
      <trkpt lat="50.10969" lon="5.8401">
        <ele>436.1</ele>
        <time>2010-04-02T09:48:40Z</time>
      </trkpt>
      <trkpt lat="50.10976" lon="5.8402">
        <ele>437.06</ele>
        <time>2010-04-02T09:48:41Z</time>
      </trkpt>
      <trkpt lat="50.10984" lon="5.84027">
        <ele>437.06</ele>
        <time>2010-04-02T09:48:42Z</time>
      </trkpt>
      <trkpt lat="50.10993" lon="5.84033">
        <ele>437.54</ele>
        <time>2010-04-02T09:48:43Z</time>
      </trkpt>
      <trkpt lat="50.11003" lon="5.84039">
        <ele>438.02</ele>
        <time>2010-04-02T09:48:44Z</time>
      </trkpt>
      <trkpt lat="50.11074" lon="5.84071">
        <ele>440.42</ele>
        <time>2010-04-02T09:48:50Z</time>
      </trkpt>
      <trkpt lat="50.11087" lon="5.84073">
        <ele>440.42</ele>
        <time>2010-04-02T09:48:51Z</time>
      </trkpt>
      <trkpt lat="50.11229" lon="5.8411">
        <ele>432.73</ele>
        <time>2010-04-02T09:49:01Z</time>
      </trkpt>
      <trkpt lat="50.11344" lon="5.84201">
        <ele>427.92</ele>
        <time>2010-04-02T09:49:09Z</time>
      </trkpt>
      <trkpt lat="50.11356" lon="5.84216">
        <ele>427.44</ele>
        <time>2010-04-02T09:49:10Z</time>
      </trkpt>
      <trkpt lat="50.11367" lon="5.84233">
        <ele>426.96</ele>
        <time>2010-04-02T09:49:11Z</time>
      </trkpt>
      <trkpt lat="50.11396" lon="5.84282">
        <ele>425.52</ele>
        <time>2010-04-02T09:49:14Z</time>
      </trkpt>
      <trkpt lat="50.11408" lon="5.84292">
        <ele>424.56</ele>
        <time>2010-04-02T09:49:15Z</time>
      </trkpt>
      <trkpt lat="50.11422" lon="5.84296">
        <ele>423.6</ele>
        <time>2010-04-02T09:49:16Z</time>
      </trkpt>
      <trkpt lat="50.11437" lon="5.84292">
        <ele>423.12</ele>
        <time>2010-04-02T09:49:17Z</time>
      </trkpt>
      <trkpt lat="50.1145" lon="5.8428">
        <ele>421.68</ele>
        <time>2010-04-02T09:49:18Z</time>
      </trkpt>
      <trkpt lat="50.11462" lon="5.84263">
        <ele>420.23</ele>
        <time>2010-04-02T09:49:19Z</time>
      </trkpt>
      <trkpt lat="50.11472" lon="5.84245">
        <ele>418.31</ele>
        <time>2010-04-02T09:49:20Z</time>
      </trkpt>
      <trkpt lat="50.11483" lon="5.84227">
        <ele>416.87</ele>
        <time>2010-04-02T09:49:21Z</time>
      </trkpt>
      <trkpt lat="50.11507" lon="5.84193">
        <ele>413.98</ele>
        <time>2010-04-02T09:49:23Z</time>
      </trkpt>
      <trkpt lat="50.11521" lon="5.84179">
        <ele>412.06</ele>
        <time>2010-04-02T09:49:24Z</time>
      </trkpt>
      <trkpt lat="50.11537" lon="5.84167">
        <ele>410.62</ele>
        <time>2010-04-02T09:49:25Z</time>
      </trkpt>
      <trkpt lat="50.11553" lon="5.84159">
        <ele>409.18</ele>
        <time>2010-04-02T09:49:26Z</time>
      </trkpt>
      <trkpt lat="50.1157" lon="5.84152">
        <ele>407.74</ele>
        <time>2010-04-02T09:49:27Z</time>
      </trkpt>
      <trkpt lat="50.11588" lon="5.84147">
        <ele>406.77</ele>
        <time>2010-04-02T09:49:28Z</time>
      </trkpt>
      <trkpt lat="50.11734" lon="5.84131">
        <ele>401.01</ele>
        <time>2010-04-02T09:49:36Z</time>
      </trkpt>
      <trkpt lat="50.11857" lon="5.84124">
        <ele>396.68</ele>
        <time>2010-04-02T09:49:43Z</time>
      </trkpt>
      <trkpt lat="50.11874" lon="5.8413">
        <ele>396.2</ele>
        <time>2010-04-02T09:49:44Z</time>
      </trkpt>
      <trkpt lat="50.1189" lon="5.84139">
        <ele>395.72</ele>
        <time>2010-04-02T09:49:45Z</time>
      </trkpt>
      <trkpt lat="50.11905" lon="5.8415">
        <ele>395.72</ele>
        <time>2010-04-02T09:49:46Z</time>
      </trkpt>
      <trkpt lat="50.11919" lon="5.84163">
        <ele>395.24</ele>
        <time>2010-04-02T09:49:47Z</time>
      </trkpt>
      <trkpt lat="50.11931" lon="5.84177">
        <ele>395.24</ele>
        <time>2010-04-02T09:49:48Z</time>
      </trkpt>
      <trkpt lat="50.11942" lon="5.8419">
        <ele>394.76</ele>
        <time>2010-04-02T09:49:49Z</time>
      </trkpt>
      <trkpt lat="50.11971" lon="5.84221">
        <ele>394.76</ele>
        <time>2010-04-02T09:49:52Z</time>
      </trkpt>
      <trkpt lat="50.1198" lon="5.84224">
        <ele>394.28</ele>
        <time>2010-04-02T09:49:53Z</time>
      </trkpt>
      <trkpt lat="50.11989" lon="5.84221">
        <ele>394.28</ele>
        <time>2010-04-02T09:49:54Z</time>
      </trkpt>
      <trkpt lat="50.11998" lon="5.84214">
        <ele>393.8</ele>
        <time>2010-04-02T09:49:55Z</time>
      </trkpt>
      <trkpt lat="50.12003" lon="5.84199">
        <ele>393.8</ele>
        <time>2010-04-02T09:49:56Z</time>
      </trkpt>
      <trkpt lat="50.12007" lon="5.84183">
        <ele>393.8</ele>
        <time>2010-04-02T09:49:57Z</time>
      </trkpt>
      <trkpt lat="50.12009" lon="5.84165">
        <ele>393.32</ele>
        <time>2010-04-02T09:49:58Z</time>
      </trkpt>
      <trkpt lat="50.12009" lon="5.84146">
        <ele>392.84</ele>
        <time>2010-04-02T09:49:59Z</time>
      </trkpt>
      <trkpt lat="50.12008" lon="5.84126">
        <ele>392.84</ele>
        <time>2010-04-02T09:50:00Z</time>
      </trkpt>
      <trkpt lat="50.12005" lon="5.83986">
        <ele>390.43</ele>
        <time>2010-04-02T09:50:07Z</time>
      </trkpt>
      <trkpt lat="50.12007" lon="5.83968">
        <ele>390.43</ele>
        <time>2010-04-02T09:50:08Z</time>
      </trkpt>
      <trkpt lat="50.12009" lon="5.83952">
        <ele>390.91</ele>
        <time>2010-04-02T09:50:09Z</time>
      </trkpt>
      <trkpt lat="50.12014" lon="5.83938">
        <ele>391.39</ele>
        <time>2010-04-02T09:50:10Z</time>
      </trkpt>
      <trkpt lat="50.12021" lon="5.83926">
        <ele>391.39</ele>
        <time>2010-04-02T09:50:11Z</time>
      </trkpt>
      <trkpt lat="50.12031" lon="5.83917">
        <ele>391.39</ele>
        <time>2010-04-02T09:50:12Z</time>
      </trkpt>
      <trkpt lat="50.12043" lon="5.83915">
        <ele>391.39</ele>
        <time>2010-04-02T09:50:13Z</time>
      </trkpt>
      <trkpt lat="50.12056" lon="5.83919">
        <ele>391.39</ele>
        <time>2010-04-02T09:50:14Z</time>
      </trkpt>
      <trkpt lat="50.12066" lon="5.83927">
        <ele>391.39</ele>
        <time>2010-04-02T09:50:15Z</time>
      </trkpt>
      <trkpt lat="50.12075" lon="5.83939">
        <ele>390.91</ele>
        <time>2010-04-02T09:50:16Z</time>
      </trkpt>
      <trkpt lat="50.12083" lon="5.83952">
        <ele>390.91</ele>
        <time>2010-04-02T09:50:17Z</time>
      </trkpt>
      <trkpt lat="50.1209" lon="5.83967">
        <ele>390.43</ele>
        <time>2010-04-02T09:50:18Z</time>
      </trkpt>
      <trkpt lat="50.12115" lon="5.84019">
        <ele>389.95</ele>
        <time>2010-04-02T09:50:22Z</time>
      </trkpt>
      <trkpt lat="50.12124" lon="5.84028">
        <ele>389.95</ele>
        <time>2010-04-02T09:50:23Z</time>
      </trkpt>
      <trkpt lat="50.12134" lon="5.84032">
        <ele>389.47</ele>
        <time>2010-04-02T09:50:24Z</time>
      </trkpt>
      <trkpt lat="50.12145" lon="5.84035">
        <ele>389.95</ele>
        <time>2010-04-02T09:50:25Z</time>
      </trkpt>
      <trkpt lat="50.12158" lon="5.84039">
        <ele>389.95</ele>
        <time>2010-04-02T09:50:26Z</time>
      </trkpt>
      <trkpt lat="50.12198" lon="5.8406">
        <ele>390.91</ele>
        <time>2010-04-02T09:50:29Z</time>
      </trkpt>
      <trkpt lat="50.12211" lon="5.8407">
        <ele>391.39</ele>
        <time>2010-04-02T09:50:30Z</time>
      </trkpt>
      <trkpt lat="50.12223" lon="5.84082">
        <ele>391.87</ele>
        <time>2010-04-02T09:50:31Z</time>
      </trkpt>
      <trkpt lat="50.12349" lon="5.84215">
        <ele>397.64</ele>
        <time>2010-04-02T09:50:41Z</time>
      </trkpt>
      <trkpt lat="50.12385" lon="5.84236">
        <ele>400.53</ele>
        <time>2010-04-02T09:50:45Z</time>
      </trkpt>
      <trkpt lat="50.1239" lon="5.84237">
        <ele>401.49</ele>
        <time>2010-04-02T09:50:46Z</time>
      </trkpt>
      <trkpt lat="50.12456" lon="5.84268">
        <ele>410.14</ele>
        <time>2010-04-02T09:50:54Z</time>
      </trkpt>
      <trkpt lat="50.12476" lon="5.84278">
        <ele>412.54</ele>
        <time>2010-04-02T09:50:56Z</time>
      </trkpt>
      <trkpt lat="50.12497" lon="5.84283">
        <ele>413.5</ele>
        <time>2010-04-02T09:50:58Z</time>
      </trkpt>
      <trkpt lat="50.12508" lon="5.84284">
        <ele>412.54</ele>
        <time>2010-04-02T09:50:59Z</time>
      </trkpt>
      <trkpt lat="50.1253" lon="5.8428">
        <ele>412.06</ele>
        <time>2010-04-02T09:51:01Z</time>
      </trkpt>
      <trkpt lat="50.12542" lon="5.84278">
        <ele>412.54</ele>
        <time>2010-04-02T09:51:02Z</time>
      </trkpt>
      <trkpt lat="50.12553" lon="5.84278">
        <ele>413.5</ele>
        <time>2010-04-02T09:51:03Z</time>
      </trkpt>
      <trkpt lat="50.12564" lon="5.84282">
        <ele>414.47</ele>
        <time>2010-04-02T09:51:04Z</time>
      </trkpt>
      <trkpt lat="50.12576" lon="5.84289">
        <ele>415.43</ele>
        <time>2010-04-02T09:51:05Z</time>
      </trkpt>
      <trkpt lat="50.12586" lon="5.84298">
        <ele>415.91</ele>
        <time>2010-04-02T09:51:06Z</time>
      </trkpt>
      <trkpt lat="50.12596" lon="5.8431">
        <ele>417.35</ele>
        <time>2010-04-02T09:51:07Z</time>
      </trkpt>
      <trkpt lat="50.12605" lon="5.84324">
        <ele>417.83</ele>
        <time>2010-04-02T09:51:08Z</time>
      </trkpt>
      <trkpt lat="50.12613" lon="5.8434">
        <ele>418.79</ele>
        <time>2010-04-02T09:51:09Z</time>
      </trkpt>
      <trkpt lat="50.12621" lon="5.84357">
        <ele>419.75</ele>
        <time>2010-04-02T09:51:10Z</time>
      </trkpt>
      <trkpt lat="50.12719" lon="5.84507">
        <ele>426.96</ele>
        <time>2010-04-02T09:51:20Z</time>
      </trkpt>
      <trkpt lat="50.12756" lon="5.84558">
        <ele>429.37</ele>
        <time>2010-04-02T09:51:24Z</time>
      </trkpt>
      <trkpt lat="50.12766" lon="5.84567">
        <ele>429.37</ele>
        <time>2010-04-02T09:51:25Z</time>
      </trkpt>
      <trkpt lat="50.12835" lon="5.84641">
        <ele>431.29</ele>
        <time>2010-04-02T09:51:34Z</time>
      </trkpt>
      <trkpt lat="50.12842" lon="5.84647">
        <ele>431.29</ele>
        <time>2010-04-02T09:51:35Z</time>
      </trkpt>
      <trkpt lat="50.12851" lon="5.84652">
        <ele>431.77</ele>
        <time>2010-04-02T09:51:36Z</time>
      </trkpt>
      <trkpt lat="50.1286" lon="5.84655">
        <ele>431.77</ele>
        <time>2010-04-02T09:51:37Z</time>
      </trkpt>
      <trkpt lat="50.1287" lon="5.84657">
        <ele>431.77</ele>
        <time>2010-04-02T09:51:38Z</time>
      </trkpt>
      <trkpt lat="50.12879" lon="5.84657">
        <ele>431.77</ele>
        <time>2010-04-02T09:51:39Z</time>
      </trkpt>
      <trkpt lat="50.12887" lon="5.84656">
        <ele>431.77</ele>
        <time>2010-04-02T09:51:40Z</time>
      </trkpt>
      <trkpt lat="50.12895" lon="5.84652">
        <ele>431.77</ele>
        <time>2010-04-02T09:51:41Z</time>
      </trkpt>
      <trkpt lat="50.12901" lon="5.84645">
        <ele>431.29</ele>
        <time>2010-04-02T09:51:42Z</time>
      </trkpt>
      <trkpt lat="50.12905" lon="5.84631">
        <ele>431.29</ele>
        <time>2010-04-02T09:51:43Z</time>
      </trkpt>
      <trkpt lat="50.12907" lon="5.84617">
        <ele>430.81</ele>
        <time>2010-04-02T09:51:44Z</time>
      </trkpt>
      <trkpt lat="50.12906" lon="5.84603">
        <ele>430.33</ele>
        <time>2010-04-02T09:51:45Z</time>
      </trkpt>
      <trkpt lat="50.12904" lon="5.84589">
        <ele>430.33</ele>
        <time>2010-04-02T09:51:46Z</time>
      </trkpt>
      <trkpt lat="50.129" lon="5.84577">
        <ele>430.33</ele>
        <time>2010-04-02T09:51:47Z</time>
      </trkpt>
      <trkpt lat="50.12895" lon="5.84565">
        <ele>429.85</ele>
        <time>2010-04-02T09:51:48Z</time>
      </trkpt>
      <trkpt lat="50.12889" lon="5.84553">
        <ele>429.85</ele>
        <time>2010-04-02T09:51:49Z</time>
      </trkpt>
      <trkpt lat="50.12862" lon="5.8448">
        <ele>428.89</ele>
        <time>2010-04-02T09:51:55Z</time>
      </trkpt>
      <trkpt lat="50.1286" lon="5.84468">
        <ele>428.89</ele>
        <time>2010-04-02T09:51:56Z</time>
      </trkpt>
      <trkpt lat="50.1286" lon="5.84455">
        <ele>429.37</ele>
        <time>2010-04-02T09:51:57Z</time>
      </trkpt>
      <trkpt lat="50.12861" lon="5.84442">
        <ele>429.37</ele>
        <time>2010-04-02T09:51:58Z</time>
      </trkpt>
      <trkpt lat="50.12864" lon="5.84429">
        <ele>429.85</ele>
        <time>2010-04-02T09:51:59Z</time>
      </trkpt>
      <trkpt lat="50.12867" lon="5.84403">
        <ele>430.33</ele>
        <time>2010-04-02T09:52:01Z</time>
      </trkpt>
      <trkpt lat="50.12866" lon="5.84389">
        <ele>430.33</ele>
        <time>2010-04-02T09:52:02Z</time>
      </trkpt>
      <trkpt lat="50.12863" lon="5.84361">
        <ele>431.29</ele>
        <time>2010-04-02T09:52:04Z</time>
      </trkpt>
      <trkpt lat="50.12862" lon="5.84346">
        <ele>431.77</ele>
        <time>2010-04-02T09:52:05Z</time>
      </trkpt>
      <trkpt lat="50.12863" lon="5.84332">
        <ele>431.77</ele>
        <time>2010-04-02T09:52:06Z</time>
      </trkpt>
      <trkpt lat="50.12865" lon="5.84318">
        <ele>432.25</ele>
        <time>2010-04-02T09:52:07Z</time>
      </trkpt>
      <trkpt lat="50.12868" lon="5.84307">
        <ele>432.73</ele>
        <time>2010-04-02T09:52:08Z</time>
      </trkpt>
      <trkpt lat="50.12875" lon="5.843">
        <ele>433.69</ele>
        <time>2010-04-02T09:52:09Z</time>
      </trkpt>
      <trkpt lat="50.12883" lon="5.843">
        <ele>434.17</ele>
        <time>2010-04-02T09:52:10Z</time>
      </trkpt>
      <trkpt lat="50.12891" lon="5.84305">
        <ele>435.13</ele>
        <time>2010-04-02T09:52:11Z</time>
      </trkpt>
      <trkpt lat="50.12897" lon="5.84314">
        <ele>435.61</ele>
        <time>2010-04-02T09:52:12Z</time>
      </trkpt>
      <trkpt lat="50.12901" lon="5.84326">
        <ele>436.1</ele>
        <time>2010-04-02T09:52:13Z</time>
      </trkpt>
      <trkpt lat="50.12904" lon="5.84339">
        <ele>436.58</ele>
        <time>2010-04-02T09:52:14Z</time>
      </trkpt>
      <trkpt lat="50.12921" lon="5.84394">
        <ele>439.46</ele>
        <time>2010-04-02T09:52:18Z</time>
      </trkpt>
      <trkpt lat="50.12928" lon="5.84407">
        <ele>439.94</ele>
        <time>2010-04-02T09:52:19Z</time>
      </trkpt>
      <trkpt lat="50.13014" lon="5.84531">
        <ele>447.15</ele>
        <time>2010-04-02T09:52:27Z</time>
      </trkpt>
      <trkpt lat="50.13216" lon="5.84808">
        <ele>465.42</ele>
        <time>2010-04-02T09:52:43Z</time>
      </trkpt>
      <trkpt lat="50.13324" lon="5.84972">
        <ele>471.66</ele>
        <time>2010-04-02T09:52:53Z</time>
      </trkpt>
      <trkpt lat="50.13351" lon="5.85071">
        <ele>474.07</ele>
        <time>2010-04-02T09:52:58Z</time>
      </trkpt>
      <trkpt lat="50.13381" lon="5.85328">
        <ele>477.91</ele>
        <time>2010-04-02T09:53:10Z</time>
      </trkpt>
      <trkpt lat="50.13396" lon="5.85621">
        <ele>476.47</ele>
        <time>2010-04-02T09:53:24Z</time>
      </trkpt>
      <trkpt lat="50.1339" lon="5.85799">
        <ele>473.59</ele>
        <time>2010-04-02T09:53:32Z</time>
      </trkpt>
      <trkpt lat="50.13393" lon="5.85821">
        <ele>473.59</ele>
        <time>2010-04-02T09:53:33Z</time>
      </trkpt>
      <trkpt lat="50.13396" lon="5.85844">
        <ele>473.59</ele>
        <time>2010-04-02T09:53:34Z</time>
      </trkpt>
      <trkpt lat="50.13612" lon="5.86915">
        <ele>490.89</ele>
        <time>2010-04-02T09:54:35Z</time>
      </trkpt>
      <trkpt lat="50.13633" lon="5.87054">
        <ele>494.26</ele>
        <time>2010-04-02T09:54:47Z</time>
      </trkpt>
      <trkpt lat="50.13633" lon="5.8706">
        <ele>494.74</ele>
        <time>2010-04-02T09:54:49Z</time>
      </trkpt>
      <trkpt lat="50.13631" lon="5.87059">
        <ele>504.35</ele>
        <time>2010-04-02T09:55:09Z</time>
      </trkpt>
      <trkpt lat="50.13627" lon="5.87061">
        <ele>515.4</ele>
        <time>2010-04-02T09:55:19Z</time>
      </trkpt>
      <trkpt lat="50.13627" lon="5.87057">
        <ele>530.79</ele>
        <time>2010-04-02T09:55:31Z</time>
      </trkpt>
      <trkpt lat="50.13631" lon="5.87052">
        <ele>515.4</ele>
        <time>2010-04-02T09:56:10Z</time>
      </trkpt>
      <trkpt lat="50.13633" lon="5.8706">
        <ele>493.29</ele>
        <time>2010-04-02T09:56:47Z</time>
      </trkpt>
      <trkpt lat="50.13629" lon="5.87056">
        <ele>511.56</ele>
        <time>2010-04-02T09:57:05Z</time>
      </trkpt>
      <trkpt lat="50.1363" lon="5.87127">
        <ele>495.6</ele>
      </trkpt>
      <trkpt lat="50.13583" lon="5.87896">
        <ele>505.31</ele>
        <time>2010-04-02T09:58:10Z</time>
      </trkpt>
      <trkpt lat="50.13581" lon="5.87918">
        <ele>504.83</ele>
        <time>2010-04-02T09:58:11Z</time>
      </trkpt>
      <trkpt lat="50.13582" lon="5.87941">
        <ele>503.87</ele>
        <time>2010-04-02T09:58:12Z</time>
      </trkpt>
      <trkpt lat="50.13583" lon="5.87963">
        <ele>502.91</ele>
        <time>2010-04-02T09:58:13Z</time>
      </trkpt>
      <trkpt lat="50.13587" lon="5.87985">
        <ele>501.95</ele>
        <time>2010-04-02T09:58:14Z</time>
      </trkpt>
      <trkpt lat="50.13592" lon="5.88006">
        <ele>500.98</ele>
        <time>2010-04-02T09:58:15Z</time>
      </trkpt>
      <trkpt lat="50.13598" lon="5.88026">
        <ele>500.02</ele>
        <time>2010-04-02T09:58:16Z</time>
      </trkpt>
      <trkpt lat="50.13696" lon="5.88351">
        <ele>484.16</ele>
        <time>2010-04-02T09:58:30Z</time>
      </trkpt>
      <trkpt lat="50.13746" lon="5.8849">
        <ele>477.43</ele>
        <time>2010-04-02T09:58:36Z</time>
      </trkpt>
      <trkpt lat="50.13758" lon="5.88507">
        <ele>476.47</ele>
        <time>2010-04-02T09:58:37Z</time>
      </trkpt>
      <trkpt lat="50.13772" lon="5.88524">
        <ele>475.03</ele>
        <time>2010-04-02T09:58:38Z</time>
      </trkpt>
      <trkpt lat="50.13898" lon="5.88702">
        <ele>464.45</ele>
        <time>2010-04-02T09:58:48Z</time>
      </trkpt>
      <trkpt lat="50.14391" lon="5.89755">
        <ele>482.72</ele>
        <time>2010-04-02T09:59:41Z</time>
      </trkpt>
      <trkpt lat="50.14461" lon="5.90113">
        <ele>485.6</ele>
        <time>2010-04-02T10:00:02Z</time>
      </trkpt>
      <trkpt lat="50.14448" lon="5.90234">
        <ele>483</ele>
      </trkpt>
      <trkpt lat="50.14459" lon="5.9028">
        <ele>481.2</ele>
      </trkpt>
      <trkpt lat="50.1446" lon="5.90389">
        <ele>478.6</ele>
      </trkpt>
      <trkpt lat="50.1455" lon="5.90582">
        <ele>483.9</ele>
      </trkpt>
      <trkpt lat="50.14615" lon="5.90704">
        <ele>485.1</ele>
      </trkpt>
      <trkpt lat="50.14635" lon="5.90802">
        <ele>487.8</ele>
      </trkpt>
      <trkpt lat="50.14648" lon="5.90995">
        <ele>493.4</ele>
      </trkpt>
      <trkpt lat="50.14664" lon="5.91169">
        <ele>497.2</ele>
      </trkpt>
      <trkpt lat="50.14646" lon="5.91237">
        <ele>498.8</ele>
      </trkpt>
      <trkpt lat="50.14544" lon="5.91574">
        <ele>495.3</ele>
      </trkpt>
      <trkpt lat="50.14532" lon="5.91649">
        <ele>493.8</ele>
      </trkpt>
      <trkpt lat="50.14561" lon="5.91741">
        <ele>493</ele>
      </trkpt>
      <trkpt lat="50.1474" lon="5.92233">
        <ele>496.9</ele>
      </trkpt>
      <trkpt lat="50.14835" lon="5.92358">
        <ele>496.6</ele>
      </trkpt>
      <trkpt lat="50.14932" lon="5.92374">
        <ele>498.3</ele>
      </trkpt>
      <trkpt lat="50.15082" lon="5.92456">
        <ele>500</ele>
      </trkpt>
      <trkpt lat="50.15149" lon="5.92494">
        <ele>496.1</ele>
      </trkpt>
      <trkpt lat="50.15423" lon="5.92576">
        <ele>498.6</ele>
      </trkpt>
      <trkpt lat="50.15563" lon="5.92539">
        <ele>488.1</ele>
      </trkpt>
      <trkpt lat="50.15786" lon="5.92399">
        <ele>468.5</ele>
      </trkpt>
      <trkpt lat="50.15866" lon="5.9237">
        <ele>466.2</ele>
      </trkpt>
      <trkpt lat="50.15998" lon="5.92315">
        <ele>476.4</ele>
      </trkpt>
      <trkpt lat="50.15999" lon="5.92317">
        <ele>476.5</ele>
      </trkpt>
      <trkpt lat="50.16088" lon="5.9238">
        <ele>480.4</ele>
      </trkpt>
      <trkpt lat="50.16219" lon="5.92522">
        <ele>479.4</ele>
      </trkpt>
      <trkpt lat="50.16301" lon="5.92622">
        <ele>482</ele>
      </trkpt>
      <trkpt lat="50.16988" lon="5.93146">
        <ele>465.2</ele>
      </trkpt>
      <trkpt lat="50.17167" lon="5.93218">
        <ele>455.8</ele>
      </trkpt>
      <trkpt lat="50.17275" lon="5.93195">
        <ele>452.2</ele>
      </trkpt>
      <trkpt lat="50.17396" lon="5.93062">
        <ele>442.6</ele>
      </trkpt>
      <trkpt lat="50.17511" lon="5.92869">
        <ele>428.2</ele>
      </trkpt>
      <trkpt lat="50.17549" lon="5.9273">
        <ele>421.4</ele>
      </trkpt>
      <trkpt lat="50.17619" lon="5.92645">
        <ele>418.4</ele>
      </trkpt>
      <trkpt lat="50.17718" lon="5.92662">
        <ele>426.1</ele>
      </trkpt>
      <trkpt lat="50.17824" lon="5.92717">
        <ele>435.2</ele>
      </trkpt>
      <trkpt lat="50.18005" lon="5.92959">
        <ele>440.9</ele>
      </trkpt>
      <trkpt lat="50.18072" lon="5.93125">
        <ele>439.3</ele>
      </trkpt>
      <trkpt lat="50.1812" lon="5.93259">
        <ele>437.5</ele>
      </trkpt>
      <trkpt lat="50.18217" lon="5.93331">
        <ele>443.3</ele>
      </trkpt>
      <trkpt lat="50.18336" lon="5.93676">
        <ele>454.3</ele>
      </trkpt>
      <trkpt lat="50.1835" lon="5.93761">
        <ele>454.8</ele>
      </trkpt>
      <trkpt lat="50.18442" lon="5.93943">
        <ele>443.3</ele>
      </trkpt>
      <trkpt lat="50.18483" lon="5.94018">
        <ele>441.3</ele>
      </trkpt>
      <trkpt lat="50.18523" lon="5.93952">
        <ele>442.5</ele>
      </trkpt>
      <trkpt lat="50.18578" lon="5.93871">
        <ele>442.1</ele>
      </trkpt>
      <trkpt lat="50.18641" lon="5.93915">
        <ele>444.8</ele>
      </trkpt>
      <trkpt lat="50.18812" lon="5.93641">
        <ele>454.5</ele>
      </trkpt>
      <trkpt lat="50.18918" lon="5.93448">
        <ele>454.1</ele>
      </trkpt>
      <trkpt lat="50.19128" lon="5.9254">
        <ele>460.4</ele>
      </trkpt>
      <trkpt lat="50.19105" lon="5.92009">
        <ele>466.8</ele>
      </trkpt>
      <trkpt lat="50.19405" lon="5.92283">
        <ele>467.8</ele>
      </trkpt>
      <trkpt lat="50.19444" lon="5.92364">
        <ele>473.4</ele>
      </trkpt>
      <trkpt lat="50.19509" lon="5.92408">
        <ele>480.2</ele>
      </trkpt>
      <trkpt lat="50.19513" lon="5.92408">
        <ele>480.4</ele>
      </trkpt>
      <trkpt lat="50.19832" lon="5.9236">
        <ele>487.6</ele>
      </trkpt>
      <trkpt lat="50.20961" lon="5.91772">
        <ele>489.5</ele>
      </trkpt>
      <trkpt lat="50.212" lon="5.91478">
        <ele>477.5</ele>
      </trkpt>
      <trkpt lat="50.21315" lon="5.91419">
        <ele>480.1</ele>
      </trkpt>
      <trkpt lat="50.21311" lon="5.91373">
        <ele>481.3</ele>
      </trkpt>
      <trkpt lat="50.21385" lon="5.91314">
        <ele>479.9</ele>
      </trkpt>
      <trkpt lat="50.21415" lon="5.91283">
        <ele>478.7</ele>
      </trkpt>
      <trkpt lat="50.21432" lon="5.91285">
        <ele>478.39</ele>
        <time>2010-04-02T11:49:52Z</time>
      </trkpt>
      <trkpt lat="50.21438" lon="5.91293">
        <ele>477.91</ele>
        <time>2010-04-02T11:49:53Z</time>
      </trkpt>
      <trkpt lat="50.21447" lon="5.91297">
        <ele>476.95</ele>
        <time>2010-04-02T11:49:54Z</time>
      </trkpt>
      <trkpt lat="50.21456" lon="5.913">
        <ele>476.47</ele>
        <time>2010-04-02T11:49:55Z</time>
      </trkpt>
      <trkpt lat="50.21465" lon="5.91306">
        <ele>475.51</ele>
        <time>2010-04-02T11:49:56Z</time>
      </trkpt>
      <trkpt lat="50.21585" lon="5.91365">
        <ele>473.59</ele>
        <time>2010-04-02T11:50:08Z</time>
      </trkpt>
      <trkpt lat="50.21632" lon="5.91395">
        <ele>475.51</ele>
        <time>2010-04-02T11:50:16Z</time>
      </trkpt>
      <trkpt lat="50.21653" lon="5.91402">
        <ele>476.47</ele>
        <time>2010-04-02T11:50:26Z</time>
      </trkpt>
      <trkpt lat="50.21714" lon="5.91411">
        <ele>475.03</ele>
        <time>2010-04-02T11:50:35Z</time>
      </trkpt>
      <trkpt lat="50.21808" lon="5.91488">
        <ele>467.34</ele>
        <time>2010-04-02T11:50:45Z</time>
      </trkpt>
      <trkpt lat="50.2195" lon="5.91598">
        <ele>460.61</ele>
        <time>2010-04-02T11:50:59Z</time>
      </trkpt>
      <trkpt lat="50.22102" lon="5.91642">
        <ele>455.32</ele>
        <time>2010-04-02T11:51:12Z</time>
      </trkpt>
      <trkpt lat="50.22285" lon="5.91705">
        <ele>449.07</ele>
        <time>2010-04-02T11:51:27Z</time>
      </trkpt>
      <trkpt lat="50.22294" lon="5.91715">
        <ele>448.59</ele>
        <time>2010-04-02T11:51:28Z</time>
      </trkpt>
      <trkpt lat="50.22372" lon="5.9179">
        <ele>446.67</ele>
        <time>2010-04-02T11:51:38Z</time>
      </trkpt>
      <trkpt lat="50.22422" lon="5.91837">
        <ele>447.15</ele>
        <time>2010-04-02T11:51:49Z</time>
      </trkpt>
      <trkpt lat="50.22445" lon="5.9186">
        <ele>447.63</ele>
        <time>2010-04-02T11:51:57Z</time>
      </trkpt>
      <trkpt lat="50.22499" lon="5.91917">
        <ele>447.63</ele>
        <time>2010-04-02T11:52:04Z</time>
      </trkpt>
      <trkpt lat="50.22539" lon="5.91986">
        <ele>448.11</ele>
        <time>2010-04-02T11:52:10Z</time>
      </trkpt>
      <trkpt lat="50.22544" lon="5.91994">
        <ele>448.59</ele>
        <time>2010-04-02T11:52:11Z</time>
      </trkpt>
      <trkpt lat="50.2256" lon="5.92016">
        <ele>449.07</ele>
        <time>2010-04-02T11:52:14Z</time>
      </trkpt>
      <trkpt lat="50.22563" lon="5.92024">
        <ele>449.55</ele>
        <time>2010-04-02T11:52:15Z</time>
      </trkpt>
      <trkpt lat="50.22565" lon="5.92032">
        <ele>450.03</ele>
        <time>2010-04-02T11:52:16Z</time>
      </trkpt>
      <trkpt lat="50.22565" lon="5.92041">
        <ele>450.52</ele>
        <time>2010-04-02T11:52:17Z</time>
      </trkpt>
      <trkpt lat="50.22565" lon="5.92049">
        <ele>450.03</ele>
        <time>2010-04-02T11:52:18Z</time>
      </trkpt>
      <trkpt lat="50.22566" lon="5.92056">
        <ele>450.03</ele>
        <time>2010-04-02T11:52:19Z</time>
      </trkpt>
      <trkpt lat="50.22567" lon="5.92064">
        <ele>449.55</ele>
        <time>2010-04-02T11:52:20Z</time>
      </trkpt>
      <trkpt lat="50.2257" lon="5.92072">
        <ele>449.07</ele>
        <time>2010-04-02T11:52:21Z</time>
      </trkpt>
      <trkpt lat="50.22573" lon="5.92081">
        <ele>449.07</ele>
        <time>2010-04-02T11:52:22Z</time>
      </trkpt>
      <trkpt lat="50.22605" lon="5.92144">
        <ele>449.07</ele>
        <time>2010-04-02T11:52:29Z</time>
      </trkpt>
      <trkpt lat="50.2261" lon="5.92151">
        <ele>448.59</ele>
        <time>2010-04-02T11:52:30Z</time>
      </trkpt>
      <trkpt lat="50.22616" lon="5.92156">
        <ele>448.59</ele>
        <time>2010-04-02T11:52:31Z</time>
      </trkpt>
      <trkpt lat="50.22623" lon="5.92159">
        <ele>448.11</ele>
        <time>2010-04-02T11:52:32Z</time>
      </trkpt>
      <trkpt lat="50.2263" lon="5.92164">
        <ele>448.11</ele>
        <time>2010-04-02T11:52:33Z</time>
      </trkpt>
      <trkpt lat="50.22637" lon="5.92169">
        <ele>448.11</ele>
        <time>2010-04-02T11:52:34Z</time>
      </trkpt>
      <trkpt lat="50.2267" lon="5.92182">
        <ele>448.59</ele>
        <time>2010-04-02T11:52:38Z</time>
      </trkpt>
      <trkpt lat="50.22678" lon="5.92183">
        <ele>448.59</ele>
        <time>2010-04-02T11:52:39Z</time>
      </trkpt>
      <trkpt lat="50.22687" lon="5.9218">
        <ele>448.59</ele>
        <time>2010-04-02T11:52:40Z</time>
      </trkpt>
      <trkpt lat="50.22695" lon="5.92178">
        <ele>449.07</ele>
        <time>2010-04-02T11:52:41Z</time>
      </trkpt>
      <trkpt lat="50.22703" lon="5.92176">
        <ele>449.55</ele>
        <time>2010-04-02T11:52:42Z</time>
      </trkpt>
      <trkpt lat="50.22719" lon="5.92173">
        <ele>450.03</ele>
        <time>2010-04-02T11:52:44Z</time>
      </trkpt>
      <trkpt lat="50.22726" lon="5.92175">
        <ele>450.52</ele>
        <time>2010-04-02T11:52:45Z</time>
      </trkpt>
      <trkpt lat="50.22734" lon="5.92182">
        <ele>450.52</ele>
        <time>2010-04-02T11:52:46Z</time>
      </trkpt>
      <trkpt lat="50.22742" lon="5.92189">
        <ele>450.52</ele>
        <time>2010-04-02T11:52:47Z</time>
      </trkpt>
      <trkpt lat="50.2275" lon="5.92198">
        <ele>450.52</ele>
        <time>2010-04-02T11:52:48Z</time>
      </trkpt>
      <trkpt lat="50.22788" lon="5.92237">
        <ele>449.07</ele>
        <time>2010-04-02T11:52:53Z</time>
      </trkpt>
      <trkpt lat="50.22797" lon="5.92241">
        <ele>448.59</ele>
        <time>2010-04-02T11:52:54Z</time>
      </trkpt>
      <trkpt lat="50.22806" lon="5.92243">
        <ele>448.11</ele>
        <time>2010-04-02T11:52:55Z</time>
      </trkpt>
      <trkpt lat="50.22817" lon="5.92242">
        <ele>447.63</ele>
        <time>2010-04-02T11:52:56Z</time>
      </trkpt>
      <trkpt lat="50.22828" lon="5.92242">
        <ele>447.15</ele>
        <time>2010-04-02T11:52:57Z</time>
      </trkpt>
      <trkpt lat="50.22851" lon="5.92237">
        <ele>445.23</ele>
        <time>2010-04-02T11:52:59Z</time>
      </trkpt>
      <trkpt lat="50.22862" lon="5.9223">
        <ele>443.79</ele>
        <time>2010-04-02T11:53:00Z</time>
      </trkpt>
      <trkpt lat="50.22874" lon="5.92222">
        <ele>442.82</ele>
        <time>2010-04-02T11:53:01Z</time>
      </trkpt>
      <trkpt lat="50.22977" lon="5.92154">
        <ele>434.65</ele>
        <time>2010-04-02T11:53:11Z</time>
      </trkpt>
      <trkpt lat="50.22997" lon="5.92147">
        <ele>433.21</ele>
        <time>2010-04-02T11:53:16Z</time>
      </trkpt>
      <trkpt lat="50.23002" lon="5.92142">
        <ele>433.21</ele>
        <time>2010-04-02T11:53:17Z</time>
      </trkpt>
      <trkpt lat="50.23008" lon="5.92135">
        <ele>433.21</ele>
        <time>2010-04-02T11:53:18Z</time>
      </trkpt>
      <trkpt lat="50.23084" lon="5.92077">
        <ele>432.73</ele>
        <time>2010-04-02T11:53:26Z</time>
      </trkpt>
      <trkpt lat="50.23096" lon="5.92074">
        <ele>432.73</ele>
        <time>2010-04-02T11:53:27Z</time>
      </trkpt>
      <trkpt lat="50.23109" lon="5.92073">
        <ele>432.73</ele>
        <time>2010-04-02T11:53:28Z</time>
      </trkpt>
      <trkpt lat="50.23123" lon="5.92074">
        <ele>432.73</ele>
        <time>2010-04-02T11:53:29Z</time>
      </trkpt>
      <trkpt lat="50.23136" lon="5.92076">
        <ele>432.73</ele>
        <time>2010-04-02T11:53:30Z</time>
      </trkpt>
      <trkpt lat="50.2315" lon="5.92079">
        <ele>432.73</ele>
        <time>2010-04-02T11:53:31Z</time>
      </trkpt>
      <trkpt lat="50.23362" lon="5.92142">
        <ele>432.25</ele>
        <time>2010-04-02T11:53:45Z</time>
      </trkpt>
      <trkpt lat="50.23662" lon="5.92232">
        <ele>431.77</ele>
        <time>2010-04-02T11:54:03Z</time>
      </trkpt>
      <trkpt lat="50.23864" lon="5.92256">
        <ele>429.37</ele>
        <time>2010-04-02T11:54:15Z</time>
      </trkpt>
      <trkpt lat="50.24086" lon="5.92173">
        <ele>425.52</ele>
        <time>2010-04-02T11:54:28Z</time>
      </trkpt>
      <trkpt lat="50.24209" lon="5.92091">
        <ele>423.6</ele>
        <time>2010-04-02T11:54:36Z</time>
      </trkpt>
      <trkpt lat="50.24378" lon="5.92065">
        <ele>421.68</ele>
        <time>2010-04-02T11:54:46Z</time>
      </trkpt>
      <trkpt lat="50.24395" lon="5.92072">
        <ele>421.68</ele>
        <time>2010-04-02T11:54:47Z</time>
      </trkpt>
      <trkpt lat="50.24412" lon="5.92081">
        <ele>422.16</ele>
        <time>2010-04-02T11:54:48Z</time>
      </trkpt>
      <trkpt lat="50.24495" lon="5.92132">
        <ele>423.12</ele>
        <time>2010-04-02T11:54:53Z</time>
      </trkpt>
      <trkpt lat="50.24511" lon="5.92137">
        <ele>423.6</ele>
        <time>2010-04-02T11:54:54Z</time>
      </trkpt>
      <trkpt lat="50.24528" lon="5.92139">
        <ele>423.6</ele>
        <time>2010-04-02T11:54:55Z</time>
      </trkpt>
      <trkpt lat="50.24545" lon="5.92138">
        <ele>424.08</ele>
        <time>2010-04-02T11:54:56Z</time>
      </trkpt>
      <trkpt lat="50.24562" lon="5.92134">
        <ele>424.56</ele>
        <time>2010-04-02T11:54:57Z</time>
      </trkpt>
      <trkpt lat="50.24578" lon="5.92128">
        <ele>425.04</ele>
        <time>2010-04-02T11:54:58Z</time>
      </trkpt>
      <trkpt lat="50.24594" lon="5.92117">
        <ele>425.52</ele>
        <time>2010-04-02T11:54:59Z</time>
      </trkpt>
      <trkpt lat="50.24609" lon="5.92104">
        <ele>425.52</ele>
        <time>2010-04-02T11:55:00Z</time>
      </trkpt>
      <trkpt lat="50.24623" lon="5.92088">
        <ele>425.52</ele>
        <time>2010-04-02T11:55:01Z</time>
      </trkpt>
      <trkpt lat="50.24636" lon="5.92069">
        <ele>425.52</ele>
        <time>2010-04-02T11:55:02Z</time>
      </trkpt>
      <trkpt lat="50.24649" lon="5.92049">
        <ele>425.04</ele>
        <time>2010-04-02T11:55:03Z</time>
      </trkpt>
      <trkpt lat="50.24843" lon="5.91745">
        <ele>413.5</ele>
        <time>2010-04-02T11:55:17Z</time>
      </trkpt>
      <trkpt lat="50.24988" lon="5.91484">
        <ele>408.7</ele>
        <time>2010-04-02T11:55:28Z</time>
      </trkpt>
      <trkpt lat="50.2512" lon="5.91342">
        <ele>405.33</ele>
        <time>2010-04-02T11:55:36Z</time>
      </trkpt>
      <trkpt lat="50.25235" lon="5.91238">
        <ele>403.41</ele>
        <time>2010-04-02T11:55:43Z</time>
      </trkpt>
      <trkpt lat="50.25248" lon="5.91219">
        <ele>402.93</ele>
        <time>2010-04-02T11:55:44Z</time>
      </trkpt>
      <trkpt lat="50.25259" lon="5.91197">
        <ele>402.93</ele>
        <time>2010-04-02T11:55:45Z</time>
      </trkpt>
      <trkpt lat="50.25268" lon="5.91173">
        <ele>402.45</ele>
        <time>2010-04-02T11:55:46Z</time>
      </trkpt>
      <trkpt lat="50.25272" lon="5.91146">
        <ele>401.97</ele>
        <time>2010-04-02T11:55:47Z</time>
      </trkpt>
      <trkpt lat="50.25276" lon="5.9112">
        <ele>401.97</ele>
        <time>2010-04-02T11:55:48Z</time>
      </trkpt>
      <trkpt lat="50.25278" lon="5.91093">
        <ele>401.49</ele>
        <time>2010-04-02T11:55:49Z</time>
      </trkpt>
      <trkpt lat="50.2528" lon="5.91067">
        <ele>401.49</ele>
        <time>2010-04-02T11:55:50Z</time>
      </trkpt>
      <trkpt lat="50.25288" lon="5.91017">
        <ele>401.01</ele>
        <time>2010-04-02T11:55:52Z</time>
      </trkpt>
      <trkpt lat="50.25294" lon="5.90994">
        <ele>400.53</ele>
        <time>2010-04-02T11:55:53Z</time>
      </trkpt>
      <trkpt lat="50.25303" lon="5.90973">
        <ele>400.05</ele>
        <time>2010-04-02T11:55:54Z</time>
      </trkpt>
      <trkpt lat="50.25314" lon="5.90954">
        <ele>400.05</ele>
        <time>2010-04-02T11:55:55Z</time>
      </trkpt>
      <trkpt lat="50.25326" lon="5.90936">
        <ele>399.57</ele>
        <time>2010-04-02T11:55:56Z</time>
      </trkpt>
      <trkpt lat="50.25338" lon="5.90921">
        <ele>399.57</ele>
        <time>2010-04-02T11:55:57Z</time>
      </trkpt>
      <trkpt lat="50.25353" lon="5.90909">
        <ele>399.57</ele>
        <time>2010-04-02T11:55:58Z</time>
      </trkpt>
      <trkpt lat="50.25368" lon="5.90898">
        <ele>399.08</ele>
        <time>2010-04-02T11:55:59Z</time>
      </trkpt>
      <trkpt lat="50.25383" lon="5.90887">
        <ele>398.12</ele>
        <time>2010-04-02T11:56:00Z</time>
      </trkpt>
      <trkpt lat="50.25443" lon="5.90838">
        <ele>395.72</ele>
        <time>2010-04-02T11:56:04Z</time>
      </trkpt>
      <trkpt lat="50.25456" lon="5.90821">
        <ele>395.72</ele>
        <time>2010-04-02T11:56:05Z</time>
      </trkpt>
      <trkpt lat="50.25468" lon="5.90802">
        <ele>395.24</ele>
        <time>2010-04-02T11:56:06Z</time>
      </trkpt>
      <trkpt lat="50.25479" lon="5.90782">
        <ele>394.76</ele>
        <time>2010-04-02T11:56:07Z</time>
      </trkpt>
      <trkpt lat="50.25489" lon="5.9076">
        <ele>394.76</ele>
        <time>2010-04-02T11:56:08Z</time>
      </trkpt>
      <trkpt lat="50.25579" lon="5.90591">
        <ele>394.28</ele>
        <time>2010-04-02T11:56:16Z</time>
      </trkpt>
      <trkpt lat="50.25594" lon="5.90574">
        <ele>394.28</ele>
        <time>2010-04-02T11:56:17Z</time>
      </trkpt>
      <trkpt lat="50.2561" lon="5.9056">
        <ele>394.28</ele>
        <time>2010-04-02T11:56:18Z</time>
      </trkpt>
      <trkpt lat="50.25626" lon="5.90549">
        <ele>393.32</ele>
        <time>2010-04-02T11:56:19Z</time>
      </trkpt>
      <trkpt lat="50.25645" lon="5.9054">
        <ele>393.32</ele>
        <time>2010-04-02T11:56:20Z</time>
      </trkpt>
      <trkpt lat="50.25662" lon="5.90534">
        <ele>392.36</ele>
        <time>2010-04-02T11:56:21Z</time>
      </trkpt>
      <trkpt lat="50.25679" lon="5.90529">
        <ele>392.36</ele>
        <time>2010-04-02T11:56:22Z</time>
      </trkpt>
      <trkpt lat="50.25697" lon="5.90528">
        <ele>391.39</ele>
        <time>2010-04-02T11:56:23Z</time>
      </trkpt>
      <trkpt lat="50.25763" lon="5.90508">
        <ele>390.91</ele>
        <time>2010-04-02T11:56:27Z</time>
      </trkpt>
      <trkpt lat="50.25778" lon="5.90497">
        <ele>390.43</ele>
        <time>2010-04-02T11:56:28Z</time>
      </trkpt>
      <trkpt lat="50.25852" lon="5.90436">
        <ele>388.99</ele>
        <time>2010-04-02T11:56:33Z</time>
      </trkpt>
      <trkpt lat="50.25867" lon="5.9043">
        <ele>388.99</ele>
        <time>2010-04-02T11:56:34Z</time>
      </trkpt>
      <trkpt lat="50.25883" lon="5.90428">
        <ele>388.99</ele>
        <time>2010-04-02T11:56:35Z</time>
      </trkpt>
      <trkpt lat="50.25899" lon="5.90427">
        <ele>388.99</ele>
        <time>2010-04-02T11:56:36Z</time>
      </trkpt>
      <trkpt lat="50.25915" lon="5.90427">
        <ele>388.51</ele>
        <time>2010-04-02T11:56:37Z</time>
      </trkpt>
      <trkpt lat="50.26103" lon="5.90401">
        <ele>386.59</ele>
        <time>2010-04-02T11:56:49Z</time>
      </trkpt>
      <trkpt lat="50.26242" lon="5.90384">
        <ele>384.66</ele>
        <time>2010-04-02T11:56:59Z</time>
      </trkpt>
      <trkpt lat="50.26356" lon="5.90421">
        <ele>383.22</ele>
        <time>2010-04-02T11:57:08Z</time>
      </trkpt>
      <trkpt lat="50.2637" lon="5.90423">
        <ele>383.22</ele>
        <time>2010-04-02T11:57:09Z</time>
      </trkpt>
      <trkpt lat="50.26384" lon="5.90422">
        <ele>382.74</ele>
        <time>2010-04-02T11:57:10Z</time>
      </trkpt>
      <trkpt lat="50.26398" lon="5.90419">
        <ele>382.74</ele>
        <time>2010-04-02T11:57:11Z</time>
      </trkpt>
      <trkpt lat="50.26412" lon="5.90412">
        <ele>382.26</ele>
        <time>2010-04-02T11:57:12Z</time>
      </trkpt>
      <trkpt lat="50.26425" lon="5.90403">
        <ele>381.78</ele>
        <time>2010-04-02T11:57:13Z</time>
      </trkpt>
      <trkpt lat="50.26438" lon="5.90393">
        <ele>381.3</ele>
        <time>2010-04-02T11:57:14Z</time>
      </trkpt>
      <trkpt lat="50.26477" lon="5.90368">
        <ele>380.34</ele>
        <time>2010-04-02T11:57:17Z</time>
      </trkpt>
      <trkpt lat="50.2649" lon="5.90365">
        <ele>379.86</ele>
        <time>2010-04-02T11:57:18Z</time>
      </trkpt>
      <trkpt lat="50.26504" lon="5.90366">
        <ele>379.38</ele>
        <time>2010-04-02T11:57:19Z</time>
      </trkpt>
      <trkpt lat="50.26516" lon="5.90371">
        <ele>378.9</ele>
        <time>2010-04-02T11:57:20Z</time>
      </trkpt>
      <trkpt lat="50.26527" lon="5.90382">
        <ele>377.94</ele>
        <time>2010-04-02T11:57:21Z</time>
      </trkpt>
      <trkpt lat="50.26541" lon="5.90389">
        <ele>378.42</ele>
        <time>2010-04-02T11:57:22Z</time>
      </trkpt>
      <trkpt lat="50.26549" lon="5.90401">
        <ele>379.38</ele>
        <time>2010-04-02T11:57:23Z</time>
      </trkpt>
      <trkpt lat="50.2656" lon="5.9041">
        <ele>378.42</ele>
        <time>2010-04-02T11:57:24Z</time>
      </trkpt>
      <trkpt lat="50.26602" lon="5.90435">
        <ele>379.86</ele>
        <time>2010-04-02T11:57:30Z</time>
      </trkpt>
      <trkpt lat="50.26605" lon="5.90463">
        <ele>377.94</ele>
        <time>2010-04-02T11:57:37Z</time>
      </trkpt>
      <trkpt lat="50.26603" lon="5.90469">
        <ele>377.94</ele>
        <time>2010-04-02T11:57:38Z</time>
      </trkpt>
      <trkpt lat="50.2659" lon="5.90518">
        <ele>377.94</ele>
        <time>2010-04-02T11:57:44Z</time>
      </trkpt>
      <trkpt lat="50.26588" lon="5.90528">
        <ele>377.94</ele>
        <time>2010-04-02T11:57:45Z</time>
      </trkpt>
      <trkpt lat="50.26588" lon="5.90537">
        <ele>377.94</ele>
        <time>2010-04-02T11:57:46Z</time>
      </trkpt>
      <trkpt lat="50.26588" lon="5.90546">
        <ele>377.94</ele>
        <time>2010-04-02T11:57:47Z</time>
      </trkpt>
      <trkpt lat="50.26589" lon="5.90555">
        <ele>377.94</ele>
        <time>2010-04-02T11:57:48Z</time>
      </trkpt>
      <trkpt lat="50.26591" lon="5.90564">
        <ele>378.42</ele>
        <time>2010-04-02T11:57:49Z</time>
      </trkpt>
      <trkpt lat="50.26595" lon="5.90574">
        <ele>378.9</ele>
        <time>2010-04-02T11:57:50Z</time>
      </trkpt>
      <trkpt lat="50.26599" lon="5.90581">
        <ele>378.42</ele>
        <time>2010-04-02T11:57:51Z</time>
      </trkpt>
      <trkpt lat="50.26605" lon="5.90588">
        <ele>378.9</ele>
        <time>2010-04-02T11:57:52Z</time>
      </trkpt>
      <trkpt lat="50.26609" lon="5.90596">
        <ele>378.9</ele>
        <time>2010-04-02T11:57:53Z</time>
      </trkpt>
      <trkpt lat="50.26672" lon="5.90684">
        <ele>379.86</ele>
        <time>2010-04-02T11:58:02Z</time>
      </trkpt>
      <trkpt lat="50.26733" lon="5.90758">
        <ele>376.49</ele>
        <time>2010-04-02T11:58:09Z</time>
      </trkpt>
      <trkpt lat="50.26791" lon="5.90871">
        <ele>377.45</ele>
        <time>2010-04-02T11:58:16Z</time>
      </trkpt>
      <trkpt lat="50.26802" lon="5.90883">
        <ele>378.9</ele>
        <time>2010-04-02T11:58:17Z</time>
      </trkpt>
      <trkpt lat="50.26812" lon="5.90893">
        <ele>378.42</ele>
        <time>2010-04-02T11:58:18Z</time>
      </trkpt>
      <trkpt lat="50.26827" lon="5.90899">
        <ele>379.38</ele>
        <time>2010-04-02T11:58:19Z</time>
      </trkpt>
      <trkpt lat="50.2684" lon="5.90906">
        <ele>378.9</ele>
        <time>2010-04-02T11:58:20Z</time>
      </trkpt>
      <trkpt lat="50.26856" lon="5.90912">
        <ele>378.9</ele>
        <time>2010-04-02T11:58:21Z</time>
      </trkpt>
      <trkpt lat="50.26868" lon="5.90914">
        <ele>377.45</ele>
        <time>2010-04-02T11:58:22Z</time>
      </trkpt>
      <trkpt lat="50.2688" lon="5.90913">
        <ele>375.53</ele>
        <time>2010-04-02T11:58:23Z</time>
      </trkpt>
      <trkpt lat="50.26895" lon="5.9091">
        <ele>374.57</ele>
        <time>2010-04-02T11:58:24Z</time>
      </trkpt>
      <trkpt lat="50.26909" lon="5.90905">
        <ele>373.61</ele>
        <time>2010-04-02T11:58:25Z</time>
      </trkpt>
      <trkpt lat="50.26924" lon="5.90899">
        <ele>373.13</ele>
        <time>2010-04-02T11:58:26Z</time>
      </trkpt>
      <trkpt lat="50.27063" lon="5.90808">
        <ele>369.28</ele>
        <time>2010-04-02T11:58:35Z</time>
      </trkpt>
      <trkpt lat="50.27202" lon="5.90732">
        <ele>368.8</ele>
        <time>2010-04-02T11:58:44Z</time>
      </trkpt>
      <trkpt lat="50.27218" lon="5.90729">
        <ele>368.32</ele>
        <time>2010-04-02T11:58:45Z</time>
      </trkpt>
      <trkpt lat="50.27234" lon="5.9073">
        <ele>368.32</ele>
        <time>2010-04-02T11:58:46Z</time>
      </trkpt>
      <trkpt lat="50.2725" lon="5.90733">
        <ele>367.84</ele>
        <time>2010-04-02T11:58:47Z</time>
      </trkpt>
      <trkpt lat="50.27267" lon="5.90742">
        <ele>367.36</ele>
        <time>2010-04-02T11:58:48Z</time>
      </trkpt>
      <trkpt lat="50.27283" lon="5.90755">
        <ele>366.88</ele>
        <time>2010-04-02T11:58:49Z</time>
      </trkpt>
      <trkpt lat="50.27299" lon="5.9077">
        <ele>366.88</ele>
        <time>2010-04-02T11:58:50Z</time>
      </trkpt>
      <trkpt lat="50.27314" lon="5.90787">
        <ele>366.4</ele>
        <time>2010-04-02T11:58:51Z</time>
      </trkpt>
      <trkpt lat="50.27495" lon="5.90991">
        <ele>365.92</ele>
        <time>2010-04-02T11:59:04Z</time>
      </trkpt>
      <trkpt lat="50.27591" lon="5.91089">
        <ele>365.44</ele>
        <time>2010-04-02T11:59:12Z</time>
      </trkpt>
      <trkpt lat="50.27604" lon="5.91095">
        <ele>365.44</ele>
        <time>2010-04-02T11:59:13Z</time>
      </trkpt>
      <trkpt lat="50.27617" lon="5.91099">
        <ele>365.44</ele>
        <time>2010-04-02T11:59:14Z</time>
      </trkpt>
      <trkpt lat="50.27631" lon="5.91097">
        <ele>365.44</ele>
        <time>2010-04-02T11:59:15Z</time>
      </trkpt>
      <trkpt lat="50.27646" lon="5.91096">
        <ele>364.96</ele>
        <time>2010-04-02T11:59:16Z</time>
      </trkpt>
      <trkpt lat="50.27821" lon="5.91092">
        <ele>366.4</ele>
        <time>2010-04-02T11:59:29Z</time>
      </trkpt>
      <trkpt lat="50.27917" lon="5.91118">
        <ele>371.21</ele>
        <time>2010-04-02T11:59:38Z</time>
      </trkpt>
      <trkpt lat="50.28004" lon="5.91174">
        <ele>373.61</ele>
        <time>2010-04-02T11:59:48Z</time>
      </trkpt>
      <trkpt lat="50.28082" lon="5.91217">
        <ele>376.01</ele>
        <time>2010-04-02T11:59:57Z</time>
      </trkpt>
      <trkpt lat="50.28197" lon="5.91305">
        <ele>373.61</ele>
        <time>2010-04-02T12:00:09Z</time>
      </trkpt>
      <trkpt lat="50.28323" lon="5.91405">
        <ele>380.82</ele>
        <time>2010-04-02T12:00:22Z</time>
      </trkpt>
      <trkpt lat="50.28407" lon="5.91498">
        <ele>382.74</ele>
        <time>2010-04-02T12:00:32Z</time>
      </trkpt>
      <trkpt lat="50.28504" lon="5.91628">
        <ele>381.3</ele>
        <time>2010-04-02T12:00:44Z</time>
      </trkpt>
      <trkpt lat="50.28524" lon="5.91654">
        <ele>385.15</ele>
        <time>2010-04-02T12:00:47Z</time>
      </trkpt>
      <trkpt lat="50.28532" lon="5.91662">
        <ele>386.11</ele>
        <time>2010-04-02T12:00:48Z</time>
      </trkpt>
      <trkpt lat="50.28538" lon="5.9167">
        <ele>386.59</ele>
        <time>2010-04-02T12:00:49Z</time>
      </trkpt>
      <trkpt lat="50.28544" lon="5.91676">
        <ele>386.59</ele>
        <time>2010-04-02T12:00:50Z</time>
      </trkpt>
      <trkpt lat="50.28548" lon="5.91681">
        <ele>386.11</ele>
        <time>2010-04-02T12:00:51Z</time>
      </trkpt>
      <trkpt lat="50.28562" lon="5.91707">
        <ele>390.91</ele>
        <time>2010-04-02T12:01:01Z</time>
      </trkpt>
      <trkpt lat="50.2857" lon="5.9172">
        <ele>388.51</ele>
        <time>2010-04-02T12:01:16Z</time>
      </trkpt>
      <trkpt lat="50.28577" lon="5.91726">
        <ele>387.55</ele>
        <time>2010-04-02T12:01:18Z</time>
      </trkpt>
      <trkpt lat="50.2858" lon="5.91724">
        <ele>387.07</ele>
        <time>2010-04-02T12:01:19Z</time>
      </trkpt>
      <trkpt lat="50.28584" lon="5.91721">
        <ele>386.11</ele>
        <time>2010-04-02T12:01:20Z</time>
      </trkpt>
      <trkpt lat="50.2866" lon="5.91656">
        <ele>381.78</ele>
        <time>2010-04-02T12:01:34Z</time>
      </trkpt>
      <trkpt lat="50.28718" lon="5.91603">
        <ele>376.49</ele>
        <time>2010-04-02T12:01:45Z</time>
      </trkpt>
      <trkpt lat="50.28723" lon="5.91596">
        <ele>375.53</ele>
        <time>2010-04-02T12:01:47Z</time>
      </trkpt>
      <trkpt lat="50.28725" lon="5.91591">
        <ele>374.09</ele>
        <time>2010-04-02T12:01:48Z</time>
      </trkpt>
      <trkpt lat="50.28728" lon="5.91584">
        <ele>373.61</ele>
        <time>2010-04-02T12:01:49Z</time>
      </trkpt>
      <trkpt lat="50.2873" lon="5.91576">
        <ele>372.65</ele>
        <time>2010-04-02T12:01:50Z</time>
      </trkpt>
      <trkpt lat="50.28732" lon="5.91567">
        <ele>371.69</ele>
        <time>2010-04-02T12:01:51Z</time>
      </trkpt>
      <trkpt lat="50.28733" lon="5.91558">
        <ele>371.21</ele>
        <time>2010-04-02T12:01:52Z</time>
      </trkpt>
      <trkpt lat="50.28734" lon="5.9155">
        <ele>370.24</ele>
        <time>2010-04-02T12:01:53Z</time>
      </trkpt>
      <trkpt lat="50.28734" lon="5.91542">
        <ele>369.76</ele>
        <time>2010-04-02T12:01:54Z</time>
      </trkpt>
      <trkpt lat="50.28734" lon="5.91534">
        <ele>369.28</ele>
        <time>2010-04-02T12:01:55Z</time>
      </trkpt>
      <trkpt lat="50.28742" lon="5.9151">
        <ele>366.4</ele>
        <time>2010-04-02T12:02:00Z</time>
      </trkpt>
      <trkpt lat="50.28759" lon="5.91491">
        <ele>365.44</ele>
        <time>2010-04-02T12:02:09Z</time>
      </trkpt>
      <trkpt lat="50.28765" lon="5.91468">
        <ele>366.4</ele>
        <time>2010-04-02T12:03:22Z</time>
      </trkpt>
      <trkpt lat="50.28768" lon="5.91462">
        <ele>365.92</ele>
        <time>2010-04-02T12:03:23Z</time>
      </trkpt>
      <trkpt lat="50.28773" lon="5.91455">
        <ele>365.92</ele>
        <time>2010-04-02T12:03:24Z</time>
      </trkpt>
      <trkpt lat="50.28778" lon="5.91448">
        <ele>364.96</ele>
        <time>2010-04-02T12:03:25Z</time>
      </trkpt>
      <trkpt lat="50.28784" lon="5.91443">
        <ele>364.96</ele>
        <time>2010-04-02T12:03:26Z</time>
      </trkpt>
      <trkpt lat="50.28791" lon="5.91439">
        <ele>364.48</ele>
        <time>2010-04-02T12:03:27Z</time>
      </trkpt>
      <trkpt lat="50.28798" lon="5.91437">
        <ele>364</ele>
        <time>2010-04-02T12:03:28Z</time>
      </trkpt>
      <trkpt lat="50.28805" lon="5.91436">
        <ele>363.52</ele>
        <time>2010-04-02T12:03:29Z</time>
      </trkpt>
      <trkpt lat="50.28812" lon="5.91438">
        <ele>363.52</ele>
        <time>2010-04-02T12:03:30Z</time>
      </trkpt>
      <trkpt lat="50.2882" lon="5.91442">
        <ele>363.04</ele>
        <time>2010-04-02T12:03:31Z</time>
      </trkpt>
      <trkpt lat="50.28827" lon="5.91447">
        <ele>362.07</ele>
        <time>2010-04-02T12:03:32Z</time>
      </trkpt>
      <trkpt lat="50.28834" lon="5.91452">
        <ele>361.11</ele>
        <time>2010-04-02T12:03:33Z</time>
      </trkpt>
      <trkpt lat="50.28851" lon="5.91469">
        <ele>358.71</ele>
        <time>2010-04-02T12:03:36Z</time>
      </trkpt>
      <trkpt lat="50.28937" lon="5.91531">
        <ele>355.83</ele>
        <time>2010-04-02T12:03:48Z</time>
      </trkpt>
      <trkpt lat="50.28956" lon="5.9154">
        <ele>355.34</ele>
        <time>2010-04-02T12:03:50Z</time>
      </trkpt>
      <trkpt lat="50.28967" lon="5.91543">
        <ele>354.86</ele>
        <time>2010-04-02T12:03:51Z</time>
      </trkpt>
      <trkpt lat="50.28978" lon="5.91543">
        <ele>354.38</ele>
        <time>2010-04-02T12:03:52Z</time>
      </trkpt>
      <trkpt lat="50.2899" lon="5.91542">
        <ele>353.9</ele>
        <time>2010-04-02T12:03:53Z</time>
      </trkpt>
      <trkpt lat="50.29002" lon="5.91541">
        <ele>353.9</ele>
        <time>2010-04-02T12:03:54Z</time>
      </trkpt>
      <trkpt lat="50.29086" lon="5.9149">
        <ele>352.46</ele>
        <time>2010-04-02T12:04:01Z</time>
      </trkpt>
      <trkpt lat="50.29096" lon="5.91476">
        <ele>351.98</ele>
        <time>2010-04-02T12:04:02Z</time>
      </trkpt>
      <trkpt lat="50.29106" lon="5.91461">
        <ele>351.98</ele>
        <time>2010-04-02T12:04:03Z</time>
      </trkpt>
      <trkpt lat="50.29175" lon="5.91305">
        <ele>351.5</ele>
        <time>2010-04-02T12:04:11Z</time>
      </trkpt>
      <trkpt lat="50.29228" lon="5.91115">
        <ele>351.5</ele>
        <time>2010-04-02T12:04:19Z</time>
      </trkpt>
      <trkpt lat="50.29279" lon="5.90839">
        <ele>351.98</ele>
        <time>2010-04-02T12:04:29Z</time>
      </trkpt>
      <trkpt lat="50.29332" lon="5.90648">
        <ele>350.54</ele>
        <time>2010-04-02T12:04:37Z</time>
      </trkpt>
      <trkpt lat="50.29341" lon="5.90629">
        <ele>350.54</ele>
        <time>2010-04-02T12:04:38Z</time>
      </trkpt>
      <trkpt lat="50.29352" lon="5.90612">
        <ele>350.06</ele>
        <time>2010-04-02T12:04:39Z</time>
      </trkpt>
      <trkpt lat="50.29365" lon="5.90598">
        <ele>349.58</ele>
        <time>2010-04-02T12:04:40Z</time>
      </trkpt>
      <trkpt lat="50.2938" lon="5.90585">
        <ele>349.1</ele>
        <time>2010-04-02T12:04:41Z</time>
      </trkpt>
      <trkpt lat="50.29395" lon="5.90573">
        <ele>349.1</ele>
        <time>2010-04-02T12:04:42Z</time>
      </trkpt>
      <trkpt lat="50.2972" lon="5.90272">
        <ele>344.77</ele>
        <time>2010-04-02T12:05:04Z</time>
      </trkpt>
      <trkpt lat="50.29765" lon="5.9025">
        <ele>344.77</ele>
        <time>2010-04-02T12:05:07Z</time>
      </trkpt>
      <trkpt lat="50.29781" lon="5.90246">
        <ele>344.29</ele>
        <time>2010-04-02T12:05:08Z</time>
      </trkpt>
      <trkpt lat="50.29796" lon="5.90245">
        <ele>344.29</ele>
        <time>2010-04-02T12:05:09Z</time>
      </trkpt>
      <trkpt lat="50.29811" lon="5.90245">
        <ele>343.81</ele>
        <time>2010-04-02T12:05:10Z</time>
      </trkpt>
      <trkpt lat="50.29827" lon="5.90251">
        <ele>344.29</ele>
        <time>2010-04-02T12:05:11Z</time>
      </trkpt>
      <trkpt lat="50.29842" lon="5.90262">
        <ele>344.29</ele>
        <time>2010-04-02T12:05:12Z</time>
      </trkpt>
      <trkpt lat="50.29857" lon="5.9028">
        <ele>345.25</ele>
        <time>2010-04-02T12:05:13Z</time>
      </trkpt>
      <trkpt lat="50.2987" lon="5.90301">
        <ele>345.25</ele>
        <time>2010-04-02T12:05:14Z</time>
      </trkpt>
      <trkpt lat="50.29879" lon="5.90325">
        <ele>345.73</ele>
        <time>2010-04-02T12:05:15Z</time>
      </trkpt>
      <trkpt lat="50.29886" lon="5.90348">
        <ele>345.25</ele>
        <time>2010-04-02T12:05:16Z</time>
      </trkpt>
      <trkpt lat="50.29892" lon="5.90374">
        <ele>344.77</ele>
        <time>2010-04-02T12:05:17Z</time>
      </trkpt>
      <trkpt lat="50.29897" lon="5.90401">
        <ele>343.81</ele>
        <time>2010-04-02T12:05:18Z</time>
      </trkpt>
      <trkpt lat="50.29902" lon="5.90428">
        <ele>343.33</ele>
        <time>2010-04-02T12:05:19Z</time>
      </trkpt>
      <trkpt lat="50.30019" lon="5.91017">
        <ele>335.64</ele>
        <time>2010-04-02T12:05:39Z</time>
      </trkpt>
      <trkpt lat="50.30121" lon="5.91144">
        <ele>334.2</ele>
        <time>2010-04-02T12:05:45Z</time>
      </trkpt>
      <trkpt lat="50.30143" lon="5.91156">
        <ele>333.23</ele>
        <time>2010-04-02T12:05:46Z</time>
      </trkpt>
      <trkpt lat="50.30165" lon="5.9116">
        <ele>333.71</ele>
        <time>2010-04-02T12:05:47Z</time>
      </trkpt>
      <trkpt lat="50.30188" lon="5.91162">
        <ele>333.23</ele>
        <time>2010-04-02T12:05:48Z</time>
      </trkpt>
      <trkpt lat="50.30209" lon="5.91164">
        <ele>331.79</ele>
        <time>2010-04-02T12:05:49Z</time>
      </trkpt>
      <trkpt lat="50.30233" lon="5.91165">
        <ele>330.35</ele>
        <time>2010-04-02T12:05:50Z</time>
      </trkpt>
      <trkpt lat="50.30277" lon="5.91153">
        <ele>328.91</ele>
        <time>2010-04-02T12:05:52Z</time>
      </trkpt>
      <trkpt lat="50.30486" lon="5.91075">
        <ele>323.62</ele>
        <time>2010-04-02T12:06:02Z</time>
      </trkpt>
      <trkpt lat="50.30524" lon="5.91052">
        <ele>323.14</ele>
        <time>2010-04-02T12:06:04Z</time>
      </trkpt>
      <trkpt lat="50.30543" lon="5.91047">
        <ele>323.62</ele>
        <time>2010-04-02T12:06:05Z</time>
      </trkpt>
      <trkpt lat="50.30562" lon="5.91048">
        <ele>323.62</ele>
        <time>2010-04-02T12:06:06Z</time>
      </trkpt>
      <trkpt lat="50.3058" lon="5.91054">
        <ele>323.14</ele>
        <time>2010-04-02T12:06:07Z</time>
      </trkpt>
      <trkpt lat="50.306" lon="5.91062">
        <ele>322.66</ele>
        <time>2010-04-02T12:06:08Z</time>
      </trkpt>
      <trkpt lat="50.30621" lon="5.91073">
        <ele>323.14</ele>
        <time>2010-04-02T12:06:09Z</time>
      </trkpt>
      <trkpt lat="50.30755" lon="5.91112">
        <ele>323.14</ele>
        <time>2010-04-02T12:06:16Z</time>
      </trkpt>
      <trkpt lat="50.30773" lon="5.91106">
        <ele>322.66</ele>
        <time>2010-04-02T12:06:17Z</time>
      </trkpt>
      <trkpt lat="50.30792" lon="5.91096">
        <ele>322.66</ele>
        <time>2010-04-02T12:06:18Z</time>
      </trkpt>
      <trkpt lat="50.3081" lon="5.91084">
        <ele>323.14</ele>
        <time>2010-04-02T12:06:19Z</time>
      </trkpt>
      <trkpt lat="50.30827" lon="5.91069">
        <ele>323.62</ele>
        <time>2010-04-02T12:06:20Z</time>
      </trkpt>
      <trkpt lat="50.30845" lon="5.91053">
        <ele>323.62</ele>
        <time>2010-04-02T12:06:21Z</time>
      </trkpt>
      <trkpt lat="50.3096" lon="5.90916">
        <ele>323.62</ele>
        <time>2010-04-02T12:06:28Z</time>
      </trkpt>
      <trkpt lat="50.30973" lon="5.90892">
        <ele>323.62</ele>
        <time>2010-04-02T12:06:29Z</time>
      </trkpt>
      <trkpt lat="50.30982" lon="5.90866">
        <ele>323.62</ele>
        <time>2010-04-02T12:06:30Z</time>
      </trkpt>
      <trkpt lat="50.30988" lon="5.90837">
        <ele>323.62</ele>
        <time>2010-04-02T12:06:31Z</time>
      </trkpt>
      <trkpt lat="50.30994" lon="5.90809">
        <ele>323.62</ele>
        <time>2010-04-02T12:06:32Z</time>
      </trkpt>
      <trkpt lat="50.31045" lon="5.90624">
        <ele>324.1</ele>
        <time>2010-04-02T12:06:39Z</time>
      </trkpt>
      <trkpt lat="50.3106" lon="5.90607">
        <ele>324.58</ele>
        <time>2010-04-02T12:06:40Z</time>
      </trkpt>
      <trkpt lat="50.31076" lon="5.90597">
        <ele>324.1</ele>
        <time>2010-04-02T12:06:41Z</time>
      </trkpt>
      <trkpt lat="50.31093" lon="5.9059">
        <ele>323.62</ele>
        <time>2010-04-02T12:06:42Z</time>
      </trkpt>
      <trkpt lat="50.31112" lon="5.90588">
        <ele>322.66</ele>
        <time>2010-04-02T12:06:43Z</time>
      </trkpt>
      <trkpt lat="50.3113" lon="5.90592">
        <ele>322.66</ele>
        <time>2010-04-02T12:06:44Z</time>
      </trkpt>
      <trkpt lat="50.31149" lon="5.906">
        <ele>322.18</ele>
        <time>2010-04-02T12:06:45Z</time>
      </trkpt>
      <trkpt lat="50.31167" lon="5.90611">
        <ele>322.66</ele>
        <time>2010-04-02T12:06:46Z</time>
      </trkpt>
      <trkpt lat="50.31185" lon="5.90623">
        <ele>322.66</ele>
        <time>2010-04-02T12:06:47Z</time>
      </trkpt>
      <trkpt lat="50.31203" lon="5.90637">
        <ele>322.18</ele>
        <time>2010-04-02T12:06:48Z</time>
      </trkpt>
      <trkpt lat="50.31636" lon="5.90858">
        <ele>329.87</ele>
        <time>2010-04-02T12:07:12Z</time>
      </trkpt>
      <trkpt lat="50.31686" lon="5.90863">
        <ele>327.95</ele>
        <time>2010-04-02T12:07:15Z</time>
      </trkpt>
      <trkpt lat="50.31703" lon="5.90859">
        <ele>326.99</ele>
        <time>2010-04-02T12:07:16Z</time>
      </trkpt>
      <trkpt lat="50.31785" lon="5.90845">
        <ele>325.06</ele>
        <time>2010-04-02T12:07:21Z</time>
      </trkpt>
      <trkpt lat="50.31801" lon="5.90849">
        <ele>325.06</ele>
        <time>2010-04-02T12:07:22Z</time>
      </trkpt>
      <trkpt lat="50.31816" lon="5.90856">
        <ele>325.54</ele>
        <time>2010-04-02T12:07:23Z</time>
      </trkpt>
      <trkpt lat="50.31831" lon="5.90865">
        <ele>325.06</ele>
        <time>2010-04-02T12:07:24Z</time>
      </trkpt>
      <trkpt lat="50.31846" lon="5.90876">
        <ele>325.06</ele>
        <time>2010-04-02T12:07:25Z</time>
      </trkpt>
      <trkpt lat="50.31989" lon="5.90945">
        <ele>328.43</ele>
        <time>2010-04-02T12:07:34Z</time>
      </trkpt>
      <trkpt lat="50.32007" lon="5.90947">
        <ele>328.43</ele>
        <time>2010-04-02T12:07:35Z</time>
      </trkpt>
      <trkpt lat="50.32237" lon="5.90938">
        <ele>327.47</ele>
        <time>2010-04-02T12:07:48Z</time>
      </trkpt>
      <trkpt lat="50.32385" lon="5.90931">
        <ele>322.66</ele>
        <time>2010-04-02T12:07:58Z</time>
      </trkpt>
      <trkpt lat="50.32396" lon="5.90928">
        <ele>321.7</ele>
        <time>2010-04-02T12:07:59Z</time>
      </trkpt>
      <trkpt lat="50.32407" lon="5.90922">
        <ele>321.22</ele>
        <time>2010-04-02T12:08:00Z</time>
      </trkpt>
      <trkpt lat="50.32417" lon="5.90914">
        <ele>320.74</ele>
        <time>2010-04-02T12:08:01Z</time>
      </trkpt>
      <trkpt lat="50.32427" lon="5.90904">
        <ele>319.78</ele>
        <time>2010-04-02T12:08:02Z</time>
      </trkpt>
      <trkpt lat="50.32437" lon="5.90892">
        <ele>318.81</ele>
        <time>2010-04-02T12:08:03Z</time>
      </trkpt>
      <trkpt lat="50.32477" lon="5.90849">
        <ele>316.41</ele>
        <time>2010-04-02T12:08:07Z</time>
      </trkpt>
      <trkpt lat="50.32488" lon="5.90841">
        <ele>315.45</ele>
        <time>2010-04-02T12:08:08Z</time>
      </trkpt>
      <trkpt lat="50.32534" lon="5.90803">
        <ele>313.53</ele>
        <time>2010-04-02T12:08:15Z</time>
      </trkpt>
      <trkpt lat="50.3258" lon="5.90673">
        <ele>310.4</ele>
      </trkpt>
      <trkpt lat="50.32746" lon="5.90569">
        <ele>314.9</ele>
      </trkpt>
      <trkpt lat="50.32841" lon="5.90344">
        <ele>309.7</ele>
      </trkpt>
      <trkpt lat="50.32913" lon="5.90251">
        <ele>308.9</ele>
      </trkpt>
      <trkpt lat="50.33411" lon="5.90108">
        <ele>306.4</ele>
      </trkpt>
      <trkpt lat="50.33505" lon="5.90125">
        <ele>309.8</ele>
      </trkpt>
      <trkpt lat="50.33793" lon="5.90311">
        <ele>299.9</ele>
      </trkpt>
      <trkpt lat="50.3391" lon="5.9035">
        <ele>298</ele>
      </trkpt>
      <trkpt lat="50.33993" lon="5.90387">
        <ele>304.39</ele>
        <time>2010-04-02T12:15:13Z</time>
      </trkpt>
      <trkpt lat="50.3404" lon="5.90372">
        <ele>302.95</ele>
        <time>2010-04-02T12:15:17Z</time>
      </trkpt>
      <trkpt lat="50.34053" lon="5.90362">
        <ele>302.95</ele>
        <time>2010-04-02T12:15:18Z</time>
      </trkpt>
      <trkpt lat="50.34066" lon="5.90351">
        <ele>302.47</ele>
        <time>2010-04-02T12:15:19Z</time>
      </trkpt>
      <trkpt lat="50.34078" lon="5.90337">
        <ele>302.47</ele>
        <time>2010-04-02T12:15:20Z</time>
      </trkpt>
      <trkpt lat="50.34089" lon="5.90322">
        <ele>301.99</ele>
        <time>2010-04-02T12:15:21Z</time>
      </trkpt>
      <trkpt lat="50.341" lon="5.90304">
        <ele>301.99</ele>
        <time>2010-04-02T12:15:22Z</time>
      </trkpt>
      <trkpt lat="50.3411" lon="5.90285">
        <ele>301.51</ele>
        <time>2010-04-02T12:15:23Z</time>
      </trkpt>
      <trkpt lat="50.3412" lon="5.90264">
        <ele>301.51</ele>
        <time>2010-04-02T12:15:24Z</time>
      </trkpt>
      <trkpt lat="50.34128" lon="5.90242">
        <ele>301.03</ele>
        <time>2010-04-02T12:15:25Z</time>
      </trkpt>
      <trkpt lat="50.34136" lon="5.90218">
        <ele>301.03</ele>
        <time>2010-04-02T12:15:26Z</time>
      </trkpt>
      <trkpt lat="50.34149" lon="5.9017">
        <ele>300.07</ele>
        <time>2010-04-02T12:15:28Z</time>
      </trkpt>
      <trkpt lat="50.34155" lon="5.90145">
        <ele>299.59</ele>
        <time>2010-04-02T12:15:29Z</time>
      </trkpt>
      <trkpt lat="50.34175" lon="5.90052">
        <ele>298.63</ele>
        <time>2010-04-02T12:15:33Z</time>
      </trkpt>
      <trkpt lat="50.34183" lon="5.90032">
        <ele>298.15</ele>
        <time>2010-04-02T12:15:34Z</time>
      </trkpt>
      <trkpt lat="50.34193" lon="5.90015">
        <ele>298.15</ele>
        <time>2010-04-02T12:15:35Z</time>
      </trkpt>
      <trkpt lat="50.34204" lon="5.9">
        <ele>298.15</ele>
        <time>2010-04-02T12:15:36Z</time>
      </trkpt>
      <trkpt lat="50.34217" lon="5.89987">
        <ele>297.67</ele>
        <time>2010-04-02T12:15:37Z</time>
      </trkpt>
      <trkpt lat="50.3423" lon="5.89976">
        <ele>297.18</ele>
        <time>2010-04-02T12:15:38Z</time>
      </trkpt>
      <trkpt lat="50.34245" lon="5.89966">
        <ele>297.18</ele>
        <time>2010-04-02T12:15:39Z</time>
      </trkpt>
      <trkpt lat="50.34379" lon="5.89919">
        <ele>295.26</ele>
        <time>2010-04-02T12:15:47Z</time>
      </trkpt>
      <trkpt lat="50.34507" lon="5.89917">
        <ele>293.82</ele>
        <time>2010-04-02T12:15:55Z</time>
      </trkpt>
      <trkpt lat="50.34523" lon="5.89912">
        <ele>293.34</ele>
        <time>2010-04-02T12:15:56Z</time>
      </trkpt>
      <trkpt lat="50.34538" lon="5.89903">
        <ele>292.86</ele>
        <time>2010-04-02T12:15:57Z</time>
      </trkpt>
      <trkpt lat="50.34553" lon="5.89891">
        <ele>292.86</ele>
        <time>2010-04-02T12:15:58Z</time>
      </trkpt>
      <trkpt lat="50.34566" lon="5.89874">
        <ele>292.86</ele>
        <time>2010-04-02T12:15:59Z</time>
      </trkpt>
      <trkpt lat="50.34579" lon="5.89855">
        <ele>292.86</ele>
        <time>2010-04-02T12:16:00Z</time>
      </trkpt>
      <trkpt lat="50.34591" lon="5.89832">
        <ele>292.86</ele>
        <time>2010-04-02T12:16:01Z</time>
      </trkpt>
      <trkpt lat="50.34602" lon="5.89807">
        <ele>292.86</ele>
        <time>2010-04-02T12:16:02Z</time>
      </trkpt>
      <trkpt lat="50.34611" lon="5.8978">
        <ele>292.86</ele>
        <time>2010-04-02T12:16:03Z</time>
      </trkpt>
      <trkpt lat="50.34619" lon="5.89752">
        <ele>293.34</ele>
        <time>2010-04-02T12:16:04Z</time>
      </trkpt>
      <trkpt lat="50.34624" lon="5.89723">
        <ele>293.34</ele>
        <time>2010-04-02T12:16:05Z</time>
      </trkpt>
      <trkpt lat="50.34628" lon="5.89692">
        <ele>293.82</ele>
        <time>2010-04-02T12:16:06Z</time>
      </trkpt>
      <trkpt lat="50.3463" lon="5.89661">
        <ele>293.82</ele>
        <time>2010-04-02T12:16:07Z</time>
      </trkpt>
      <trkpt lat="50.34632" lon="5.89628">
        <ele>293.82</ele>
        <time>2010-04-02T12:16:08Z</time>
      </trkpt>
      <trkpt lat="50.3465" lon="5.89275">
        <ele>293.34</ele>
        <time>2010-04-02T12:16:19Z</time>
      </trkpt>
      <trkpt lat="50.34661" lon="5.89217">
        <ele>292.38</ele>
        <time>2010-04-02T12:16:21Z</time>
      </trkpt>
      <trkpt lat="50.34678" lon="5.89165">
        <ele>291.42</ele>
        <time>2010-04-02T12:16:23Z</time>
      </trkpt>
      <trkpt lat="50.34691" lon="5.89143">
        <ele>290.94</ele>
        <time>2010-04-02T12:16:24Z</time>
      </trkpt>
      <trkpt lat="50.34706" lon="5.89124">
        <ele>290.46</ele>
        <time>2010-04-02T12:16:25Z</time>
      </trkpt>
      <trkpt lat="50.34721" lon="5.89106">
        <ele>289.97</ele>
        <time>2010-04-02T12:16:26Z</time>
      </trkpt>
      <trkpt lat="50.34739" lon="5.89091">
        <ele>289.97</ele>
        <time>2010-04-02T12:16:27Z</time>
      </trkpt>
      <trkpt lat="50.34756" lon="5.89077">
        <ele>289.49</ele>
        <time>2010-04-02T12:16:28Z</time>
      </trkpt>
      <trkpt lat="50.34884" lon="5.89024">
        <ele>287.09</ele>
        <time>2010-04-02T12:16:35Z</time>
      </trkpt>
      <trkpt lat="50.35099" lon="5.89022">
        <ele>284.21</ele>
        <time>2010-04-02T12:16:45Z</time>
      </trkpt>
      <trkpt lat="50.35298" lon="5.89034">
        <ele>283.73</ele>
        <time>2010-04-02T12:16:54Z</time>
      </trkpt>
      <trkpt lat="50.35466" lon="5.88965">
        <ele>279.4</ele>
        <time>2010-04-02T12:17:02Z</time>
      </trkpt>
      <trkpt lat="50.35506" lon="5.88939">
        <ele>278.92</ele>
        <time>2010-04-02T12:17:04Z</time>
      </trkpt>
      <trkpt lat="50.35525" lon="5.88922">
        <ele>278.44</ele>
        <time>2010-04-02T12:17:05Z</time>
      </trkpt>
      <trkpt lat="50.35665" lon="5.88771">
        <ele>275.56</ele>
        <time>2010-04-02T12:17:13Z</time>
      </trkpt>
      <trkpt lat="50.35797" lon="5.88722">
        <ele>275.56</ele>
        <time>2010-04-02T12:17:19Z</time>
      </trkpt>
      <trkpt lat="50.35842" lon="5.88733">
        <ele>276.04</ele>
        <time>2010-04-02T12:17:21Z</time>
      </trkpt>
      <trkpt lat="50.35864" lon="5.88744">
        <ele>276.52</ele>
        <time>2010-04-02T12:17:22Z</time>
      </trkpt>
      <trkpt lat="50.35888" lon="5.88761">
        <ele>277</ele>
        <time>2010-04-02T12:17:23Z</time>
      </trkpt>
      <trkpt lat="50.35912" lon="5.88778">
        <ele>277.48</ele>
        <time>2010-04-02T12:17:24Z</time>
      </trkpt>
      <trkpt lat="50.35933" lon="5.88793">
        <ele>277</ele>
        <time>2010-04-02T12:17:25Z</time>
      </trkpt>
      <trkpt lat="50.36158" lon="5.88902">
        <ele>275.56</ele>
        <time>2010-04-02T12:17:35Z</time>
      </trkpt>
      <trkpt lat="50.36181" lon="5.889">
        <ele>275.56</ele>
        <time>2010-04-02T12:17:36Z</time>
      </trkpt>
      <trkpt lat="50.36204" lon="5.88894">
        <ele>275.07</ele>
        <time>2010-04-02T12:17:37Z</time>
      </trkpt>
      <trkpt lat="50.36227" lon="5.88882">
        <ele>275.07</ele>
        <time>2010-04-02T12:17:38Z</time>
      </trkpt>
      <trkpt lat="50.36248" lon="5.88867">
        <ele>274.59</ele>
        <time>2010-04-02T12:17:39Z</time>
      </trkpt>
      <trkpt lat="50.36268" lon="5.88849">
        <ele>274.11</ele>
        <time>2010-04-02T12:17:40Z</time>
      </trkpt>
      <trkpt lat="50.36287" lon="5.88828">
        <ele>274.11</ele>
        <time>2010-04-02T12:17:41Z</time>
      </trkpt>
      <trkpt lat="50.36305" lon="5.88806">
        <ele>273.63</ele>
        <time>2010-04-02T12:17:42Z</time>
      </trkpt>
      <trkpt lat="50.36378" lon="5.88703">
        <ele>272.19</ele>
        <time>2010-04-02T12:17:47Z</time>
      </trkpt>
      <trkpt lat="50.36386" lon="5.8868">
        <ele>271.71</ele>
        <time>2010-04-02T12:17:48Z</time>
      </trkpt>
      <trkpt lat="50.3639" lon="5.88655">
        <ele>271.23</ele>
        <time>2010-04-02T12:17:49Z</time>
      </trkpt>
      <trkpt lat="50.36392" lon="5.88627">
        <ele>271.23</ele>
        <time>2010-04-02T12:17:50Z</time>
      </trkpt>
      <trkpt lat="50.36392" lon="5.886">
        <ele>270.75</ele>
        <time>2010-04-02T12:17:51Z</time>
      </trkpt>
      <trkpt lat="50.3639" lon="5.88572">
        <ele>270.75</ele>
        <time>2010-04-02T12:17:52Z</time>
      </trkpt>
      <trkpt lat="50.36381" lon="5.88545">
        <ele>270.27</ele>
        <time>2010-04-02T12:17:53Z</time>
      </trkpt>
      <trkpt lat="50.36369" lon="5.88521">
        <ele>269.79</ele>
        <time>2010-04-02T12:17:54Z</time>
      </trkpt>
      <trkpt lat="50.36353" lon="5.88505">
        <ele>269.31</ele>
        <time>2010-04-02T12:17:55Z</time>
      </trkpt>
      <trkpt lat="50.36338" lon="5.88488">
        <ele>268.83</ele>
        <time>2010-04-02T12:17:56Z</time>
      </trkpt>
      <trkpt lat="50.36324" lon="5.88472">
        <ele>267.86</ele>
        <time>2010-04-02T12:17:57Z</time>
      </trkpt>
      <trkpt lat="50.36191" lon="5.88296">
        <ele>271.23</ele>
        <time>2010-04-02T12:18:06Z</time>
      </trkpt>
      <trkpt lat="50.3613" lon="5.8811">
        <ele>273.63</ele>
        <time>2010-04-02T12:18:13Z</time>
      </trkpt>
      <trkpt lat="50.36079" lon="5.87722">
        <ele>272.67</ele>
        <time>2010-04-02T12:18:26Z</time>
      </trkpt>
      <trkpt lat="50.36084" lon="5.87693">
        <ele>272.67</ele>
        <time>2010-04-02T12:18:27Z</time>
      </trkpt>
      <trkpt lat="50.36141" lon="5.87507">
        <ele>269.79</ele>
        <time>2010-04-02T12:18:34Z</time>
      </trkpt>
      <trkpt lat="50.36229" lon="5.87381">
        <ele>267.86</ele>
        <time>2010-04-02T12:18:41Z</time>
      </trkpt>
      <trkpt lat="50.36245" lon="5.8737">
        <ele>267.38</ele>
        <time>2010-04-02T12:18:42Z</time>
      </trkpt>
      <trkpt lat="50.36261" lon="5.87362">
        <ele>266.9</ele>
        <time>2010-04-02T12:18:43Z</time>
      </trkpt>
      <trkpt lat="50.36277" lon="5.87359">
        <ele>266.42</ele>
        <time>2010-04-02T12:18:44Z</time>
      </trkpt>
      <trkpt lat="50.36294" lon="5.8736">
        <ele>265.94</ele>
        <time>2010-04-02T12:18:45Z</time>
      </trkpt>
      <trkpt lat="50.3631" lon="5.87365">
        <ele>265.46</ele>
        <time>2010-04-02T12:18:46Z</time>
      </trkpt>
      <trkpt lat="50.36327" lon="5.87371">
        <ele>264.98</ele>
        <time>2010-04-02T12:18:47Z</time>
      </trkpt>
      <trkpt lat="50.36343" lon="5.87379">
        <ele>264.5</ele>
        <time>2010-04-02T12:18:48Z</time>
      </trkpt>
      <trkpt lat="50.36545" lon="5.87479">
        <ele>261.14</ele>
        <time>2010-04-02T12:19:02Z</time>
      </trkpt>
      <trkpt lat="50.36558" lon="5.87481">
        <ele>260.65</ele>
        <time>2010-04-02T12:19:03Z</time>
      </trkpt>
      <trkpt lat="50.36572" lon="5.87481">
        <ele>260.65</ele>
        <time>2010-04-02T12:19:04Z</time>
      </trkpt>
      <trkpt lat="50.36586" lon="5.87479">
        <ele>260.65</ele>
        <time>2010-04-02T12:19:05Z</time>
      </trkpt>
      <trkpt lat="50.36599" lon="5.87474">
        <ele>260.17</ele>
        <time>2010-04-02T12:19:06Z</time>
      </trkpt>
      <trkpt lat="50.36611" lon="5.87467">
        <ele>260.17</ele>
        <time>2010-04-02T12:19:07Z</time>
      </trkpt>
      <trkpt lat="50.36623" lon="5.87458">
        <ele>260.17</ele>
        <time>2010-04-02T12:19:08Z</time>
      </trkpt>
      <trkpt lat="50.36634" lon="5.87447">
        <ele>259.69</ele>
        <time>2010-04-02T12:19:09Z</time>
      </trkpt>
      <trkpt lat="50.36643" lon="5.87433">
        <ele>259.69</ele>
        <time>2010-04-02T12:19:10Z</time>
      </trkpt>
      <trkpt lat="50.3665" lon="5.87417">
        <ele>259.21</ele>
        <time>2010-04-02T12:19:11Z</time>
      </trkpt>
      <trkpt lat="50.36656" lon="5.87398">
        <ele>259.21</ele>
        <time>2010-04-02T12:19:12Z</time>
      </trkpt>
      <trkpt lat="50.36661" lon="5.87379">
        <ele>258.73</ele>
        <time>2010-04-02T12:19:13Z</time>
      </trkpt>
      <trkpt lat="50.36691" lon="5.87283">
        <ele>258.25</ele>
        <time>2010-04-02T12:19:18Z</time>
      </trkpt>
      <trkpt lat="50.36699" lon="5.87265">
        <ele>257.77</ele>
        <time>2010-04-02T12:19:19Z</time>
      </trkpt>
      <trkpt lat="50.36776" lon="5.87147">
        <ele>256.33</ele>
        <time>2010-04-02T12:19:27Z</time>
      </trkpt>
      <trkpt lat="50.36788" lon="5.87138">
        <ele>256.33</ele>
        <time>2010-04-02T12:19:28Z</time>
      </trkpt>
      <trkpt lat="50.368" lon="5.87133">
        <ele>255.85</ele>
        <time>2010-04-02T12:19:29Z</time>
      </trkpt>
      <trkpt lat="50.36812" lon="5.87131">
        <ele>256.33</ele>
        <time>2010-04-02T12:19:30Z</time>
      </trkpt>
      <trkpt lat="50.36826" lon="5.8713">
        <ele>256.33</ele>
        <time>2010-04-02T12:19:31Z</time>
      </trkpt>
      <trkpt lat="50.36838" lon="5.87134">
        <ele>256.81</ele>
        <time>2010-04-02T12:19:32Z</time>
      </trkpt>
      <trkpt lat="50.36851" lon="5.87138">
        <ele>257.29</ele>
        <time>2010-04-02T12:19:33Z</time>
      </trkpt>
      <trkpt lat="50.36915" lon="5.87158">
        <ele>256.33</ele>
        <time>2010-04-02T12:19:40Z</time>
      </trkpt>
      <trkpt lat="50.3701" lon="5.87163">
        <ele>255.37</ele>
        <time>2010-04-02T12:19:54Z</time>
      </trkpt>
      <trkpt lat="50.37094" lon="5.87139">
        <ele>257.29</ele>
        <time>2010-04-02T12:20:08Z</time>
      </trkpt>
      <trkpt lat="50.37199" lon="5.87113">
        <ele>258.25</ele>
        <time>2010-04-02T12:20:25Z</time>
      </trkpt>
      <trkpt lat="50.37219" lon="5.87113">
        <ele>257.29</ele>
        <time>2010-04-02T12:20:33Z</time>
      </trkpt>
      <trkpt lat="50.37221" lon="5.87118">
        <ele>257.29</ele>
        <time>2010-04-02T12:20:34Z</time>
      </trkpt>
      <trkpt lat="50.37223" lon="5.87125">
        <ele>257.77</ele>
        <time>2010-04-02T12:20:35Z</time>
      </trkpt>
      <trkpt lat="50.37226" lon="5.87133">
        <ele>258.73</ele>
        <time>2010-04-02T12:20:36Z</time>
      </trkpt>
      <trkpt lat="50.37227" lon="5.87141">
        <ele>258.25</ele>
        <time>2010-04-02T12:20:37Z</time>
      </trkpt>
      <trkpt lat="50.37231" lon="5.87176">
        <ele>257.77</ele>
        <time>2010-04-02T12:20:41Z</time>
      </trkpt>
      <trkpt lat="50.37231" lon="5.87182">
        <ele>257.77</ele>
        <time>2010-04-02T12:20:42Z</time>
      </trkpt>
      <trkpt lat="50.37231" lon="5.87186">
        <ele>258.25</ele>
        <time>2010-04-02T12:20:43Z</time>
      </trkpt>
      <trkpt lat="50.37231" lon="5.87189">
        <ele>258.25</ele>
        <time>2010-04-02T12:20:44Z</time>
      </trkpt>
      <trkpt lat="50.37231" lon="5.87191">
        <ele>258.25</ele>
        <time>2010-04-02T12:20:45Z</time>
      </trkpt>
      <trkpt lat="50.3723" lon="5.87193">
        <ele>258.25</ele>
        <time>2010-04-02T12:20:46Z</time>
      </trkpt>
      <trkpt lat="50.37228" lon="5.87197">
        <ele>258.25</ele>
        <time>2010-04-02T12:20:47Z</time>
      </trkpt>
      <trkpt lat="50.37225" lon="5.87201">
        <ele>258.25</ele>
        <time>2010-04-02T12:20:48Z</time>
      </trkpt>
      <trkpt lat="50.37221" lon="5.87204">
        <ele>258.25</ele>
        <time>2010-04-02T12:20:49Z</time>
      </trkpt>
      <trkpt lat="50.37216" lon="5.87207">
        <ele>258.25</ele>
        <time>2010-04-02T12:20:50Z</time>
      </trkpt>
      <trkpt lat="50.37211" lon="5.87209">
        <ele>257.77</ele>
        <time>2010-04-02T12:20:51Z</time>
      </trkpt>
      <trkpt lat="50.37204" lon="5.8721">
        <ele>257.77</ele>
        <time>2010-04-02T12:20:52Z</time>
      </trkpt>
      <trkpt lat="50.37197" lon="5.87211">
        <ele>257.29</ele>
        <time>2010-04-02T12:20:53Z</time>
      </trkpt>
      <trkpt lat="50.37106" lon="5.87222">
        <ele>257.29</ele>
        <time>2010-04-02T12:21:02Z</time>
      </trkpt>
      <trkpt lat="50.36961" lon="5.87265">
        <ele>261.14</ele>
        <time>2010-04-02T12:21:14Z</time>
      </trkpt>
      <trkpt lat="50.36826" lon="5.873">
        <ele>264.98</ele>
        <time>2010-04-02T12:21:27Z</time>
      </trkpt>
      <trkpt lat="50.36816" lon="5.87305">
        <ele>265.46</ele>
        <time>2010-04-02T12:21:28Z</time>
      </trkpt>
      <trkpt lat="50.36806" lon="5.87313">
        <ele>266.42</ele>
        <time>2010-04-02T12:21:29Z</time>
      </trkpt>
      <trkpt lat="50.36797" lon="5.87323">
        <ele>266.9</ele>
        <time>2010-04-02T12:21:30Z</time>
      </trkpt>
      <trkpt lat="50.36788" lon="5.87333">
        <ele>267.38</ele>
        <time>2010-04-02T12:21:31Z</time>
      </trkpt>
      <trkpt lat="50.36752" lon="5.87377">
        <ele>269.79</ele>
        <time>2010-04-02T12:21:36Z</time>
      </trkpt>
      <trkpt lat="50.36748" lon="5.87388">
        <ele>270.27</ele>
        <time>2010-04-02T12:21:37Z</time>
      </trkpt>
      <trkpt lat="50.36746" lon="5.87401">
        <ele>271.23</ele>
        <time>2010-04-02T12:21:38Z</time>
      </trkpt>
      <trkpt lat="50.36742" lon="5.87439">
        <ele>272.19</ele>
        <time>2010-04-02T12:21:41Z</time>
      </trkpt>
      <trkpt lat="50.36739" lon="5.87451">
        <ele>272.67</ele>
        <time>2010-04-02T12:21:42Z</time>
      </trkpt>
      <trkpt lat="50.36735" lon="5.87461">
        <ele>272.67</ele>
        <time>2010-04-02T12:21:43Z</time>
      </trkpt>
      <trkpt lat="50.36729" lon="5.8747">
        <ele>272.67</ele>
        <time>2010-04-02T12:21:44Z</time>
      </trkpt>
      <trkpt lat="50.36723" lon="5.87479">
        <ele>272.67</ele>
        <time>2010-04-02T12:21:45Z</time>
      </trkpt>
      <trkpt lat="50.36713" lon="5.87494">
        <ele>273.15</ele>
        <time>2010-04-02T12:21:47Z</time>
      </trkpt>
      <trkpt lat="50.36711" lon="5.87504">
        <ele>273.63</ele>
        <time>2010-04-02T12:21:48Z</time>
      </trkpt>
      <trkpt lat="50.36711" lon="5.87514">
        <ele>273.63</ele>
        <time>2010-04-02T12:21:49Z</time>
      </trkpt>
      <trkpt lat="50.36718" lon="5.87522">
        <ele>274.11</ele>
        <time>2010-04-02T12:21:50Z</time>
      </trkpt>
      <trkpt lat="50.36725" lon="5.87525">
        <ele>274.11</ele>
        <time>2010-04-02T12:21:51Z</time>
      </trkpt>
      <trkpt lat="50.36732" lon="5.87521">
        <ele>274.59</ele>
        <time>2010-04-02T12:21:52Z</time>
      </trkpt>
      <trkpt lat="50.36738" lon="5.87513">
        <ele>274.59</ele>
        <time>2010-04-02T12:21:53Z</time>
      </trkpt>
      <trkpt lat="50.36743" lon="5.87503">
        <ele>275.07</ele>
        <time>2010-04-02T12:21:54Z</time>
      </trkpt>
      <trkpt lat="50.36749" lon="5.8749">
        <ele>275.56</ele>
        <time>2010-04-02T12:21:55Z</time>
      </trkpt>
      <trkpt lat="50.36756" lon="5.87478">
        <ele>276.04</ele>
        <time>2010-04-02T12:21:56Z</time>
      </trkpt>
      <trkpt lat="50.36765" lon="5.87468">
        <ele>276.52</ele>
        <time>2010-04-02T12:21:57Z</time>
      </trkpt>
      <trkpt lat="50.36773" lon="5.8746">
        <ele>277.96</ele>
        <time>2010-04-02T12:21:58Z</time>
      </trkpt>
      <trkpt lat="50.36791" lon="5.87446">
        <ele>279.88</ele>
        <time>2010-04-02T12:22:00Z</time>
      </trkpt>
      <trkpt lat="50.36801" lon="5.87443">
        <ele>280.84</ele>
        <time>2010-04-02T12:22:01Z</time>
      </trkpt>
      <trkpt lat="50.36813" lon="5.87442">
        <ele>281.8</ele>
        <time>2010-04-02T12:22:02Z</time>
      </trkpt>
      <trkpt lat="50.36956" lon="5.87426">
        <ele>292.38</ele>
        <time>2010-04-02T12:22:13Z</time>
      </trkpt>
      <trkpt lat="50.3705" lon="5.8741">
        <ele>300.07</ele>
        <time>2010-04-02T12:22:20Z</time>
      </trkpt>
      <trkpt lat="50.37062" lon="5.87403">
        <ele>300.55</ele>
        <time>2010-04-02T12:22:21Z</time>
      </trkpt>
      <trkpt lat="50.37073" lon="5.87394">
        <ele>301.51</ele>
        <time>2010-04-02T12:22:22Z</time>
      </trkpt>
      <trkpt lat="50.37096" lon="5.87377">
        <ele>302.95</ele>
        <time>2010-04-02T12:22:24Z</time>
      </trkpt>
      <trkpt lat="50.37108" lon="5.87372">
        <ele>304.39</ele>
        <time>2010-04-02T12:22:25Z</time>
      </trkpt>
      <trkpt lat="50.37121" lon="5.8737">
        <ele>305.36</ele>
        <time>2010-04-02T12:22:26Z</time>
      </trkpt>
      <trkpt lat="50.37134" lon="5.87371">
        <ele>306.32</ele>
        <time>2010-04-02T12:22:27Z</time>
      </trkpt>
      <trkpt lat="50.37148" lon="5.87373">
        <ele>307.28</ele>
        <time>2010-04-02T12:22:28Z</time>
      </trkpt>
      <trkpt lat="50.37161" lon="5.87377">
        <ele>308.24</ele>
        <time>2010-04-02T12:22:29Z</time>
      </trkpt>
      <trkpt lat="50.37291" lon="5.87434">
        <ele>317.37</ele>
        <time>2010-04-02T12:22:38Z</time>
      </trkpt>
      <trkpt lat="50.37356" lon="5.87534">
        <ele>324.1</ele>
        <time>2010-04-02T12:22:45Z</time>
      </trkpt>
      <trkpt lat="50.37357" lon="5.87551">
        <ele>325.54</ele>
        <time>2010-04-02T12:22:46Z</time>
      </trkpt>
      <trkpt lat="50.37352" lon="5.8757">
        <ele>326.99</ele>
        <time>2010-04-02T12:22:47Z</time>
      </trkpt>
      <trkpt lat="50.37343" lon="5.8759">
        <ele>328.43</ele>
        <time>2010-04-02T12:22:48Z</time>
      </trkpt>
      <trkpt lat="50.37335" lon="5.87608">
        <ele>329.39</ele>
        <time>2010-04-02T12:22:49Z</time>
      </trkpt>
      <trkpt lat="50.37327" lon="5.87625">
        <ele>330.35</ele>
        <time>2010-04-02T12:22:50Z</time>
      </trkpt>
      <trkpt lat="50.37249" lon="5.87805">
        <ele>339</ele>
        <time>2010-04-02T12:22:59Z</time>
      </trkpt>
      <trkpt lat="50.37187" lon="5.87967">
        <ele>346.21</ele>
        <time>2010-04-02T12:23:07Z</time>
      </trkpt>
      <trkpt lat="50.37183" lon="5.87987">
        <ele>347.17</ele>
        <time>2010-04-02T12:23:08Z</time>
      </trkpt>
      <trkpt lat="50.3718" lon="5.88009">
        <ele>348.13</ele>
        <time>2010-04-02T12:23:09Z</time>
      </trkpt>
      <trkpt lat="50.37179" lon="5.8803">
        <ele>349.58</ele>
        <time>2010-04-02T12:23:10Z</time>
      </trkpt>
      <trkpt lat="50.37178" lon="5.88051">
        <ele>351.02</ele>
        <time>2010-04-02T12:23:11Z</time>
      </trkpt>
      <trkpt lat="50.37173" lon="5.88113">
        <ele>353.9</ele>
        <time>2010-04-02T12:23:14Z</time>
      </trkpt>
      <trkpt lat="50.3716" lon="5.88335">
        <ele>363.04</ele>
        <time>2010-04-02T12:23:24Z</time>
      </trkpt>
      <trkpt lat="50.37137" lon="5.88655">
        <ele>376.49</ele>
        <time>2010-04-02T12:23:39Z</time>
      </trkpt>
      <trkpt lat="50.37133" lon="5.88674">
        <ele>376.97</ele>
        <time>2010-04-02T12:23:40Z</time>
      </trkpt>
      <trkpt lat="50.37124" lon="5.8869">
        <ele>377.94</ele>
        <time>2010-04-02T12:23:41Z</time>
      </trkpt>
      <trkpt lat="50.37114" lon="5.887">
        <ele>378.42</ele>
        <time>2010-04-02T12:23:42Z</time>
      </trkpt>
      <trkpt lat="50.37102" lon="5.88704">
        <ele>379.38</ele>
        <time>2010-04-02T12:23:43Z</time>
      </trkpt>
      <trkpt lat="50.37089" lon="5.88702">
        <ele>379.38</ele>
        <time>2010-04-02T12:23:44Z</time>
      </trkpt>
      <trkpt lat="50.37076" lon="5.88699">
        <ele>379.86</ele>
        <time>2010-04-02T12:23:45Z</time>
      </trkpt>
      <trkpt lat="50.37064" lon="5.88691">
        <ele>380.34</ele>
        <time>2010-04-02T12:23:46Z</time>
      </trkpt>
      <trkpt lat="50.37051" lon="5.88682">
        <ele>381.3</ele>
        <time>2010-04-02T12:23:47Z</time>
      </trkpt>
      <trkpt lat="50.37039" lon="5.88673">
        <ele>382.26</ele>
        <time>2010-04-02T12:23:48Z</time>
      </trkpt>
      <trkpt lat="50.3698" lon="5.88639">
        <ele>386.59</ele>
        <time>2010-04-02T12:23:53Z</time>
      </trkpt>
      <trkpt lat="50.36968" lon="5.88638">
        <ele>387.07</ele>
        <time>2010-04-02T12:23:54Z</time>
      </trkpt>
      <trkpt lat="50.36956" lon="5.88645">
        <ele>387.55</ele>
        <time>2010-04-02T12:23:55Z</time>
      </trkpt>
      <trkpt lat="50.36945" lon="5.88658">
        <ele>388.03</ele>
        <time>2010-04-02T12:23:56Z</time>
      </trkpt>
      <trkpt lat="50.36935" lon="5.88672">
        <ele>388.51</ele>
        <time>2010-04-02T12:23:57Z</time>
      </trkpt>
      <trkpt lat="50.36927" lon="5.88688">
        <ele>389.47</ele>
        <time>2010-04-02T12:23:58Z</time>
      </trkpt>
      <trkpt lat="50.3692" lon="5.88707">
        <ele>390.43</ele>
        <time>2010-04-02T12:23:59Z</time>
      </trkpt>
      <trkpt lat="50.36815" lon="5.88959">
        <ele>402.45</ele>
        <time>2010-04-02T12:24:13Z</time>
      </trkpt>
      <trkpt lat="50.3681" lon="5.88976">
        <ele>403.41</ele>
        <time>2010-04-02T12:24:14Z</time>
      </trkpt>
      <trkpt lat="50.36805" lon="5.88995">
        <ele>403.89</ele>
        <time>2010-04-02T12:24:15Z</time>
      </trkpt>
      <trkpt lat="50.36803" lon="5.89015">
        <ele>404.85</ele>
        <time>2010-04-02T12:24:16Z</time>
      </trkpt>
      <trkpt lat="50.36801" lon="5.89035">
        <ele>405.81</ele>
        <time>2010-04-02T12:24:17Z</time>
      </trkpt>
      <trkpt lat="50.36801" lon="5.89056">
        <ele>406.29</ele>
        <time>2010-04-02T12:24:18Z</time>
      </trkpt>
      <trkpt lat="50.36785" lon="5.89366">
        <ele>420.71</ele>
        <time>2010-04-02T12:24:33Z</time>
      </trkpt>
      <trkpt lat="50.36779" lon="5.89382">
        <ele>421.19</ele>
        <time>2010-04-02T12:24:34Z</time>
      </trkpt>
      <trkpt lat="50.36771" lon="5.89396">
        <ele>422.16</ele>
        <time>2010-04-02T12:24:35Z</time>
      </trkpt>
      <trkpt lat="50.36762" lon="5.89408">
        <ele>422.64</ele>
        <time>2010-04-02T12:24:36Z</time>
      </trkpt>
      <trkpt lat="50.36753" lon="5.8942">
        <ele>423.6</ele>
        <time>2010-04-02T12:24:37Z</time>
      </trkpt>
      <trkpt lat="50.36681" lon="5.89505">
        <ele>428.89</ele>
        <time>2010-04-02T12:24:44Z</time>
      </trkpt>
      <trkpt lat="50.36593" lon="5.89726">
        <ele>435.1</ele>
      </trkpt>
      <trkpt lat="50.36593" lon="5.89729">
        <ele>435.1</ele>
      </trkpt>
      <trkpt lat="50.36585" lon="5.90041">
        <ele>442.4</ele>
      </trkpt>
      <trkpt lat="50.36526" lon="5.90259">
        <ele>446</ele>
      </trkpt>
      <trkpt lat="50.36456" lon="5.90314">
        <ele>448.7</ele>
      </trkpt>
      <trkpt lat="50.36388" lon="5.90341">
        <ele>452.6</ele>
      </trkpt>
      <trkpt lat="50.36366" lon="5.90373">
        <ele>452.92</ele>
        <time>2010-04-02T12:25:42Z</time>
      </trkpt>
      <trkpt lat="50.36339" lon="5.90389">
        <ele>455.32</ele>
        <time>2010-04-02T12:25:45Z</time>
      </trkpt>
      <trkpt lat="50.3633" lon="5.90392">
        <ele>456.28</ele>
        <time>2010-04-02T12:25:46Z</time>
      </trkpt>
      <trkpt lat="50.3632" lon="5.90394">
        <ele>456.76</ele>
        <time>2010-04-02T12:25:47Z</time>
      </trkpt>
      <trkpt lat="50.36311" lon="5.90396">
        <ele>457.72</ele>
        <time>2010-04-02T12:25:48Z</time>
      </trkpt>
      <trkpt lat="50.36302" lon="5.90396">
        <ele>458.21</ele>
        <time>2010-04-02T12:25:49Z</time>
      </trkpt>
      <trkpt lat="50.36232" lon="5.90396">
        <ele>462.53</ele>
        <time>2010-04-02T12:25:56Z</time>
      </trkpt>
      <trkpt lat="50.36222" lon="5.90399">
        <ele>463.49</ele>
        <time>2010-04-02T12:25:57Z</time>
      </trkpt>
      <trkpt lat="50.36212" lon="5.90404">
        <ele>463.97</ele>
        <time>2010-04-02T12:25:58Z</time>
      </trkpt>
      <trkpt lat="50.36162" lon="5.90439">
        <ele>468.3</ele>
        <time>2010-04-02T12:26:04Z</time>
      </trkpt>
      <trkpt lat="50.36155" lon="5.90447">
        <ele>469.26</ele>
        <time>2010-04-02T12:26:05Z</time>
      </trkpt>
      <trkpt lat="50.36149" lon="5.90456">
        <ele>469.74</ele>
        <time>2010-04-02T12:26:06Z</time>
      </trkpt>
      <trkpt lat="50.36144" lon="5.90465">
        <ele>470.7</ele>
        <time>2010-04-02T12:26:07Z</time>
      </trkpt>
      <trkpt lat="50.36139" lon="5.90475">
        <ele>471.18</ele>
        <time>2010-04-02T12:26:08Z</time>
      </trkpt>
      <trkpt lat="50.36135" lon="5.90485">
        <ele>471.66</ele>
        <time>2010-04-02T12:26:09Z</time>
      </trkpt>
      <trkpt lat="50.36132" lon="5.90496">
        <ele>471.66</ele>
        <time>2010-04-02T12:26:10Z</time>
      </trkpt>
      <trkpt lat="50.36129" lon="5.90507">
        <ele>472.14</ele>
        <time>2010-04-02T12:26:11Z</time>
      </trkpt>
      <trkpt lat="50.36126" lon="5.90519">
        <ele>472.63</ele>
        <time>2010-04-02T12:26:12Z</time>
      </trkpt>
      <trkpt lat="50.36124" lon="5.9053">
        <ele>472.63</ele>
        <time>2010-04-02T12:26:13Z</time>
      </trkpt>
      <trkpt lat="50.36083" lon="5.90678">
        <ele>478.39</ele>
        <time>2010-04-02T12:26:25Z</time>
      </trkpt>
      <trkpt lat="50.36018" lon="5.90849">
        <ele>484.64</ele>
        <time>2010-04-02T12:26:38Z</time>
      </trkpt>
      <trkpt lat="50.35928" lon="5.91058">
        <ele>484.64</ele>
        <time>2010-04-02T12:26:51Z</time>
      </trkpt>
      <trkpt lat="50.35875" lon="5.91253">
        <ele>485.12</ele>
        <time>2010-04-02T12:27:01Z</time>
      </trkpt>
      <trkpt lat="50.35848" lon="5.91368">
        <ele>486.56</ele>
        <time>2010-04-02T12:27:09Z</time>
      </trkpt>
      <trkpt lat="50.35844" lon="5.9139">
        <ele>486.56</ele>
        <time>2010-04-02T12:27:16Z</time>
      </trkpt>
      <trkpt lat="50.35837" lon="5.9141">
        <ele>486.08</ele>
        <time>2010-04-02T12:28:17Z</time>
      </trkpt>
      <trkpt lat="50.35803" lon="5.91503">
        <ele>485.12</ele>
        <time>2010-04-02T12:28:27Z</time>
      </trkpt>
      <trkpt lat="50.35725" lon="5.91678">
        <ele>484.64</ele>
        <time>2010-04-02T12:28:44Z</time>
      </trkpt>
      <trkpt lat="50.35621" lon="5.91867">
        <ele>481.76</ele>
        <time>2010-04-02T12:29:01Z</time>
      </trkpt>
      <trkpt lat="50.3555" lon="5.92001">
        <ele>475.03</ele>
        <time>2010-04-02T12:29:14Z</time>
      </trkpt>
      <trkpt lat="50.35534" lon="5.92039">
        <ele>474.07</ele>
        <time>2010-04-02T12:29:24Z</time>
      </trkpt>
      <trkpt lat="50.35534" lon="5.92043">
        <ele>474.07</ele>
        <time>2010-04-02T12:29:25Z</time>
      </trkpt>
      <trkpt lat="50.35536" lon="5.92047">
        <ele>474.07</ele>
        <time>2010-04-02T12:29:26Z</time>
      </trkpt>
      <trkpt lat="50.35539" lon="5.92049">
        <ele>473.59</ele>
        <time>2010-04-02T12:29:27Z</time>
      </trkpt>
      <trkpt lat="50.35542" lon="5.92048">
        <ele>473.59</ele>
        <time>2010-04-02T12:29:28Z</time>
      </trkpt>
      <trkpt lat="50.35545" lon="5.92047">
        <ele>473.59</ele>
        <time>2010-04-02T12:29:29Z</time>
      </trkpt>
      <trkpt lat="50.35548" lon="5.92045">
        <ele>473.59</ele>
        <time>2010-04-02T12:29:30Z</time>
      </trkpt>
      <trkpt lat="50.35607" lon="5.92033">
        <ele>470.7</ele>
        <time>2010-04-02T12:29:42Z</time>
      </trkpt>
      <trkpt lat="50.35709" lon="5.92006">
        <ele>462.53</ele>
        <time>2010-04-02T12:29:53Z</time>
      </trkpt>
      <trkpt lat="50.35769" lon="5.91988">
        <ele>456.28</ele>
        <time>2010-04-02T12:29:59Z</time>
      </trkpt>
      <trkpt lat="50.35881" lon="5.92003">
        <ele>444.75</ele>
        <time>2010-04-02T12:30:11Z</time>
      </trkpt>
      <trkpt lat="50.35908" lon="5.92008">
        <ele>441.86</ele>
        <time>2010-04-02T12:30:15Z</time>
      </trkpt>
      <trkpt lat="50.35912" lon="5.92008">
        <ele>441.38</ele>
        <time>2010-04-02T12:30:16Z</time>
      </trkpt>
      <trkpt lat="50.35914" lon="5.92009">
        <ele>440.9</ele>
        <time>2010-04-02T12:30:17Z</time>
      </trkpt>
      <trkpt lat="50.35906" lon="5.92005">
        <ele>444.75</ele>
        <time>2010-04-02T12:30:28Z</time>
      </trkpt>
      <trkpt lat="50.35902" lon="5.92001">
        <ele>450.03</ele>
        <time>2010-04-02T12:31:03Z</time>
      </trkpt>
      <trkpt lat="50.35904" lon="5.92001">
        <ele>450.52</ele>
        <time>2010-04-02T12:31:07Z</time>
      </trkpt>
      <trkpt lat="50.35937" lon="5.91987">
        <ele>444.27</ele>
        <time>2010-04-02T12:31:14Z</time>
      </trkpt>
      <trkpt lat="50.36031" lon="5.91937">
        <ele>432.73</ele>
        <time>2010-04-02T12:31:23Z</time>
      </trkpt>
      <trkpt lat="50.361" lon="5.91896">
        <ele>423.12</ele>
        <time>2010-04-02T12:31:31Z</time>
      </trkpt>
      <trkpt lat="50.36115" lon="5.91887">
        <ele>420.23</ele>
        <time>2010-04-02T12:31:34Z</time>
      </trkpt>
      <trkpt lat="50.3612" lon="5.91883">
        <ele>418.31</ele>
        <time>2010-04-02T12:31:40Z</time>
      </trkpt>
      <trkpt lat="50.36142" lon="5.91858">
        <ele>414.47</ele>
        <time>2010-04-02T12:31:50Z</time>
      </trkpt>
      <trkpt lat="50.36144" lon="5.91854">
        <ele>411.1</ele>
        <time>2010-04-02T12:31:59Z</time>
      </trkpt>
      <trkpt lat="50.3616" lon="5.91835">
        <ele>408.22</ele>
        <time>2010-04-02T12:32:35Z</time>
      </trkpt>
      <trkpt lat="50.36168" lon="5.91835">
        <ele>407.26</ele>
        <time>2010-04-02T12:32:37Z</time>
      </trkpt>
      <trkpt lat="50.36172" lon="5.91838">
        <ele>406.77</ele>
        <time>2010-04-02T12:32:38Z</time>
      </trkpt>
      <trkpt lat="50.36175" lon="5.91844">
        <ele>406.29</ele>
        <time>2010-04-02T12:32:39Z</time>
      </trkpt>
      <trkpt lat="50.36178" lon="5.91851">
        <ele>405.33</ele>
        <time>2010-04-02T12:32:40Z</time>
      </trkpt>
      <trkpt lat="50.36179" lon="5.91861">
        <ele>404.85</ele>
        <time>2010-04-02T12:32:41Z</time>
      </trkpt>
      <trkpt lat="50.36179" lon="5.91872">
        <ele>404.37</ele>
        <time>2010-04-02T12:32:42Z</time>
      </trkpt>
      <trkpt lat="50.36178" lon="5.91884">
        <ele>403.41</ele>
        <time>2010-04-02T12:32:43Z</time>
      </trkpt>
      <trkpt lat="50.36174" lon="5.92021">
        <ele>396.68</ele>
        <time>2010-04-02T12:32:53Z</time>
      </trkpt>
      <trkpt lat="50.36175" lon="5.92035">
        <ele>395.72</ele>
        <time>2010-04-02T12:32:54Z</time>
      </trkpt>
      <trkpt lat="50.36177" lon="5.92048">
        <ele>395.24</ele>
        <time>2010-04-02T12:32:55Z</time>
      </trkpt>
      <trkpt lat="50.3618" lon="5.9206">
        <ele>394.28</ele>
        <time>2010-04-02T12:32:56Z</time>
      </trkpt>
      <trkpt lat="50.36183" lon="5.92072">
        <ele>393.32</ele>
        <time>2010-04-02T12:32:57Z</time>
      </trkpt>
      <trkpt lat="50.36187" lon="5.92083">
        <ele>392.36</ele>
        <time>2010-04-02T12:32:58Z</time>
      </trkpt>
      <trkpt lat="50.36191" lon="5.92092">
        <ele>390.91</ele>
        <time>2010-04-02T12:32:59Z</time>
      </trkpt>
      <trkpt lat="50.36195" lon="5.92101">
        <ele>389.95</ele>
        <time>2010-04-02T12:33:00Z</time>
      </trkpt>
      <trkpt lat="50.362" lon="5.92109">
        <ele>388.51</ele>
        <time>2010-04-02T12:33:01Z</time>
      </trkpt>
      <trkpt lat="50.36206" lon="5.92115">
        <ele>387.55</ele>
        <time>2010-04-02T12:33:02Z</time>
      </trkpt>
      <trkpt lat="50.36213" lon="5.92118">
        <ele>386.11</ele>
        <time>2010-04-02T12:33:03Z</time>
      </trkpt>
      <trkpt lat="50.3622" lon="5.92119">
        <ele>385.15</ele>
        <time>2010-04-02T12:33:04Z</time>
      </trkpt>
      <trkpt lat="50.36229" lon="5.92119">
        <ele>383.7</ele>
        <time>2010-04-02T12:33:05Z</time>
      </trkpt>
      <trkpt lat="50.36237" lon="5.92117">
        <ele>382.74</ele>
        <time>2010-04-02T12:33:06Z</time>
      </trkpt>
      <trkpt lat="50.36343" lon="5.92097">
        <ele>371.21</ele>
        <time>2010-04-02T12:33:16Z</time>
      </trkpt>
      <trkpt lat="50.36451" lon="5.9211">
        <ele>359.67</ele>
        <time>2010-04-02T12:33:27Z</time>
      </trkpt>
      <trkpt lat="50.3646" lon="5.92116">
        <ele>358.23</ele>
        <time>2010-04-02T12:33:28Z</time>
      </trkpt>
      <trkpt lat="50.36468" lon="5.92124">
        <ele>356.79</ele>
        <time>2010-04-02T12:33:29Z</time>
      </trkpt>
      <trkpt lat="50.36477" lon="5.92135">
        <ele>355.34</ele>
        <time>2010-04-02T12:33:30Z</time>
      </trkpt>
      <trkpt lat="50.36486" lon="5.92147">
        <ele>353.9</ele>
        <time>2010-04-02T12:33:31Z</time>
      </trkpt>
      <trkpt lat="50.36494" lon="5.92159">
        <ele>351.98</ele>
        <time>2010-04-02T12:33:32Z</time>
      </trkpt>
      <trkpt lat="50.36524" lon="5.9221">
        <ele>346.21</ele>
        <time>2010-04-02T12:33:36Z</time>
      </trkpt>
      <trkpt lat="50.3653" lon="5.92224">
        <ele>344.77</ele>
        <time>2010-04-02T12:33:37Z</time>
      </trkpt>
      <trkpt lat="50.36534" lon="5.9224">
        <ele>343.33</ele>
        <time>2010-04-02T12:33:38Z</time>
      </trkpt>
      <trkpt lat="50.36536" lon="5.92257">
        <ele>342.37</ele>
        <time>2010-04-02T12:33:39Z</time>
      </trkpt>
      <trkpt lat="50.36536" lon="5.92275">
        <ele>340.92</ele>
        <time>2010-04-02T12:33:40Z</time>
      </trkpt>
      <trkpt lat="50.36535" lon="5.92293">
        <ele>339.48</ele>
        <time>2010-04-02T12:33:41Z</time>
      </trkpt>
      <trkpt lat="50.3653" lon="5.92375">
        <ele>333.71</ele>
        <time>2010-04-02T12:33:47Z</time>
      </trkpt>
      <trkpt lat="50.36532" lon="5.92382">
        <ele>332.75</ele>
        <time>2010-04-02T12:33:48Z</time>
      </trkpt>
      <trkpt lat="50.36539" lon="5.92386">
        <ele>332.27</ele>
        <time>2010-04-02T12:33:49Z</time>
      </trkpt>
      <trkpt lat="50.36546" lon="5.92388">
        <ele>331.79</ele>
        <time>2010-04-02T12:33:50Z</time>
      </trkpt>
      <trkpt lat="50.36553" lon="5.92385">
        <ele>331.31</ele>
        <time>2010-04-02T12:33:51Z</time>
      </trkpt>
      <trkpt lat="50.3656" lon="5.92379">
        <ele>330.35</ele>
        <time>2010-04-02T12:33:52Z</time>
      </trkpt>
      <trkpt lat="50.36566" lon="5.9237">
        <ele>329.87</ele>
        <time>2010-04-02T12:33:53Z</time>
      </trkpt>
      <trkpt lat="50.36572" lon="5.92359">
        <ele>328.91</ele>
        <time>2010-04-02T12:33:54Z</time>
      </trkpt>
      <trkpt lat="50.36578" lon="5.92348">
        <ele>327.95</ele>
        <time>2010-04-02T12:33:55Z</time>
      </trkpt>
      <trkpt lat="50.36604" lon="5.92299">
        <ele>324.1</ele>
        <time>2010-04-02T12:33:59Z</time>
      </trkpt>
      <trkpt lat="50.36612" lon="5.92289">
        <ele>323.14</ele>
        <time>2010-04-02T12:34:00Z</time>
      </trkpt>
      <trkpt lat="50.36622" lon="5.92281">
        <ele>321.22</ele>
        <time>2010-04-02T12:34:01Z</time>
      </trkpt>
      <trkpt lat="50.36633" lon="5.92275">
        <ele>320.26</ele>
        <time>2010-04-02T12:34:02Z</time>
      </trkpt>
      <trkpt lat="50.36644" lon="5.9227">
        <ele>319.3</ele>
        <time>2010-04-02T12:34:03Z</time>
      </trkpt>
      <trkpt lat="50.36714" lon="5.92235">
        <ele>316.41</ele>
        <time>2010-04-02T12:34:09Z</time>
      </trkpt>
      <trkpt lat="50.36819" lon="5.92169">
        <ele>319.78</ele>
        <time>2010-04-02T12:34:19Z</time>
      </trkpt>
      <trkpt lat="50.36972" lon="5.92104">
        <ele>327.47</ele>
        <time>2010-04-02T12:34:32Z</time>
      </trkpt>
      <trkpt lat="50.36982" lon="5.92094">
        <ele>327.95</ele>
        <time>2010-04-02T12:34:33Z</time>
      </trkpt>
      <trkpt lat="50.36992" lon="5.92082">
        <ele>327.95</ele>
        <time>2010-04-02T12:34:34Z</time>
      </trkpt>
      <trkpt lat="50.3706" lon="5.91975">
        <ele>327.47</ele>
        <time>2010-04-02T12:34:41Z</time>
      </trkpt>
      <trkpt lat="50.37078" lon="5.91926">
        <ele>330.83</ele>
        <time>2010-04-02T12:34:44Z</time>
      </trkpt>
      <trkpt lat="50.37084" lon="5.91913">
        <ele>331.31</ele>
        <time>2010-04-02T12:34:45Z</time>
      </trkpt>
      <trkpt lat="50.37092" lon="5.91901">
        <ele>332.27</ele>
        <time>2010-04-02T12:34:46Z</time>
      </trkpt>
      <trkpt lat="50.37184" lon="5.91813">
        <ele>337.56</ele>
        <time>2010-04-02T12:34:56Z</time>
      </trkpt>
      <trkpt lat="50.37286" lon="5.91799">
        <ele>337.08</ele>
        <time>2010-04-02T12:35:05Z</time>
      </trkpt>
      <trkpt lat="50.37423" lon="5.91813">
        <ele>340.92</ele>
        <time>2010-04-02T12:35:15Z</time>
      </trkpt>
      <trkpt lat="50.37481" lon="5.9181">
        <ele>343.33</ele>
        <time>2010-04-02T12:35:20Z</time>
      </trkpt>
      <trkpt lat="50.37494" lon="5.91811">
        <ele>343.81</ele>
        <time>2010-04-02T12:35:21Z</time>
      </trkpt>
      <trkpt lat="50.37507" lon="5.91813">
        <ele>344.29</ele>
        <time>2010-04-02T12:35:22Z</time>
      </trkpt>
      <trkpt lat="50.37628" lon="5.91886">
        <ele>346.21</ele>
        <time>2010-04-02T12:35:32Z</time>
      </trkpt>
      <trkpt lat="50.37703" lon="5.91968">
        <ele>344.29</ele>
        <time>2010-04-02T12:35:38Z</time>
      </trkpt>
      <trkpt lat="50.37712" lon="5.91989">
        <ele>342.85</ele>
        <time>2010-04-02T12:35:39Z</time>
      </trkpt>
      <trkpt lat="50.37815" lon="5.92212">
        <ele>339</ele>
        <time>2010-04-02T12:35:50Z</time>
      </trkpt>
      <trkpt lat="50.37928" lon="5.92332">
        <ele>339.48</ele>
        <time>2010-04-02T12:35:58Z</time>
      </trkpt>
      <trkpt lat="50.38119" lon="5.92497">
        <ele>342.37</ele>
        <time>2010-04-02T12:36:11Z</time>
      </trkpt>
      <trkpt lat="50.38216" lon="5.92608">
        <ele>344.77</ele>
        <time>2010-04-02T12:36:19Z</time>
      </trkpt>
      <trkpt lat="50.38226" lon="5.92625">
        <ele>345.73</ele>
        <time>2010-04-02T12:36:20Z</time>
      </trkpt>
      <trkpt lat="50.38309" lon="5.92782">
        <ele>346.69</ele>
        <time>2010-04-02T12:36:30Z</time>
      </trkpt>
      <trkpt lat="50.38332" lon="5.92834">
        <ele>342.37</ele>
        <time>2010-04-02T12:36:34Z</time>
      </trkpt>
      <trkpt lat="50.38337" lon="5.92846">
        <ele>340.92</ele>
        <time>2010-04-02T12:36:35Z</time>
      </trkpt>
      <trkpt lat="50.38342" lon="5.92857">
        <ele>339.48</ele>
        <time>2010-04-02T12:36:36Z</time>
      </trkpt>
      <trkpt lat="50.38349" lon="5.92866">
        <ele>338.04</ele>
        <time>2010-04-02T12:36:37Z</time>
      </trkpt>
      <trkpt lat="50.38358" lon="5.92875">
        <ele>336.6</ele>
        <time>2010-04-02T12:36:38Z</time>
      </trkpt>
      <trkpt lat="50.38367" lon="5.92883">
        <ele>335.64</ele>
        <time>2010-04-02T12:36:39Z</time>
      </trkpt>
      <trkpt lat="50.38375" lon="5.92891">
        <ele>334.68</ele>
        <time>2010-04-02T12:36:40Z</time>
      </trkpt>
      <trkpt lat="50.38384" lon="5.92899">
        <ele>332.75</ele>
        <time>2010-04-02T12:36:41Z</time>
      </trkpt>
      <trkpt lat="50.38393" lon="5.92908">
        <ele>330.83</ele>
        <time>2010-04-02T12:36:42Z</time>
      </trkpt>
      <trkpt lat="50.384" lon="5.92922">
        <ele>327.95</ele>
        <time>2010-04-02T12:36:43Z</time>
      </trkpt>
      <trkpt lat="50.38406" lon="5.92939">
        <ele>325.06</ele>
        <time>2010-04-02T12:36:44Z</time>
      </trkpt>
      <trkpt lat="50.38418" lon="5.9297">
        <ele>320.26</ele>
        <time>2010-04-02T12:36:46Z</time>
      </trkpt>
      <trkpt lat="50.38423" lon="5.92986">
        <ele>318.33</ele>
        <time>2010-04-02T12:36:47Z</time>
      </trkpt>
      <trkpt lat="50.38442" lon="5.93052">
        <ele>310.64</ele>
        <time>2010-04-02T12:36:51Z</time>
      </trkpt>
      <trkpt lat="50.38449" lon="5.93067">
        <ele>309.2</ele>
        <time>2010-04-02T12:36:52Z</time>
      </trkpt>
      <trkpt lat="50.38457" lon="5.9308">
        <ele>307.76</ele>
        <time>2010-04-02T12:36:53Z</time>
      </trkpt>
      <trkpt lat="50.38465" lon="5.93091">
        <ele>305.84</ele>
        <time>2010-04-02T12:36:54Z</time>
      </trkpt>
      <trkpt lat="50.38472" lon="5.93101">
        <ele>304.39</ele>
        <time>2010-04-02T12:36:55Z</time>
      </trkpt>
      <trkpt lat="50.3848" lon="5.93108">
        <ele>302.47</ele>
        <time>2010-04-02T12:36:56Z</time>
      </trkpt>
      <trkpt lat="50.38488" lon="5.93109">
        <ele>301.99</ele>
        <time>2010-04-02T12:36:57Z</time>
      </trkpt>
      <trkpt lat="50.38497" lon="5.93106">
        <ele>301.51</ele>
        <time>2010-04-02T12:36:58Z</time>
      </trkpt>
      <trkpt lat="50.38505" lon="5.93102">
        <ele>301.51</ele>
        <time>2010-04-02T12:36:59Z</time>
      </trkpt>
      <trkpt lat="50.38514" lon="5.93097">
        <ele>301.51</ele>
        <time>2010-04-02T12:37:00Z</time>
      </trkpt>
      <trkpt lat="50.38522" lon="5.93091">
        <ele>300.55</ele>
        <time>2010-04-02T12:37:01Z</time>
      </trkpt>
      <trkpt lat="50.38538" lon="5.93084">
        <ele>300.55</ele>
        <time>2010-04-02T12:37:03Z</time>
      </trkpt>
      <trkpt lat="50.38546" lon="5.93083">
        <ele>300.07</ele>
        <time>2010-04-02T12:37:04Z</time>
      </trkpt>
      <trkpt lat="50.38553" lon="5.93084">
        <ele>299.59</ele>
        <time>2010-04-02T12:37:05Z</time>
      </trkpt>
      <trkpt lat="50.38561" lon="5.93088">
        <ele>298.63</ele>
        <time>2010-04-02T12:37:06Z</time>
      </trkpt>
      <trkpt lat="50.38568" lon="5.93095">
        <ele>298.15</ele>
        <time>2010-04-02T12:37:07Z</time>
      </trkpt>
      <trkpt lat="50.38576" lon="5.93104">
        <ele>297.18</ele>
        <time>2010-04-02T12:37:08Z</time>
      </trkpt>
      <trkpt lat="50.38583" lon="5.93115">
        <ele>296.7</ele>
        <time>2010-04-02T12:37:09Z</time>
      </trkpt>
      <trkpt lat="50.3859" lon="5.93126">
        <ele>296.22</ele>
        <time>2010-04-02T12:37:10Z</time>
      </trkpt>
      <trkpt lat="50.3862" lon="5.93166">
        <ele>293.34</ele>
        <time>2010-04-02T12:37:14Z</time>
      </trkpt>
      <trkpt lat="50.38645" lon="5.93185">
        <ele>291.9</ele>
        <time>2010-04-02T12:37:17Z</time>
      </trkpt>
      <trkpt lat="50.38654" lon="5.93188">
        <ele>292.38</ele>
        <time>2010-04-02T12:37:18Z</time>
      </trkpt>
      <trkpt lat="50.38764" lon="5.93187">
        <ele>292.38</ele>
        <time>2010-04-02T12:37:29Z</time>
      </trkpt>
      <trkpt lat="50.38916" lon="5.93169">
        <ele>291.9</ele>
        <time>2010-04-02T12:37:45Z</time>
      </trkpt>
      <trkpt lat="50.39033" lon="5.93182">
        <ele>294.3</ele>
        <time>2010-04-02T12:37:59Z</time>
      </trkpt>
      <trkpt lat="50.39095" lon="5.93203">
        <ele>289.49</ele>
        <time>2010-04-02T12:38:06Z</time>
      </trkpt>
      <trkpt lat="50.39104" lon="5.9321">
        <ele>289.01</ele>
        <time>2010-04-02T12:38:07Z</time>
      </trkpt>
      <trkpt lat="50.39112" lon="5.93217">
        <ele>287.57</ele>
        <time>2010-04-02T12:38:08Z</time>
      </trkpt>
      <trkpt lat="50.39119" lon="5.93223">
        <ele>287.09</ele>
        <time>2010-04-02T12:38:09Z</time>
      </trkpt>
      <trkpt lat="50.39126" lon="5.9323">
        <ele>286.61</ele>
        <time>2010-04-02T12:38:10Z</time>
      </trkpt>
      <trkpt lat="50.39153" lon="5.93251">
        <ele>285.65</ele>
        <time>2010-04-02T12:38:17Z</time>
      </trkpt>
      <trkpt lat="50.39156" lon="5.93249">
        <ele>285.17</ele>
        <time>2010-04-02T12:38:18Z</time>
      </trkpt>
      <trkpt lat="50.39159" lon="5.93245">
        <ele>284.69</ele>
        <time>2010-04-02T12:38:19Z</time>
      </trkpt>
      <trkpt lat="50.39162" lon="5.93241">
        <ele>284.69</ele>
        <time>2010-04-02T12:38:20Z</time>
      </trkpt>
      <trkpt lat="50.39164" lon="5.93235">
        <ele>283.73</ele>
        <time>2010-04-02T12:38:21Z</time>
      </trkpt>
      <trkpt lat="50.39166" lon="5.93228">
        <ele>283.73</ele>
        <time>2010-04-02T12:38:22Z</time>
      </trkpt>
      <trkpt lat="50.39168" lon="5.93221">
        <ele>283.25</ele>
        <time>2010-04-02T12:38:23Z</time>
      </trkpt>
      <trkpt lat="50.39182" lon="5.93169">
        <ele>281.32</ele>
        <time>2010-04-02T12:38:29Z</time>
      </trkpt>
      <trkpt lat="50.39186" lon="5.93162">
        <ele>280.84</ele>
        <time>2010-04-02T12:38:30Z</time>
      </trkpt>
      <trkpt lat="50.39191" lon="5.93156">
        <ele>280.84</ele>
        <time>2010-04-02T12:38:31Z</time>
      </trkpt>
      <trkpt lat="50.39197" lon="5.9315">
        <ele>280.84</ele>
        <time>2010-04-02T12:38:32Z</time>
      </trkpt>
      <trkpt lat="50.39203" lon="5.93146">
        <ele>280.36</ele>
        <time>2010-04-02T12:38:33Z</time>
      </trkpt>
      <trkpt lat="50.39223" lon="5.93134">
        <ele>279.4</ele>
        <time>2010-04-02T12:38:40Z</time>
      </trkpt>
      <trkpt lat="50.39224" lon="5.93131">
        <ele>279.88</ele>
        <time>2010-04-02T12:38:47Z</time>
      </trkpt>
      <trkpt lat="50.39225" lon="5.93128">
        <ele>279.4</ele>
        <time>2010-04-02T12:38:48Z</time>
      </trkpt>
      <trkpt lat="50.39247" lon="5.93094">
        <ele>282.28</ele>
        <time>2010-04-02T12:38:54Z</time>
      </trkpt>
      <trkpt lat="50.39252" lon="5.9309">
        <ele>282.28</ele>
        <time>2010-04-02T12:38:55Z</time>
      </trkpt>
      <trkpt lat="50.39273" lon="5.93087">
        <ele>282.77</ele>
        <time>2010-04-02T12:38:58Z</time>
      </trkpt>
      <trkpt lat="50.3931" lon="5.93082">
        <ele>286.13</ele>
        <time>2010-04-02T12:39:03Z</time>
      </trkpt>
      <trkpt lat="50.39397" lon="5.93053">
        <ele>291.9</ele>
        <time>2010-04-02T12:39:14Z</time>
      </trkpt>
      <trkpt lat="50.39403" lon="5.93052">
        <ele>292.38</ele>
        <time>2010-04-02T12:39:15Z</time>
      </trkpt>
      <trkpt lat="50.39408" lon="5.93053">
        <ele>292.38</ele>
        <time>2010-04-02T12:39:16Z</time>
      </trkpt>
      <trkpt lat="50.39412" lon="5.93056">
        <ele>292.38</ele>
        <time>2010-04-02T12:39:17Z</time>
      </trkpt>
      <trkpt lat="50.39416" lon="5.9306">
        <ele>291.9</ele>
        <time>2010-04-02T12:39:18Z</time>
      </trkpt>
      <trkpt lat="50.39419" lon="5.93065">
        <ele>292.38</ele>
        <time>2010-04-02T12:39:19Z</time>
      </trkpt>
      <trkpt lat="50.39421" lon="5.93069">
        <ele>292.38</ele>
        <time>2010-04-02T12:39:20Z</time>
      </trkpt>
      <trkpt lat="50.39423" lon="5.93072">
        <ele>292.38</ele>
        <time>2010-04-02T12:39:21Z</time>
      </trkpt>
      <trkpt lat="50.39429" lon="5.93084">
        <ele>292.38</ele>
        <time>2010-04-02T12:39:25Z</time>
      </trkpt>
      <trkpt lat="50.39467" lon="5.93156">
        <ele>294.78</ele>
        <time>2010-04-02T12:39:33Z</time>
      </trkpt>
      <trkpt lat="50.39484" lon="5.93191">
        <ele>296.7</ele>
        <time>2010-04-02T12:39:37Z</time>
      </trkpt>
      <trkpt lat="50.39488" lon="5.93197">
        <ele>296.7</ele>
        <time>2010-04-02T12:39:38Z</time>
      </trkpt>
      <trkpt lat="50.39493" lon="5.93202">
        <ele>297.18</ele>
        <time>2010-04-02T12:39:39Z</time>
      </trkpt>
      <trkpt lat="50.39498" lon="5.93209">
        <ele>297.67</ele>
        <time>2010-04-02T12:39:40Z</time>
      </trkpt>
      <trkpt lat="50.39503" lon="5.93219">
        <ele>297.67</ele>
        <time>2010-04-02T12:39:41Z</time>
      </trkpt>
      <trkpt lat="50.39559" lon="5.93322">
        <ele>301.51</ele>
        <time>2010-04-02T12:39:50Z</time>
      </trkpt>
      <trkpt lat="50.39614" lon="5.93445">
        <ele>303.91</ele>
        <time>2010-04-02T12:40:00Z</time>
      </trkpt>
      <trkpt lat="50.39622" lon="5.93461">
        <ele>303.91</ele>
        <time>2010-04-02T12:40:02Z</time>
      </trkpt>
      <trkpt lat="50.39626" lon="5.93468">
        <ele>303.43</ele>
        <time>2010-04-02T12:40:03Z</time>
      </trkpt>
      <trkpt lat="50.3963" lon="5.93471">
        <ele>303.91</ele>
        <time>2010-04-02T12:40:04Z</time>
      </trkpt>
      <trkpt lat="50.39635" lon="5.9347">
        <ele>303.91</ele>
        <time>2010-04-02T12:40:05Z</time>
      </trkpt>
      <trkpt lat="50.3964" lon="5.93462">
        <ele>302.95</ele>
        <time>2010-04-02T12:40:06Z</time>
      </trkpt>
      <trkpt lat="50.39642" lon="5.93452">
        <ele>302.47</ele>
        <time>2010-04-02T12:40:07Z</time>
      </trkpt>
      <trkpt lat="50.39641" lon="5.93442">
        <ele>302.47</ele>
        <time>2010-04-02T12:40:08Z</time>
      </trkpt>
      <trkpt lat="50.39639" lon="5.9343">
        <ele>302.47</ele>
        <time>2010-04-02T12:40:09Z</time>
      </trkpt>
      <trkpt lat="50.39637" lon="5.93419">
        <ele>301.99</ele>
        <time>2010-04-02T12:40:10Z</time>
      </trkpt>
      <trkpt lat="50.39636" lon="5.93406">
        <ele>301.99</ele>
        <time>2010-04-02T12:40:11Z</time>
      </trkpt>
      <trkpt lat="50.39636" lon="5.93393">
        <ele>302.47</ele>
        <time>2010-04-02T12:40:12Z</time>
      </trkpt>
      <trkpt lat="50.39637" lon="5.93379">
        <ele>302.47</ele>
        <time>2010-04-02T12:40:13Z</time>
      </trkpt>
      <trkpt lat="50.39642" lon="5.93236">
        <ele>304.39</ele>
        <time>2010-04-02T12:40:22Z</time>
      </trkpt>
      <trkpt lat="50.3964" lon="5.93211">
        <ele>304.88</ele>
        <time>2010-04-02T12:40:28Z</time>
      </trkpt>
      <trkpt lat="50.39637" lon="5.93173">
        <ele>306.32</ele>
        <time>2010-04-02T12:40:53Z</time>
      </trkpt>
      <trkpt lat="50.39622" lon="5.93013">
        <ele>305.84</ele>
        <time>2010-04-02T12:41:03Z</time>
      </trkpt>
      <trkpt lat="50.39617" lon="5.92975">
        <ele>305.36</ele>
        <time>2010-04-02T12:41:05Z</time>
      </trkpt>
      <trkpt lat="50.39613" lon="5.92956">
        <ele>305.36</ele>
        <time>2010-04-02T12:41:06Z</time>
      </trkpt>
      <trkpt lat="50.39608" lon="5.92938">
        <ele>305.36</ele>
        <time>2010-04-02T12:41:07Z</time>
      </trkpt>
      <trkpt lat="50.39601" lon="5.92922">
        <ele>305.36</ele>
        <time>2010-04-02T12:41:08Z</time>
      </trkpt>
      <trkpt lat="50.39592" lon="5.92906">
        <ele>305.36</ele>
        <time>2010-04-02T12:41:09Z</time>
      </trkpt>
      <trkpt lat="50.39583" lon="5.92892">
        <ele>305.84</ele>
        <time>2010-04-02T12:41:10Z</time>
      </trkpt>
      <trkpt lat="50.39573" lon="5.92878">
        <ele>305.84</ele>
        <time>2010-04-02T12:41:11Z</time>
      </trkpt>
      <trkpt lat="50.39447" lon="5.92707">
        <ele>309.2</ele>
        <time>2010-04-02T12:41:22Z</time>
      </trkpt>
      <trkpt lat="50.39326" lon="5.92588">
        <ele>314.49</ele>
        <time>2010-04-02T12:41:32Z</time>
      </trkpt>
      <trkpt lat="50.39253" lon="5.92523">
        <ele>312.57</ele>
        <time>2010-04-02T12:41:38Z</time>
      </trkpt>
      <trkpt lat="50.39242" lon="5.92519">
        <ele>311.6</ele>
        <time>2010-04-02T12:41:39Z</time>
      </trkpt>
      <trkpt lat="50.39231" lon="5.92518">
        <ele>310.64</ele>
        <time>2010-04-02T12:41:40Z</time>
      </trkpt>
      <trkpt lat="50.39221" lon="5.92517">
        <ele>310.16</ele>
        <time>2010-04-02T12:41:41Z</time>
      </trkpt>
      <trkpt lat="50.39213" lon="5.92515">
        <ele>309.68</ele>
        <time>2010-04-02T12:41:42Z</time>
      </trkpt>
      <trkpt lat="50.39206" lon="5.92511">
        <ele>309.2</ele>
        <time>2010-04-02T12:41:43Z</time>
      </trkpt>
      <trkpt lat="50.39199" lon="5.92508">
        <ele>309.2</ele>
        <time>2010-04-02T12:41:44Z</time>
      </trkpt>
      <trkpt lat="50.39193" lon="5.92507">
        <ele>308.72</ele>
        <time>2010-04-02T12:41:45Z</time>
      </trkpt>
      <trkpt lat="50.39185" lon="5.92507">
        <ele>308.24</ele>
        <time>2010-04-02T12:41:46Z</time>
      </trkpt>
      <trkpt lat="50.39177" lon="5.92509">
        <ele>307.76</ele>
        <time>2010-04-02T12:41:47Z</time>
      </trkpt>
      <trkpt lat="50.39169" lon="5.92507">
        <ele>307.76</ele>
        <time>2010-04-02T12:41:48Z</time>
      </trkpt>
      <trkpt lat="50.3916" lon="5.92504">
        <ele>307.28</ele>
        <time>2010-04-02T12:41:49Z</time>
      </trkpt>
      <trkpt lat="50.39151" lon="5.92499">
        <ele>307.28</ele>
        <time>2010-04-02T12:41:50Z</time>
      </trkpt>
      <trkpt lat="50.39143" lon="5.92491">
        <ele>307.28</ele>
        <time>2010-04-02T12:41:51Z</time>
      </trkpt>
      <trkpt lat="50.39025" lon="5.92375">
        <ele>313.05</ele>
        <time>2010-04-02T12:42:03Z</time>
      </trkpt>
      <trkpt lat="50.38906" lon="5.92314">
        <ele>318.33</ele>
        <time>2010-04-02T12:42:12Z</time>
      </trkpt>
      <trkpt lat="50.38835" lon="5.92284">
        <ele>321.22</ele>
        <time>2010-04-02T12:42:18Z</time>
      </trkpt>
      <trkpt lat="50.38826" lon="5.92275">
        <ele>321.22</ele>
        <time>2010-04-02T12:42:19Z</time>
      </trkpt>
      <trkpt lat="50.38818" lon="5.92266">
        <ele>321.7</ele>
        <time>2010-04-02T12:42:20Z</time>
      </trkpt>
      <trkpt lat="50.3881" lon="5.92256">
        <ele>321.7</ele>
        <time>2010-04-02T12:42:21Z</time>
      </trkpt>
      <trkpt lat="50.38803" lon="5.92245">
        <ele>322.18</ele>
        <time>2010-04-02T12:42:22Z</time>
      </trkpt>
      <trkpt lat="50.38796" lon="5.92234">
        <ele>322.66</ele>
        <time>2010-04-02T12:42:23Z</time>
      </trkpt>
      <trkpt lat="50.38734" lon="5.92125">
        <ele>326.99</ele>
        <time>2010-04-02T12:42:33Z</time>
      </trkpt>
      <trkpt lat="50.3869" lon="5.9204">
        <ele>328.43</ele>
        <time>2010-04-02T12:42:41Z</time>
      </trkpt>
      <trkpt lat="50.38593" lon="5.91865">
        <ele>323.62</ele>
        <time>2010-04-02T12:42:51Z</time>
      </trkpt>
      <trkpt lat="50.38439" lon="5.91579">
        <ele>310.64</ele>
        <time>2010-04-02T12:43:06Z</time>
      </trkpt>
      <trkpt lat="50.38433" lon="5.91557">
        <ele>309.68</ele>
        <time>2010-04-02T12:43:07Z</time>
      </trkpt>
      <trkpt lat="50.3843" lon="5.91534">
        <ele>308.72</ele>
        <time>2010-04-02T12:43:08Z</time>
      </trkpt>
      <trkpt lat="50.38429" lon="5.9151">
        <ele>307.76</ele>
        <time>2010-04-02T12:43:09Z</time>
      </trkpt>
      <trkpt lat="50.3843" lon="5.91485">
        <ele>307.28</ele>
        <time>2010-04-02T12:43:10Z</time>
      </trkpt>
      <trkpt lat="50.38431" lon="5.91459">
        <ele>306.32</ele>
        <time>2010-04-02T12:43:11Z</time>
      </trkpt>
      <trkpt lat="50.3845" lon="5.91083">
        <ele>294.3</ele>
        <time>2010-04-02T12:43:24Z</time>
      </trkpt>
      <trkpt lat="50.38474" lon="5.90575">
        <ele>291.42</ele>
        <time>2010-04-02T12:43:41Z</time>
      </trkpt>
      <trkpt lat="50.38487" lon="5.90283">
        <ele>290.94</ele>
        <time>2010-04-02T12:43:51Z</time>
      </trkpt>
      <trkpt lat="50.38485" lon="5.90255">
        <ele>291.42</ele>
        <time>2010-04-02T12:43:52Z</time>
      </trkpt>
      <trkpt lat="50.3848" lon="5.90228">
        <ele>290.94</ele>
        <time>2010-04-02T12:43:53Z</time>
      </trkpt>
      <trkpt lat="50.38472" lon="5.90202">
        <ele>290.46</ele>
        <time>2010-04-02T12:43:54Z</time>
      </trkpt>
      <trkpt lat="50.38464" lon="5.90177">
        <ele>289.97</ele>
        <time>2010-04-02T12:43:55Z</time>
      </trkpt>
      <trkpt lat="50.38454" lon="5.90151">
        <ele>289.49</ele>
        <time>2010-04-02T12:43:56Z</time>
      </trkpt>
      <trkpt lat="50.38397" lon="5.90024">
        <ele>287.09</ele>
        <time>2010-04-02T12:44:01Z</time>
      </trkpt>
      <trkpt lat="50.38382" lon="5.90004">
        <ele>286.61</ele>
        <time>2010-04-02T12:44:02Z</time>
      </trkpt>
      <trkpt lat="50.38366" lon="5.89988">
        <ele>285.65</ele>
        <time>2010-04-02T12:44:03Z</time>
      </trkpt>
      <trkpt lat="50.38348" lon="5.89974">
        <ele>284.21</ele>
        <time>2010-04-02T12:44:04Z</time>
      </trkpt>
      <trkpt lat="50.38329" lon="5.89962">
        <ele>283.25</ele>
        <time>2010-04-02T12:44:05Z</time>
      </trkpt>
      <trkpt lat="50.38309" lon="5.8995">
        <ele>282.77</ele>
        <time>2010-04-02T12:44:06Z</time>
      </trkpt>
      <trkpt lat="50.38116" lon="5.89843">
        <ele>278.44</ele>
        <time>2010-04-02T12:44:16Z</time>
      </trkpt>
      <trkpt lat="50.37903" lon="5.89726">
        <ele>273.15</ele>
        <time>2010-04-02T12:44:28Z</time>
      </trkpt>
      <trkpt lat="50.37889" lon="5.89707">
        <ele>272.19</ele>
        <time>2010-04-02T12:44:29Z</time>
      </trkpt>
      <trkpt lat="50.37876" lon="5.89686">
        <ele>271.23</ele>
        <time>2010-04-02T12:44:30Z</time>
      </trkpt>
      <trkpt lat="50.37864" lon="5.89664">
        <ele>270.75</ele>
        <time>2010-04-02T12:44:31Z</time>
      </trkpt>
      <trkpt lat="50.37855" lon="5.89638">
        <ele>269.31</ele>
        <time>2010-04-02T12:44:32Z</time>
      </trkpt>
      <trkpt lat="50.37848" lon="5.8961">
        <ele>268.35</ele>
        <time>2010-04-02T12:44:33Z</time>
      </trkpt>
      <trkpt lat="50.37842" lon="5.89582">
        <ele>266.9</ele>
        <time>2010-04-02T12:44:34Z</time>
      </trkpt>
      <trkpt lat="50.37837" lon="5.89553">
        <ele>265.94</ele>
        <time>2010-04-02T12:44:35Z</time>
      </trkpt>
      <trkpt lat="50.37834" lon="5.89522">
        <ele>264.98</ele>
        <time>2010-04-02T12:44:36Z</time>
      </trkpt>
      <trkpt lat="50.37834" lon="5.8949">
        <ele>263.54</ele>
        <time>2010-04-02T12:44:37Z</time>
      </trkpt>
      <trkpt lat="50.37835" lon="5.89458">
        <ele>262.58</ele>
        <time>2010-04-02T12:44:38Z</time>
      </trkpt>
      <trkpt lat="50.37836" lon="5.89425">
        <ele>261.62</ele>
        <time>2010-04-02T12:44:39Z</time>
      </trkpt>
      <trkpt lat="50.37838" lon="5.89067">
        <ele>251.52</ele>
        <time>2010-04-02T12:44:50Z</time>
      </trkpt>
      <trkpt lat="50.37838" lon="5.88585">
        <ele>250.08</ele>
        <time>2010-04-02T12:45:05Z</time>
      </trkpt>
      <trkpt lat="50.37831" lon="5.88465">
        <ele>250.08</ele>
        <time>2010-04-02T12:45:09Z</time>
      </trkpt>
      <trkpt lat="50.37826" lon="5.88436">
        <ele>250.08</ele>
        <time>2010-04-02T12:45:10Z</time>
      </trkpt>
      <trkpt lat="50.37819" lon="5.88408">
        <ele>249.6</ele>
        <time>2010-04-02T12:45:11Z</time>
      </trkpt>
      <trkpt lat="50.37811" lon="5.88381">
        <ele>249.6</ele>
        <time>2010-04-02T12:45:12Z</time>
      </trkpt>
      <trkpt lat="50.37801" lon="5.88356">
        <ele>249.12</ele>
        <time>2010-04-02T12:45:13Z</time>
      </trkpt>
      <trkpt lat="50.3779" lon="5.8833">
        <ele>249.12</ele>
        <time>2010-04-02T12:45:14Z</time>
      </trkpt>
      <trkpt lat="50.37681" lon="5.88038">
        <ele>251.04</ele>
        <time>2010-04-02T12:45:25Z</time>
      </trkpt>
      <trkpt lat="50.37623" lon="5.87822">
        <ele>252.48</ele>
        <time>2010-04-02T12:45:33Z</time>
      </trkpt>
      <trkpt lat="50.37615" lon="5.87644">
        <ele>251.52</ele>
        <time>2010-04-02T12:45:40Z</time>
      </trkpt>
      <trkpt lat="50.37619" lon="5.87628">
        <ele>252.48</ele>
        <time>2010-04-02T12:45:41Z</time>
      </trkpt>
      <trkpt lat="50.37626" lon="5.87614">
        <ele>252.48</ele>
        <time>2010-04-02T12:45:42Z</time>
      </trkpt>
      <trkpt lat="50.37634" lon="5.87602">
        <ele>252.48</ele>
        <time>2010-04-02T12:45:43Z</time>
      </trkpt>
      <trkpt lat="50.37642" lon="5.87591">
        <ele>252.48</ele>
        <time>2010-04-02T12:45:44Z</time>
      </trkpt>
      <trkpt lat="50.37672" lon="5.87565">
        <ele>252.96</ele>
        <time>2010-04-02T12:45:49Z</time>
      </trkpt>
      <trkpt lat="50.3769" lon="5.8752">
        <ele>250.56</ele>
        <time>2010-04-02T12:45:55Z</time>
      </trkpt>
      <trkpt lat="50.37694" lon="5.87521">
        <ele>249.6</ele>
        <time>2010-04-02T12:45:56Z</time>
      </trkpt>
      <trkpt lat="50.37695" lon="5.8752">
        <ele>249.6</ele>
        <time>2010-04-02T12:45:57Z</time>
      </trkpt>
      <trkpt lat="50.37698" lon="5.8752">
        <ele>248.64</ele>
        <time>2010-04-02T12:46:00Z</time>
      </trkpt>
      <trkpt lat="50.37701" lon="5.8752">
        <ele>248.16</ele>
        <time>2010-04-02T12:46:01Z</time>
      </trkpt>
      <trkpt lat="50.37705" lon="5.87523">
        <ele>248.16</ele>
        <time>2010-04-02T12:46:02Z</time>
      </trkpt>
      <trkpt lat="50.37709" lon="5.87526">
        <ele>251.04</ele>
        <time>2010-04-02T12:46:03Z</time>
      </trkpt>
      <trkpt lat="50.37714" lon="5.8753">
        <ele>253.93</ele>
        <time>2010-04-02T12:46:04Z</time>
      </trkpt>
      <trkpt lat="50.37774" lon="5.87587">
        <ele>253.93</ele>
        <time>2010-04-02T12:46:12Z</time>
      </trkpt>
      <trkpt lat="50.37891" lon="5.87686">
        <ele>254.41</ele>
        <time>2010-04-02T12:46:22Z</time>
      </trkpt>
      <trkpt lat="50.38084" lon="5.87859">
        <ele>250.56</ele>
        <time>2010-04-02T12:46:38Z</time>
      </trkpt>
      <trkpt lat="50.38121" lon="5.87897">
        <ele>250.56</ele>
        <time>2010-04-02T12:46:42Z</time>
      </trkpt>
      <trkpt lat="50.38129" lon="5.87907">
        <ele>251.04</ele>
        <time>2010-04-02T12:46:43Z</time>
      </trkpt>
      <trkpt lat="50.38134" lon="5.87923">
        <ele>251.52</ele>
        <time>2010-04-02T12:46:44Z</time>
      </trkpt>
      <trkpt lat="50.38143" lon="5.87946">
        <ele>251.52</ele>
        <time>2010-04-02T12:46:46Z</time>
      </trkpt>
      <trkpt lat="50.38151" lon="5.87953">
        <ele>251.52</ele>
        <time>2010-04-02T12:46:47Z</time>
      </trkpt>
      <trkpt lat="50.38159" lon="5.87957">
        <ele>252.48</ele>
        <time>2010-04-02T12:46:48Z</time>
      </trkpt>
      <trkpt lat="50.38242" lon="5.87995">
        <ele>257.29</ele>
        <time>2010-04-02T12:46:58Z</time>
      </trkpt>
      <trkpt lat="50.38357" lon="5.88034">
        <ele>261.62</ele>
        <time>2010-04-02T12:47:07Z</time>
      </trkpt>
      <trkpt lat="50.38592" lon="5.88076">
        <ele>262.58</ele>
        <time>2010-04-02T12:47:24Z</time>
      </trkpt>
      <trkpt lat="50.3888" lon="5.88142">
        <ele>263.54</ele>
        <time>2010-04-02T12:47:44Z</time>
      </trkpt>
      <trkpt lat="50.39049" lon="5.88148">
        <ele>262.1</ele>
        <time>2010-04-02T12:47:56Z</time>
      </trkpt>
      <trkpt lat="50.39164" lon="5.88099">
        <ele>261.62</ele>
        <time>2010-04-02T12:48:05Z</time>
      </trkpt>
      <trkpt lat="50.39174" lon="5.88088">
        <ele>261.62</ele>
        <time>2010-04-02T12:48:06Z</time>
      </trkpt>
      <trkpt lat="50.39183" lon="5.88076">
        <ele>261.62</ele>
        <time>2010-04-02T12:48:07Z</time>
      </trkpt>
      <trkpt lat="50.39201" lon="5.88054">
        <ele>260.65</ele>
        <time>2010-04-02T12:48:09Z</time>
      </trkpt>
      <trkpt lat="50.39211" lon="5.88044">
        <ele>260.17</ele>
        <time>2010-04-02T12:48:10Z</time>
      </trkpt>
      <trkpt lat="50.39303" lon="5.87939">
        <ele>253.44</ele>
        <time>2010-04-02T12:48:19Z</time>
      </trkpt>
      <trkpt lat="50.39363" lon="5.87819">
        <ele>249.6</ele>
        <time>2010-04-02T12:48:27Z</time>
      </trkpt>
      <trkpt lat="50.3937" lon="5.8781">
        <ele>249.12</ele>
        <time>2010-04-02T12:48:28Z</time>
      </trkpt>
      <trkpt lat="50.39379" lon="5.87807">
        <ele>248.64</ele>
        <time>2010-04-02T12:48:29Z</time>
      </trkpt>
      <trkpt lat="50.39387" lon="5.87811">
        <ele>248.64</ele>
        <time>2010-04-02T12:48:30Z</time>
      </trkpt>
      <trkpt lat="50.39395" lon="5.87815">
        <ele>248.16</ele>
        <time>2010-04-02T12:48:31Z</time>
      </trkpt>
      <trkpt lat="50.39404" lon="5.87821">
        <ele>247.68</ele>
        <time>2010-04-02T12:48:32Z</time>
      </trkpt>
      <trkpt lat="50.39503" lon="5.87902">
        <ele>247.68</ele>
        <time>2010-04-02T12:48:41Z</time>
      </trkpt>
      <trkpt lat="50.39619" lon="5.87936">
        <ele>244.79</ele>
        <time>2010-04-02T12:48:49Z</time>
      </trkpt>
      <trkpt lat="50.39751" lon="5.87877">
        <ele>239.99</ele>
        <time>2010-04-02T12:48:57Z</time>
      </trkpt>
      <trkpt lat="50.3986" lon="5.87752">
        <ele>236.62</ele>
        <time>2010-04-02T12:49:05Z</time>
      </trkpt>
      <trkpt lat="50.39931" lon="5.87571">
        <ele>234.22</ele>
        <time>2010-04-02T12:49:13Z</time>
      </trkpt>
      <trkpt lat="50.39947" lon="5.8739">
        <ele>231.33</ele>
        <time>2010-04-02T12:49:20Z</time>
      </trkpt>
      <trkpt lat="50.39927" lon="5.8716">
        <ele>228.45</ele>
        <time>2010-04-02T12:49:29Z</time>
      </trkpt>
      <trkpt lat="50.39918" lon="5.8701">
        <ele>229.41</ele>
        <time>2010-04-02T12:49:36Z</time>
      </trkpt>
      <trkpt lat="50.3992" lon="5.86989">
        <ele>229.41</ele>
        <time>2010-04-02T12:49:37Z</time>
      </trkpt>
      <trkpt lat="50.39923" lon="5.86969">
        <ele>228.93</ele>
        <time>2010-04-02T12:49:38Z</time>
      </trkpt>
      <trkpt lat="50.39927" lon="5.86949">
        <ele>228.45</ele>
        <time>2010-04-02T12:49:39Z</time>
      </trkpt>
      <trkpt lat="50.39933" lon="5.8693">
        <ele>228.45</ele>
        <time>2010-04-02T12:49:40Z</time>
      </trkpt>
      <trkpt lat="50.3994" lon="5.86912">
        <ele>227.97</ele>
        <time>2010-04-02T12:49:41Z</time>
      </trkpt>
      <trkpt lat="50.39948" lon="5.86895">
        <ele>227.97</ele>
        <time>2010-04-02T12:49:42Z</time>
      </trkpt>
      <trkpt lat="50.39957" lon="5.86878">
        <ele>227.49</ele>
        <time>2010-04-02T12:49:43Z</time>
      </trkpt>
      <trkpt lat="50.40102" lon="5.86612">
        <ele>222.2</ele>
        <time>2010-04-02T12:49:57Z</time>
      </trkpt>
      <trkpt lat="50.40225" lon="5.86445">
        <ele>222.68</ele>
        <time>2010-04-02T12:50:07Z</time>
      </trkpt>
      <trkpt lat="50.40291" lon="5.86328">
        <ele>221.24</ele>
        <time>2010-04-02T12:50:14Z</time>
      </trkpt>
      <trkpt lat="50.40301" lon="5.86318">
        <ele>221.24</ele>
        <time>2010-04-02T12:50:15Z</time>
      </trkpt>
      <trkpt lat="50.40312" lon="5.86311">
        <ele>220.76</ele>
        <time>2010-04-02T12:50:16Z</time>
      </trkpt>
      <trkpt lat="50.40324" lon="5.86312">
        <ele>220.76</ele>
        <time>2010-04-02T12:50:17Z</time>
      </trkpt>
      <trkpt lat="50.40335" lon="5.86316">
        <ele>220.76</ele>
        <time>2010-04-02T12:50:18Z</time>
      </trkpt>
      <trkpt lat="50.40349" lon="5.86319">
        <ele>221.24</ele>
        <time>2010-04-02T12:50:19Z</time>
      </trkpt>
      <trkpt lat="50.40362" lon="5.8632">
        <ele>221.24</ele>
        <time>2010-04-02T12:50:20Z</time>
      </trkpt>
      <trkpt lat="50.40375" lon="5.86318">
        <ele>221.24</ele>
        <time>2010-04-02T12:50:21Z</time>
      </trkpt>
      <trkpt lat="50.40389" lon="5.86314">
        <ele>221.24</ele>
        <time>2010-04-02T12:50:22Z</time>
      </trkpt>
      <trkpt lat="50.40402" lon="5.86308">
        <ele>220.76</ele>
        <time>2010-04-02T12:50:23Z</time>
      </trkpt>
      <trkpt lat="50.40416" lon="5.863">
        <ele>220.28</ele>
        <time>2010-04-02T12:50:24Z</time>
      </trkpt>
      <trkpt lat="50.40429" lon="5.8629">
        <ele>219.8</ele>
        <time>2010-04-02T12:50:25Z</time>
      </trkpt>
      <trkpt lat="50.40443" lon="5.86278">
        <ele>219.32</ele>
        <time>2010-04-02T12:50:26Z</time>
      </trkpt>
      <trkpt lat="50.40666" lon="5.86094">
        <ele>218.36</ele>
        <time>2010-04-02T12:50:42Z</time>
      </trkpt>
      <trkpt lat="50.40805" lon="5.86094">
        <ele>222.9</ele>
      </trkpt>
      <trkpt lat="50.41088" lon="5.86045">
        <ele>224.1</ele>
      </trkpt>
      <trkpt lat="50.41371" lon="5.86028">
        <ele>236</ele>
      </trkpt>
      <trkpt lat="50.41439" lon="5.85864">
        <ele>244.7</ele>
      </trkpt>
      <trkpt lat="50.41371" lon="5.8565">
        <ele>249</ele>
      </trkpt>
      <trkpt lat="50.41439" lon="5.85206">
        <ele>273.7</ele>
      </trkpt>
      <trkpt lat="50.41385" lon="5.84959">
        <ele>287.5</ele>
      </trkpt>
      <trkpt lat="50.41317" lon="5.84976">
        <ele>283</ele>
      </trkpt>
      <trkpt lat="50.41223" lon="5.85041">
        <ele>288.1</ele>
      </trkpt>
      <trkpt lat="50.41115" lon="5.84827">
        <ele>297.2</ele>
      </trkpt>
      <trkpt lat="50.41142" lon="5.84679">
        <ele>302.9</ele>
      </trkpt>
      <trkpt lat="50.4125" lon="5.84548">
        <ele>305.3</ele>
      </trkpt>
      <trkpt lat="50.41311" lon="5.84503">
        <ele>303.43</ele>
        <time>2010-03-24T14:19:14Z</time>
      </trkpt>
      <trkpt lat="50.41316" lon="5.84548">
        <ele>302.95</ele>
        <time>2010-03-24T14:19:18Z</time>
      </trkpt>
      <trkpt lat="50.41317" lon="5.84554">
        <ele>302.95</ele>
        <time>2010-03-24T14:19:19Z</time>
      </trkpt>
      <trkpt lat="50.41318" lon="5.84559">
        <ele>302.95</ele>
        <time>2010-03-24T14:19:20Z</time>
      </trkpt>
      <trkpt lat="50.41318" lon="5.84564">
        <ele>302.47</ele>
        <time>2010-03-24T14:19:21Z</time>
      </trkpt>
      <trkpt lat="50.41318" lon="5.84568">
        <ele>302.47</ele>
        <time>2010-03-24T14:19:22Z</time>
      </trkpt>
      <trkpt lat="50.41317" lon="5.84569">
        <ele>302.95</ele>
        <time>2010-03-24T14:19:32Z</time>
      </trkpt>
      <trkpt lat="50.41317" lon="5.84568">
        <ele>302.95</ele>
        <time>2010-03-24T14:19:35Z</time>
      </trkpt>
      <trkpt lat="50.41308" lon="5.84582">
        <ele>301.03</ele>
        <time>2010-03-24T14:20:26Z</time>
      </trkpt>
      <trkpt lat="50.41309" lon="5.84591">
        <ele>301.99</ele>
        <time>2010-03-24T14:20:32Z</time>
      </trkpt>
      <trkpt lat="50.41316" lon="5.84597">
        <ele>302.95</ele>
        <time>2010-03-24T14:20:34Z</time>
      </trkpt>
      <trkpt lat="50.41357" lon="5.84623">
        <ele>306.8</ele>
        <time>2010-03-24T14:20:41Z</time>
      </trkpt>
      <trkpt lat="50.41418" lon="5.84706">
        <ele>311.12</ele>
        <time>2010-03-24T14:20:49Z</time>
      </trkpt>
      <trkpt lat="50.4149" lon="5.84846">
        <ele>307.76</ele>
        <time>2010-03-24T14:20:58Z</time>
      </trkpt>
      <trkpt lat="50.415" lon="5.84858">
        <ele>307.28</ele>
        <time>2010-03-24T14:20:59Z</time>
      </trkpt>
      <trkpt lat="50.41512" lon="5.84867">
        <ele>307.28</ele>
        <time>2010-03-24T14:21:00Z</time>
      </trkpt>
      <trkpt lat="50.41524" lon="5.84872">
        <ele>306.8</ele>
        <time>2010-03-24T14:21:01Z</time>
      </trkpt>
      <trkpt lat="50.41537" lon="5.84873">
        <ele>306.8</ele>
        <time>2010-03-24T14:21:02Z</time>
      </trkpt>
      <trkpt lat="50.4155" lon="5.84871">
        <ele>306.32</ele>
        <time>2010-03-24T14:21:03Z</time>
      </trkpt>
      <trkpt lat="50.41563" lon="5.84866">
        <ele>305.84</ele>
        <time>2010-03-24T14:21:04Z</time>
      </trkpt>
      <trkpt lat="50.41577" lon="5.84861">
        <ele>305.84</ele>
        <time>2010-03-24T14:21:05Z</time>
      </trkpt>
      <trkpt lat="50.41691" lon="5.84851">
        <ele>306.32</ele>
        <time>2010-03-24T14:21:13Z</time>
      </trkpt>
      <trkpt lat="50.4176" lon="5.84898">
        <ele>307.76</ele>
        <time>2010-03-24T14:21:18Z</time>
      </trkpt>
      <trkpt lat="50.41771" lon="5.84914">
        <ele>307.28</ele>
        <time>2010-03-24T14:21:19Z</time>
      </trkpt>
      <trkpt lat="50.4178" lon="5.84933">
        <ele>306.8</ele>
        <time>2010-03-24T14:21:20Z</time>
      </trkpt>
      <trkpt lat="50.41788" lon="5.84954">
        <ele>306.8</ele>
        <time>2010-03-24T14:21:21Z</time>
      </trkpt>
      <trkpt lat="50.41796" lon="5.84976">
        <ele>306.8</ele>
        <time>2010-03-24T14:21:22Z</time>
      </trkpt>
      <trkpt lat="50.41803" lon="5.84998">
        <ele>307.28</ele>
        <time>2010-03-24T14:21:23Z</time>
      </trkpt>
      <trkpt lat="50.41896" lon="5.85289">
        <ele>317.37</ele>
        <time>2010-03-24T14:21:35Z</time>
      </trkpt>
      <trkpt lat="50.41974" lon="5.85451">
        <ele>324.1</ele>
        <time>2010-03-24T14:21:43Z</time>
      </trkpt>
      <trkpt lat="50.42099" lon="5.85586">
        <ele>327.47</ele>
        <time>2010-03-24T14:21:53Z</time>
      </trkpt>
      <trkpt lat="50.42239" lon="5.85799">
        <ele>327.47</ele>
        <time>2010-03-24T14:22:07Z</time>
      </trkpt>
      <trkpt lat="50.42301" lon="5.85869">
        <ele>326.99</ele>
        <time>2010-03-24T14:22:14Z</time>
      </trkpt>
      <trkpt lat="50.42332" lon="5.85922">
        <ele>326.02</ele>
        <time>2010-03-24T14:22:22Z</time>
      </trkpt>
      <trkpt lat="50.4235" lon="5.85939">
        <ele>326.02</ele>
        <time>2010-03-24T14:22:25Z</time>
      </trkpt>
      <trkpt lat="50.42414" lon="5.85986">
        <ele>326.02</ele>
        <time>2010-03-24T14:22:35Z</time>
      </trkpt>
      <trkpt lat="50.42425" lon="5.85991">
        <ele>325.54</ele>
        <time>2010-03-24T14:22:39Z</time>
      </trkpt>
      <trkpt lat="50.4243" lon="5.85993">
        <ele>325.54</ele>
        <time>2010-03-24T14:22:40Z</time>
      </trkpt>
      <trkpt lat="50.42435" lon="5.85993">
        <ele>326.02</ele>
        <time>2010-03-24T14:22:41Z</time>
      </trkpt>
      <trkpt lat="50.4244" lon="5.85993">
        <ele>326.02</ele>
        <time>2010-03-24T14:22:42Z</time>
      </trkpt>
      <trkpt lat="50.42445" lon="5.85992">
        <ele>326.5</ele>
        <time>2010-03-24T14:22:43Z</time>
      </trkpt>
      <trkpt lat="50.4245" lon="5.85991">
        <ele>326.5</ele>
        <time>2010-03-24T14:22:44Z</time>
      </trkpt>
      <trkpt lat="50.42523" lon="5.85978">
        <ele>328.91</ele>
        <time>2010-03-24T14:22:52Z</time>
      </trkpt>
      <trkpt lat="50.42554" lon="5.85975">
        <ele>330.83</ele>
        <time>2010-03-24T14:22:55Z</time>
      </trkpt>
      <trkpt lat="50.42565" lon="5.85971">
        <ele>331.31</ele>
        <time>2010-03-24T14:22:56Z</time>
      </trkpt>
      <trkpt lat="50.42671" lon="5.85923">
        <ele>338.04</ele>
        <time>2010-03-24T14:23:03Z</time>
      </trkpt>
      <trkpt lat="50.42823" lon="5.85855">
        <ele>350.06</ele>
        <time>2010-03-24T14:23:12Z</time>
      </trkpt>
      <trkpt lat="50.42864" lon="5.85844">
        <ele>353.42</ele>
        <time>2010-03-24T14:23:15Z</time>
      </trkpt>
      <trkpt lat="50.42876" lon="5.85846">
        <ele>354.38</ele>
        <time>2010-03-24T14:23:16Z</time>
      </trkpt>
      <trkpt lat="50.42888" lon="5.85852">
        <ele>354.86</ele>
        <time>2010-03-24T14:23:17Z</time>
      </trkpt>
      <trkpt lat="50.42898" lon="5.85863">
        <ele>355.34</ele>
        <time>2010-03-24T14:23:18Z</time>
      </trkpt>
      <trkpt lat="50.42906" lon="5.85877">
        <ele>355.83</ele>
        <time>2010-03-24T14:23:19Z</time>
      </trkpt>
      <trkpt lat="50.42911" lon="5.85895">
        <ele>356.79</ele>
        <time>2010-03-24T14:23:20Z</time>
      </trkpt>
      <trkpt lat="50.42915" lon="5.85914">
        <ele>357.27</ele>
        <time>2010-03-24T14:23:21Z</time>
      </trkpt>
      <trkpt lat="50.42915" lon="5.85933">
        <ele>358.23</ele>
        <time>2010-03-24T14:23:22Z</time>
      </trkpt>
      <trkpt lat="50.42914" lon="5.85953">
        <ele>358.71</ele>
        <time>2010-03-24T14:23:23Z</time>
      </trkpt>
      <trkpt lat="50.42909" lon="5.85972">
        <ele>359.19</ele>
        <time>2010-03-24T14:23:24Z</time>
      </trkpt>
      <trkpt lat="50.42901" lon="5.85988">
        <ele>360.63</ele>
        <time>2010-03-24T14:23:25Z</time>
      </trkpt>
      <trkpt lat="50.42889" lon="5.86003">
        <ele>361.59</ele>
        <time>2010-03-24T14:23:26Z</time>
      </trkpt>
      <trkpt lat="50.42878" lon="5.86019">
        <ele>362.07</ele>
        <time>2010-03-24T14:23:27Z</time>
      </trkpt>
      <trkpt lat="50.42793" lon="5.86177">
        <ele>371.21</ele>
        <time>2010-03-24T14:23:36Z</time>
      </trkpt>
      <trkpt lat="50.4269" lon="5.86382">
        <ele>384.18</ele>
        <time>2010-03-24T14:23:49Z</time>
      </trkpt>
      <trkpt lat="50.42671" lon="5.86418">
        <ele>386.11</ele>
        <time>2010-03-24T14:23:52Z</time>
      </trkpt>
      <trkpt lat="50.42666" lon="5.86432">
        <ele>386.59</ele>
        <time>2010-03-24T14:23:53Z</time>
      </trkpt>
      <trkpt lat="50.42662" lon="5.86448">
        <ele>387.07</ele>
        <time>2010-03-24T14:23:54Z</time>
      </trkpt>
      <trkpt lat="50.42659" lon="5.86465">
        <ele>388.03</ele>
        <time>2010-03-24T14:23:55Z</time>
      </trkpt>
      <trkpt lat="50.42657" lon="5.86484">
        <ele>388.03</ele>
        <time>2010-03-24T14:23:56Z</time>
      </trkpt>
      <trkpt lat="50.42655" lon="5.86504">
        <ele>389.47</ele>
        <time>2010-03-24T14:23:57Z</time>
      </trkpt>
      <trkpt lat="50.42647" lon="5.86613">
        <ele>393.8</ele>
        <time>2010-03-24T14:24:04Z</time>
      </trkpt>
      <trkpt lat="50.42648" lon="5.86621">
        <ele>394.28</ele>
        <time>2010-03-24T14:24:05Z</time>
      </trkpt>
      <trkpt lat="50.42649" lon="5.86628">
        <ele>394.28</ele>
        <time>2010-03-24T14:24:06Z</time>
      </trkpt>
      <trkpt lat="50.4265" lon="5.86632">
        <ele>394.28</ele>
        <time>2010-03-24T14:24:07Z</time>
      </trkpt>
      <trkpt lat="50.42655" lon="5.86647">
        <ele>396.2</ele>
        <time>2010-03-24T14:24:17Z</time>
      </trkpt>
      <trkpt lat="50.42658" lon="5.86654">
        <ele>399.08</ele>
        <time>2010-03-24T14:24:25Z</time>
      </trkpt>
      <trkpt lat="50.42673" lon="5.86687">
        <ele>402.45</ele>
        <time>2010-03-24T14:24:45Z</time>
      </trkpt>
      <trkpt lat="50.42717" lon="5.86769">
        <ele>406.29</ele>
        <time>2010-03-24T14:24:52Z</time>
      </trkpt>
      <trkpt lat="50.42747" lon="5.8682">
        <ele>410.14</ele>
        <time>2010-03-24T14:24:56Z</time>
      </trkpt>
      <trkpt lat="50.42819" lon="5.86956">
        <ele>417.35</ele>
        <time>2010-03-24T14:25:06Z</time>
      </trkpt>
      <trkpt lat="50.42828" lon="5.86972">
        <ele>420.23</ele>
        <time>2010-03-24T14:25:11Z</time>
      </trkpt>
      <trkpt lat="50.42837" lon="5.86997">
        <ele>420.23</ele>
        <time>2010-03-24T14:25:19Z</time>
      </trkpt>
      <trkpt lat="50.42842" lon="5.87005">
        <ele>419.75</ele>
        <time>2010-03-24T14:25:20Z</time>
      </trkpt>
      <trkpt lat="50.42905" lon="5.87102">
        <ele>416.39</ele>
        <time>2010-03-24T14:25:28Z</time>
      </trkpt>
      <trkpt lat="50.42917" lon="5.87114">
        <ele>415.91</ele>
        <time>2010-03-24T14:25:29Z</time>
      </trkpt>
      <trkpt lat="50.43019" lon="5.87214">
        <ele>426</ele>
        <time>2010-03-24T14:25:37Z</time>
      </trkpt>
      <trkpt lat="50.43165" lon="5.87326">
        <ele>438.98</ele>
        <time>2010-03-24T14:25:48Z</time>
      </trkpt>
      <trkpt lat="50.43197" lon="5.87343">
        <ele>441.38</ele>
        <time>2010-03-24T14:25:51Z</time>
      </trkpt>
      <trkpt lat="50.43209" lon="5.8734">
        <ele>442.34</ele>
        <time>2010-03-24T14:25:52Z</time>
      </trkpt>
      <trkpt lat="50.43219" lon="5.87333">
        <ele>443.31</ele>
        <time>2010-03-24T14:25:53Z</time>
      </trkpt>
      <trkpt lat="50.43228" lon="5.87321">
        <ele>444.27</ele>
        <time>2010-03-24T14:25:54Z</time>
      </trkpt>
      <trkpt lat="50.43233" lon="5.87305">
        <ele>445.23</ele>
        <time>2010-03-24T14:25:55Z</time>
      </trkpt>
      <trkpt lat="50.43235" lon="5.87285">
        <ele>446.67</ele>
        <time>2010-03-24T14:25:56Z</time>
      </trkpt>
      <trkpt lat="50.43234" lon="5.87266">
        <ele>447.63</ele>
        <time>2010-03-24T14:25:57Z</time>
      </trkpt>
      <trkpt lat="50.4323" lon="5.87246">
        <ele>449.07</ele>
        <time>2010-03-24T14:25:58Z</time>
      </trkpt>
      <trkpt lat="50.43223" lon="5.8723">
        <ele>450.03</ele>
        <time>2010-03-24T14:25:59Z</time>
      </trkpt>
      <trkpt lat="50.43213" lon="5.87215">
        <ele>451.48</ele>
        <time>2010-03-24T14:26:00Z</time>
      </trkpt>
      <trkpt lat="50.43203" lon="5.87201">
        <ele>452.92</ele>
        <time>2010-03-24T14:26:01Z</time>
      </trkpt>
      <trkpt lat="50.43186" lon="5.87171">
        <ele>454.84</ele>
        <time>2010-03-24T14:26:03Z</time>
      </trkpt>
      <trkpt lat="50.43182" lon="5.87154">
        <ele>455.8</ele>
        <time>2010-03-24T14:26:04Z</time>
      </trkpt>
      <trkpt lat="50.43183" lon="5.87137">
        <ele>456.76</ele>
        <time>2010-03-24T14:26:05Z</time>
      </trkpt>
      <trkpt lat="50.43188" lon="5.87122">
        <ele>457.72</ele>
        <time>2010-03-24T14:26:06Z</time>
      </trkpt>
      <trkpt lat="50.43195" lon="5.87108">
        <ele>458.21</ele>
        <time>2010-03-24T14:26:07Z</time>
      </trkpt>
      <trkpt lat="50.43207" lon="5.87101">
        <ele>459.17</ele>
        <time>2010-03-24T14:26:08Z</time>
      </trkpt>
      <trkpt lat="50.43221" lon="5.871">
        <ele>460.61</ele>
        <time>2010-03-24T14:26:09Z</time>
      </trkpt>
      <trkpt lat="50.43235" lon="5.87101">
        <ele>461.57</ele>
        <time>2010-03-24T14:26:10Z</time>
      </trkpt>
      <trkpt lat="50.4325" lon="5.87103">
        <ele>462.53</ele>
        <time>2010-03-24T14:26:11Z</time>
      </trkpt>
      <trkpt lat="50.4334" lon="5.87091">
        <ele>469.74</ele>
        <time>2010-03-24T14:26:18Z</time>
      </trkpt>
      <trkpt lat="50.43357" lon="5.87082">
        <ele>471.66</ele>
        <time>2010-03-24T14:26:23Z</time>
      </trkpt>
      <trkpt lat="50.4338" lon="5.87064">
        <ele>473.59</ele>
        <time>2010-03-24T14:26:45Z</time>
      </trkpt>
      <trkpt lat="50.43439" lon="5.87022">
        <ele>477.43</ele>
        <time>2010-03-24T14:26:54Z</time>
      </trkpt>
      <trkpt lat="50.43446" lon="5.8702">
        <ele>477.91</ele>
        <time>2010-03-24T14:26:55Z</time>
      </trkpt>
      <trkpt lat="50.43459" lon="5.87016">
        <ele>478.87</ele>
        <time>2010-03-24T14:26:57Z</time>
      </trkpt>
      <trkpt lat="50.43465" lon="5.8701">
        <ele>479.35</ele>
        <time>2010-03-24T14:26:58Z</time>
      </trkpt>
      <trkpt lat="50.4347" lon="5.87002">
        <ele>479.84</ele>
        <time>2010-03-24T14:26:59Z</time>
      </trkpt>
      <trkpt lat="50.43474" lon="5.8699">
        <ele>480.8</ele>
        <time>2010-03-24T14:27:00Z</time>
      </trkpt>
      <trkpt lat="50.43478" lon="5.86977">
        <ele>481.28</ele>
        <time>2010-03-24T14:27:01Z</time>
      </trkpt>
      <trkpt lat="50.43496" lon="5.86926">
        <ele>484.64</ele>
        <time>2010-03-24T14:27:05Z</time>
      </trkpt>
      <trkpt lat="50.43501" lon="5.86918">
        <ele>485.6</ele>
        <time>2010-03-24T14:27:06Z</time>
      </trkpt>
      <trkpt lat="50.43507" lon="5.86913">
        <ele>486.08</ele>
        <time>2010-03-24T14:27:07Z</time>
      </trkpt>
      <trkpt lat="50.43514" lon="5.86914">
        <ele>486.56</ele>
        <time>2010-03-24T14:27:08Z</time>
      </trkpt>
      <trkpt lat="50.43522" lon="5.86916">
        <ele>487.05</ele>
        <time>2010-03-24T14:27:09Z</time>
      </trkpt>
      <trkpt lat="50.43532" lon="5.86923">
        <ele>487.05</ele>
        <time>2010-03-24T14:27:10Z</time>
      </trkpt>
      <trkpt lat="50.43541" lon="5.86931">
        <ele>487.05</ele>
        <time>2010-03-24T14:27:11Z</time>
      </trkpt>
      <trkpt lat="50.43552" lon="5.8694">
        <ele>487.53</ele>
        <time>2010-03-24T14:27:12Z</time>
      </trkpt>
      <trkpt lat="50.4366" lon="5.86995">
        <ele>488.49</ele>
        <time>2010-03-24T14:27:21Z</time>
      </trkpt>
      <trkpt lat="50.43781" lon="5.87012">
        <ele>493.77</ele>
        <time>2010-03-24T14:27:29Z</time>
      </trkpt>
      <trkpt lat="50.43954" lon="5.87037">
        <ele>500.02</ele>
        <time>2010-03-24T14:27:39Z</time>
      </trkpt>
      <trkpt lat="50.44166" lon="5.87073">
        <ele>508.19</ele>
        <time>2010-03-24T14:27:49Z</time>
      </trkpt>
      <trkpt lat="50.44344" lon="5.8716">
        <ele>517.81</ele>
        <time>2010-03-24T14:27:58Z</time>
      </trkpt>
      <trkpt lat="50.44622" lon="5.87382">
        <ele>531.75</ele>
        <time>2010-03-24T14:28:14Z</time>
      </trkpt>
      <trkpt lat="50.44711" lon="5.87529">
        <ele>537.51</ele>
        <time>2010-03-24T14:28:21Z</time>
      </trkpt>
      <trkpt lat="50.44754" lon="5.87617">
        <ele>540.4</ele>
        <time>2010-03-24T14:28:27Z</time>
      </trkpt>
      <trkpt lat="50.44764" lon="5.87639">
        <ele>541.84</ele>
        <time>2010-03-24T14:28:33Z</time>
      </trkpt>
      <trkpt lat="50.44793" lon="5.87702">
        <ele>543.76</ele>
        <time>2010-03-24T14:28:42Z</time>
      </trkpt>
      <trkpt lat="50.44848" lon="5.8781">
        <ele>547.13</ele>
        <time>2010-03-24T14:28:50Z</time>
      </trkpt>
      <trkpt lat="50.44908" lon="5.87923">
        <ele>551.93</ele>
        <time>2010-03-24T14:28:57Z</time>
      </trkpt>
      <trkpt lat="50.44995" lon="5.88011">
        <ele>555.78</ele>
        <time>2010-03-24T14:29:03Z</time>
      </trkpt>
      <trkpt lat="50.45011" lon="5.8802">
        <ele>556.74</ele>
        <time>2010-03-24T14:29:04Z</time>
      </trkpt>
      <trkpt lat="50.45108" lon="5.88062">
        <ele>559.62</ele>
        <time>2010-03-24T14:29:12Z</time>
      </trkpt>
      <trkpt lat="50.45138" lon="5.88073">
        <ele>562.51</ele>
        <time>2010-03-24T14:29:20Z</time>
      </trkpt>
      <trkpt lat="50.45221" lon="5.88103">
        <ele>566.35</ele>
        <time>2010-03-24T14:29:29Z</time>
      </trkpt>
      <trkpt lat="50.45367" lon="5.88154">
        <ele>565.39</ele>
        <time>2010-03-24T14:29:39Z</time>
      </trkpt>
      <trkpt lat="50.45615" lon="5.88208">
        <ele>553.38</ele>
        <time>2010-03-24T14:29:54Z</time>
      </trkpt>
      <trkpt lat="50.45811" lon="5.8825">
        <ele>541.36</ele>
        <time>2010-03-24T14:30:06Z</time>
      </trkpt>
      <trkpt lat="50.45822" lon="5.8825">
        <ele>539.92</ele>
        <time>2010-03-24T14:30:07Z</time>
      </trkpt>
      <trkpt lat="50.45832" lon="5.88247">
        <ele>538.96</ele>
        <time>2010-03-24T14:30:08Z</time>
      </trkpt>
      <trkpt lat="50.45843" lon="5.88241">
        <ele>537.99</ele>
        <time>2010-03-24T14:30:09Z</time>
      </trkpt>
      <trkpt lat="50.45853" lon="5.88233">
        <ele>536.55</ele>
        <time>2010-03-24T14:30:10Z</time>
      </trkpt>
      <trkpt lat="50.45863" lon="5.88224">
        <ele>535.11</ele>
        <time>2010-03-24T14:30:11Z</time>
      </trkpt>
      <trkpt lat="50.45873" lon="5.88212">
        <ele>534.15</ele>
        <time>2010-03-24T14:30:12Z</time>
      </trkpt>
      <trkpt lat="50.45882" lon="5.88199">
        <ele>533.19</ele>
        <time>2010-03-24T14:30:13Z</time>
      </trkpt>
      <trkpt lat="50.4589" lon="5.88184">
        <ele>531.75</ele>
        <time>2010-03-24T14:30:14Z</time>
      </trkpt>
      <trkpt lat="50.45898" lon="5.88168">
        <ele>530.3</ele>
        <time>2010-03-24T14:30:15Z</time>
      </trkpt>
      <trkpt lat="50.45905" lon="5.88151">
        <ele>528.86</ele>
        <time>2010-03-24T14:30:16Z</time>
      </trkpt>
      <trkpt lat="50.4591" lon="5.88132">
        <ele>527.42</ele>
        <time>2010-03-24T14:30:17Z</time>
      </trkpt>
      <trkpt lat="50.45914" lon="5.88112">
        <ele>525.98</ele>
        <time>2010-03-24T14:30:18Z</time>
      </trkpt>
      <trkpt lat="50.45916" lon="5.8809">
        <ele>524.54</ele>
        <time>2010-03-24T14:30:19Z</time>
      </trkpt>
      <trkpt lat="50.45916" lon="5.88067">
        <ele>523.09</ele>
        <time>2010-03-24T14:30:20Z</time>
      </trkpt>
      <trkpt lat="50.45915" lon="5.88044">
        <ele>522.13</ele>
        <time>2010-03-24T14:30:21Z</time>
      </trkpt>
      <trkpt lat="50.4592" lon="5.878">
        <ele>508.19</ele>
        <time>2010-03-24T14:30:31Z</time>
      </trkpt>
      <trkpt lat="50.45971" lon="5.87542">
        <ele>492.33</ele>
        <time>2010-03-24T14:30:42Z</time>
      </trkpt>
      <trkpt lat="50.4599" lon="5.87267">
        <ele>480.32</ele>
        <time>2010-03-24T14:30:52Z</time>
      </trkpt>
      <trkpt lat="50.46001" lon="5.87044">
        <ele>471.18</ele>
        <time>2010-03-24T14:31:01Z</time>
      </trkpt>
      <trkpt lat="50.46005" lon="5.87026">
        <ele>470.7</ele>
        <time>2010-03-24T14:31:02Z</time>
      </trkpt>
      <trkpt lat="50.46012" lon="5.8701">
        <ele>469.74</ele>
        <time>2010-03-24T14:31:03Z</time>
      </trkpt>
      <trkpt lat="50.46022" lon="5.86999">
        <ele>468.78</ele>
        <time>2010-03-24T14:31:04Z</time>
      </trkpt>
      <trkpt lat="50.46034" lon="5.86993">
        <ele>467.82</ele>
        <time>2010-03-24T14:31:05Z</time>
      </trkpt>
      <trkpt lat="50.46047" lon="5.86993">
        <ele>466.86</ele>
        <time>2010-03-24T14:31:06Z</time>
      </trkpt>
      <trkpt lat="50.4606" lon="5.86997">
        <ele>466.38</ele>
        <time>2010-03-24T14:31:07Z</time>
      </trkpt>
      <trkpt lat="50.46072" lon="5.87005">
        <ele>465.42</ele>
        <time>2010-03-24T14:31:08Z</time>
      </trkpt>
      <trkpt lat="50.46084" lon="5.87017">
        <ele>464.93</ele>
        <time>2010-03-24T14:31:09Z</time>
      </trkpt>
      <trkpt lat="50.46095" lon="5.87029">
        <ele>463.97</ele>
        <time>2010-03-24T14:31:10Z</time>
      </trkpt>
      <trkpt lat="50.46219" lon="5.87128">
        <ele>455.8</ele>
        <time>2010-03-24T14:31:19Z</time>
      </trkpt>
      <trkpt lat="50.46395" lon="5.87234">
        <ele>446.67</ele>
        <time>2010-03-24T14:31:31Z</time>
      </trkpt>
      <trkpt lat="50.46539" lon="5.87299">
        <ele>439.46</ele>
        <time>2010-03-24T14:31:41Z</time>
      </trkpt>
      <trkpt lat="50.46551" lon="5.87298">
        <ele>438.5</ele>
        <time>2010-03-24T14:31:42Z</time>
      </trkpt>
      <trkpt lat="50.46562" lon="5.87295">
        <ele>437.54</ele>
        <time>2010-03-24T14:31:43Z</time>
      </trkpt>
      <trkpt lat="50.46573" lon="5.8729">
        <ele>437.54</ele>
        <time>2010-03-24T14:31:44Z</time>
      </trkpt>
      <trkpt lat="50.46583" lon="5.87284">
        <ele>436.58</ele>
        <time>2010-03-24T14:31:45Z</time>
      </trkpt>
      <trkpt lat="50.46629" lon="5.87244">
        <ele>431.77</ele>
        <time>2010-03-24T14:31:52Z</time>
      </trkpt>
      <trkpt lat="50.46632" lon="5.87239">
        <ele>431.29</ele>
        <time>2010-03-24T14:31:53Z</time>
      </trkpt>
      <trkpt lat="50.46633" lon="5.87233">
        <ele>430.33</ele>
        <time>2010-03-24T14:31:54Z</time>
      </trkpt>
      <trkpt lat="50.46634" lon="5.87228">
        <ele>429.85</ele>
        <time>2010-03-24T14:31:55Z</time>
      </trkpt>
      <trkpt lat="50.46634" lon="5.87224">
        <ele>429.37</ele>
        <time>2010-03-24T14:31:56Z</time>
      </trkpt>
      <trkpt lat="50.46634" lon="5.87221">
        <ele>428.89</ele>
        <time>2010-03-24T14:31:57Z</time>
      </trkpt>
      <trkpt lat="50.46632" lon="5.87217">
        <ele>428.4</ele>
        <time>2010-03-24T14:31:58Z</time>
      </trkpt>
      <trkpt lat="50.46629" lon="5.87214">
        <ele>428.4</ele>
        <time>2010-03-24T14:31:59Z</time>
      </trkpt>
      <trkpt lat="50.46624" lon="5.8721">
        <ele>427.92</ele>
        <time>2010-03-24T14:32:00Z</time>
      </trkpt>
      <trkpt lat="50.46619" lon="5.87206">
        <ele>427.92</ele>
        <time>2010-03-24T14:32:01Z</time>
      </trkpt>
      <trkpt lat="50.46589" lon="5.87171">
        <ele>427.44</ele>
        <time>2010-03-24T14:32:07Z</time>
      </trkpt>
      <trkpt lat="50.46586" lon="5.87164">
        <ele>426.96</ele>
        <time>2010-03-24T14:32:08Z</time>
      </trkpt>
      <trkpt lat="50.46583" lon="5.87158">
        <ele>426.96</ele>
        <time>2010-03-24T14:32:09Z</time>
      </trkpt>
      <trkpt lat="50.46581" lon="5.87151">
        <ele>426.48</ele>
        <time>2010-03-24T14:32:10Z</time>
      </trkpt>
      <trkpt lat="50.4658" lon="5.87144">
        <ele>426.48</ele>
        <time>2010-03-24T14:32:11Z</time>
      </trkpt>
      <trkpt lat="50.46579" lon="5.87138">
        <ele>426.48</ele>
        <time>2010-03-24T14:32:12Z</time>
      </trkpt>
      <trkpt lat="50.4658" lon="5.87132">
        <ele>426</ele>
        <time>2010-03-24T14:32:13Z</time>
      </trkpt>
      <trkpt lat="50.46583" lon="5.87128">
        <ele>425.52</ele>
        <time>2010-03-24T14:32:14Z</time>
      </trkpt>
      <trkpt lat="50.46587" lon="5.87128">
        <ele>425.04</ele>
        <time>2010-03-24T14:32:15Z</time>
      </trkpt>
      <trkpt lat="50.46589" lon="5.8713">
        <ele>425.04</ele>
        <time>2010-03-24T14:32:16Z</time>
      </trkpt>
      <trkpt lat="50.46591" lon="5.87133">
        <ele>424.56</ele>
        <time>2010-03-24T14:32:17Z</time>
      </trkpt>
      <trkpt lat="50.46591" lon="5.87136">
        <ele>424.08</ele>
        <time>2010-03-24T14:32:22Z</time>
      </trkpt>
      <trkpt lat="50.46584" lon="5.8713">
        <ele>415.43</ele>
        <time>2010-03-24T14:33:34Z</time>
      </trkpt>
      <trkpt lat="50.46578" lon="5.87143">
        <ele>416.87</ele>
        <time>2010-03-24T14:33:39Z</time>
      </trkpt>
      <trkpt lat="50.46579" lon="5.87159">
        <ele>417.35</ele>
        <time>2010-03-24T14:33:42Z</time>
      </trkpt>
      <trkpt lat="50.46582" lon="5.87165">
        <ele>418.31</ele>
        <time>2010-03-24T14:33:43Z</time>
      </trkpt>
      <trkpt lat="50.46585" lon="5.87172">
        <ele>418.79</ele>
        <time>2010-03-24T14:33:44Z</time>
      </trkpt>
      <trkpt lat="50.4659" lon="5.87179">
        <ele>420.23</ele>
        <time>2010-03-24T14:33:45Z</time>
      </trkpt>
      <trkpt lat="50.46596" lon="5.87185">
        <ele>421.68</ele>
        <time>2010-03-24T14:33:46Z</time>
      </trkpt>
      <trkpt lat="50.46601" lon="5.87189">
        <ele>422.16</ele>
        <time>2010-03-24T14:33:47Z</time>
      </trkpt>
      <trkpt lat="50.46629" lon="5.87219">
        <ele>424.08</ele>
        <time>2010-03-24T14:33:52Z</time>
      </trkpt>
      <trkpt lat="50.46632" lon="5.87221">
        <ele>424.56</ele>
        <time>2010-03-24T14:33:53Z</time>
      </trkpt>
      <trkpt lat="50.46636" lon="5.87222">
        <ele>425.04</ele>
        <time>2010-03-24T14:33:54Z</time>
      </trkpt>
      <trkpt lat="50.46641" lon="5.87222">
        <ele>425.04</ele>
        <time>2010-03-24T14:33:55Z</time>
      </trkpt>
      <trkpt lat="50.46647" lon="5.87221">
        <ele>425.04</ele>
        <time>2010-03-24T14:33:56Z</time>
      </trkpt>
      <trkpt lat="50.46655" lon="5.87218">
        <ele>425.04</ele>
        <time>2010-03-24T14:33:57Z</time>
      </trkpt>
      <trkpt lat="50.46665" lon="5.87212">
        <ele>424.56</ele>
        <time>2010-03-24T14:33:58Z</time>
      </trkpt>
      <trkpt lat="50.46766" lon="5.8714">
        <ele>423.12</ele>
        <time>2010-03-24T14:34:07Z</time>
      </trkpt>
      <trkpt lat="50.46922" lon="5.87037">
        <ele>415.91</ele>
        <time>2010-03-24T14:34:19Z</time>
      </trkpt>
      <trkpt lat="50.46945" lon="5.87033">
        <ele>414.47</ele>
        <time>2010-03-24T14:34:21Z</time>
      </trkpt>
      <trkpt lat="50.46956" lon="5.87034">
        <ele>413.98</ele>
        <time>2010-03-24T14:34:22Z</time>
      </trkpt>
      <trkpt lat="50.46966" lon="5.87036">
        <ele>413.02</ele>
        <time>2010-03-24T14:34:23Z</time>
      </trkpt>
      <trkpt lat="50.46992" lon="5.87041">
        <ele>411.58</ele>
        <time>2010-03-24T14:34:26Z</time>
      </trkpt>
      <trkpt lat="50.46998" lon="5.87038">
        <ele>411.1</ele>
        <time>2010-03-24T14:34:27Z</time>
      </trkpt>
      <trkpt lat="50.47002" lon="5.87033">
        <ele>410.62</ele>
        <time>2010-03-24T14:34:28Z</time>
      </trkpt>
      <trkpt lat="50.47003" lon="5.87025">
        <ele>409.66</ele>
        <time>2010-03-24T14:34:29Z</time>
      </trkpt>
      <trkpt lat="50.47001" lon="5.87016">
        <ele>409.18</ele>
        <time>2010-03-24T14:34:30Z</time>
      </trkpt>
      <trkpt lat="50.46996" lon="5.87009">
        <ele>408.22</ele>
        <time>2010-03-24T14:34:31Z</time>
      </trkpt>
      <trkpt lat="50.46989" lon="5.87002">
        <ele>408.22</ele>
        <time>2010-03-24T14:34:32Z</time>
      </trkpt>
      <trkpt lat="50.4698" lon="5.86995">
        <ele>407.74</ele>
        <time>2010-03-24T14:34:33Z</time>
      </trkpt>
      <trkpt lat="50.4697" lon="5.86988">
        <ele>407.26</ele>
        <time>2010-03-24T14:34:34Z</time>
      </trkpt>
      <trkpt lat="50.46869" lon="5.86918">
        <ele>401.49</ele>
        <time>2010-03-24T14:34:43Z</time>
      </trkpt>
      <trkpt lat="50.46857" lon="5.86914">
        <ele>400.53</ele>
        <time>2010-03-24T14:34:44Z</time>
      </trkpt>
      <trkpt lat="50.46845" lon="5.86913">
        <ele>400.05</ele>
        <time>2010-03-24T14:34:45Z</time>
      </trkpt>
      <trkpt lat="50.46833" lon="5.86914">
        <ele>400.05</ele>
        <time>2010-03-24T14:34:46Z</time>
      </trkpt>
      <trkpt lat="50.46822" lon="5.86916">
        <ele>399.57</ele>
        <time>2010-03-24T14:34:47Z</time>
      </trkpt>
      <trkpt lat="50.46812" lon="5.86919">
        <ele>399.08</ele>
        <time>2010-03-24T14:34:48Z</time>
      </trkpt>
      <trkpt lat="50.46804" lon="5.86921">
        <ele>398.6</ele>
        <time>2010-03-24T14:34:49Z</time>
      </trkpt>
      <trkpt lat="50.46797" lon="5.86923">
        <ele>398.12</ele>
        <time>2010-03-24T14:34:50Z</time>
      </trkpt>
      <trkpt lat="50.4679" lon="5.86921">
        <ele>397.64</ele>
        <time>2010-03-24T14:34:51Z</time>
      </trkpt>
      <trkpt lat="50.46785" lon="5.86916">
        <ele>397.64</ele>
        <time>2010-03-24T14:34:52Z</time>
      </trkpt>
      <trkpt lat="50.46782" lon="5.86909">
        <ele>397.16</ele>
        <time>2010-03-24T14:34:53Z</time>
      </trkpt>
      <trkpt lat="50.46781" lon="5.86899">
        <ele>396.2</ele>
        <time>2010-03-24T14:34:54Z</time>
      </trkpt>
      <trkpt lat="50.46783" lon="5.8689">
        <ele>395.24</ele>
        <time>2010-03-24T14:34:55Z</time>
      </trkpt>
      <trkpt lat="50.46789" lon="5.86886">
        <ele>395.24</ele>
        <time>2010-03-24T14:34:56Z</time>
      </trkpt>
      <trkpt lat="50.46797" lon="5.86881">
        <ele>394.76</ele>
        <time>2010-03-24T14:34:57Z</time>
      </trkpt>
      <trkpt lat="50.46806" lon="5.86878">
        <ele>395.24</ele>
        <time>2010-03-24T14:34:58Z</time>
      </trkpt>
      <trkpt lat="50.46816" lon="5.86877">
        <ele>395.72</ele>
        <time>2010-03-24T14:34:59Z</time>
      </trkpt>
      <trkpt lat="50.46827" lon="5.86877">
        <ele>396.68</ele>
        <time>2010-03-24T14:35:00Z</time>
      </trkpt>
      <trkpt lat="50.4684" lon="5.86877">
        <ele>397.64</ele>
        <time>2010-03-24T14:35:01Z</time>
      </trkpt>
      <trkpt lat="50.46854" lon="5.86878">
        <ele>397.64</ele>
        <time>2010-03-24T14:35:02Z</time>
      </trkpt>
      <trkpt lat="50.46867" lon="5.8688">
        <ele>396.68</ele>
        <time>2010-03-24T14:35:03Z</time>
      </trkpt>
      <trkpt lat="50.4699" lon="5.86864">
        <ele>388.03</ele>
        <time>2010-03-24T14:35:12Z</time>
      </trkpt>
      <trkpt lat="50.47087" lon="5.86816">
        <ele>381.3</ele>
        <time>2010-03-24T14:35:19Z</time>
      </trkpt>
      <trkpt lat="50.47101" lon="5.86813">
        <ele>380.34</ele>
        <time>2010-03-24T14:35:20Z</time>
      </trkpt>
      <trkpt lat="50.47116" lon="5.86814">
        <ele>378.9</ele>
        <time>2010-03-24T14:35:21Z</time>
      </trkpt>
      <trkpt lat="50.47132" lon="5.86817">
        <ele>376.97</ele>
        <time>2010-03-24T14:35:22Z</time>
      </trkpt>
      <trkpt lat="50.47148" lon="5.86822">
        <ele>375.05</ele>
        <time>2010-03-24T14:35:23Z</time>
      </trkpt>
      <trkpt lat="50.4736" lon="5.86888">
        <ele>358.71</ele>
        <time>2010-03-24T14:35:36Z</time>
      </trkpt>
      <trkpt lat="50.47448" lon="5.86916">
        <ele>351.98</ele>
        <time>2010-03-24T14:35:42Z</time>
      </trkpt>
      <trkpt lat="50.47462" lon="5.86909">
        <ele>351.02</ele>
        <time>2010-03-24T14:35:43Z</time>
      </trkpt>
      <trkpt lat="50.47476" lon="5.86901">
        <ele>349.58</ele>
        <time>2010-03-24T14:35:44Z</time>
      </trkpt>
      <trkpt lat="50.47604" lon="5.8684">
        <ele>341.89</ele>
        <time>2010-03-24T14:35:53Z</time>
      </trkpt>
      <trkpt lat="50.47636" lon="5.86817">
        <ele>335.64</ele>
        <time>2010-03-24T14:35:57Z</time>
      </trkpt>
      <trkpt lat="50.47636" lon="5.86808">
        <ele>333.71</ele>
        <time>2010-03-24T14:35:58Z</time>
      </trkpt>
      <trkpt lat="50.47632" lon="5.86791">
        <ele>334.2</ele>
        <time>2010-03-24T14:35:59Z</time>
      </trkpt>
      <trkpt lat="50.47627" lon="5.86781">
        <ele>333.71</ele>
        <time>2010-03-24T14:36:00Z</time>
      </trkpt>
      <trkpt lat="50.47622" lon="5.86772">
        <ele>333.23</ele>
        <time>2010-03-24T14:36:01Z</time>
      </trkpt>
      <trkpt lat="50.47616" lon="5.86766">
        <ele>330.83</ele>
        <time>2010-03-24T14:36:02Z</time>
      </trkpt>
      <trkpt lat="50.47596" lon="5.86759">
        <ele>325.54</ele>
        <time>2010-03-24T14:36:03Z</time>
      </trkpt>
      <trkpt lat="50.47583" lon="5.86751">
        <ele>322.66</ele>
        <time>2010-03-24T14:36:04Z</time>
      </trkpt>
      <trkpt lat="50.47568" lon="5.86736">
        <ele>322.18</ele>
        <time>2010-03-24T14:36:05Z</time>
      </trkpt>
      <trkpt lat="50.47518" lon="5.86679">
        <ele>321.22</ele>
        <time>2010-03-24T14:36:09Z</time>
      </trkpt>
      <trkpt lat="50.47506" lon="5.86659">
        <ele>320.26</ele>
        <time>2010-03-24T14:36:10Z</time>
      </trkpt>
      <trkpt lat="50.47409" lon="5.86486">
        <ele>308.72</ele>
        <time>2010-03-24T14:36:19Z</time>
      </trkpt>
      <trkpt lat="50.47396" lon="5.86457">
        <ele>308.24</ele>
        <time>2010-03-24T14:36:21Z</time>
      </trkpt>
      <trkpt lat="50.47392" lon="5.8644">
        <ele>307.76</ele>
        <time>2010-03-24T14:36:22Z</time>
      </trkpt>
      <trkpt lat="50.47391" lon="5.86422">
        <ele>306.8</ele>
        <time>2010-03-24T14:36:23Z</time>
      </trkpt>
      <trkpt lat="50.47394" lon="5.86404">
        <ele>305.36</ele>
        <time>2010-03-24T14:36:24Z</time>
      </trkpt>
      <trkpt lat="50.47399" lon="5.86387">
        <ele>304.88</ele>
        <time>2010-03-24T14:36:25Z</time>
      </trkpt>
      <trkpt lat="50.47407" lon="5.86371">
        <ele>304.39</ele>
        <time>2010-03-24T14:36:26Z</time>
      </trkpt>
      <trkpt lat="50.47415" lon="5.86355">
        <ele>304.88</ele>
        <time>2010-03-24T14:36:27Z</time>
      </trkpt>
      <trkpt lat="50.47424" lon="5.8634">
        <ele>304.88</ele>
        <time>2010-03-24T14:36:28Z</time>
      </trkpt>
      <trkpt lat="50.47434" lon="5.86329">
        <ele>306.32</ele>
        <time>2010-03-24T14:36:29Z</time>
      </trkpt>
      <trkpt lat="50.47457" lon="5.86307">
        <ele>311.12</ele>
        <time>2010-03-24T14:36:31Z</time>
      </trkpt>
      <trkpt lat="50.47473" lon="5.86294">
        <ele>312.57</ele>
        <time>2010-03-24T14:36:32Z</time>
      </trkpt>
      <trkpt lat="50.47587" lon="5.86193">
        <ele>305.84</ele>
        <time>2010-03-24T14:36:40Z</time>
      </trkpt>
      <trkpt lat="50.47602" lon="5.86185">
        <ele>304.39</ele>
        <time>2010-03-24T14:36:41Z</time>
      </trkpt>
      <trkpt lat="50.47618" lon="5.86183">
        <ele>302.95</ele>
        <time>2010-03-24T14:36:42Z</time>
      </trkpt>
      <trkpt lat="50.47637" lon="5.86186">
        <ele>301.51</ele>
        <time>2010-03-24T14:36:43Z</time>
      </trkpt>
      <trkpt lat="50.47654" lon="5.8619">
        <ele>301.03</ele>
        <time>2010-03-24T14:36:44Z</time>
      </trkpt>
      <trkpt lat="50.47672" lon="5.86192">
        <ele>300.07</ele>
        <time>2010-03-24T14:36:45Z</time>
      </trkpt>
      <trkpt lat="50.4785" lon="5.86188">
        <ele>295.74</ele>
        <time>2010-03-24T14:36:56Z</time>
      </trkpt>
      <trkpt lat="50.47864" lon="5.86179">
        <ele>294.78</ele>
        <time>2010-03-24T14:36:57Z</time>
      </trkpt>
      <trkpt lat="50.47877" lon="5.86166">
        <ele>294.3</ele>
        <time>2010-03-24T14:36:58Z</time>
      </trkpt>
      <trkpt lat="50.4792" lon="5.86123">
        <ele>293.82</ele>
        <time>2010-03-24T14:37:02Z</time>
      </trkpt>
      <trkpt lat="50.47926" lon="5.86119">
        <ele>292.86</ele>
        <time>2010-03-24T14:37:03Z</time>
      </trkpt>
      <trkpt lat="50.47952" lon="5.86101">
        <ele>291.9</ele>
        <time>2010-03-24T14:37:09Z</time>
      </trkpt>
      <trkpt lat="50.4802" lon="5.86063">
        <ele>289.49</ele>
        <time>2010-03-24T14:37:16Z</time>
      </trkpt>
      <trkpt lat="50.48031" lon="5.8606">
        <ele>288.53</ele>
        <time>2010-03-24T14:37:17Z</time>
      </trkpt>
      <trkpt lat="50.48133" lon="5.86023">
        <ele>280.84</ele>
        <time>2010-03-24T14:37:25Z</time>
      </trkpt>
      <trkpt lat="50.48239" lon="5.85974">
        <ele>271.71</ele>
        <time>2010-03-24T14:37:33Z</time>
      </trkpt>
      <trkpt lat="50.48252" lon="5.85972">
        <ele>271.23</ele>
        <time>2010-03-24T14:37:34Z</time>
      </trkpt>
      <trkpt lat="50.48266" lon="5.85973">
        <ele>270.27</ele>
        <time>2010-03-24T14:37:35Z</time>
      </trkpt>
      <trkpt lat="50.48432" lon="5.85997">
        <ele>263.06</ele>
        <time>2010-03-24T14:37:46Z</time>
      </trkpt>
      <trkpt lat="50.48616" lon="5.86047">
        <ele>259.21</ele>
        <time>2010-03-24T14:37:58Z</time>
      </trkpt>
      <trkpt lat="50.48717" lon="5.86095">
        <ele>255.85</ele>
        <time>2010-03-24T14:38:08Z</time>
      </trkpt>
      <trkpt lat="50.4881" lon="5.86171">
        <ele>253.93</ele>
        <time>2010-03-24T14:38:18Z</time>
      </trkpt>
      <trkpt lat="50.48887" lon="5.86255">
        <ele>252</ele>
        <time>2010-03-24T14:38:28Z</time>
      </trkpt>
      <trkpt lat="50.48894" lon="5.86259">
        <ele>252</ele>
        <time>2010-03-24T14:38:29Z</time>
      </trkpt>
      <trkpt lat="50.48976" lon="5.86311">
        <ele>253.93</ele>
        <time>2010-03-24T14:38:41Z</time>
      </trkpt>
      <trkpt lat="50.49033" lon="5.86336">
        <ele>252</ele>
        <time>2010-03-24T14:38:52Z</time>
      </trkpt>
      <trkpt lat="50.49055" lon="5.86342">
        <ele>253.93</ele>
        <time>2010-03-24T14:39:01Z</time>
      </trkpt>
      <trkpt lat="50.49098" lon="5.86332">
        <ele>253.44</ele>
        <time>2010-03-24T14:39:14Z</time>
      </trkpt>
      <trkpt lat="50.49134" lon="5.86293">
        <ele>250.56</ele>
        <time>2010-03-24T14:39:27Z</time>
      </trkpt>
      <trkpt lat="50.49138" lon="5.86284">
        <ele>252.48</ele>
        <time>2010-03-24T14:39:29Z</time>
      </trkpt>
      <trkpt lat="50.49138" lon="5.86281">
        <ele>252</ele>
        <time>2010-03-24T14:39:30Z</time>
      </trkpt>
      <trkpt lat="50.49138" lon="5.86279">
        <ele>251.04</ele>
        <time>2010-03-24T14:39:39Z</time>
      </trkpt>
      <trkpt lat="50.4915" lon="5.86269">
        <ele>272.67</ele>
        <time>2010-03-24T14:57:14Z</time>
      </trkpt>
      <trkpt lat="50.49178" lon="5.86245">
        <ele>263.54</ele>
        <time>2010-03-24T14:57:22Z</time>
      </trkpt>
      <trkpt lat="50.49181" lon="5.86249">
        <ele>262.1</ele>
        <time>2010-03-24T14:57:23Z</time>
      </trkpt>
      <trkpt lat="50.49185" lon="5.86253">
        <ele>260.17</ele>
        <time>2010-03-24T14:57:24Z</time>
      </trkpt>
      <trkpt lat="50.49221" lon="5.86302">
        <ele>252.48</ele>
        <time>2010-03-24T14:57:35Z</time>
      </trkpt>
      <trkpt lat="50.49223" lon="5.86304">
        <ele>243.83</ele>
        <time>2010-03-24T14:57:59Z</time>
      </trkpt>
      <trkpt lat="50.49226" lon="5.86304">
        <ele>243.35</ele>
        <time>2010-03-24T14:58:00Z</time>
      </trkpt>
      <trkpt lat="50.4923" lon="5.86302">
        <ele>242.87</ele>
        <time>2010-03-24T14:58:01Z</time>
      </trkpt>
      <trkpt lat="50.49232" lon="5.86298">
        <ele>242.39</ele>
        <time>2010-03-24T14:58:02Z</time>
      </trkpt>
      <trkpt lat="50.49235" lon="5.86292">
        <ele>242.87</ele>
        <time>2010-03-24T14:58:03Z</time>
      </trkpt>
      <trkpt lat="50.49236" lon="5.86286">
        <ele>242.39</ele>
        <time>2010-03-24T14:58:04Z</time>
      </trkpt>
      <trkpt lat="50.49236" lon="5.86279">
        <ele>242.87</ele>
        <time>2010-03-24T14:58:05Z</time>
      </trkpt>
      <trkpt lat="50.49236" lon="5.86273">
        <ele>243.35</ele>
        <time>2010-03-24T14:58:06Z</time>
      </trkpt>
      <trkpt lat="50.49235" lon="5.86267">
        <ele>243.83</ele>
        <time>2010-03-24T14:58:07Z</time>
      </trkpt>
      <trkpt lat="50.49234" lon="5.86253">
        <ele>244.79</ele>
        <time>2010-03-24T14:58:17Z</time>
      </trkpt>
      <trkpt lat="50.49232" lon="5.86216">
        <ele>244.79</ele>
        <time>2010-03-24T14:58:23Z</time>
      </trkpt>
      <trkpt lat="50.49219" lon="5.86108">
        <ele>245.75</ele>
        <time>2010-03-24T14:58:31Z</time>
      </trkpt>
      <trkpt lat="50.49193" lon="5.85907">
        <ele>243.35</ele>
        <time>2010-03-24T14:58:44Z</time>
      </trkpt>
      <trkpt lat="50.49179" lon="5.85798">
        <ele>241.43</ele>
        <time>2010-03-24T14:58:53Z</time>
      </trkpt>
      <trkpt lat="50.49179" lon="5.85796">
        <ele>239.99</ele>
        <time>2010-03-24T14:59:03Z</time>
      </trkpt>
      <trkpt lat="50.49174" lon="5.8576">
        <ele>239.02</ele>
        <time>2010-03-24T14:59:13Z</time>
      </trkpt>
      <trkpt lat="50.49155" lon="5.8563">
        <ele>238.06</ele>
        <time>2010-03-24T14:59:21Z</time>
      </trkpt>
      <trkpt lat="50.49108" lon="5.8532">
        <ele>233.74</ele>
        <time>2010-03-24T14:59:37Z</time>
      </trkpt>
      <trkpt lat="50.49075" lon="5.85097">
        <ele>230.85</ele>
        <time>2010-03-24T14:59:50Z</time>
      </trkpt>
      <trkpt lat="50.49043" lon="5.84878">
        <ele>228.45</ele>
        <time>2010-03-24T15:00:02Z</time>
      </trkpt>
      <trkpt lat="50.49013" lon="5.84681">
        <ele>227.01</ele>
        <time>2010-03-24T15:00:14Z</time>
      </trkpt>
      <trkpt lat="50.48981" lon="5.84466">
        <ele>225.09</ele>
        <time>2010-03-24T15:00:28Z</time>
      </trkpt>
      <trkpt lat="50.48961" lon="5.84329">
        <ele>223.16</ele>
        <time>2010-03-24T15:00:38Z</time>
      </trkpt>
      <trkpt lat="50.48932" lon="5.84136">
        <ele>221.72</ele>
        <time>2010-03-24T15:00:46Z</time>
      </trkpt>
      <trkpt lat="50.4887" lon="5.83718">
        <ele>218.84</ele>
        <time>2010-03-24T15:01:01Z</time>
      </trkpt>
      <trkpt lat="50.48845" lon="5.83527">
        <ele>217.4</ele>
        <time>2010-03-24T15:01:08Z</time>
      </trkpt>
      <trkpt lat="50.48846" lon="5.83501">
        <ele>216.91</ele>
        <time>2010-03-24T15:01:09Z</time>
      </trkpt>
      <trkpt lat="50.48848" lon="5.83474">
        <ele>216.43</ele>
        <time>2010-03-24T15:01:10Z</time>
      </trkpt>
      <trkpt lat="50.4889" lon="5.83213">
        <ele>211.15</ele>
        <time>2010-03-24T15:01:20Z</time>
      </trkpt>
      <trkpt lat="50.48899" lon="5.83191">
        <ele>210.19</ele>
        <time>2010-03-24T15:01:21Z</time>
      </trkpt>
      <trkpt lat="50.48909" lon="5.8317">
        <ele>210.19</ele>
        <time>2010-03-24T15:01:22Z</time>
      </trkpt>
      <trkpt lat="50.48921" lon="5.83151">
        <ele>209.7</ele>
        <time>2010-03-24T15:01:23Z</time>
      </trkpt>
      <trkpt lat="50.48933" lon="5.83134">
        <ele>209.22</ele>
        <time>2010-03-24T15:01:24Z</time>
      </trkpt>
      <trkpt lat="50.48945" lon="5.83118">
        <ele>209.22</ele>
        <time>2010-03-24T15:01:25Z</time>
      </trkpt>
      <trkpt lat="50.48959" lon="5.83104">
        <ele>208.74</ele>
        <time>2010-03-24T15:01:26Z</time>
      </trkpt>
      <trkpt lat="50.48972" lon="5.83093">
        <ele>208.26</ele>
        <time>2010-03-24T15:01:27Z</time>
      </trkpt>
      <trkpt lat="50.48986" lon="5.83084">
        <ele>207.78</ele>
        <time>2010-03-24T15:01:28Z</time>
      </trkpt>
      <trkpt lat="50.48998" lon="5.83079">
        <ele>208.26</ele>
        <time>2010-03-24T15:01:29Z</time>
      </trkpt>
      <trkpt lat="50.49009" lon="5.83075">
        <ele>208.74</ele>
        <time>2010-03-24T15:01:30Z</time>
      </trkpt>
      <trkpt lat="50.49018" lon="5.83073">
        <ele>209.22</ele>
        <time>2010-03-24T15:01:31Z</time>
      </trkpt>
      <trkpt lat="50.49034" lon="5.83072">
        <ele>210.67</ele>
        <time>2010-03-24T15:01:37Z</time>
      </trkpt>
      <trkpt lat="50.49039" lon="5.83068">
        <ele>211.15</ele>
        <time>2010-03-24T15:01:42Z</time>
      </trkpt>
      <trkpt lat="50.4904" lon="5.83062">
        <ele>211.15</ele>
        <time>2010-03-24T15:01:43Z</time>
      </trkpt>
      <trkpt lat="50.4904" lon="5.83055">
        <ele>211.15</ele>
        <time>2010-03-24T15:01:44Z</time>
      </trkpt>
      <trkpt lat="50.49038" lon="5.83046">
        <ele>211.15</ele>
        <time>2010-03-24T15:01:45Z</time>
      </trkpt>
      <trkpt lat="50.49033" lon="5.83038">
        <ele>211.15</ele>
        <time>2010-03-24T15:01:46Z</time>
      </trkpt>
      <trkpt lat="50.49026" lon="5.83029">
        <ele>211.63</ele>
        <time>2010-03-24T15:01:47Z</time>
      </trkpt>
      <trkpt lat="50.49017" lon="5.83018">
        <ele>211.63</ele>
        <time>2010-03-24T15:01:48Z</time>
      </trkpt>
      <trkpt lat="50.49009" lon="5.83006">
        <ele>212.11</ele>
        <time>2010-03-24T15:01:49Z</time>
      </trkpt>
      <trkpt lat="50.49002" lon="5.82993">
        <ele>212.11</ele>
        <time>2010-03-24T15:01:50Z</time>
      </trkpt>
      <trkpt lat="50.48986" lon="5.82967">
        <ele>213.07</ele>
        <time>2010-03-24T15:01:52Z</time>
      </trkpt>
      <trkpt lat="50.48975" lon="5.82955">
        <ele>213.07</ele>
        <time>2010-03-24T15:01:53Z</time>
      </trkpt>
      <trkpt lat="50.48964" lon="5.82944">
        <ele>213.55</ele>
        <time>2010-03-24T15:01:54Z</time>
      </trkpt>
      <trkpt lat="50.4883" lon="5.82849">
        <ele>217.4</ele>
        <time>2010-03-24T15:02:04Z</time>
      </trkpt>
      <trkpt lat="50.48815" lon="5.82844">
        <ele>217.4</ele>
        <time>2010-03-24T15:02:05Z</time>
      </trkpt>
      <trkpt lat="50.488" lon="5.82841">
        <ele>217.88</ele>
        <time>2010-03-24T15:02:06Z</time>
      </trkpt>
      <trkpt lat="50.48785" lon="5.82841">
        <ele>218.36</ele>
        <time>2010-03-24T15:02:07Z</time>
      </trkpt>
      <trkpt lat="50.4877" lon="5.82843">
        <ele>218.84</ele>
        <time>2010-03-24T15:02:08Z</time>
      </trkpt>
      <trkpt lat="50.48756" lon="5.82846">
        <ele>219.32</ele>
        <time>2010-03-24T15:02:09Z</time>
      </trkpt>
      <trkpt lat="50.48667" lon="5.82871">
        <ele>222.68</ele>
        <time>2010-03-24T15:02:17Z</time>
      </trkpt>
      <trkpt lat="50.48661" lon="5.82873">
        <ele>223.16</ele>
        <time>2010-03-24T15:02:18Z</time>
      </trkpt>
      <trkpt lat="50.48655" lon="5.82872">
        <ele>223.64</ele>
        <time>2010-03-24T15:02:19Z</time>
      </trkpt>
      <trkpt lat="50.48652" lon="5.82868">
        <ele>224.12</ele>
        <time>2010-03-24T15:02:20Z</time>
      </trkpt>
      <trkpt lat="50.4865" lon="5.82861">
        <ele>224.61</ele>
        <time>2010-03-24T15:02:21Z</time>
      </trkpt>
      <trkpt lat="50.48653" lon="5.82855">
        <ele>225.09</ele>
        <time>2010-03-24T15:02:22Z</time>
      </trkpt>
      <trkpt lat="50.48657" lon="5.8285">
        <ele>225.57</ele>
        <time>2010-03-24T15:02:23Z</time>
      </trkpt>
      <trkpt lat="50.48664" lon="5.82846">
        <ele>226.05</ele>
        <time>2010-03-24T15:02:24Z</time>
      </trkpt>
      <trkpt lat="50.48734" lon="5.828">
        <ele>229.89</ele>
        <time>2010-03-24T15:02:30Z</time>
      </trkpt>
      <trkpt lat="50.48787" lon="5.82766">
        <ele>232.78</ele>
        <time>2010-03-24T15:02:34Z</time>
      </trkpt>
      <trkpt lat="50.48801" lon="5.82762">
        <ele>233.26</ele>
        <time>2010-03-24T15:02:35Z</time>
      </trkpt>
      <trkpt lat="50.48815" lon="5.82761">
        <ele>233.74</ele>
        <time>2010-03-24T15:02:36Z</time>
      </trkpt>
      <trkpt lat="50.48829" lon="5.82764">
        <ele>235.18</ele>
        <time>2010-03-24T15:02:37Z</time>
      </trkpt>
      <trkpt lat="50.48842" lon="5.82769">
        <ele>236.62</ele>
        <time>2010-03-24T15:02:38Z</time>
      </trkpt>
      <trkpt lat="50.48854" lon="5.82774">
        <ele>238.06</ele>
        <time>2010-03-24T15:02:39Z</time>
      </trkpt>
      <trkpt lat="50.48885" lon="5.82784">
        <ele>240.95</ele>
        <time>2010-03-24T15:02:42Z</time>
      </trkpt>
      <trkpt lat="50.48897" lon="5.82775">
        <ele>242.87</ele>
        <time>2010-03-24T15:02:44Z</time>
      </trkpt>
      <trkpt lat="50.489" lon="5.82765">
        <ele>243.83</ele>
        <time>2010-03-24T15:02:45Z</time>
      </trkpt>
      <trkpt lat="50.48902" lon="5.82754">
        <ele>246.23</ele>
        <time>2010-03-24T15:02:46Z</time>
      </trkpt>
      <trkpt lat="50.48904" lon="5.82744">
        <ele>245.75</ele>
        <time>2010-03-24T15:02:47Z</time>
      </trkpt>
      <trkpt lat="50.48906" lon="5.82733">
        <ele>245.27</ele>
        <time>2010-03-24T15:02:48Z</time>
      </trkpt>
      <trkpt lat="50.4891" lon="5.82721">
        <ele>245.75</ele>
        <time>2010-03-24T15:02:49Z</time>
      </trkpt>
      <trkpt lat="50.48915" lon="5.82712">
        <ele>246.72</ele>
        <time>2010-03-24T15:02:50Z</time>
      </trkpt>
      <trkpt lat="50.48922" lon="5.82708">
        <ele>247.68</ele>
        <time>2010-03-24T15:02:51Z</time>
      </trkpt>
      <trkpt lat="50.4893" lon="5.82711">
        <ele>247.68</ele>
        <time>2010-03-24T15:02:52Z</time>
      </trkpt>
      <trkpt lat="50.48935" lon="5.82718">
        <ele>248.64</ele>
        <time>2010-03-24T15:02:53Z</time>
      </trkpt>
      <trkpt lat="50.4894" lon="5.82727">
        <ele>248.64</ele>
        <time>2010-03-24T15:02:54Z</time>
      </trkpt>
      <trkpt lat="50.48946" lon="5.82738">
        <ele>248.16</ele>
        <time>2010-03-24T15:02:55Z</time>
      </trkpt>
      <trkpt lat="50.48956" lon="5.82745">
        <ele>248.64</ele>
        <time>2010-03-24T15:02:56Z</time>
      </trkpt>
      <trkpt lat="50.48966" lon="5.82744">
        <ele>248.16</ele>
        <time>2010-03-24T15:02:57Z</time>
      </trkpt>
      <trkpt lat="50.48976" lon="5.82736">
        <ele>248.64</ele>
        <time>2010-03-24T15:02:58Z</time>
      </trkpt>
      <trkpt lat="50.48984" lon="5.82723">
        <ele>248.64</ele>
        <time>2010-03-24T15:02:59Z</time>
      </trkpt>
      <trkpt lat="50.48989" lon="5.82712">
        <ele>247.68</ele>
        <time>2010-03-24T15:03:00Z</time>
      </trkpt>
      <trkpt lat="50.48991" lon="5.82695">
        <ele>246.72</ele>
        <time>2010-03-24T15:03:01Z</time>
      </trkpt>
      <trkpt lat="50.48989" lon="5.82672">
        <ele>249.12</ele>
        <time>2010-03-24T15:03:02Z</time>
      </trkpt>
      <trkpt lat="50.48986" lon="5.82651">
        <ele>249.6</ele>
        <time>2010-03-24T15:03:03Z</time>
      </trkpt>
      <trkpt lat="50.48982" lon="5.82629">
        <ele>252</ele>
        <time>2010-03-24T15:03:04Z</time>
      </trkpt>
      <trkpt lat="50.4896" lon="5.82487">
        <ele>258.25</ele>
        <time>2010-03-24T15:03:10Z</time>
      </trkpt>
      <trkpt lat="50.48952" lon="5.82466">
        <ele>259.21</ele>
        <time>2010-03-24T15:03:11Z</time>
      </trkpt>
      <trkpt lat="50.4894" lon="5.82448">
        <ele>260.17</ele>
        <time>2010-03-24T15:03:12Z</time>
      </trkpt>
      <trkpt lat="50.48926" lon="5.82434">
        <ele>261.14</ele>
        <time>2010-03-24T15:03:13Z</time>
      </trkpt>
      <trkpt lat="50.4891" lon="5.82423">
        <ele>262.1</ele>
        <time>2010-03-24T15:03:14Z</time>
      </trkpt>
      <trkpt lat="50.48893" lon="5.82413">
        <ele>263.06</ele>
        <time>2010-03-24T15:03:15Z</time>
      </trkpt>
      <trkpt lat="50.48787" lon="5.82348">
        <ele>268.83</ele>
        <time>2010-03-24T15:03:22Z</time>
      </trkpt>
      <trkpt lat="50.48787" lon="5.82348">
        <ele>268.83</ele>
        <time>2010-03-24T15:03:22Z</time>
      </trkpt>
      <trkpt lat="50.48777" lon="5.82331">
        <ele>269.79</ele>
        <time>2010-03-24T15:03:23Z</time>
      </trkpt>
      <trkpt lat="50.4877" lon="5.82311">
        <ele>270.27</ele>
        <time>2010-03-24T15:03:24Z</time>
      </trkpt>
      <trkpt lat="50.48766" lon="5.82288">
        <ele>271.23</ele>
        <time>2010-03-24T15:03:25Z</time>
      </trkpt>
      <trkpt lat="50.48767" lon="5.82263">
        <ele>272.19</ele>
        <time>2010-03-24T15:03:26Z</time>
      </trkpt>
      <trkpt lat="50.48768" lon="5.82238">
        <ele>273.63</ele>
        <time>2010-03-24T15:03:27Z</time>
      </trkpt>
      <trkpt lat="50.48773" lon="5.82051">
        <ele>281.8</ele>
        <time>2010-03-24T15:03:34Z</time>
      </trkpt>
      <trkpt lat="50.48781" lon="5.82028">
        <ele>283.25</ele>
        <time>2010-03-24T15:03:35Z</time>
      </trkpt>
      <trkpt lat="50.48794" lon="5.8201">
        <ele>284.21</ele>
        <time>2010-03-24T15:03:36Z</time>
      </trkpt>
      <trkpt lat="50.48809" lon="5.81994">
        <ele>285.65</ele>
        <time>2010-03-24T15:03:37Z</time>
      </trkpt>
      <trkpt lat="50.48824" lon="5.8198">
        <ele>286.61</ele>
        <time>2010-03-24T15:03:38Z</time>
      </trkpt>
      <trkpt lat="50.48991" lon="5.81821">
        <ele>300.07</ele>
        <time>2010-03-24T15:03:48Z</time>
      </trkpt>
      <trkpt lat="50.49008" lon="5.81815">
        <ele>301.03</ele>
        <time>2010-03-24T15:03:49Z</time>
      </trkpt>
      <trkpt lat="50.49026" lon="5.81815">
        <ele>302.47</ele>
        <time>2010-03-24T15:03:50Z</time>
      </trkpt>
      <trkpt lat="50.49045" lon="5.81823">
        <ele>303.43</ele>
        <time>2010-03-24T15:03:51Z</time>
      </trkpt>
      <trkpt lat="50.49063" lon="5.81837">
        <ele>304.88</ele>
        <time>2010-03-24T15:03:52Z</time>
      </trkpt>
      <trkpt lat="50.49081" lon="5.81854">
        <ele>305.84</ele>
        <time>2010-03-24T15:03:53Z</time>
      </trkpt>
      <trkpt lat="50.49113" lon="5.81889">
        <ele>307.76</ele>
        <time>2010-03-24T15:03:55Z</time>
      </trkpt>
      <trkpt lat="50.49163" lon="5.81937">
        <ele>311.12</ele>
        <time>2010-03-24T15:04:00Z</time>
      </trkpt>
      <trkpt lat="50.49169" lon="5.81926">
        <ele>311.6</ele>
        <time>2010-03-24T15:04:02Z</time>
      </trkpt>
      <trkpt lat="50.49167" lon="5.81917">
        <ele>312.09</ele>
        <time>2010-03-24T15:04:03Z</time>
      </trkpt>
      <trkpt lat="50.49163" lon="5.81906">
        <ele>312.57</ele>
        <time>2010-03-24T15:04:04Z</time>
      </trkpt>
      <trkpt lat="50.49157" lon="5.81895">
        <ele>313.53</ele>
        <time>2010-03-24T15:04:05Z</time>
      </trkpt>
      <trkpt lat="50.49135" lon="5.81844">
        <ele>315.45</ele>
        <time>2010-03-24T15:04:08Z</time>
      </trkpt>
      <trkpt lat="50.49076" lon="5.81685">
        <ele>322.18</ele>
        <time>2010-03-24T15:04:15Z</time>
      </trkpt>
      <trkpt lat="50.4896" lon="5.8154">
        <ele>333.23</ele>
        <time>2010-03-24T15:04:22Z</time>
      </trkpt>
      <trkpt lat="50.48911" lon="5.81463">
        <ele>337.56</ele>
        <time>2010-03-24T15:04:25Z</time>
      </trkpt>
      <trkpt lat="50.489" lon="5.8143">
        <ele>339.48</ele>
        <time>2010-03-24T15:04:26Z</time>
      </trkpt>
      <trkpt lat="50.48818" lon="5.81145">
        <ele>352.94</ele>
        <time>2010-03-24T15:04:35Z</time>
      </trkpt>
      <trkpt lat="50.48815" lon="5.81115">
        <ele>353.9</ele>
        <time>2010-03-24T15:04:36Z</time>
      </trkpt>
      <trkpt lat="50.48816" lon="5.81085">
        <ele>355.34</ele>
        <time>2010-03-24T15:04:37Z</time>
      </trkpt>
      <trkpt lat="50.48821" lon="5.81055">
        <ele>356.31</ele>
        <time>2010-03-24T15:04:38Z</time>
      </trkpt>
      <trkpt lat="50.48829" lon="5.81025">
        <ele>357.75</ele>
        <time>2010-03-24T15:04:39Z</time>
      </trkpt>
      <trkpt lat="50.48839" lon="5.80997">
        <ele>358.71</ele>
        <time>2010-03-24T15:04:40Z</time>
      </trkpt>
      <trkpt lat="50.48849" lon="5.8097">
        <ele>360.15</ele>
        <time>2010-03-24T15:04:41Z</time>
      </trkpt>
      <trkpt lat="50.48887" lon="5.80885">
        <ele>365.44</ele>
        <time>2010-03-24T15:04:45Z</time>
      </trkpt>
      <trkpt lat="50.48896" lon="5.80872">
        <ele>365.92</ele>
        <time>2010-03-24T15:04:46Z</time>
      </trkpt>
      <trkpt lat="50.48907" lon="5.80862">
        <ele>365.92</ele>
        <time>2010-03-24T15:04:47Z</time>
      </trkpt>
      <trkpt lat="50.48918" lon="5.80855">
        <ele>365.44</ele>
        <time>2010-03-24T15:04:48Z</time>
      </trkpt>
      <trkpt lat="50.4893" lon="5.80849">
        <ele>364.96</ele>
        <time>2010-03-24T15:04:49Z</time>
      </trkpt>
      <trkpt lat="50.4894" lon="5.80839">
        <ele>365.44</ele>
        <time>2010-03-24T15:04:50Z</time>
      </trkpt>
      <trkpt lat="50.48949" lon="5.80824">
        <ele>364.96</ele>
        <time>2010-03-24T15:04:51Z</time>
      </trkpt>
      <trkpt lat="50.48954" lon="5.80806">
        <ele>364.48</ele>
        <time>2010-03-24T15:04:52Z</time>
      </trkpt>
      <trkpt lat="50.48957" lon="5.80785">
        <ele>364</ele>
        <time>2010-03-24T15:04:53Z</time>
      </trkpt>
      <trkpt lat="50.48957" lon="5.80763">
        <ele>363.04</ele>
        <time>2010-03-24T15:04:54Z</time>
      </trkpt>
      <trkpt lat="50.48954" lon="5.80738">
        <ele>362.07</ele>
        <time>2010-03-24T15:04:55Z</time>
      </trkpt>
      <trkpt lat="50.48949" lon="5.80712">
        <ele>361.11</ele>
        <time>2010-03-24T15:04:56Z</time>
      </trkpt>
      <trkpt lat="50.48906" lon="5.80442">
        <ele>352.94</ele>
        <time>2010-03-24T15:05:05Z</time>
      </trkpt>
      <trkpt lat="50.48894" lon="5.80298">
        <ele>347.17</ele>
        <time>2010-03-24T15:05:10Z</time>
      </trkpt>
      <trkpt lat="50.48894" lon="5.80269">
        <ele>345.73</ele>
        <time>2010-03-24T15:05:11Z</time>
      </trkpt>
      <trkpt lat="50.48897" lon="5.8024">
        <ele>344.29</ele>
        <time>2010-03-24T15:05:12Z</time>
      </trkpt>
      <trkpt lat="50.48902" lon="5.80211">
        <ele>342.85</ele>
        <time>2010-03-24T15:05:13Z</time>
      </trkpt>
      <trkpt lat="50.48908" lon="5.80182">
        <ele>341.41</ele>
        <time>2010-03-24T15:05:14Z</time>
      </trkpt>
      <trkpt lat="50.48953" lon="5.79946">
        <ele>329.39</ele>
        <time>2010-03-24T15:05:22Z</time>
      </trkpt>
      <trkpt lat="50.48953" lon="5.79917">
        <ele>327.47</ele>
        <time>2010-03-24T15:05:23Z</time>
      </trkpt>
      <trkpt lat="50.48951" lon="5.79888">
        <ele>326.02</ele>
        <time>2010-03-24T15:05:24Z</time>
      </trkpt>
      <trkpt lat="50.48946" lon="5.79858">
        <ele>324.58</ele>
        <time>2010-03-24T15:05:25Z</time>
      </trkpt>
      <trkpt lat="50.48941" lon="5.79829">
        <ele>323.14</ele>
        <time>2010-03-24T15:05:26Z</time>
      </trkpt>
      <trkpt lat="50.48882" lon="5.79509">
        <ele>304.88</ele>
        <time>2010-03-24T15:05:37Z</time>
      </trkpt>
      <trkpt lat="50.48877" lon="5.79457">
        <ele>301.99</ele>
        <time>2010-03-24T15:05:39Z</time>
      </trkpt>
      <trkpt lat="50.48876" lon="5.7943">
        <ele>300.07</ele>
        <time>2010-03-24T15:05:40Z</time>
      </trkpt>
      <trkpt lat="50.48878" lon="5.79404">
        <ele>298.15</ele>
        <time>2010-03-24T15:05:41Z</time>
      </trkpt>
      <trkpt lat="50.4888" lon="5.79379">
        <ele>296.7</ele>
        <time>2010-03-24T15:05:42Z</time>
      </trkpt>
      <trkpt lat="50.48885" lon="5.79356">
        <ele>295.26</ele>
        <time>2010-03-24T15:05:43Z</time>
      </trkpt>
      <trkpt lat="50.48889" lon="5.79335">
        <ele>293.82</ele>
        <time>2010-03-24T15:05:44Z</time>
      </trkpt>
      <trkpt lat="50.4889" lon="5.79206">
        <ele>286.13</ele>
        <time>2010-03-24T15:05:51Z</time>
      </trkpt>
      <trkpt lat="50.4885" lon="5.79043">
        <ele>283.73</ele>
        <time>2010-03-24T15:06:00Z</time>
      </trkpt>
      <trkpt lat="50.4884" lon="5.79008">
        <ele>282.77</ele>
        <time>2010-04-02T13:43:28Z</time>
      </trkpt>
      <trkpt lat="50.4884" lon="5.79002">
        <ele>283.25</ele>
        <time>2010-04-02T13:43:29Z</time>
      </trkpt>
      <trkpt lat="50.48842" lon="5.78997">
        <ele>283.25</ele>
        <time>2010-04-02T13:43:30Z</time>
      </trkpt>
      <trkpt lat="50.48846" lon="5.78993">
        <ele>283.25</ele>
        <time>2010-04-02T13:43:31Z</time>
      </trkpt>
      <trkpt lat="50.4885" lon="5.78991">
        <ele>283.25</ele>
        <time>2010-04-02T13:43:32Z</time>
      </trkpt>
      <trkpt lat="50.48854" lon="5.78991">
        <ele>283.25</ele>
        <time>2010-04-02T13:43:33Z</time>
      </trkpt>
      <trkpt lat="50.48859" lon="5.78991">
        <ele>283.25</ele>
        <time>2010-04-02T13:43:34Z</time>
      </trkpt>
      <trkpt lat="50.48864" lon="5.78991">
        <ele>283.25</ele>
        <time>2010-04-02T13:43:35Z</time>
      </trkpt>
      <trkpt lat="50.48869" lon="5.78994">
        <ele>283.25</ele>
        <time>2010-04-02T13:43:36Z</time>
      </trkpt>
      <trkpt lat="50.48874" lon="5.78997">
        <ele>283.25</ele>
        <time>2010-04-02T13:43:37Z</time>
      </trkpt>
      <trkpt lat="50.48879" lon="5.79002">
        <ele>282.77</ele>
        <time>2010-04-02T13:43:38Z</time>
      </trkpt>
      <trkpt lat="50.48884" lon="5.79007">
        <ele>282.77</ele>
        <time>2010-04-02T13:43:39Z</time>
      </trkpt>
      <trkpt lat="50.48925" lon="5.79046">
        <ele>280.84</ele>
        <time>2010-04-02T13:43:46Z</time>
      </trkpt>
      <trkpt lat="50.48984" lon="5.79116">
        <ele>277.48</ele>
        <time>2010-04-02T13:43:58Z</time>
      </trkpt>
      <trkpt lat="50.48989" lon="5.79119">
        <ele>277.48</ele>
        <time>2010-04-02T13:43:59Z</time>
      </trkpt>
      <trkpt lat="50.48995" lon="5.79122">
        <ele>277</ele>
        <time>2010-04-02T13:44:00Z</time>
      </trkpt>
      <trkpt lat="50.49001" lon="5.79122">
        <ele>277</ele>
        <time>2010-04-02T13:44:01Z</time>
      </trkpt>
      <trkpt lat="50.49007" lon="5.79122">
        <ele>276.52</ele>
        <time>2010-04-02T13:44:02Z</time>
      </trkpt>
      <trkpt lat="50.49014" lon="5.79121">
        <ele>276.04</ele>
        <time>2010-04-02T13:44:03Z</time>
      </trkpt>
      <trkpt lat="50.4904" lon="5.79121">
        <ele>274.59</ele>
        <time>2010-04-02T13:44:07Z</time>
      </trkpt>
      <trkpt lat="50.49047" lon="5.79123">
        <ele>274.11</ele>
        <time>2010-04-02T13:44:08Z</time>
      </trkpt>
      <trkpt lat="50.49054" lon="5.79127">
        <ele>273.63</ele>
        <time>2010-04-02T13:44:09Z</time>
      </trkpt>
      <trkpt lat="50.4906" lon="5.79132">
        <ele>274.11</ele>
        <time>2010-04-02T13:44:10Z</time>
      </trkpt>
      <trkpt lat="50.49065" lon="5.79138">
        <ele>273.63</ele>
        <time>2010-04-02T13:44:11Z</time>
      </trkpt>
      <trkpt lat="50.4907" lon="5.79145">
        <ele>273.63</ele>
        <time>2010-04-02T13:44:12Z</time>
      </trkpt>
      <trkpt lat="50.49075" lon="5.79153">
        <ele>274.11</ele>
        <time>2010-04-02T13:44:13Z</time>
      </trkpt>
      <trkpt lat="50.49147" lon="5.7927">
        <ele>272.19</ele>
        <time>2010-04-02T13:44:26Z</time>
      </trkpt>
      <trkpt lat="50.49243" lon="5.7942">
        <ele>266.42</ele>
        <time>2010-04-02T13:44:38Z</time>
      </trkpt>
      <trkpt lat="50.4941" lon="5.79684">
        <ele>257.29</ele>
        <time>2010-04-02T13:44:54Z</time>
      </trkpt>
      <trkpt lat="50.49576" lon="5.79943">
        <ele>252.48</ele>
        <time>2010-04-02T13:45:11Z</time>
      </trkpt>
      <trkpt lat="50.49654" lon="5.8005">
        <ele>255.37</ele>
        <time>2010-04-02T13:45:19Z</time>
      </trkpt>
      <trkpt lat="50.4981" lon="5.80209">
        <ele>252.48</ele>
        <time>2010-04-02T13:45:30Z</time>
      </trkpt>
      <trkpt lat="50.50027" lon="5.80418">
        <ele>250.08</ele>
        <time>2010-04-02T13:45:44Z</time>
      </trkpt>
      <trkpt lat="50.50218" lon="5.80606">
        <ele>250.08</ele>
        <time>2010-04-02T13:45:58Z</time>
      </trkpt>
      <trkpt lat="50.50329" lon="5.80713">
        <ele>248.16</ele>
        <time>2010-04-02T13:46:07Z</time>
      </trkpt>
      <trkpt lat="50.50341" lon="5.80719">
        <ele>248.16</ele>
        <time>2010-04-02T13:46:08Z</time>
      </trkpt>
      <trkpt lat="50.50354" lon="5.80723">
        <ele>248.16</ele>
        <time>2010-04-02T13:46:09Z</time>
      </trkpt>
      <trkpt lat="50.50367" lon="5.80726">
        <ele>248.16</ele>
        <time>2010-04-02T13:46:10Z</time>
      </trkpt>
      <trkpt lat="50.5038" lon="5.8073">
        <ele>248.64</ele>
        <time>2010-04-02T13:46:11Z</time>
      </trkpt>
      <trkpt lat="50.50392" lon="5.80738">
        <ele>248.64</ele>
        <time>2010-04-02T13:46:12Z</time>
      </trkpt>
      <trkpt lat="50.50405" lon="5.80747">
        <ele>248.16</ele>
        <time>2010-04-02T13:46:13Z</time>
      </trkpt>
      <trkpt lat="50.50516" lon="5.80882">
        <ele>246.23</ele>
        <time>2010-04-02T13:46:23Z</time>
      </trkpt>
      <trkpt lat="50.5067" lon="5.81151">
        <ele>234.22</ele>
        <time>2010-04-02T13:46:39Z</time>
      </trkpt>
      <trkpt lat="50.50695" lon="5.81179">
        <ele>232.78</ele>
        <time>2010-04-02T13:46:41Z</time>
      </trkpt>
      <trkpt lat="50.50708" lon="5.81192">
        <ele>231.81</ele>
        <time>2010-04-02T13:46:42Z</time>
      </trkpt>
      <trkpt lat="50.5091" lon="5.81346">
        <ele>222.2</ele>
        <time>2010-04-02T13:46:55Z</time>
      </trkpt>
      <trkpt lat="50.50984" lon="5.8142">
        <ele>216.91</ele>
        <time>2010-04-02T13:47:00Z</time>
      </trkpt>
      <trkpt lat="50.50996" lon="5.81441">
        <ele>215.95</ele>
        <time>2010-04-02T13:47:01Z</time>
      </trkpt>
      <trkpt lat="50.51006" lon="5.81462">
        <ele>214.51</ele>
        <time>2010-04-02T13:47:02Z</time>
      </trkpt>
      <trkpt lat="50.51024" lon="5.81507">
        <ele>212.11</ele>
        <time>2010-04-02T13:47:04Z</time>
      </trkpt>
      <trkpt lat="50.51119" lon="5.81665">
        <ele>203.46</ele>
        <time>2010-04-02T13:47:12Z</time>
      </trkpt>
      <trkpt lat="50.51243" lon="5.81775">
        <ele>194.8</ele>
        <time>2010-04-02T13:47:20Z</time>
      </trkpt>
      <trkpt lat="50.51324" lon="5.81882">
        <ele>186.63</ele>
        <time>2010-04-02T13:47:27Z</time>
      </trkpt>
      <trkpt lat="50.51342" lon="5.81911">
        <ele>183.27</ele>
        <time>2010-04-02T13:47:32Z</time>
      </trkpt>
      <trkpt lat="50.51339" lon="5.81908">
        <ele>183.27</ele>
        <time>2010-04-02T13:47:54Z</time>
      </trkpt>
      <trkpt lat="50.51341" lon="5.8191">
        <ele>183.27</ele>
        <time>2010-04-02T13:48:01Z</time>
      </trkpt>
      <trkpt lat="50.51343" lon="5.81911">
        <ele>183.27</ele>
        <time>2010-04-02T13:48:02Z</time>
      </trkpt>
      <trkpt lat="50.51347" lon="5.8191">
        <ele>183.75</ele>
        <time>2010-04-02T13:48:03Z</time>
      </trkpt>
      <trkpt lat="50.51352" lon="5.81906">
        <ele>183.75</ele>
        <time>2010-04-02T13:48:04Z</time>
      </trkpt>
      <trkpt lat="50.51356" lon="5.81901">
        <ele>183.75</ele>
        <time>2010-04-02T13:48:05Z</time>
      </trkpt>
      <trkpt lat="50.51361" lon="5.81895">
        <ele>184.23</ele>
        <time>2010-04-02T13:48:06Z</time>
      </trkpt>
      <trkpt lat="50.51422" lon="5.8182">
        <ele>188.08</ele>
        <time>2010-04-02T13:48:14Z</time>
      </trkpt>
      <trkpt lat="50.51535" lon="5.8168">
        <ele>191.92</ele>
        <time>2010-04-02T13:48:25Z</time>
      </trkpt>
      <trkpt lat="50.51686" lon="5.81593">
        <ele>191.44</ele>
        <time>2010-04-02T13:48:37Z</time>
      </trkpt>
      <trkpt lat="50.51798" lon="5.81605">
        <ele>189.52</ele>
        <time>2010-04-02T13:48:45Z</time>
      </trkpt>
      <trkpt lat="50.5201" lon="5.81689">
        <ele>182.31</ele>
        <time>2010-04-02T13:49:01Z</time>
      </trkpt>
      <trkpt lat="50.52155" lon="5.81782">
        <ele>177.5</ele>
        <time>2010-04-02T13:49:13Z</time>
      </trkpt>
      <trkpt lat="50.52246" lon="5.81911">
        <ele>174.14</ele>
        <time>2010-04-02T13:49:22Z</time>
      </trkpt>
      <trkpt lat="50.52346" lon="5.82034">
        <ele>175.58</ele>
        <time>2010-04-02T13:49:31Z</time>
      </trkpt>
      <trkpt lat="50.52359" lon="5.82043">
        <ele>175.58</ele>
        <time>2010-04-02T13:49:32Z</time>
      </trkpt>
      <trkpt lat="50.52372" lon="5.8205">
        <ele>175.58</ele>
        <time>2010-04-02T13:49:33Z</time>
      </trkpt>
      <trkpt lat="50.52568" lon="5.8212">
        <ele>169.81</ele>
        <time>2010-04-02T13:49:47Z</time>
      </trkpt>
      <trkpt lat="50.52595" lon="5.8212">
        <ele>169.33</ele>
        <time>2010-04-02T13:49:49Z</time>
      </trkpt>
      <trkpt lat="50.52609" lon="5.82116">
        <ele>168.85</ele>
        <time>2010-04-02T13:49:50Z</time>
      </trkpt>
      <trkpt lat="50.52623" lon="5.82106">
        <ele>168.37</ele>
        <time>2010-04-02T13:49:51Z</time>
      </trkpt>
      <trkpt lat="50.52635" lon="5.82094">
        <ele>167.89</ele>
        <time>2010-04-02T13:49:52Z</time>
      </trkpt>
      <trkpt lat="50.52646" lon="5.82081">
        <ele>167.41</ele>
        <time>2010-04-02T13:49:53Z</time>
      </trkpt>
      <trkpt lat="50.52657" lon="5.82067">
        <ele>167.41</ele>
        <time>2010-04-02T13:49:54Z</time>
      </trkpt>
      <trkpt lat="50.52667" lon="5.82052">
        <ele>167.89</ele>
        <time>2010-04-02T13:49:55Z</time>
      </trkpt>
      <trkpt lat="50.52771" lon="5.81871">
        <ele>167.89</ele>
        <time>2010-04-02T13:50:07Z</time>
      </trkpt>
      <trkpt lat="50.52883" lon="5.81634">
        <ele>163.08</ele>
        <time>2010-04-02T13:50:22Z</time>
      </trkpt>
      <trkpt lat="50.5302" lon="5.81367">
        <ele>166.45</ele>
        <time>2010-04-02T13:50:36Z</time>
      </trkpt>
      <trkpt lat="50.5313" lon="5.81187">
        <ele>167.89</ele>
        <time>2010-04-02T13:50:46Z</time>
      </trkpt>
      <trkpt lat="50.53144" lon="5.81176">
        <ele>167.89</ele>
        <time>2010-04-02T13:50:47Z</time>
      </trkpt>
      <trkpt lat="50.53159" lon="5.81166">
        <ele>167.89</ele>
        <time>2010-04-02T13:50:48Z</time>
      </trkpt>
      <trkpt lat="50.53308" lon="5.8108">
        <ele>167.89</ele>
        <time>2010-04-02T13:50:59Z</time>
      </trkpt>
      <trkpt lat="50.5339" lon="5.81032">
        <ele>166.45</ele>
        <time>2010-04-02T13:51:09Z</time>
      </trkpt>
      <trkpt lat="50.53396" lon="5.8103">
        <ele>165.96</ele>
        <time>2010-04-02T13:51:10Z</time>
      </trkpt>
      <trkpt lat="50.53402" lon="5.81028">
        <ele>166.45</ele>
        <time>2010-04-02T13:51:11Z</time>
      </trkpt>
      <trkpt lat="50.53407" lon="5.81029">
        <ele>166.45</ele>
        <time>2010-04-02T13:51:12Z</time>
      </trkpt>
      <trkpt lat="50.53413" lon="5.81029">
        <ele>166.45</ele>
        <time>2010-04-02T13:51:13Z</time>
      </trkpt>
      <trkpt lat="50.53419" lon="5.81026">
        <ele>166.45</ele>
        <time>2010-04-02T13:51:14Z</time>
      </trkpt>
      <trkpt lat="50.53425" lon="5.81021">
        <ele>166.45</ele>
        <time>2010-04-02T13:51:15Z</time>
      </trkpt>
      <trkpt lat="50.5343" lon="5.81014">
        <ele>166.45</ele>
        <time>2010-04-02T13:51:16Z</time>
      </trkpt>
      <trkpt lat="50.53436" lon="5.81006">
        <ele>166.93</ele>
        <time>2010-04-02T13:51:17Z</time>
      </trkpt>
      <trkpt lat="50.53444" lon="5.80998">
        <ele>167.41</ele>
        <time>2010-04-02T13:51:18Z</time>
      </trkpt>
      <trkpt lat="50.53546" lon="5.80911">
        <ele>177.5</ele>
        <time>2010-04-02T13:51:28Z</time>
      </trkpt>
      <trkpt lat="50.53691" lon="5.80784">
        <ele>192.4</ele>
        <time>2010-04-02T13:51:39Z</time>
      </trkpt>
      <trkpt lat="50.53704" lon="5.80769">
        <ele>194.32</ele>
        <time>2010-04-02T13:51:40Z</time>
      </trkpt>
      <trkpt lat="50.53715" lon="5.80751">
        <ele>195.77</ele>
        <time>2010-04-02T13:51:41Z</time>
      </trkpt>
      <trkpt lat="50.53724" lon="5.80732">
        <ele>197.21</ele>
        <time>2010-04-02T13:51:42Z</time>
      </trkpt>
      <trkpt lat="50.5373" lon="5.80712">
        <ele>198.65</ele>
        <time>2010-04-02T13:51:43Z</time>
      </trkpt>
      <trkpt lat="50.53734" lon="5.8069">
        <ele>200.09</ele>
        <time>2010-04-02T13:51:44Z</time>
      </trkpt>
      <trkpt lat="50.53733" lon="5.80666">
        <ele>201.53</ele>
        <time>2010-04-02T13:51:45Z</time>
      </trkpt>
      <trkpt lat="50.53729" lon="5.80644">
        <ele>202.98</ele>
        <time>2010-04-02T13:51:46Z</time>
      </trkpt>
      <trkpt lat="50.53724" lon="5.80623">
        <ele>203.94</ele>
        <time>2010-04-02T13:51:47Z</time>
      </trkpt>
      <trkpt lat="50.53716" lon="5.80603">
        <ele>205.38</ele>
        <time>2010-04-02T13:51:48Z</time>
      </trkpt>
      <trkpt lat="50.53708" lon="5.80584">
        <ele>206.34</ele>
        <time>2010-04-02T13:51:49Z</time>
      </trkpt>
      <trkpt lat="50.53699" lon="5.80566">
        <ele>207.3</ele>
        <time>2010-04-02T13:51:50Z</time>
      </trkpt>
      <trkpt lat="50.53585" lon="5.80317">
        <ele>210.19</ele>
        <time>2010-04-02T13:52:02Z</time>
      </trkpt>
      <trkpt lat="50.53527" lon="5.80086">
        <ele>208.74</ele>
        <time>2010-04-02T13:52:11Z</time>
      </trkpt>
      <trkpt lat="50.53462" lon="5.7973">
        <ele>213.55</ele>
        <time>2010-04-02T13:52:23Z</time>
      </trkpt>
      <trkpt lat="50.5341" lon="5.79445">
        <ele>227.01</ele>
        <time>2010-04-02T13:52:34Z</time>
      </trkpt>
      <trkpt lat="50.53408" lon="5.79423">
        <ele>227.01</ele>
        <time>2010-04-02T13:52:35Z</time>
      </trkpt>
      <trkpt lat="50.53407" lon="5.794">
        <ele>227.49</ele>
        <time>2010-04-02T13:52:36Z</time>
      </trkpt>
      <trkpt lat="50.53415" lon="5.79138">
        <ele>227.01</ele>
        <time>2010-04-02T13:52:47Z</time>
      </trkpt>
      <trkpt lat="50.53432" lon="5.78822">
        <ele>237.1</ele>
        <time>2010-04-02T13:52:59Z</time>
      </trkpt>
      <trkpt lat="50.53432" lon="5.78763">
        <ele>241.43</ele>
        <time>2010-04-02T13:53:01Z</time>
      </trkpt>
      <trkpt lat="50.5343" lon="5.78732">
        <ele>243.35</ele>
        <time>2010-04-02T13:53:02Z</time>
      </trkpt>
      <trkpt lat="50.5339" lon="5.78408">
        <ele>268.35</ele>
        <time>2010-04-02T13:53:12Z</time>
      </trkpt>
      <trkpt lat="50.53338" lon="5.77955">
        <ele>305.84</ele>
        <time>2010-04-02T13:53:27Z</time>
      </trkpt>
      <trkpt lat="50.53314" lon="5.77657">
        <ele>324.58</ele>
        <time>2010-04-02T13:53:38Z</time>
      </trkpt>
      <trkpt lat="50.53291" lon="5.77306">
        <ele>329.39</ele>
        <time>2010-04-02T13:53:50Z</time>
      </trkpt>
      <trkpt lat="50.53256" lon="5.76784">
        <ele>324.58</ele>
        <time>2010-04-02T13:54:06Z</time>
      </trkpt>
      <trkpt lat="50.53233" lon="5.76329">
        <ele>316.41</ele>
        <time>2010-04-02T13:54:21Z</time>
      </trkpt>
      <trkpt lat="50.53228" lon="5.76268">
        <ele>314.49</ele>
        <time>2010-04-02T13:54:25Z</time>
      </trkpt>
      <trkpt lat="50.53224" lon="5.76261">
        <ele>314.01</ele>
        <time>2010-04-02T13:54:26Z</time>
      </trkpt>
      <trkpt lat="50.53219" lon="5.76258">
        <ele>313.53</ele>
        <time>2010-04-02T13:54:27Z</time>
      </trkpt>
      <trkpt lat="50.53211" lon="5.7626">
        <ele>313.53</ele>
        <time>2010-04-02T13:54:28Z</time>
      </trkpt>
      <trkpt lat="50.53201" lon="5.76267">
        <ele>313.53</ele>
        <time>2010-04-02T13:54:29Z</time>
      </trkpt>
      <trkpt lat="50.53187" lon="5.7628">
        <ele>314.01</ele>
        <time>2010-04-02T13:54:30Z</time>
      </trkpt>
      <trkpt lat="50.53063" lon="5.76328">
        <ele>316.89</ele>
        <time>2010-04-02T13:54:38Z</time>
      </trkpt>
      <trkpt lat="50.5271" lon="5.76455">
        <ele>329.87</ele>
        <time>2010-04-02T13:54:57Z</time>
      </trkpt>
      <trkpt lat="50.52457" lon="5.76565">
        <ele>335.16</ele>
        <time>2010-04-02T13:55:10Z</time>
      </trkpt>
      <trkpt lat="50.52181" lon="5.76708">
        <ele>336.6</ele>
        <time>2010-04-02T13:55:24Z</time>
      </trkpt>
      <trkpt lat="50.51945" lon="5.76809">
        <ele>338.52</ele>
        <time>2010-04-02T13:55:36Z</time>
      </trkpt>
      <trkpt lat="50.51638" lon="5.76938">
        <ele>337.56</ele>
        <time>2010-04-02T13:55:51Z</time>
      </trkpt>
      <trkpt lat="50.51519" lon="5.76983">
        <ele>337.56</ele>
        <time>2010-04-02T13:55:57Z</time>
      </trkpt>
      <trkpt lat="50.51498" lon="5.7698">
        <ele>337.56</ele>
        <time>2010-04-02T13:55:58Z</time>
      </trkpt>
      <trkpt lat="50.51478" lon="5.76974">
        <ele>337.56</ele>
        <time>2010-04-02T13:55:59Z</time>
      </trkpt>
      <trkpt lat="50.51269" lon="5.76878">
        <ele>338.04</ele>
        <time>2010-04-02T13:56:10Z</time>
      </trkpt>
      <trkpt lat="50.50996" lon="5.76773">
        <ele>341.41</ele>
        <time>2010-04-02T13:56:25Z</time>
      </trkpt>
      <trkpt lat="50.5098" lon="5.76763">
        <ele>341.41</ele>
        <time>2010-04-02T13:56:26Z</time>
      </trkpt>
      <trkpt lat="50.50965" lon="5.7675">
        <ele>341.41</ele>
        <time>2010-04-02T13:56:27Z</time>
      </trkpt>
      <trkpt lat="50.50952" lon="5.76733">
        <ele>340.44</ele>
        <time>2010-04-02T13:56:28Z</time>
      </trkpt>
      <trkpt lat="50.5094" lon="5.76713">
        <ele>340.44</ele>
        <time>2010-04-02T13:56:29Z</time>
      </trkpt>
      <trkpt lat="50.50927" lon="5.76693">
        <ele>340.44</ele>
        <time>2010-04-02T13:56:30Z</time>
      </trkpt>
      <trkpt lat="50.50761" lon="5.76451">
        <ele>341.89</ele>
        <time>2010-04-02T13:56:42Z</time>
      </trkpt>
      <trkpt lat="50.5073" lon="5.76423">
        <ele>340.92</ele>
        <time>2010-04-02T13:56:44Z</time>
      </trkpt>
      <trkpt lat="50.50712" lon="5.76415">
        <ele>339.96</ele>
        <time>2010-04-02T13:56:45Z</time>
      </trkpt>
      <trkpt lat="50.50692" lon="5.76413">
        <ele>339.48</ele>
        <time>2010-04-02T13:56:46Z</time>
      </trkpt>
      <trkpt lat="50.50671" lon="5.76414">
        <ele>339.48</ele>
        <time>2010-04-02T13:56:47Z</time>
      </trkpt>
      <trkpt lat="50.5065" lon="5.76415">
        <ele>339</ele>
        <time>2010-04-02T13:56:48Z</time>
      </trkpt>
      <trkpt lat="50.50379" lon="5.76437">
        <ele>336.6</ele>
        <time>2010-04-02T13:57:01Z</time>
      </trkpt>
      <trkpt lat="50.5036" lon="5.76447">
        <ele>336.6</ele>
        <time>2010-04-02T13:57:02Z</time>
      </trkpt>
      <trkpt lat="50.50342" lon="5.76459">
        <ele>336.6</ele>
        <time>2010-04-02T13:57:03Z</time>
      </trkpt>
      <trkpt lat="50.50104" lon="5.76636">
        <ele>339</ele>
        <time>2010-04-02T13:57:17Z</time>
      </trkpt>
      <trkpt lat="50.49978" lon="5.7676">
        <ele>340.92</ele>
        <time>2010-04-02T13:57:26Z</time>
      </trkpt>
      <trkpt lat="50.49819" lon="5.7696">
        <ele>349.1</ele>
        <time>2010-04-02T13:57:39Z</time>
      </trkpt>
      <trkpt lat="50.49808" lon="5.76972">
        <ele>349.58</ele>
        <time>2010-04-02T13:57:40Z</time>
      </trkpt>
      <trkpt lat="50.49795" lon="5.7698">
        <ele>350.06</ele>
        <time>2010-04-02T13:57:41Z</time>
      </trkpt>
      <trkpt lat="50.49781" lon="5.76987">
        <ele>351.02</ele>
        <time>2010-04-02T13:57:42Z</time>
      </trkpt>
      <trkpt lat="50.49766" lon="5.76991">
        <ele>351.5</ele>
        <time>2010-04-02T13:57:43Z</time>
      </trkpt>
      <trkpt lat="50.49751" lon="5.76995">
        <ele>351.98</ele>
        <time>2010-04-02T13:57:44Z</time>
      </trkpt>
      <trkpt lat="50.49559" lon="5.77036">
        <ele>357.75</ele>
        <time>2010-04-02T13:57:56Z</time>
      </trkpt>
      <trkpt lat="50.49425" lon="5.77028">
        <ele>357.75</ele>
        <time>2010-04-02T13:58:05Z</time>
      </trkpt>
      <trkpt lat="50.49413" lon="5.7702">
        <ele>357.75</ele>
        <time>2010-04-02T13:58:06Z</time>
      </trkpt>
      <trkpt lat="50.49388" lon="5.76996">
        <ele>357.75</ele>
        <time>2010-04-02T13:58:08Z</time>
      </trkpt>
      <trkpt lat="50.49376" lon="5.76982">
        <ele>357.27</ele>
        <time>2010-04-02T13:58:09Z</time>
      </trkpt>
      <trkpt lat="50.49241" lon="5.76869">
        <ele>354.86</ele>
        <time>2010-04-02T13:58:18Z</time>
      </trkpt>
    </trkseg>
  </trk>
  <trk>
    <name><![CDATA[Liege bastogne liege 36 k_3]]></name>
    <trkseg>
      <trkpt lat="50.49241" lon="5.76869">
        <ele>354.86</ele>
        <time>2010-04-02T13:58:18Z</time>
      </trkpt>
      <trkpt lat="50.48934" lon="5.76676">
        <ele>354.38</ele>
        <time>2010-04-02T13:58:37Z</time>
      </trkpt>
      <trkpt lat="50.48818" lon="5.76602">
        <ele>355.34</ele>
        <time>2010-04-02T13:58:47Z</time>
      </trkpt>
      <trkpt lat="50.48812" lon="5.76596">
        <ele>355.34</ele>
        <time>2010-04-02T13:58:48Z</time>
      </trkpt>
      <trkpt lat="50.48812" lon="5.76592">
        <ele>355.34</ele>
        <time>2010-04-02T13:58:49Z</time>
      </trkpt>
      <trkpt lat="50.48811" lon="5.76589">
        <ele>355.34</ele>
        <time>2010-04-02T13:58:50Z</time>
      </trkpt>
      <trkpt lat="50.48811" lon="5.76585">
        <ele>355.34</ele>
        <time>2010-04-02T13:58:51Z</time>
      </trkpt>
      <trkpt lat="50.48811" lon="5.76579">
        <ele>355.34</ele>
        <time>2010-04-02T13:58:52Z</time>
      </trkpt>
      <trkpt lat="50.4881" lon="5.76571">
        <ele>355.34</ele>
        <time>2010-04-02T13:58:53Z</time>
      </trkpt>
      <trkpt lat="50.4881" lon="5.76562">
        <ele>355.34</ele>
        <time>2010-04-02T13:58:54Z</time>
      </trkpt>
      <trkpt lat="50.48806" lon="5.7652">
        <ele>355.34</ele>
        <time>2010-04-02T13:58:57Z</time>
      </trkpt>
      <trkpt lat="50.48774" lon="5.76379">
        <ele>354.38</ele>
        <time>2010-04-02T13:59:04Z</time>
      </trkpt>
      <trkpt lat="50.48677" lon="5.75965">
        <ele>345.73</ele>
        <time>2010-04-02T13:59:19Z</time>
      </trkpt>
      <trkpt lat="50.48593" lon="5.75581">
        <ele>336.12</ele>
        <time>2010-04-02T13:59:33Z</time>
      </trkpt>
      <trkpt lat="50.48592" lon="5.75554">
        <ele>335.64</ele>
        <time>2010-04-02T13:59:34Z</time>
      </trkpt>
      <trkpt lat="50.48596" lon="5.75526">
        <ele>335.64</ele>
        <time>2010-04-02T13:59:35Z</time>
      </trkpt>
      <trkpt lat="50.48601" lon="5.75499">
        <ele>335.16</ele>
        <time>2010-04-02T13:59:36Z</time>
      </trkpt>
      <trkpt lat="50.48607" lon="5.75474">
        <ele>335.16</ele>
        <time>2010-04-02T13:59:37Z</time>
      </trkpt>
      <trkpt lat="50.48614" lon="5.75448">
        <ele>334.68</ele>
        <time>2010-04-02T13:59:38Z</time>
      </trkpt>
      <trkpt lat="50.4863" lon="5.75368">
        <ele>333.71</ele>
        <time>2010-04-02T13:59:41Z</time>
      </trkpt>
      <trkpt lat="50.48632" lon="5.75338">
        <ele>333.23</ele>
        <time>2010-04-02T13:59:42Z</time>
      </trkpt>
      <trkpt lat="50.48632" lon="5.75307">
        <ele>332.75</ele>
        <time>2010-04-02T13:59:43Z</time>
      </trkpt>
      <trkpt lat="50.4863" lon="5.75276">
        <ele>332.27</ele>
        <time>2010-04-02T13:59:44Z</time>
      </trkpt>
      <trkpt lat="50.48626" lon="5.75245">
        <ele>332.27</ele>
        <time>2010-04-02T13:59:45Z</time>
      </trkpt>
      <trkpt lat="50.4862" lon="5.75214">
        <ele>331.79</ele>
        <time>2010-04-02T13:59:46Z</time>
      </trkpt>
      <trkpt lat="50.48613" lon="5.75183">
        <ele>331.31</ele>
        <time>2010-04-02T13:59:47Z</time>
      </trkpt>
      <trkpt lat="50.48606" lon="5.75152">
        <ele>330.35</ele>
        <time>2010-04-02T13:59:48Z</time>
      </trkpt>
      <trkpt lat="50.48481" lon="5.7468">
        <ele>320.26</ele>
        <time>2010-04-02T14:00:03Z</time>
      </trkpt>
      <trkpt lat="50.48364" lon="5.7444">
        <ele>305.36</ele>
        <time>2010-04-02T14:00:12Z</time>
      </trkpt>
      <trkpt lat="50.48225" lon="5.74165">
        <ele>288.53</ele>
        <time>2010-04-02T14:00:23Z</time>
      </trkpt>
      <trkpt lat="50.48212" lon="5.74148">
        <ele>287.09</ele>
        <time>2010-04-02T14:00:24Z</time>
      </trkpt>
      <trkpt lat="50.48198" lon="5.74134">
        <ele>285.65</ele>
        <time>2010-04-02T14:00:25Z</time>
      </trkpt>
      <trkpt lat="50.48182" lon="5.74124">
        <ele>284.21</ele>
        <time>2010-04-02T14:00:26Z</time>
      </trkpt>
      <trkpt lat="50.48163" lon="5.74124">
        <ele>282.77</ele>
        <time>2010-04-02T14:00:27Z</time>
      </trkpt>
      <trkpt lat="50.48143" lon="5.74128">
        <ele>281.32</ele>
        <time>2010-04-02T14:00:28Z</time>
      </trkpt>
      <trkpt lat="50.48124" lon="5.74133">
        <ele>280.36</ele>
        <time>2010-04-02T14:00:29Z</time>
      </trkpt>
      <trkpt lat="50.48104" lon="5.74139">
        <ele>278.92</ele>
        <time>2010-04-02T14:00:30Z</time>
      </trkpt>
      <trkpt lat="50.48025" lon="5.74152">
        <ele>274.11</ele>
        <time>2010-04-02T14:00:34Z</time>
      </trkpt>
      <trkpt lat="50.48004" lon="5.74148">
        <ele>272.67</ele>
        <time>2010-04-02T14:00:35Z</time>
      </trkpt>
      <trkpt lat="50.47984" lon="5.74141">
        <ele>271.71</ele>
        <time>2010-04-02T14:00:36Z</time>
      </trkpt>
      <trkpt lat="50.47905" lon="5.74105">
        <ele>266.9</ele>
        <time>2010-04-02T14:00:40Z</time>
      </trkpt>
      <trkpt lat="50.47884" lon="5.74103">
        <ele>265.46</ele>
        <time>2010-04-02T14:00:41Z</time>
      </trkpt>
      <trkpt lat="50.47864" lon="5.74104">
        <ele>264.5</ele>
        <time>2010-04-02T14:00:42Z</time>
      </trkpt>
      <trkpt lat="50.47679" lon="5.74106">
        <ele>253.93</ele>
        <time>2010-04-02T14:00:51Z</time>
      </trkpt>
      <trkpt lat="50.47495" lon="5.74045">
        <ele>243.83</ele>
        <time>2010-04-02T14:01:01Z</time>
      </trkpt>
      <trkpt lat="50.4744" lon="5.74005">
        <ele>240.95</ele>
        <time>2010-04-02T14:01:05Z</time>
      </trkpt>
      <trkpt lat="50.4743" lon="5.73994">
        <ele>239.51</ele>
        <time>2010-04-02T14:01:06Z</time>
      </trkpt>
      <trkpt lat="50.47425" lon="5.7398">
        <ele>239.02</ele>
        <time>2010-04-02T14:01:07Z</time>
      </trkpt>
      <trkpt lat="50.47421" lon="5.73967">
        <ele>238.54</ele>
        <time>2010-04-02T14:01:08Z</time>
      </trkpt>
      <trkpt lat="50.47416" lon="5.73952">
        <ele>237.58</ele>
        <time>2010-04-02T14:01:09Z</time>
      </trkpt>
      <trkpt lat="50.47412" lon="5.73935">
        <ele>237.1</ele>
        <time>2010-04-02T14:01:10Z</time>
      </trkpt>
      <trkpt lat="50.47409" lon="5.73915">
        <ele>236.14</ele>
        <time>2010-04-02T14:01:11Z</time>
      </trkpt>
      <trkpt lat="50.47407" lon="5.73894">
        <ele>235.66</ele>
        <time>2010-04-02T14:01:12Z</time>
      </trkpt>
      <trkpt lat="50.47407" lon="5.73874">
        <ele>234.7</ele>
        <time>2010-04-02T14:01:13Z</time>
      </trkpt>
      <trkpt lat="50.47409" lon="5.73852">
        <ele>233.74</ele>
        <time>2010-04-02T14:01:14Z</time>
      </trkpt>
      <trkpt lat="50.47413" lon="5.73832">
        <ele>233.26</ele>
        <time>2010-04-02T14:01:15Z</time>
      </trkpt>
      <trkpt lat="50.47418" lon="5.73811">
        <ele>232.78</ele>
        <time>2010-04-02T14:01:16Z</time>
      </trkpt>
      <trkpt lat="50.47425" lon="5.73791">
        <ele>231.81</ele>
        <time>2010-04-02T14:01:17Z</time>
      </trkpt>
      <trkpt lat="50.47431" lon="5.73771">
        <ele>231.33</ele>
        <time>2010-04-02T14:01:18Z</time>
      </trkpt>
      <trkpt lat="50.47474" lon="5.73633">
        <ele>226.05</ele>
        <time>2010-04-02T14:01:26Z</time>
      </trkpt>
      <trkpt lat="50.4748" lon="5.73608">
        <ele>225.09</ele>
        <time>2010-04-02T14:01:28Z</time>
      </trkpt>
      <trkpt lat="50.4748" lon="5.73597">
        <ele>224.12</ele>
        <time>2010-04-02T14:01:29Z</time>
      </trkpt>
      <trkpt lat="50.47478" lon="5.73587">
        <ele>223.64</ele>
        <time>2010-04-02T14:01:30Z</time>
      </trkpt>
      <trkpt lat="50.47473" lon="5.73578">
        <ele>222.68</ele>
        <time>2010-04-02T14:01:31Z</time>
      </trkpt>
      <trkpt lat="50.47466" lon="5.73568">
        <ele>222.2</ele>
        <time>2010-04-02T14:01:32Z</time>
      </trkpt>
      <trkpt lat="50.47457" lon="5.73557">
        <ele>222.2</ele>
        <time>2010-04-02T14:01:33Z</time>
      </trkpt>
      <trkpt lat="50.47337" lon="5.73391">
        <ele>227.97</ele>
        <time>2010-04-02T14:01:47Z</time>
      </trkpt>
      <trkpt lat="50.47268" lon="5.73291">
        <ele>234.7</ele>
        <time>2010-04-02T14:01:57Z</time>
      </trkpt>
      <trkpt lat="50.47242" lon="5.73232">
        <ele>235.66</ele>
        <time>2010-04-02T14:02:06Z</time>
      </trkpt>
      <trkpt lat="50.47202" lon="5.73127">
        <ele>235.18</ele>
        <time>2010-04-02T14:02:15Z</time>
      </trkpt>
      <trkpt lat="50.47201" lon="5.73115">
        <ele>235.18</ele>
        <time>2010-04-02T14:02:16Z</time>
      </trkpt>
      <trkpt lat="50.47201" lon="5.73102">
        <ele>235.18</ele>
        <time>2010-04-02T14:02:17Z</time>
      </trkpt>
      <trkpt lat="50.47204" lon="5.73089">
        <ele>235.18</ele>
        <time>2010-04-02T14:02:18Z</time>
      </trkpt>
      <trkpt lat="50.47208" lon="5.73075">
        <ele>234.7</ele>
        <time>2010-04-02T14:02:19Z</time>
      </trkpt>
      <trkpt lat="50.47252" lon="5.72906">
        <ele>232.78</ele>
        <time>2010-04-02T14:02:28Z</time>
      </trkpt>
      <trkpt lat="50.47296" lon="5.72743">
        <ele>233.26</ele>
        <time>2010-04-02T14:02:38Z</time>
      </trkpt>
      <trkpt lat="50.47299" lon="5.72735">
        <ele>233.74</ele>
        <time>2010-04-02T14:02:39Z</time>
      </trkpt>
      <trkpt lat="50.47308" lon="5.72713">
        <ele>233.26</ele>
        <time>2010-04-02T14:02:44Z</time>
      </trkpt>
      <trkpt lat="50.47311" lon="5.72706">
        <ele>233.26</ele>
        <time>2010-04-02T14:02:45Z</time>
      </trkpt>
      <trkpt lat="50.47336" lon="5.72603">
        <ele>235.18</ele>
        <time>2010-04-02T14:02:53Z</time>
      </trkpt>
      <trkpt lat="50.47348" lon="5.72563">
        <ele>234.7</ele>
        <time>2010-04-02T14:02:56Z</time>
      </trkpt>
      <trkpt lat="50.47353" lon="5.72551">
        <ele>234.22</ele>
        <time>2010-04-02T14:02:57Z</time>
      </trkpt>
      <trkpt lat="50.47383" lon="5.72489">
        <ele>232.78</ele>
        <time>2010-04-02T14:03:02Z</time>
      </trkpt>
      <trkpt lat="50.47402" lon="5.72439">
        <ele>232.3</ele>
        <time>2010-04-02T14:03:06Z</time>
      </trkpt>
      <trkpt lat="50.47427" lon="5.72399">
        <ele>230.37</ele>
        <time>2010-04-02T14:03:11Z</time>
      </trkpt>
      <trkpt lat="50.47429" lon="5.72393">
        <ele>229.89</ele>
        <time>2010-04-02T14:03:12Z</time>
      </trkpt>
      <trkpt lat="50.47429" lon="5.72389">
        <ele>229.89</ele>
        <time>2010-04-02T14:03:13Z</time>
      </trkpt>
      <trkpt lat="50.47429" lon="5.72388">
        <ele>230.37</ele>
        <time>2010-04-02T14:03:23Z</time>
      </trkpt>
      <trkpt lat="50.47428" lon="5.72398">
        <ele>234.22</ele>
        <time>2010-04-02T14:18:06Z</time>
      </trkpt>
      <trkpt lat="50.47427" lon="5.72405">
        <ele>233.26</ele>
        <time>2010-04-02T14:18:12Z</time>
      </trkpt>
      <trkpt lat="50.47432" lon="5.72396">
        <ele>232.78</ele>
        <time>2010-04-02T14:18:14Z</time>
      </trkpt>
      <trkpt lat="50.47435" lon="5.72389">
        <ele>232.3</ele>
        <time>2010-04-02T14:18:15Z</time>
      </trkpt>
      <trkpt lat="50.47437" lon="5.72381">
        <ele>231.81</ele>
        <time>2010-04-02T14:18:16Z</time>
      </trkpt>
      <trkpt lat="50.47444" lon="5.72334">
        <ele>229.89</ele>
        <time>2010-04-02T14:18:20Z</time>
      </trkpt>
      <trkpt lat="50.47449" lon="5.72274">
        <ele>226.05</ele>
        <time>2010-04-02T14:18:24Z</time>
      </trkpt>
      <trkpt lat="50.47466" lon="5.72196">
        <ele>223.64</ele>
        <time>2010-04-02T14:18:29Z</time>
      </trkpt>
      <trkpt lat="50.47471" lon="5.72182">
        <ele>223.16</ele>
        <time>2010-04-02T14:18:30Z</time>
      </trkpt>
      <trkpt lat="50.47525" lon="5.72073">
        <ele>212.11</ele>
        <time>2010-04-02T14:18:39Z</time>
      </trkpt>
      <trkpt lat="50.47536" lon="5.72058">
        <ele>209.22</ele>
        <time>2010-04-02T14:18:41Z</time>
      </trkpt>
      <trkpt lat="50.47539" lon="5.7205">
        <ele>207.3</ele>
        <time>2010-04-02T14:18:42Z</time>
      </trkpt>
      <trkpt lat="50.4754" lon="5.72042">
        <ele>205.38</ele>
        <time>2010-04-02T14:18:43Z</time>
      </trkpt>
      <trkpt lat="50.47539" lon="5.72032">
        <ele>203.94</ele>
        <time>2010-04-02T14:18:44Z</time>
      </trkpt>
      <trkpt lat="50.47538" lon="5.72021">
        <ele>202.49</ele>
        <time>2010-04-02T14:18:45Z</time>
      </trkpt>
      <trkpt lat="50.47536" lon="5.72009">
        <ele>200.09</ele>
        <time>2010-04-02T14:18:46Z</time>
      </trkpt>
      <trkpt lat="50.47537" lon="5.71997">
        <ele>198.65</ele>
        <time>2010-04-02T14:18:47Z</time>
      </trkpt>
      <trkpt lat="50.4754" lon="5.71963">
        <ele>193.84</ele>
        <time>2010-04-02T14:18:50Z</time>
      </trkpt>
      <trkpt lat="50.47539" lon="5.71953">
        <ele>192.4</ele>
        <time>2010-04-02T14:18:51Z</time>
      </trkpt>
      <trkpt lat="50.47538" lon="5.71943">
        <ele>190.96</ele>
        <time>2010-04-02T14:18:52Z</time>
      </trkpt>
      <trkpt lat="50.47535" lon="5.71933">
        <ele>189.04</ele>
        <time>2010-04-02T14:18:53Z</time>
      </trkpt>
      <trkpt lat="50.47533" lon="5.71923">
        <ele>187.59</ele>
        <time>2010-04-02T14:18:54Z</time>
      </trkpt>
      <trkpt lat="50.4753" lon="5.71912">
        <ele>185.67</ele>
        <time>2010-04-02T14:18:55Z</time>
      </trkpt>
      <trkpt lat="50.47529" lon="5.71902">
        <ele>183.27</ele>
        <time>2010-04-02T14:18:56Z</time>
      </trkpt>
      <trkpt lat="50.47529" lon="5.7189">
        <ele>181.35</ele>
        <time>2010-04-02T14:18:57Z</time>
      </trkpt>
      <trkpt lat="50.47531" lon="5.71877">
        <ele>178.94</ele>
        <time>2010-04-02T14:18:58Z</time>
      </trkpt>
      <trkpt lat="50.47533" lon="5.71864">
        <ele>178.46</ele>
        <time>2010-04-02T14:18:59Z</time>
      </trkpt>
      <trkpt lat="50.47534" lon="5.71852">
        <ele>177.98</ele>
        <time>2010-04-02T14:19:00Z</time>
      </trkpt>
      <trkpt lat="50.47534" lon="5.71841">
        <ele>177.02</ele>
        <time>2010-04-02T14:19:01Z</time>
      </trkpt>
      <trkpt lat="50.47532" lon="5.7183">
        <ele>177.02</ele>
        <time>2010-04-02T14:19:02Z</time>
      </trkpt>
      <trkpt lat="50.4753" lon="5.71819">
        <ele>176.06</ele>
        <time>2010-04-02T14:19:03Z</time>
      </trkpt>
      <trkpt lat="50.47529" lon="5.71808">
        <ele>174.62</ele>
        <time>2010-04-02T14:19:04Z</time>
      </trkpt>
      <trkpt lat="50.47529" lon="5.71796">
        <ele>172.69</ele>
        <time>2010-04-02T14:19:05Z</time>
      </trkpt>
      <trkpt lat="50.47531" lon="5.71782">
        <ele>170.77</ele>
        <time>2010-04-02T14:19:06Z</time>
      </trkpt>
      <trkpt lat="50.47539" lon="5.71725">
        <ele>160.68</ele>
        <time>2010-04-02T14:19:10Z</time>
      </trkpt>
      <trkpt lat="50.47542" lon="5.71712">
        <ele>158.75</ele>
        <time>2010-04-02T14:19:11Z</time>
      </trkpt>
      <trkpt lat="50.47549" lon="5.71676">
        <ele>153.47</ele>
        <time>2010-04-02T14:19:14Z</time>
      </trkpt>
      <trkpt lat="50.47554" lon="5.7167">
        <ele>151.54</ele>
        <time>2010-04-02T14:19:15Z</time>
      </trkpt>
      <trkpt lat="50.47561" lon="5.7167">
        <ele>150.1</ele>
        <time>2010-04-02T14:19:16Z</time>
      </trkpt>
      <trkpt lat="50.47569" lon="5.71673">
        <ele>148.18</ele>
        <time>2010-04-02T14:19:17Z</time>
      </trkpt>
      <trkpt lat="50.47576" lon="5.71678">
        <ele>147.22</ele>
        <time>2010-04-02T14:19:18Z</time>
      </trkpt>
      <trkpt lat="50.47583" lon="5.71683">
        <ele>146.74</ele>
        <time>2010-04-02T14:19:19Z</time>
      </trkpt>
      <trkpt lat="50.47597" lon="5.71691">
        <ele>142.41</ele>
        <time>2010-04-02T14:19:25Z</time>
      </trkpt>
      <trkpt lat="50.47598" lon="5.7169">
        <ele>142.41</ele>
        <time>2010-04-02T14:19:26Z</time>
      </trkpt>
      <trkpt lat="50.476" lon="5.71687">
        <ele>142.41</ele>
        <time>2010-04-02T14:19:27Z</time>
      </trkpt>
      <trkpt lat="50.47601" lon="5.71682">
        <ele>141.93</ele>
        <time>2010-04-02T14:19:28Z</time>
      </trkpt>
      <trkpt lat="50.47602" lon="5.71675">
        <ele>141.93</ele>
        <time>2010-04-02T14:19:29Z</time>
      </trkpt>
      <trkpt lat="50.47601" lon="5.71666">
        <ele>141.93</ele>
        <time>2010-04-02T14:19:30Z</time>
      </trkpt>
      <trkpt lat="50.47601" lon="5.71657">
        <ele>141.93</ele>
        <time>2010-04-02T14:19:31Z</time>
      </trkpt>
      <trkpt lat="50.47613" lon="5.71533">
        <ele>132.8</ele>
        <time>2010-04-02T14:19:40Z</time>
      </trkpt>
      <trkpt lat="50.47642" lon="5.71458">
        <ele>130.4</ele>
        <time>2010-04-02T14:19:45Z</time>
      </trkpt>
      <trkpt lat="50.47653" lon="5.71445">
        <ele>130.4</ele>
        <time>2010-04-02T14:19:46Z</time>
      </trkpt>
      <trkpt lat="50.47776" lon="5.71309">
        <ele>137.13</ele>
        <time>2010-04-02T14:19:59Z</time>
      </trkpt>
      <trkpt lat="50.47827" lon="5.71271">
        <ele>137.13</ele>
        <time>2010-04-02T14:20:07Z</time>
      </trkpt>
      <trkpt lat="50.47847" lon="5.71263">
        <ele>135.2</ele>
        <time>2010-04-02T14:20:15Z</time>
      </trkpt>
      <trkpt lat="50.4792" lon="5.7123">
        <ele>130.4</ele>
        <time>2010-04-02T14:20:29Z</time>
      </trkpt>
      <trkpt lat="50.47959" lon="5.712">
        <ele>138.09</ele>
        <time>2010-04-02T14:20:41Z</time>
      </trkpt>
      <trkpt lat="50.47969" lon="5.71193">
        <ele>140.49</ele>
        <time>2010-04-02T14:20:51Z</time>
      </trkpt>
      <trkpt lat="50.47987" lon="5.71175">
        <ele>140.49</ele>
        <time>2010-04-02T14:21:02Z</time>
      </trkpt>
      <trkpt lat="50.47988" lon="5.71167">
        <ele>139.05</ele>
        <time>2010-04-02T14:21:03Z</time>
      </trkpt>
      <trkpt lat="50.47988" lon="5.71157">
        <ele>137.61</ele>
        <time>2010-04-02T14:21:04Z</time>
      </trkpt>
      <trkpt lat="50.47989" lon="5.71133">
        <ele>135.2</ele>
        <time>2010-04-02T14:21:06Z</time>
      </trkpt>
      <trkpt lat="50.4799" lon="5.71122">
        <ele>134.24</ele>
        <time>2010-04-02T14:21:07Z</time>
      </trkpt>
      <trkpt lat="50.47993" lon="5.71111">
        <ele>133.76</ele>
        <time>2010-04-02T14:21:08Z</time>
      </trkpt>
      <trkpt lat="50.47998" lon="5.71102">
        <ele>132.32</ele>
        <time>2010-04-02T14:21:09Z</time>
      </trkpt>
      <trkpt lat="50.48004" lon="5.71094">
        <ele>131.84</ele>
        <time>2010-04-02T14:21:10Z</time>
      </trkpt>
      <trkpt lat="50.48011" lon="5.71086">
        <ele>131.84</ele>
        <time>2010-04-02T14:21:11Z</time>
      </trkpt>
      <trkpt lat="50.48019" lon="5.71078">
        <ele>131.36</ele>
        <time>2010-04-02T14:21:12Z</time>
      </trkpt>
      <trkpt lat="50.48138" lon="5.70929">
        <ele>127.99</ele>
        <time>2010-04-02T14:21:28Z</time>
      </trkpt>
      <trkpt lat="50.48158" lon="5.70875">
        <ele>125.59</ele>
        <time>2010-04-02T14:21:35Z</time>
      </trkpt>
      <trkpt lat="50.48167" lon="5.70849">
        <ele>123.67</ele>
        <time>2010-04-02T14:21:53Z</time>
      </trkpt>
      <trkpt lat="50.48173" lon="5.7083">
        <ele>122.71</ele>
        <time>2010-04-02T14:21:55Z</time>
      </trkpt>
      <trkpt lat="50.48199" lon="5.70733">
        <ele>121.26</ele>
        <time>2010-04-02T14:22:05Z</time>
      </trkpt>
      <trkpt lat="50.48204" lon="5.70731">
        <ele>121.26</ele>
        <time>2010-04-02T14:22:06Z</time>
      </trkpt>
      <trkpt lat="50.48212" lon="5.70729">
        <ele>120.78</ele>
        <time>2010-04-02T14:22:07Z</time>
      </trkpt>
      <trkpt lat="50.48279" lon="5.70714">
        <ele>125.11</ele>
        <time>2010-04-02T14:22:14Z</time>
      </trkpt>
      <trkpt lat="50.48291" lon="5.70713">
        <ele>126.55</ele>
        <time>2010-04-02T14:22:20Z</time>
      </trkpt>
      <trkpt lat="50.48299" lon="5.70711">
        <ele>127.51</ele>
        <time>2010-04-02T14:22:22Z</time>
      </trkpt>
      <trkpt lat="50.4835" lon="5.70708">
        <ele>130.88</ele>
        <time>2010-04-02T14:22:29Z</time>
      </trkpt>
      <trkpt lat="50.48359" lon="5.70707">
        <ele>130.4</ele>
        <time>2010-04-02T14:22:30Z</time>
      </trkpt>
      <trkpt lat="50.484" lon="5.70704">
        <ele>133.28</ele>
        <time>2010-04-02T14:22:35Z</time>
      </trkpt>
      <trkpt lat="50.48407" lon="5.70701">
        <ele>134.24</ele>
        <time>2010-04-02T14:22:36Z</time>
      </trkpt>
      <trkpt lat="50.48413" lon="5.70697">
        <ele>133.76</ele>
        <time>2010-04-02T14:22:37Z</time>
      </trkpt>
      <trkpt lat="50.48417" lon="5.70692">
        <ele>133.28</ele>
        <time>2010-04-02T14:22:38Z</time>
      </trkpt>
      <trkpt lat="50.48419" lon="5.70685">
        <ele>132.8</ele>
        <time>2010-04-02T14:22:39Z</time>
      </trkpt>
      <trkpt lat="50.48418" lon="5.70676">
        <ele>132.8</ele>
        <time>2010-04-02T14:22:40Z</time>
      </trkpt>
      <trkpt lat="50.48415" lon="5.70667">
        <ele>132.8</ele>
        <time>2010-04-02T14:22:41Z</time>
      </trkpt>
      <trkpt lat="50.4841" lon="5.70658">
        <ele>132.8</ele>
        <time>2010-04-02T14:22:42Z</time>
      </trkpt>
      <trkpt lat="50.48405" lon="5.70649">
        <ele>132.8</ele>
        <time>2010-04-02T14:22:43Z</time>
      </trkpt>
      <trkpt lat="50.48347" lon="5.70537">
        <ele>128.95</ele>
        <time>2010-04-02T14:22:53Z</time>
      </trkpt>
      <trkpt lat="50.48343" lon="5.70524">
        <ele>128.47</ele>
        <time>2010-04-02T14:22:54Z</time>
      </trkpt>
      <trkpt lat="50.48339" lon="5.70511">
        <ele>127.99</ele>
        <time>2010-04-02T14:22:55Z</time>
      </trkpt>
      <trkpt lat="50.48333" lon="5.70485">
        <ele>126.55</ele>
        <time>2010-04-02T14:23:00Z</time>
      </trkpt>
      <trkpt lat="50.48327" lon="5.70447">
        <ele>124.15</ele>
        <time>2010-04-02T14:23:08Z</time>
      </trkpt>
      <trkpt lat="50.48322" lon="5.70403">
        <ele>123.19</ele>
        <time>2010-04-02T14:23:13Z</time>
      </trkpt>
      <trkpt lat="50.48324" lon="5.70395">
        <ele>123.19</ele>
        <time>2010-04-02T14:23:14Z</time>
      </trkpt>
      <trkpt lat="50.48328" lon="5.70387">
        <ele>123.19</ele>
        <time>2010-04-02T14:23:15Z</time>
      </trkpt>
      <trkpt lat="50.48332" lon="5.7038">
        <ele>123.19</ele>
        <time>2010-04-02T14:23:16Z</time>
      </trkpt>
      <trkpt lat="50.48338" lon="5.70375">
        <ele>123.67</ele>
        <time>2010-04-02T14:23:17Z</time>
      </trkpt>
      <trkpt lat="50.48344" lon="5.70369">
        <ele>123.67</ele>
        <time>2010-04-02T14:23:18Z</time>
      </trkpt>
      <trkpt lat="50.48403" lon="5.70322">
        <ele>128.95</ele>
        <time>2010-04-02T14:23:24Z</time>
      </trkpt>
      <trkpt lat="50.48412" lon="5.70316">
        <ele>129.92</ele>
        <time>2010-04-02T14:23:25Z</time>
      </trkpt>
      <trkpt lat="50.48423" lon="5.70314">
        <ele>130.88</ele>
        <time>2010-04-02T14:23:26Z</time>
      </trkpt>
      <trkpt lat="50.48435" lon="5.70315">
        <ele>131.36</ele>
        <time>2010-04-02T14:23:27Z</time>
      </trkpt>
      <trkpt lat="50.48447" lon="5.70317">
        <ele>132.32</ele>
        <time>2010-04-02T14:23:28Z</time>
      </trkpt>
      <trkpt lat="50.48548" lon="5.70343">
        <ele>140.49</ele>
        <time>2010-04-02T14:23:36Z</time>
      </trkpt>
      <trkpt lat="50.48561" lon="5.70341">
        <ele>141.93</ele>
        <time>2010-04-02T14:23:37Z</time>
      </trkpt>
      <trkpt lat="50.48573" lon="5.70337">
        <ele>142.89</ele>
        <time>2010-04-02T14:23:38Z</time>
      </trkpt>
      <trkpt lat="50.48607" lon="5.70321">
        <ele>147.22</ele>
        <time>2010-04-02T14:23:41Z</time>
      </trkpt>
      <trkpt lat="50.48615" lon="5.70321">
        <ele>148.18</ele>
        <time>2010-04-02T14:23:42Z</time>
      </trkpt>
      <trkpt lat="50.4862" lon="5.70324">
        <ele>149.14</ele>
        <time>2010-04-02T14:23:43Z</time>
      </trkpt>
      <trkpt lat="50.48625" lon="5.70335">
        <ele>149.14</ele>
        <time>2010-04-02T14:23:44Z</time>
      </trkpt>
      <trkpt lat="50.48629" lon="5.7035">
        <ele>149.62</ele>
        <time>2010-04-02T14:23:45Z</time>
      </trkpt>
      <trkpt lat="50.48632" lon="5.70367">
        <ele>150.58</ele>
        <time>2010-04-02T14:23:46Z</time>
      </trkpt>
      <trkpt lat="50.48635" lon="5.70386">
        <ele>152.03</ele>
        <time>2010-04-02T14:23:47Z</time>
      </trkpt>
      <trkpt lat="50.48645" lon="5.7044">
        <ele>156.83</ele>
        <time>2010-04-02T14:23:50Z</time>
      </trkpt>
      <trkpt lat="50.48651" lon="5.7046">
        <ele>158.27</ele>
        <time>2010-04-02T14:23:51Z</time>
      </trkpt>
      <trkpt lat="50.48658" lon="5.7048">
        <ele>160.2</ele>
        <time>2010-04-02T14:23:52Z</time>
      </trkpt>
      <trkpt lat="50.48666" lon="5.70499">
        <ele>161.64</ele>
        <time>2010-04-02T14:23:53Z</time>
      </trkpt>
      <trkpt lat="50.48675" lon="5.70518">
        <ele>163.56</ele>
        <time>2010-04-02T14:23:54Z</time>
      </trkpt>
      <trkpt lat="50.48772" lon="5.70675">
        <ele>175.58</ele>
        <time>2010-04-02T14:24:02Z</time>
      </trkpt>
      <trkpt lat="50.48835" lon="5.70768">
        <ele>186.15</ele>
        <time>2010-04-02T14:24:07Z</time>
      </trkpt>
      <trkpt lat="50.48845" lon="5.70774">
        <ele>188.56</ele>
        <time>2010-04-02T14:24:08Z</time>
      </trkpt>
      <trkpt lat="50.48856" lon="5.70775">
        <ele>190.96</ele>
        <time>2010-04-02T14:24:09Z</time>
      </trkpt>
      <trkpt lat="50.48867" lon="5.70772">
        <ele>192.4</ele>
        <time>2010-04-02T14:24:10Z</time>
      </trkpt>
      <trkpt lat="50.48878" lon="5.70767">
        <ele>194.32</ele>
        <time>2010-04-02T14:24:11Z</time>
      </trkpt>
      <trkpt lat="50.48887" lon="5.70762">
        <ele>195.77</ele>
        <time>2010-04-02T14:24:12Z</time>
      </trkpt>
      <trkpt lat="50.48898" lon="5.70754">
        <ele>198.65</ele>
        <time>2010-04-02T14:24:17Z</time>
      </trkpt>
      <trkpt lat="50.48913" lon="5.70745">
        <ele>203.46</ele>
        <time>2010-04-02T14:24:47Z</time>
      </trkpt>
      <trkpt lat="50.48976" lon="5.707">
        <ele>206.82</ele>
        <time>2010-04-02T14:24:54Z</time>
      </trkpt>
      <trkpt lat="50.49064" lon="5.70597">
        <ele>219.32</ele>
        <time>2010-04-02T14:25:03Z</time>
      </trkpt>
      <trkpt lat="50.49074" lon="5.70588">
        <ele>221.24</ele>
        <time>2010-04-02T14:25:04Z</time>
      </trkpt>
      <trkpt lat="50.49085" lon="5.70579">
        <ele>223.16</ele>
        <time>2010-04-02T14:25:05Z</time>
      </trkpt>
      <trkpt lat="50.49093" lon="5.70567">
        <ele>225.09</ele>
        <time>2010-04-02T14:25:06Z</time>
      </trkpt>
      <trkpt lat="50.49099" lon="5.70551">
        <ele>227.01</ele>
        <time>2010-04-02T14:25:07Z</time>
      </trkpt>
      <trkpt lat="50.49103" lon="5.70533">
        <ele>229.41</ele>
        <time>2010-04-02T14:25:08Z</time>
      </trkpt>
      <trkpt lat="50.49104" lon="5.70514">
        <ele>231.81</ele>
        <time>2010-04-02T14:25:09Z</time>
      </trkpt>
      <trkpt lat="50.49103" lon="5.70494">
        <ele>234.22</ele>
        <time>2010-04-02T14:25:10Z</time>
      </trkpt>
      <trkpt lat="50.491" lon="5.70476">
        <ele>236.62</ele>
        <time>2010-04-02T14:25:11Z</time>
      </trkpt>
      <trkpt lat="50.49097" lon="5.70457">
        <ele>239.02</ele>
        <time>2010-04-02T14:25:12Z</time>
      </trkpt>
      <trkpt lat="50.49093" lon="5.70423">
        <ele>242.39</ele>
        <time>2010-04-02T14:25:14Z</time>
      </trkpt>
      <trkpt lat="50.49092" lon="5.70405">
        <ele>243.83</ele>
        <time>2010-04-02T14:25:15Z</time>
      </trkpt>
      <trkpt lat="50.49093" lon="5.70386">
        <ele>245.27</ele>
        <time>2010-04-02T14:25:16Z</time>
      </trkpt>
      <trkpt lat="50.49094" lon="5.70365">
        <ele>246.72</ele>
        <time>2010-04-02T14:25:17Z</time>
      </trkpt>
      <trkpt lat="50.49097" lon="5.70345">
        <ele>248.64</ele>
        <time>2010-04-02T14:25:18Z</time>
      </trkpt>
      <trkpt lat="50.491" lon="5.70324">
        <ele>250.08</ele>
        <time>2010-04-02T14:25:19Z</time>
      </trkpt>
      <trkpt lat="50.49127" lon="5.70195">
        <ele>258.73</ele>
        <time>2010-04-02T14:25:25Z</time>
      </trkpt>
      <trkpt lat="50.49135" lon="5.70178">
        <ele>260.17</ele>
        <time>2010-04-02T14:25:26Z</time>
      </trkpt>
      <trkpt lat="50.49146" lon="5.70163">
        <ele>261.62</ele>
        <time>2010-04-02T14:25:27Z</time>
      </trkpt>
      <trkpt lat="50.49158" lon="5.70151">
        <ele>263.54</ele>
        <time>2010-04-02T14:25:28Z</time>
      </trkpt>
      <trkpt lat="50.4917" lon="5.70139">
        <ele>265.46</ele>
        <time>2010-04-02T14:25:29Z</time>
      </trkpt>
      <trkpt lat="50.49182" lon="5.70127">
        <ele>267.38</ele>
        <time>2010-04-02T14:25:30Z</time>
      </trkpt>
      <trkpt lat="50.49193" lon="5.70112">
        <ele>269.31</ele>
        <time>2010-04-02T14:25:31Z</time>
      </trkpt>
      <trkpt lat="50.49203" lon="5.70098">
        <ele>271.23</ele>
        <time>2010-04-02T14:25:32Z</time>
      </trkpt>
      <trkpt lat="50.49212" lon="5.70081">
        <ele>272.67</ele>
        <time>2010-04-02T14:25:33Z</time>
      </trkpt>
      <trkpt lat="50.49219" lon="5.70063">
        <ele>275.07</ele>
        <time>2010-04-02T14:25:34Z</time>
      </trkpt>
      <trkpt lat="50.49223" lon="5.70043">
        <ele>277</ele>
        <time>2010-04-02T14:25:35Z</time>
      </trkpt>
      <trkpt lat="50.49226" lon="5.70022">
        <ele>279.4</ele>
        <time>2010-04-02T14:25:36Z</time>
      </trkpt>
      <trkpt lat="50.49227" lon="5.70004">
        <ele>281.32</ele>
        <time>2010-04-02T14:25:37Z</time>
      </trkpt>
      <trkpt lat="50.4923" lon="5.69931">
        <ele>288.53</ele>
        <time>2010-04-02T14:25:43Z</time>
      </trkpt>
      <trkpt lat="50.49229" lon="5.69923">
        <ele>289.01</ele>
        <time>2010-04-02T14:25:44Z</time>
      </trkpt>
      <trkpt lat="50.49226" lon="5.69916">
        <ele>289.49</ele>
        <time>2010-04-02T14:25:45Z</time>
      </trkpt>
      <trkpt lat="50.4922" lon="5.69903">
        <ele>290.46</ele>
        <time>2010-04-02T14:25:47Z</time>
      </trkpt>
      <trkpt lat="50.49218" lon="5.69896">
        <ele>290.94</ele>
        <time>2010-04-02T14:25:48Z</time>
      </trkpt>
      <trkpt lat="50.49202" lon="5.69869">
        <ele>291.9</ele>
        <time>2010-04-02T14:25:51Z</time>
      </trkpt>
      <trkpt lat="50.49131" lon="5.6978">
        <ele>294.3</ele>
        <time>2010-04-02T14:25:58Z</time>
      </trkpt>
      <trkpt lat="50.49113" lon="5.69752">
        <ele>296.22</ele>
        <time>2010-04-02T14:26:00Z</time>
      </trkpt>
      <trkpt lat="50.4908" lon="5.69682">
        <ele>300.07</ele>
        <time>2010-04-02T14:26:04Z</time>
      </trkpt>
      <trkpt lat="50.4898" lon="5.69559">
        <ele>308.72</ele>
        <time>2010-04-02T14:26:13Z</time>
      </trkpt>
      <trkpt lat="50.48863" lon="5.69463">
        <ele>311.12</ele>
        <time>2010-04-02T14:26:23Z</time>
      </trkpt>
    </trkseg>
  </trk>
  <trk>
    <name><![CDATA[Liege bastogne liege 36 k_4]]></name>
    <trkseg>
      <trkpt lat="50.48863" lon="5.69463">
        <ele>311.12</ele>
        <time>2010-04-02T14:26:23Z</time>
      </trkpt>
      <trkpt lat="50.48708" lon="5.69316">
        <ele>306.8</ele>
        <time>2010-04-02T14:26:36Z</time>
      </trkpt>
      <trkpt lat="50.48627" lon="5.69245">
        <ele>301.99</ele>
        <time>2010-04-02T14:26:45Z</time>
      </trkpt>
      <trkpt lat="50.48624" lon="5.69238">
        <ele>301.51</ele>
        <time>2010-04-02T14:26:46Z</time>
      </trkpt>
      <trkpt lat="50.48623" lon="5.69231">
        <ele>301.03</ele>
        <time>2010-04-02T14:26:47Z</time>
      </trkpt>
      <trkpt lat="50.48624" lon="5.69224">
        <ele>301.03</ele>
        <time>2010-04-02T14:26:48Z</time>
      </trkpt>
      <trkpt lat="50.48628" lon="5.69216">
        <ele>300.55</ele>
        <time>2010-04-02T14:26:49Z</time>
      </trkpt>
      <trkpt lat="50.48633" lon="5.69209">
        <ele>300.07</ele>
        <time>2010-04-02T14:26:50Z</time>
      </trkpt>
      <trkpt lat="50.48702" lon="5.69108">
        <ele>294.78</ele>
        <time>2010-04-02T14:26:59Z</time>
      </trkpt>
      <trkpt lat="50.48824" lon="5.68926">
        <ele>288.05</ele>
        <time>2010-04-02T14:27:11Z</time>
      </trkpt>
      <trkpt lat="50.48953" lon="5.68728">
        <ele>280.84</ele>
        <time>2010-04-02T14:27:23Z</time>
      </trkpt>
      <trkpt lat="50.48968" lon="5.68688">
        <ele>280.84</ele>
        <time>2010-04-02T14:27:25Z</time>
      </trkpt>
      <trkpt lat="50.49022" lon="5.68487">
        <ele>287.57</ele>
        <time>2010-04-02T14:27:34Z</time>
      </trkpt>
      <trkpt lat="50.49115" lon="5.68186">
        <ele>293.34</ele>
        <time>2010-04-02T14:27:48Z</time>
      </trkpt>
      <trkpt lat="50.49123" lon="5.68167">
        <ele>293.82</ele>
        <time>2010-04-02T14:27:49Z</time>
      </trkpt>
      <trkpt lat="50.49133" lon="5.68148">
        <ele>294.3</ele>
        <time>2010-04-02T14:27:50Z</time>
      </trkpt>
      <trkpt lat="50.4927" lon="5.67909">
        <ele>296.22</ele>
        <time>2010-04-02T14:28:03Z</time>
      </trkpt>
      <trkpt lat="50.49278" lon="5.67894">
        <ele>296.22</ele>
        <time>2010-04-02T14:28:04Z</time>
      </trkpt>
      <trkpt lat="50.49283" lon="5.67878">
        <ele>296.7</ele>
        <time>2010-04-02T14:28:05Z</time>
      </trkpt>
      <trkpt lat="50.49286" lon="5.6786">
        <ele>297.67</ele>
        <time>2010-04-02T14:28:06Z</time>
      </trkpt>
      <trkpt lat="50.49285" lon="5.67841">
        <ele>297.67</ele>
        <time>2010-04-02T14:28:07Z</time>
      </trkpt>
      <trkpt lat="50.49283" lon="5.67821">
        <ele>298.15</ele>
        <time>2010-04-02T14:28:08Z</time>
      </trkpt>
      <trkpt lat="50.49285" lon="5.67579">
        <ele>298.63</ele>
        <time>2010-04-02T14:28:19Z</time>
      </trkpt>
      <trkpt lat="50.49289" lon="5.67415">
        <ele>295.74</ele>
        <time>2010-04-02T14:28:27Z</time>
      </trkpt>
      <trkpt lat="50.49286" lon="5.67396">
        <ele>295.74</ele>
        <time>2010-04-02T14:28:28Z</time>
      </trkpt>
      <trkpt lat="50.4928" lon="5.67311">
        <ele>294.3</ele>
        <time>2010-04-02T14:28:33Z</time>
      </trkpt>
      <trkpt lat="50.49282" lon="5.67297">
        <ele>294.3</ele>
        <time>2010-04-02T14:28:34Z</time>
      </trkpt>
      <trkpt lat="50.49286" lon="5.67285">
        <ele>293.82</ele>
        <time>2010-04-02T14:28:35Z</time>
      </trkpt>
      <trkpt lat="50.49293" lon="5.67276">
        <ele>293.34</ele>
        <time>2010-04-02T14:28:36Z</time>
      </trkpt>
      <trkpt lat="50.493" lon="5.67268">
        <ele>293.34</ele>
        <time>2010-04-02T14:28:37Z</time>
      </trkpt>
      <trkpt lat="50.49309" lon="5.6726">
        <ele>292.38</ele>
        <time>2010-04-02T14:28:38Z</time>
      </trkpt>
      <trkpt lat="50.49318" lon="5.67252">
        <ele>291.9</ele>
        <time>2010-04-02T14:28:39Z</time>
      </trkpt>
      <trkpt lat="50.49328" lon="5.67246">
        <ele>291.42</ele>
        <time>2010-04-02T14:28:40Z</time>
      </trkpt>
      <trkpt lat="50.49338" lon="5.6724">
        <ele>290.94</ele>
        <time>2010-04-02T14:28:41Z</time>
      </trkpt>
      <trkpt lat="50.49367" lon="5.67226">
        <ele>290.94</ele>
        <time>2010-04-02T14:28:44Z</time>
      </trkpt>
      <trkpt lat="50.49374" lon="5.6722">
        <ele>290.94</ele>
        <time>2010-04-02T14:28:45Z</time>
      </trkpt>
      <trkpt lat="50.49379" lon="5.67211">
        <ele>291.42</ele>
        <time>2010-04-02T14:28:46Z</time>
      </trkpt>
      <trkpt lat="50.49384" lon="5.672">
        <ele>291.42</ele>
        <time>2010-04-02T14:28:47Z</time>
      </trkpt>
      <trkpt lat="50.49387" lon="5.67188">
        <ele>291.42</ele>
        <time>2010-04-02T14:28:48Z</time>
      </trkpt>
      <trkpt lat="50.4939" lon="5.67175">
        <ele>291.42</ele>
        <time>2010-04-02T14:28:49Z</time>
      </trkpt>
      <trkpt lat="50.49415" lon="5.67075">
        <ele>291.9</ele>
        <time>2010-04-02T14:28:58Z</time>
      </trkpt>
      <trkpt lat="50.49419" lon="5.67063">
        <ele>291.9</ele>
        <time>2010-04-02T14:29:01Z</time>
      </trkpt>
      <trkpt lat="50.49423" lon="5.67058">
        <ele>292.38</ele>
        <time>2010-04-02T14:29:02Z</time>
      </trkpt>
      <trkpt lat="50.49428" lon="5.67053">
        <ele>292.38</ele>
        <time>2010-04-02T14:29:03Z</time>
      </trkpt>
      <trkpt lat="50.49486" lon="5.67">
        <ele>290.94</ele>
        <time>2010-04-02T14:29:10Z</time>
      </trkpt>
      <trkpt lat="50.49548" lon="5.66948">
        <ele>289.01</ele>
        <time>2010-04-02T14:29:16Z</time>
      </trkpt>
      <trkpt lat="50.49558" lon="5.66948">
        <ele>289.01</ele>
        <time>2010-04-02T14:29:17Z</time>
      </trkpt>
      <trkpt lat="50.49569" lon="5.66952">
        <ele>289.01</ele>
        <time>2010-04-02T14:29:18Z</time>
      </trkpt>
      <trkpt lat="50.49666" lon="5.66985">
        <ele>282.77</ele>
        <time>2010-04-02T14:29:25Z</time>
      </trkpt>
      <trkpt lat="50.49814" lon="5.66991">
        <ele>274.59</ele>
        <time>2010-04-02T14:29:34Z</time>
      </trkpt>
      <trkpt lat="50.49876" lon="5.66968">
        <ele>271.23</ele>
        <time>2010-04-02T14:29:38Z</time>
      </trkpt>
      <trkpt lat="50.49889" lon="5.66957">
        <ele>271.23</ele>
        <time>2010-04-02T14:29:39Z</time>
      </trkpt>
      <trkpt lat="50.49902" lon="5.66944">
        <ele>270.27</ele>
        <time>2010-04-02T14:29:40Z</time>
      </trkpt>
      <trkpt lat="50.49915" lon="5.66929">
        <ele>268.83</ele>
        <time>2010-04-02T14:29:41Z</time>
      </trkpt>
      <trkpt lat="50.49927" lon="5.66913">
        <ele>267.86</ele>
        <time>2010-04-02T14:29:42Z</time>
      </trkpt>
      <trkpt lat="50.49991" lon="5.66778">
        <ele>255.37</ele>
        <time>2010-04-02T14:29:49Z</time>
      </trkpt>
      <trkpt lat="50.49997" lon="5.66754">
        <ele>254.41</ele>
        <time>2010-04-02T14:29:50Z</time>
      </trkpt>
      <trkpt lat="50.50002" lon="5.66729">
        <ele>252.96</ele>
        <time>2010-04-02T14:29:51Z</time>
      </trkpt>
      <trkpt lat="50.50005" lon="5.66703">
        <ele>251.52</ele>
        <time>2010-04-02T14:29:52Z</time>
      </trkpt>
      <trkpt lat="50.50007" lon="5.66677">
        <ele>250.08</ele>
        <time>2010-04-02T14:29:53Z</time>
      </trkpt>
      <trkpt lat="50.50007" lon="5.66651">
        <ele>248.64</ele>
        <time>2010-04-02T14:29:54Z</time>
      </trkpt>
      <trkpt lat="50.50006" lon="5.66628">
        <ele>247.2</ele>
        <time>2010-04-02T14:29:55Z</time>
      </trkpt>
      <trkpt lat="50.50005" lon="5.66534">
        <ele>243.35</ele>
        <time>2010-04-02T14:30:00Z</time>
      </trkpt>
      <trkpt lat="50.50007" lon="5.66517">
        <ele>242.87</ele>
        <time>2010-04-02T14:30:01Z</time>
      </trkpt>
      <trkpt lat="50.50011" lon="5.66502">
        <ele>241.91</ele>
        <time>2010-04-02T14:30:02Z</time>
      </trkpt>
      <trkpt lat="50.50019" lon="5.6649">
        <ele>241.43</ele>
        <time>2010-04-02T14:30:03Z</time>
      </trkpt>
      <trkpt lat="50.50027" lon="5.66478">
        <ele>240.95</ele>
        <time>2010-04-02T14:30:04Z</time>
      </trkpt>
      <trkpt lat="50.50038" lon="5.66469">
        <ele>240.47</ele>
        <time>2010-04-02T14:30:05Z</time>
      </trkpt>
      <trkpt lat="50.50049" lon="5.66462">
        <ele>239.51</ele>
        <time>2010-04-02T14:30:06Z</time>
      </trkpt>
      <trkpt lat="50.5006" lon="5.66456">
        <ele>239.02</ele>
        <time>2010-04-02T14:30:07Z</time>
      </trkpt>
      <trkpt lat="50.50072" lon="5.6645">
        <ele>238.54</ele>
        <time>2010-04-02T14:30:08Z</time>
      </trkpt>
      <trkpt lat="50.5022" lon="5.66334">
        <ele>243.35</ele>
        <time>2010-04-02T14:30:22Z</time>
      </trkpt>
      <trkpt lat="50.50226" lon="5.66321">
        <ele>242.39</ele>
        <time>2010-04-02T14:30:23Z</time>
      </trkpt>
      <trkpt lat="50.5023" lon="5.66307">
        <ele>241.43</ele>
        <time>2010-04-02T14:30:24Z</time>
      </trkpt>
      <trkpt lat="50.50234" lon="5.66292">
        <ele>239.99</ele>
        <time>2010-04-02T14:30:25Z</time>
      </trkpt>
      <trkpt lat="50.50238" lon="5.66277">
        <ele>239.02</ele>
        <time>2010-04-02T14:30:26Z</time>
      </trkpt>
      <trkpt lat="50.50243" lon="5.66262">
        <ele>237.58</ele>
        <time>2010-04-02T14:30:27Z</time>
      </trkpt>
      <trkpt lat="50.5025" lon="5.66249">
        <ele>236.62</ele>
        <time>2010-04-02T14:30:28Z</time>
      </trkpt>
      <trkpt lat="50.50256" lon="5.66237">
        <ele>235.66</ele>
        <time>2010-04-02T14:30:29Z</time>
      </trkpt>
      <trkpt lat="50.50263" lon="5.66228">
        <ele>235.18</ele>
        <time>2010-04-02T14:30:30Z</time>
      </trkpt>
      <trkpt lat="50.5027" lon="5.6622">
        <ele>235.18</ele>
        <time>2010-04-02T14:30:31Z</time>
      </trkpt>
      <trkpt lat="50.50324" lon="5.66167">
        <ele>236.14</ele>
        <time>2010-04-02T14:30:38Z</time>
      </trkpt>
      <trkpt lat="50.50333" lon="5.66164">
        <ele>234.7</ele>
        <time>2010-04-02T14:30:39Z</time>
      </trkpt>
      <trkpt lat="50.50342" lon="5.66162">
        <ele>233.26</ele>
        <time>2010-04-02T14:30:40Z</time>
      </trkpt>
      <trkpt lat="50.50351" lon="5.6616">
        <ele>233.26</ele>
        <time>2010-04-02T14:30:41Z</time>
      </trkpt>
      <trkpt lat="50.50358" lon="5.6616">
        <ele>234.22</ele>
        <time>2010-04-02T14:30:42Z</time>
      </trkpt>
      <trkpt lat="50.50364" lon="5.66159">
        <ele>234.7</ele>
        <time>2010-04-02T14:30:43Z</time>
      </trkpt>
      <trkpt lat="50.50378" lon="5.66162">
        <ele>236.14</ele>
        <time>2010-04-02T14:30:45Z</time>
      </trkpt>
      <trkpt lat="50.50385" lon="5.66166">
        <ele>236.14</ele>
        <time>2010-04-02T14:30:46Z</time>
      </trkpt>
      <trkpt lat="50.50392" lon="5.66171">
        <ele>235.66</ele>
        <time>2010-04-02T14:30:47Z</time>
      </trkpt>
      <trkpt lat="50.50477" lon="5.66261">
        <ele>228.45</ele>
        <time>2010-04-02T14:30:58Z</time>
      </trkpt>
      <trkpt lat="50.50513" lon="5.6629">
        <ele>227.49</ele>
        <time>2010-04-02T14:31:02Z</time>
      </trkpt>
      <trkpt lat="50.50522" lon="5.6629">
        <ele>228.45</ele>
        <time>2010-04-02T14:31:03Z</time>
      </trkpt>
      <trkpt lat="50.50534" lon="5.66296">
        <ele>227.49</ele>
        <time>2010-04-02T14:31:04Z</time>
      </trkpt>
      <trkpt lat="50.50546" lon="5.66297">
        <ele>227.49</ele>
        <time>2010-04-02T14:31:05Z</time>
      </trkpt>
      <trkpt lat="50.50558" lon="5.66298">
        <ele>227.49</ele>
        <time>2010-04-02T14:31:06Z</time>
      </trkpt>
      <trkpt lat="50.5058" lon="5.66291">
        <ele>227.49</ele>
        <time>2010-04-02T14:31:08Z</time>
      </trkpt>
      <trkpt lat="50.50591" lon="5.66285">
        <ele>227.49</ele>
        <time>2010-04-02T14:31:09Z</time>
      </trkpt>
      <trkpt lat="50.50601" lon="5.66278">
        <ele>227.49</ele>
        <time>2010-04-02T14:31:10Z</time>
      </trkpt>
      <trkpt lat="50.50611" lon="5.66269">
        <ele>227.01</ele>
        <time>2010-04-02T14:31:11Z</time>
      </trkpt>
      <trkpt lat="50.5062" lon="5.66259">
        <ele>225.57</ele>
        <time>2010-04-02T14:31:12Z</time>
      </trkpt>
      <trkpt lat="50.50629" lon="5.66248">
        <ele>224.61</ele>
        <time>2010-04-02T14:31:13Z</time>
      </trkpt>
      <trkpt lat="50.5068" lon="5.66193">
        <ele>226.05</ele>
        <time>2010-04-06T06:49:31Z</time>
      </trkpt>
      <trkpt lat="50.50685" lon="5.66193">
        <ele>225.57</ele>
        <time>2010-04-06T06:49:32Z</time>
      </trkpt>
      <trkpt lat="50.50694" lon="5.66193">
        <ele>225.09</ele>
        <time>2010-04-06T06:49:34Z</time>
      </trkpt>
      <trkpt lat="50.50699" lon="5.6619">
        <ele>224.61</ele>
        <time>2010-04-06T06:49:35Z</time>
      </trkpt>
      <trkpt lat="50.50703" lon="5.66184">
        <ele>224.61</ele>
        <time>2010-04-06T06:49:36Z</time>
      </trkpt>
      <trkpt lat="50.50707" lon="5.66176">
        <ele>224.12</ele>
        <time>2010-04-06T06:49:37Z</time>
      </trkpt>
      <trkpt lat="50.5071" lon="5.66166">
        <ele>223.64</ele>
        <time>2010-04-06T06:49:38Z</time>
      </trkpt>
      <trkpt lat="50.50718" lon="5.66147">
        <ele>223.16</ele>
        <time>2010-04-06T06:49:40Z</time>
      </trkpt>
      <trkpt lat="50.50725" lon="5.66137">
        <ele>222.68</ele>
        <time>2010-04-06T06:49:41Z</time>
      </trkpt>
      <trkpt lat="50.50732" lon="5.66127">
        <ele>222.2</ele>
        <time>2010-04-06T06:49:42Z</time>
      </trkpt>
      <trkpt lat="50.50821" lon="5.66023">
        <ele>221.24</ele>
        <time>2010-04-06T06:49:51Z</time>
      </trkpt>
      <trkpt lat="50.50884" lon="5.65972">
        <ele>223.64</ele>
        <time>2010-04-06T06:49:57Z</time>
      </trkpt>
      <trkpt lat="50.50896" lon="5.65966">
        <ele>224.12</ele>
        <time>2010-04-06T06:49:58Z</time>
      </trkpt>
      <trkpt lat="50.51003" lon="5.65919">
        <ele>232.3</ele>
        <time>2010-04-06T06:50:06Z</time>
      </trkpt>
      <trkpt lat="50.51105" lon="5.65908">
        <ele>238.54</ele>
        <time>2010-04-06T06:50:13Z</time>
      </trkpt>
      <trkpt lat="50.51253" lon="5.65922">
        <ele>252.48</ele>
        <time>2010-04-06T06:50:24Z</time>
      </trkpt>
      <trkpt lat="50.51378" lon="5.65939">
        <ele>260.65</ele>
        <time>2010-04-06T06:50:34Z</time>
      </trkpt>
      <trkpt lat="50.51482" lon="5.65972">
        <ele>268.83</ele>
        <time>2010-04-06T06:50:44Z</time>
      </trkpt>
      <trkpt lat="50.51599" lon="5.66002">
        <ele>278.44</ele>
        <time>2010-04-06T06:50:56Z</time>
      </trkpt>
      <trkpt lat="50.51683" lon="5.66005">
        <ele>284.69</ele>
        <time>2010-04-06T06:51:05Z</time>
      </trkpt>
      <trkpt lat="50.51778" lon="5.65995">
        <ele>290.46</ele>
        <time>2010-04-06T06:51:15Z</time>
      </trkpt>
      <trkpt lat="50.51886" lon="5.65973">
        <ele>292.86</ele>
        <time>2010-04-06T06:51:25Z</time>
      </trkpt>
      <trkpt lat="50.52016" lon="5.65947">
        <ele>290.94</ele>
        <time>2010-04-06T06:51:35Z</time>
      </trkpt>
      <trkpt lat="50.52155" lon="5.65882">
        <ele>284.21</ele>
        <time>2010-04-06T06:51:45Z</time>
      </trkpt>
      <trkpt lat="50.5231" lon="5.65826">
        <ele>277.48</ele>
        <time>2010-04-06T06:51:56Z</time>
      </trkpt>
      <trkpt lat="50.52425" lon="5.65781">
        <ele>272.67</ele>
        <time>2010-04-06T06:52:02Z</time>
      </trkpt>
      <trkpt lat="50.52693" lon="5.65686">
        <ele>267.38</ele>
        <time>2010-04-06T06:52:14Z</time>
      </trkpt>
      <trkpt lat="50.52896" lon="5.65608">
        <ele>266.42</ele>
        <time>2010-04-06T06:52:24Z</time>
      </trkpt>
      <trkpt lat="50.53052" lon="5.65551">
        <ele>264.02</ele>
        <time>2010-04-06T06:52:34Z</time>
      </trkpt>
      <trkpt lat="50.53133" lon="5.65523">
        <ele>264.02</ele>
        <time>2010-04-06T06:52:41Z</time>
      </trkpt>
      <trkpt lat="50.53244" lon="5.65499">
        <ele>264.5</ele>
        <time>2010-04-06T06:52:49Z</time>
      </trkpt>
      <trkpt lat="50.53263" lon="5.65486">
        <ele>264.5</ele>
        <time>2010-04-06T06:52:50Z</time>
      </trkpt>
      <trkpt lat="50.53365" lon="5.6542">
        <ele>264.98</ele>
        <time>2010-04-06T06:52:54Z</time>
      </trkpt>
      <trkpt lat="50.5341" lon="5.65396">
        <ele>265.46</ele>
        <time>2010-04-06T06:52:56Z</time>
      </trkpt>
      <trkpt lat="50.53432" lon="5.65391">
        <ele>265.46</ele>
        <time>2010-04-06T06:52:57Z</time>
      </trkpt>
      <trkpt lat="50.53602" lon="5.65371">
        <ele>264.02</ele>
        <time>2010-04-06T06:53:04Z</time>
      </trkpt>
      <trkpt lat="50.53746" lon="5.65333">
        <ele>264.5</ele>
        <time>2010-04-06T06:53:11Z</time>
      </trkpt>
      <trkpt lat="50.53866" lon="5.65293">
        <ele>264.5</ele>
        <time>2010-04-06T06:53:19Z</time>
      </trkpt>
      <trkpt lat="50.53911" lon="5.65278">
        <ele>264.5</ele>
        <time>2010-04-06T06:53:25Z</time>
      </trkpt>
      <trkpt lat="50.53931" lon="5.65272">
        <ele>264.02</ele>
        <time>2010-04-06T06:53:31Z</time>
      </trkpt>
      <trkpt lat="50.53949" lon="5.65261">
        <ele>263.54</ele>
        <time>2010-04-06T06:53:35Z</time>
      </trkpt>
      <trkpt lat="50.53948" lon="5.65253">
        <ele>263.06</ele>
        <time>2010-04-06T06:53:36Z</time>
      </trkpt>
      <trkpt lat="50.53946" lon="5.65237">
        <ele>263.06</ele>
        <time>2010-04-06T06:53:37Z</time>
      </trkpt>
      <trkpt lat="50.53945" lon="5.65218">
        <ele>262.58</ele>
        <time>2010-04-06T06:53:38Z</time>
      </trkpt>
      <trkpt lat="50.53943" lon="5.6519">
        <ele>262.1</ele>
        <time>2010-04-06T06:53:39Z</time>
      </trkpt>
      <trkpt lat="50.5394" lon="5.65026">
        <ele>260.17</ele>
        <time>2010-04-06T06:53:43Z</time>
      </trkpt>
      <trkpt lat="50.53935" lon="5.64712">
        <ele>255.85</ele>
        <time>2010-04-06T06:53:49Z</time>
      </trkpt>
      <trkpt lat="50.53931" lon="5.64495">
        <ele>252.96</ele>
        <time>2010-04-06T06:53:54Z</time>
      </trkpt>
      <trkpt lat="50.539" lon="5.64203">
        <ele>254.41</ele>
        <time>2010-04-06T06:54:02Z</time>
      </trkpt>
      <trkpt lat="50.5387" lon="5.64002">
        <ele>255.85</ele>
        <time>2010-04-06T06:54:09Z</time>
      </trkpt>
      <trkpt lat="50.5381" lon="5.63817">
        <ele>255.37</ele>
        <time>2010-04-06T06:54:16Z</time>
      </trkpt>
      <trkpt lat="50.53717" lon="5.63615">
        <ele>252.48</ele>
        <time>2010-04-06T06:54:25Z</time>
      </trkpt>
      <trkpt lat="50.53629" lon="5.63387">
        <ele>252.48</ele>
        <time>2010-04-06T06:54:35Z</time>
      </trkpt>
      <trkpt lat="50.53575" lon="5.63169">
        <ele>255.85</ele>
        <time>2010-04-06T06:54:44Z</time>
      </trkpt>
      <trkpt lat="50.53545" lon="5.63062">
        <ele>256.81</ele>
        <time>2010-04-06T06:54:50Z</time>
      </trkpt>
      <trkpt lat="50.53539" lon="5.63044">
        <ele>256.81</ele>
        <time>2010-04-06T06:54:55Z</time>
      </trkpt>
      <trkpt lat="50.53528" lon="5.63015">
        <ele>257.29</ele>
        <time>2010-04-06T06:55:09Z</time>
      </trkpt>
      <trkpt lat="50.53492" lon="5.62882">
        <ele>258.73</ele>
        <time>2010-04-06T06:55:19Z</time>
      </trkpt>
      <trkpt lat="50.53472" lon="5.62773">
        <ele>260.65</ele>
        <time>2010-04-06T06:55:26Z</time>
      </trkpt>
      <trkpt lat="50.53466" lon="5.62757">
        <ele>260.65</ele>
        <time>2010-04-06T06:55:27Z</time>
      </trkpt>
      <trkpt lat="50.5346" lon="5.62743">
        <ele>261.14</ele>
        <time>2010-04-06T06:55:28Z</time>
      </trkpt>
      <trkpt lat="50.53396" lon="5.62633">
        <ele>259.69</ele>
        <time>2010-04-06T06:55:36Z</time>
      </trkpt>
      <trkpt lat="50.5332" lon="5.62506">
        <ele>255.37</ele>
        <time>2010-04-06T06:55:42Z</time>
      </trkpt>
      <trkpt lat="50.53209" lon="5.6231">
        <ele>246.23</ele>
        <time>2010-04-06T06:55:51Z</time>
      </trkpt>
      <trkpt lat="50.53199" lon="5.62296">
        <ele>245.75</ele>
        <time>2010-04-06T06:55:52Z</time>
      </trkpt>
      <trkpt lat="50.53189" lon="5.62285">
        <ele>245.27</ele>
        <time>2010-04-06T06:55:53Z</time>
      </trkpt>
      <trkpt lat="50.5317" lon="5.62268">
        <ele>244.31</ele>
        <time>2010-04-06T06:55:55Z</time>
      </trkpt>
      <trkpt lat="50.53165" lon="5.62257">
        <ele>244.31</ele>
        <time>2010-04-06T06:55:56Z</time>
      </trkpt>
      <trkpt lat="50.53162" lon="5.62242">
        <ele>244.31</ele>
        <time>2010-04-06T06:55:57Z</time>
      </trkpt>
      <trkpt lat="50.53161" lon="5.62223">
        <ele>244.31</ele>
        <time>2010-04-06T06:55:58Z</time>
      </trkpt>
      <trkpt lat="50.53162" lon="5.62195">
        <ele>244.31</ele>
        <time>2010-04-06T06:55:59Z</time>
      </trkpt>
      <trkpt lat="50.53164" lon="5.62013">
        <ele>244.31</ele>
        <time>2010-04-06T06:56:04Z</time>
      </trkpt>
      <trkpt lat="50.53163" lon="5.61746">
        <ele>245.75</ele>
        <time>2010-04-06T06:56:11Z</time>
      </trkpt>
      <trkpt lat="50.53144" lon="5.61548">
        <ele>248.64</ele>
        <time>2010-04-06T06:56:18Z</time>
      </trkpt>
      <trkpt lat="50.53137" lon="5.6137">
        <ele>247.68</ele>
        <time>2010-04-06T06:56:25Z</time>
      </trkpt>
      <trkpt lat="50.53142" lon="5.61137">
        <ele>246.23</ele>
        <time>2010-04-06T06:56:33Z</time>
      </trkpt>
      <trkpt lat="50.53139" lon="5.61113">
        <ele>246.72</ele>
        <time>2010-04-06T06:56:34Z</time>
      </trkpt>
      <trkpt lat="50.53134" lon="5.61088">
        <ele>246.72</ele>
        <time>2010-04-06T06:56:35Z</time>
      </trkpt>
      <trkpt lat="50.53087" lon="5.60865">
        <ele>245.27</ele>
        <time>2010-04-06T06:56:44Z</time>
      </trkpt>
      <trkpt lat="50.53044" lon="5.60673">
        <ele>244.79</ele>
        <time>2010-04-06T06:56:50Z</time>
      </trkpt>
      <trkpt lat="50.53019" lon="5.60419">
        <ele>242.39</ele>
        <time>2010-04-06T06:56:57Z</time>
      </trkpt>
      <trkpt lat="50.53012" lon="5.60328">
        <ele>241.43</ele>
        <time>2010-04-06T06:57:00Z</time>
      </trkpt>
      <trkpt lat="50.53013" lon="5.603">
        <ele>240.95</ele>
        <time>2010-04-06T06:57:01Z</time>
      </trkpt>
      <trkpt lat="50.53017" lon="5.60241">
        <ele>239.51</ele>
        <time>2010-04-06T06:57:03Z</time>
      </trkpt>
      <trkpt lat="50.53016" lon="5.60209">
        <ele>239.02</ele>
        <time>2010-04-06T06:57:04Z</time>
      </trkpt>
      <trkpt lat="50.53014" lon="5.60176">
        <ele>238.06</ele>
        <time>2010-04-06T06:57:05Z</time>
      </trkpt>
      <trkpt lat="50.52991" lon="5.59959">
        <ele>233.74</ele>
        <time>2010-04-06T06:57:12Z</time>
      </trkpt>
      <trkpt lat="50.52988" lon="5.59909">
        <ele>232.78</ele>
        <time>2010-04-06T06:57:14Z</time>
      </trkpt>
      <trkpt lat="50.5299" lon="5.59883">
        <ele>232.78</ele>
        <time>2010-04-06T06:57:15Z</time>
      </trkpt>
      <trkpt lat="50.52994" lon="5.59857">
        <ele>232.3</ele>
        <time>2010-04-06T06:57:16Z</time>
      </trkpt>
      <trkpt lat="50.52999" lon="5.5983">
        <ele>232.3</ele>
        <time>2010-04-06T06:57:17Z</time>
      </trkpt>
      <trkpt lat="50.53006" lon="5.59802">
        <ele>232.3</ele>
        <time>2010-04-06T06:57:18Z</time>
      </trkpt>
      <trkpt lat="50.53014" lon="5.59776">
        <ele>231.81</ele>
        <time>2010-04-06T06:57:19Z</time>
      </trkpt>
      <trkpt lat="50.53024" lon="5.5975">
        <ele>231.33</ele>
        <time>2010-04-06T06:57:20Z</time>
      </trkpt>
      <trkpt lat="50.53036" lon="5.59724">
        <ele>230.85</ele>
        <time>2010-04-06T06:57:21Z</time>
      </trkpt>
      <trkpt lat="50.53078" lon="5.59629">
        <ele>228.45</ele>
        <time>2010-04-06T06:57:25Z</time>
      </trkpt>
      <trkpt lat="50.53084" lon="5.59603">
        <ele>227.97</ele>
        <time>2010-04-06T06:57:26Z</time>
      </trkpt>
      <trkpt lat="50.53108" lon="5.59509">
        <ele>224.12</ele>
        <time>2010-04-06T06:57:30Z</time>
      </trkpt>
      <trkpt lat="50.53118" lon="5.59493">
        <ele>223.16</ele>
        <time>2010-04-06T06:57:31Z</time>
      </trkpt>
      <trkpt lat="50.53132" lon="5.59478">
        <ele>222.2</ele>
        <time>2010-04-06T06:57:32Z</time>
      </trkpt>
      <trkpt lat="50.53147" lon="5.59463">
        <ele>220.28</ele>
        <time>2010-04-06T06:57:33Z</time>
      </trkpt>
      <trkpt lat="50.53163" lon="5.59446">
        <ele>219.32</ele>
        <time>2010-04-06T06:57:34Z</time>
      </trkpt>
      <trkpt lat="50.53227" lon="5.59387">
        <ele>214.03</ele>
        <time>2010-04-06T06:57:38Z</time>
      </trkpt>
      <trkpt lat="50.53242" lon="5.5938">
        <ele>213.07</ele>
        <time>2010-04-06T06:57:39Z</time>
      </trkpt>
      <trkpt lat="50.53258" lon="5.59376">
        <ele>212.11</ele>
        <time>2010-04-06T06:57:40Z</time>
      </trkpt>
      <trkpt lat="50.53273" lon="5.59375">
        <ele>211.15</ele>
        <time>2010-04-06T06:57:41Z</time>
      </trkpt>
      <trkpt lat="50.53288" lon="5.59375">
        <ele>210.19</ele>
        <time>2010-04-06T06:57:42Z</time>
      </trkpt>
      <trkpt lat="50.53315" lon="5.5937">
        <ele>208.74</ele>
        <time>2010-04-06T06:57:44Z</time>
      </trkpt>
      <trkpt lat="50.53327" lon="5.59365">
        <ele>207.78</ele>
        <time>2010-04-06T06:57:45Z</time>
      </trkpt>
      <trkpt lat="50.53338" lon="5.59356">
        <ele>206.82</ele>
        <time>2010-04-06T06:57:46Z</time>
      </trkpt>
      <trkpt lat="50.53348" lon="5.59345">
        <ele>205.86</ele>
        <time>2010-04-06T06:57:47Z</time>
      </trkpt>
      <trkpt lat="50.53356" lon="5.5933">
        <ele>204.9</ele>
        <time>2010-04-06T06:57:48Z</time>
      </trkpt>
      <trkpt lat="50.53363" lon="5.59312">
        <ele>203.94</ele>
        <time>2010-04-06T06:57:49Z</time>
      </trkpt>
      <trkpt lat="50.53366" lon="5.59287">
        <ele>202.98</ele>
        <time>2010-04-06T06:57:50Z</time>
      </trkpt>
      <trkpt lat="50.53369" lon="5.59259">
        <ele>202.01</ele>
        <time>2010-04-06T06:57:51Z</time>
      </trkpt>
      <trkpt lat="50.53373" lon="5.59227">
        <ele>200.09</ele>
        <time>2010-04-06T06:57:52Z</time>
      </trkpt>
      <trkpt lat="50.53408" lon="5.58958">
        <ele>184.71</ele>
        <time>2010-04-06T06:58:01Z</time>
      </trkpt>
      <trkpt lat="50.53439" lon="5.58714">
        <ele>170.77</ele>
        <time>2010-04-06T06:58:10Z</time>
      </trkpt>
      <trkpt lat="50.53449" lon="5.58628">
        <ele>166.45</ele>
        <time>2010-04-06T06:58:14Z</time>
      </trkpt>
      <trkpt lat="50.53447" lon="5.58612">
        <ele>165.48</ele>
        <time>2010-04-06T06:58:15Z</time>
      </trkpt>
      <trkpt lat="50.53441" lon="5.58597">
        <ele>164.04</ele>
        <time>2010-04-06T06:58:16Z</time>
      </trkpt>
      <trkpt lat="50.53428" lon="5.58551">
        <ele>161.64</ele>
        <time>2010-04-06T06:58:18Z</time>
      </trkpt>
      <trkpt lat="50.53424" lon="5.58524">
        <ele>160.2</ele>
        <time>2010-04-06T06:58:19Z</time>
      </trkpt>
      <trkpt lat="50.5341" lon="5.58422">
        <ele>155.39</ele>
        <time>2010-04-06T06:58:23Z</time>
      </trkpt>
      <trkpt lat="50.53404" lon="5.584">
        <ele>153.95</ele>
        <time>2010-04-06T06:58:24Z</time>
      </trkpt>
      <trkpt lat="50.53326" lon="5.58182">
        <ele>141.45</ele>
        <time>2010-04-06T06:58:34Z</time>
      </trkpt>
      <trkpt lat="50.53258" lon="5.57977">
        <ele>128.95</ele>
        <time>2010-04-06T06:58:44Z</time>
      </trkpt>
      <trkpt lat="50.53203" lon="5.57811">
        <ele>119.82</ele>
        <time>2010-04-06T06:58:53Z</time>
      </trkpt>
      <trkpt lat="50.53182" lon="5.57715">
        <ele>114.53</ele>
        <time>2010-04-06T06:58:58Z</time>
      </trkpt>
      <trkpt lat="50.5316" lon="5.57561">
        <ele>107.32</ele>
        <time>2010-04-06T06:59:06Z</time>
      </trkpt>
      <trkpt lat="50.53145" lon="5.5741">
        <ele>101.56</ele>
        <time>2010-04-06T06:59:17Z</time>
      </trkpt>
      <trkpt lat="50.53133" lon="5.57337">
        <ele>98.19</ele>
        <time>2010-04-06T06:59:24Z</time>
      </trkpt>
      <trkpt lat="50.53131" lon="5.57326">
        <ele>97.71</ele>
        <time>2010-04-06T06:59:25Z</time>
      </trkpt>
      <trkpt lat="50.53131" lon="5.57256">
        <ele>92.9</ele>
        <time>2010-04-06T06:59:34Z</time>
      </trkpt>
      <trkpt lat="50.53131" lon="5.57217">
        <ele>91.94</ele>
        <time>2010-04-06T06:59:39Z</time>
      </trkpt>
      <trkpt lat="50.53132" lon="5.57208">
        <ele>91.94</ele>
        <time>2010-04-06T06:59:40Z</time>
      </trkpt>
      <trkpt lat="50.53134" lon="5.57199">
        <ele>91.46</ele>
        <time>2010-04-06T06:59:41Z</time>
      </trkpt>
      <trkpt lat="50.53148" lon="5.5714">
        <ele>91.46</ele>
        <time>2010-04-06T06:59:49Z</time>
      </trkpt>
      <trkpt lat="50.53162" lon="5.5706">
        <ele>91.94</ele>
        <time>2010-04-06T07:00:00Z</time>
      </trkpt>
      <trkpt lat="50.53182" lon="5.56955">
        <ele>92.9</ele>
        <time>2010-04-06T07:00:11Z</time>
      </trkpt>
      <trkpt lat="50.53211" lon="5.56858">
        <ele>92.9</ele>
        <time>2010-04-06T07:00:20Z</time>
      </trkpt>
      <trkpt lat="50.5325" lon="5.56746">
        <ele>93.39</ele>
        <time>2010-04-06T07:00:32Z</time>
      </trkpt>
      <trkpt lat="50.53253" lon="5.56738">
        <ele>93.39</ele>
        <time>2010-04-06T07:00:40Z</time>
      </trkpt>
      <trkpt lat="50.53263" lon="5.56715">
        <ele>96.27</ele>
        <time>2010-04-06T07:01:22Z</time>
      </trkpt>
      <trkpt lat="50.53269" lon="5.56707">
        <ele>96.27</ele>
        <time>2010-04-06T07:01:23Z</time>
      </trkpt>
      <trkpt lat="50.53277" lon="5.56699">
        <ele>95.79</ele>
        <time>2010-04-06T07:01:24Z</time>
      </trkpt>
      <trkpt lat="50.53366" lon="5.56606">
        <ele>95.79</ele>
        <time>2010-04-06T07:01:32Z</time>
      </trkpt>
      <trkpt lat="50.53389" lon="5.56581">
        <ele>97.23</ele>
        <time>2010-04-06T07:01:34Z</time>
      </trkpt>
      <trkpt lat="50.53401" lon="5.56572">
        <ele>97.71</ele>
        <time>2010-04-06T07:01:35Z</time>
      </trkpt>
      <trkpt lat="50.53413" lon="5.56567">
        <ele>98.19</ele>
        <time>2010-04-06T07:01:36Z</time>
      </trkpt>
      <trkpt lat="50.53426" lon="5.56568">
        <ele>98.67</ele>
        <time>2010-04-06T07:01:37Z</time>
      </trkpt>
      <trkpt lat="50.53439" lon="5.56573">
        <ele>99.63</ele>
        <time>2010-04-06T07:01:38Z</time>
      </trkpt>
      <trkpt lat="50.53453" lon="5.56582">
        <ele>100.11</ele>
        <time>2010-04-06T07:01:39Z</time>
      </trkpt>
      <trkpt lat="50.53468" lon="5.56595">
        <ele>101.08</ele>
        <time>2010-04-06T07:01:40Z</time>
      </trkpt>
      <trkpt lat="50.53485" lon="5.56609">
        <ele>102.04</ele>
        <time>2010-04-06T07:01:41Z</time>
      </trkpt>
      <trkpt lat="50.53546" lon="5.56645">
        <ele>104.92</ele>
        <time>2010-04-06T07:01:45Z</time>
      </trkpt>
      <trkpt lat="50.53557" lon="5.5666">
        <ele>104.92</ele>
        <time>2010-04-06T07:01:46Z</time>
      </trkpt>
      <trkpt lat="50.53564" lon="5.56682">
        <ele>105.88</ele>
        <time>2010-04-06T07:01:47Z</time>
      </trkpt>
      <trkpt lat="50.53571" lon="5.56705">
        <ele>107.32</ele>
        <time>2010-04-06T07:01:48Z</time>
      </trkpt>
      <trkpt lat="50.53577" lon="5.56733">
        <ele>108.77</ele>
        <time>2010-04-06T07:01:49Z</time>
      </trkpt>
      <trkpt lat="50.53584" lon="5.56763">
        <ele>109.73</ele>
        <time>2010-04-06T07:01:50Z</time>
      </trkpt>
      <trkpt lat="50.53616" lon="5.56986">
        <ele>119.34</ele>
        <time>2010-04-06T07:01:58Z</time>
      </trkpt>
      <trkpt lat="50.53647" lon="5.5731">
        <ele>132.8</ele>
        <time>2010-04-06T07:02:11Z</time>
      </trkpt>
      <trkpt lat="50.53672" lon="5.57501">
        <ele>137.13</ele>
        <time>2010-04-06T07:02:20Z</time>
      </trkpt>
      <trkpt lat="50.53698" lon="5.57732">
        <ele>138.09</ele>
        <time>2010-04-06T07:02:31Z</time>
      </trkpt>
      <trkpt lat="50.53721" lon="5.57885">
        <ele>133.28</ele>
        <time>2010-04-06T07:02:38Z</time>
      </trkpt>
      <trkpt lat="50.53719" lon="5.57905">
        <ele>132.8</ele>
        <time>2010-04-06T07:02:39Z</time>
      </trkpt>
      <trkpt lat="50.53714" lon="5.57924">
        <ele>132.32</ele>
        <time>2010-04-06T07:02:40Z</time>
      </trkpt>
      <trkpt lat="50.53709" lon="5.57943">
        <ele>131.84</ele>
        <time>2010-04-06T07:02:41Z</time>
      </trkpt>
      <trkpt lat="50.537" lon="5.5796">
        <ele>130.88</ele>
        <time>2010-04-06T07:02:42Z</time>
      </trkpt>
      <trkpt lat="50.53692" lon="5.57977">
        <ele>130.4</ele>
        <time>2010-04-06T07:02:43Z</time>
      </trkpt>
      <trkpt lat="50.53685" lon="5.57995">
        <ele>129.92</ele>
        <time>2010-04-06T07:02:44Z</time>
      </trkpt>
      <trkpt lat="50.53683" lon="5.58015">
        <ele>128.95</ele>
        <time>2010-04-06T07:02:45Z</time>
      </trkpt>
      <trkpt lat="50.53683" lon="5.58035">
        <ele>127.99</ele>
        <time>2010-04-06T07:02:46Z</time>
      </trkpt>
      <trkpt lat="50.53685" lon="5.58056">
        <ele>127.51</ele>
        <time>2010-04-06T07:02:47Z</time>
      </trkpt>
      <trkpt lat="50.5369" lon="5.58077">
        <ele>127.51</ele>
        <time>2010-04-06T07:02:48Z</time>
      </trkpt>
      <trkpt lat="50.53695" lon="5.58098">
        <ele>126.55</ele>
        <time>2010-04-06T07:02:49Z</time>
      </trkpt>
      <trkpt lat="50.53701" lon="5.58119">
        <ele>125.59</ele>
        <time>2010-04-06T07:02:50Z</time>
      </trkpt>
      <trkpt lat="50.53782" lon="5.58417">
        <ele>115.98</ele>
        <time>2010-04-06T07:03:03Z</time>
      </trkpt>
      <trkpt lat="50.53815" lon="5.58498">
        <ele>114.53</ele>
        <time>2010-04-06T07:03:07Z</time>
      </trkpt>
      <trkpt lat="50.53827" lon="5.58515">
        <ele>113.57</ele>
        <time>2010-04-06T07:03:08Z</time>
      </trkpt>
      <trkpt lat="50.53962" lon="5.58712">
        <ele>102.52</ele>
        <time>2010-04-06T07:03:20Z</time>
      </trkpt>
      <trkpt lat="50.53981" lon="5.58737">
        <ele>100.6</ele>
        <time>2010-04-06T07:03:23Z</time>
      </trkpt>
      <trkpt lat="50.53984" lon="5.58734">
        <ele>99.63</ele>
        <time>2010-04-06T07:03:24Z</time>
      </trkpt>
      <trkpt lat="50.53985" lon="5.58716">
        <ele>98.67</ele>
        <time>2010-04-06T07:03:27Z</time>
      </trkpt>
      <trkpt lat="50.53982" lon="5.58708">
        <ele>98.19</ele>
        <time>2010-04-06T07:03:28Z</time>
      </trkpt>
      <trkpt lat="50.53977" lon="5.58699">
        <ele>98.67</ele>
        <time>2010-04-06T07:03:29Z</time>
      </trkpt>
      <trkpt lat="50.53972" lon="5.58688">
        <ele>98.67</ele>
        <time>2010-04-06T07:03:30Z</time>
      </trkpt>
      <trkpt lat="50.53966" lon="5.58676">
        <ele>98.67</ele>
        <time>2010-04-06T07:03:31Z</time>
      </trkpt>
      <trkpt lat="50.53961" lon="5.58663">
        <ele>98.67</ele>
        <time>2010-04-06T07:03:32Z</time>
      </trkpt>
      <trkpt lat="50.53957" lon="5.58649">
        <ele>98.19</ele>
        <time>2010-04-06T07:03:33Z</time>
      </trkpt>
      <trkpt lat="50.53954" lon="5.58635">
        <ele>98.19</ele>
        <time>2010-04-06T07:03:34Z</time>
      </trkpt>
      <trkpt lat="50.53951" lon="5.58621">
        <ele>97.71</ele>
        <time>2010-04-06T07:03:35Z</time>
      </trkpt>
      <trkpt lat="50.5391" lon="5.58499">
        <ele>94.83</ele>
        <time>2010-04-06T07:03:44Z</time>
      </trkpt>
      <trkpt lat="50.53861" lon="5.58366">
        <ele>90.02</ele>
        <time>2010-04-06T07:03:52Z</time>
      </trkpt>
      <trkpt lat="50.53857" lon="5.58348">
        <ele>89.54</ele>
        <time>2010-04-06T07:03:53Z</time>
      </trkpt>
      <trkpt lat="50.53854" lon="5.58328">
        <ele>89.06</ele>
        <time>2010-04-06T07:03:54Z</time>
      </trkpt>
      <trkpt lat="50.53852" lon="5.58308">
        <ele>88.58</ele>
        <time>2010-04-06T07:03:55Z</time>
      </trkpt>
      <trkpt lat="50.53851" lon="5.58287">
        <ele>88.1</ele>
        <time>2010-04-06T07:03:56Z</time>
      </trkpt>
      <trkpt lat="50.53852" lon="5.58116">
        <ele>83.77</ele>
        <time>2010-04-06T07:04:05Z</time>
      </trkpt>
      <trkpt lat="50.53859" lon="5.58105">
        <ele>82.81</ele>
        <time>2010-04-06T07:04:06Z</time>
      </trkpt>
      <trkpt lat="50.53868" lon="5.58096">
        <ele>82.33</ele>
        <time>2010-04-06T07:04:07Z</time>
      </trkpt>
      <trkpt lat="50.53878" lon="5.58088">
        <ele>81.37</ele>
        <time>2010-04-06T07:04:08Z</time>
      </trkpt>
      <trkpt lat="50.5389" lon="5.58082">
        <ele>81.37</ele>
        <time>2010-04-06T07:04:09Z</time>
      </trkpt>
      <trkpt lat="50.53901" lon="5.58076">
        <ele>81.37</ele>
        <time>2010-04-06T07:04:10Z</time>
      </trkpt>
      <trkpt lat="50.53986" lon="5.5801">
        <ele>81.85</ele>
        <time>2010-04-06T07:04:19Z</time>
      </trkpt>
      <trkpt lat="50.53994" lon="5.58004">
        <ele>82.33</ele>
        <time>2010-04-06T07:04:20Z</time>
      </trkpt>
      <trkpt lat="50.54071" lon="5.57956">
        <ele>82.33</ele>
        <time>2010-04-06T07:04:30Z</time>
      </trkpt>
      <trkpt lat="50.54077" lon="5.57951">
        <ele>82.81</ele>
        <time>2010-04-06T07:04:31Z</time>
      </trkpt>
      <trkpt lat="50.54081" lon="5.57943">
        <ele>82.81</ele>
        <time>2010-04-06T07:04:32Z</time>
      </trkpt>
      <trkpt lat="50.54083" lon="5.57933">
        <ele>82.81</ele>
        <time>2010-04-06T07:04:33Z</time>
      </trkpt>
      <trkpt lat="50.54081" lon="5.57922">
        <ele>81.85</ele>
        <time>2010-04-06T07:04:34Z</time>
      </trkpt>
      <trkpt lat="50.54078" lon="5.57911">
        <ele>81.37</ele>
        <time>2010-04-06T07:04:35Z</time>
      </trkpt>
      <trkpt lat="50.54075" lon="5.579">
        <ele>81.37</ele>
        <time>2010-04-06T07:04:36Z</time>
      </trkpt>
      <trkpt lat="50.54071" lon="5.57881">
        <ele>80.89</ele>
        <time>2010-04-06T07:04:38Z</time>
      </trkpt>
      <trkpt lat="50.5407" lon="5.57873">
        <ele>80.89</ele>
        <time>2010-04-06T07:04:39Z</time>
      </trkpt>
      <trkpt lat="50.54071" lon="5.57865">
        <ele>80.89</ele>
        <time>2010-04-06T07:04:40Z</time>
      </trkpt>
      <trkpt lat="50.54076" lon="5.57857">
        <ele>81.85</ele>
        <time>2010-04-06T07:04:41Z</time>
      </trkpt>
      <trkpt lat="50.54082" lon="5.57853">
        <ele>81.37</ele>
        <time>2010-04-06T07:04:42Z</time>
      </trkpt>
      <trkpt lat="50.54088" lon="5.57849">
        <ele>81.85</ele>
        <time>2010-04-06T07:04:43Z</time>
      </trkpt>
      <trkpt lat="50.54094" lon="5.57846">
        <ele>82.33</ele>
        <time>2010-04-06T07:04:44Z</time>
      </trkpt>
      <trkpt lat="50.54154" lon="5.57804">
        <ele>87.14</ele>
        <time>2010-04-06T07:04:52Z</time>
      </trkpt>
      <trkpt lat="50.54162" lon="5.57801">
        <ele>88.1</ele>
        <time>2010-04-06T07:04:53Z</time>
      </trkpt>
      <trkpt lat="50.5417" lon="5.57801">
        <ele>88.58</ele>
        <time>2010-04-06T07:04:54Z</time>
      </trkpt>
      <trkpt lat="50.54178" lon="5.57805">
        <ele>89.06</ele>
        <time>2010-04-06T07:04:55Z</time>
      </trkpt>
      <trkpt lat="50.54184" lon="5.57811">
        <ele>89.54</ele>
        <time>2010-04-06T07:04:56Z</time>
      </trkpt>
      <trkpt lat="50.54191" lon="5.57822">
        <ele>90.02</ele>
        <time>2010-04-06T07:04:57Z</time>
      </trkpt>
      <trkpt lat="50.54198" lon="5.57838">
        <ele>90.5</ele>
        <time>2010-04-06T07:04:58Z</time>
      </trkpt>
      <trkpt lat="50.54204" lon="5.57854">
        <ele>91.46</ele>
        <time>2010-04-06T07:04:59Z</time>
      </trkpt>
      <trkpt lat="50.54218" lon="5.57885">
        <ele>93.87</ele>
        <time>2010-04-06T07:05:02Z</time>
      </trkpt>
      <trkpt lat="50.54224" lon="5.57886">
        <ele>95.31</ele>
        <time>2010-04-06T07:05:03Z</time>
      </trkpt>
      <trkpt lat="50.5423" lon="5.57885">
        <ele>95.79</ele>
        <time>2010-04-06T07:05:04Z</time>
      </trkpt>
      <trkpt lat="50.54237" lon="5.57884">
        <ele>96.75</ele>
        <time>2010-04-06T07:05:05Z</time>
      </trkpt>
      <trkpt lat="50.54243" lon="5.57887">
        <ele>98.19</ele>
        <time>2010-04-06T07:05:06Z</time>
      </trkpt>
      <trkpt lat="50.54248" lon="5.57893">
        <ele>99.63</ele>
        <time>2010-04-06T07:05:07Z</time>
      </trkpt>
      <trkpt lat="50.54252" lon="5.57903">
        <ele>100.6</ele>
        <time>2010-04-06T07:05:08Z</time>
      </trkpt>
      <trkpt lat="50.54256" lon="5.57916">
        <ele>102.04</ele>
        <time>2010-04-06T07:05:09Z</time>
      </trkpt>
      <trkpt lat="50.54304" lon="5.58024">
        <ele>111.65</ele>
        <time>2010-04-06T07:05:15Z</time>
      </trkpt>
      <trkpt lat="50.54368" lon="5.58134">
        <ele>123.67</ele>
        <time>2010-04-06T07:05:23Z</time>
      </trkpt>
      <trkpt lat="50.54403" lon="5.58183">
        <ele>130.4</ele>
        <time>2010-04-06T07:05:28Z</time>
      </trkpt>
      <trkpt lat="50.54411" lon="5.5819">
        <ele>131.36</ele>
        <time>2010-04-06T07:05:29Z</time>
      </trkpt>
      <trkpt lat="50.5442" lon="5.58194">
        <ele>132.32</ele>
        <time>2010-04-06T07:05:30Z</time>
      </trkpt>
      <trkpt lat="50.54427" lon="5.58197">
        <ele>133.76</ele>
        <time>2010-04-06T07:05:31Z</time>
      </trkpt>
      <trkpt lat="50.54433" lon="5.58193">
        <ele>134.72</ele>
        <time>2010-04-06T07:05:32Z</time>
      </trkpt>
      <trkpt lat="50.54439" lon="5.5819">
        <ele>135.68</ele>
        <time>2010-04-06T07:05:33Z</time>
      </trkpt>
      <trkpt lat="50.54445" lon="5.58183">
        <ele>137.13</ele>
        <time>2010-04-06T07:05:34Z</time>
      </trkpt>
      <trkpt lat="50.54487" lon="5.58161">
        <ele>140.97</ele>
        <time>2010-04-06T07:05:39Z</time>
      </trkpt>
      <trkpt lat="50.54495" lon="5.58153">
        <ele>141.93</ele>
        <time>2010-04-06T07:05:40Z</time>
      </trkpt>
      <trkpt lat="50.54502" lon="5.58142">
        <ele>142.89</ele>
        <time>2010-04-06T07:05:41Z</time>
      </trkpt>
      <trkpt lat="50.54535" lon="5.58094">
        <ele>147.7</ele>
        <time>2010-04-06T07:05:45Z</time>
      </trkpt>
      <trkpt lat="50.54567" lon="5.58065">
        <ele>151.06</ele>
        <time>2010-04-06T07:05:48Z</time>
      </trkpt>
      <trkpt lat="50.54578" lon="5.58057">
        <ele>152.51</ele>
        <time>2010-04-06T07:05:49Z</time>
      </trkpt>
      <trkpt lat="50.5459" lon="5.58051">
        <ele>154.43</ele>
        <time>2010-04-06T07:05:50Z</time>
      </trkpt>
      <trkpt lat="50.54601" lon="5.58046">
        <ele>155.87</ele>
        <time>2010-04-06T07:05:51Z</time>
      </trkpt>
      <trkpt lat="50.54611" lon="5.58044">
        <ele>157.31</ele>
        <time>2010-04-06T07:05:52Z</time>
      </trkpt>
      <trkpt lat="50.54621" lon="5.58042">
        <ele>157.79</ele>
        <time>2010-04-06T07:05:53Z</time>
      </trkpt>
      <trkpt lat="50.54654" lon="5.58029">
        <ele>161.16</ele>
        <time>2010-04-06T07:05:56Z</time>
      </trkpt>
      <trkpt lat="50.54664" lon="5.58021">
        <ele>162.6</ele>
        <time>2010-04-06T07:05:57Z</time>
      </trkpt>
      <trkpt lat="50.54673" lon="5.58009">
        <ele>163.56</ele>
        <time>2010-04-06T07:05:58Z</time>
      </trkpt>
      <trkpt lat="50.54681" lon="5.57993">
        <ele>165</ele>
        <time>2010-04-06T07:05:59Z</time>
      </trkpt>
      <trkpt lat="50.54689" lon="5.57973">
        <ele>166.45</ele>
        <time>2010-04-06T07:06:00Z</time>
      </trkpt>
      <trkpt lat="50.54697" lon="5.57948">
        <ele>167.89</ele>
        <time>2010-04-06T07:06:01Z</time>
      </trkpt>
      <trkpt lat="50.54708" lon="5.57924">
        <ele>170.29</ele>
        <time>2010-04-06T07:06:02Z</time>
      </trkpt>
      <trkpt lat="50.54718" lon="5.57902">
        <ele>172.69</ele>
        <time>2010-04-06T07:06:03Z</time>
      </trkpt>
      <trkpt lat="50.54783" lon="5.57796">
        <ele>183.75</ele>
        <time>2010-04-06T07:06:09Z</time>
      </trkpt>
      <trkpt lat="50.54799" lon="5.57779">
        <ele>186.15</ele>
        <time>2010-04-06T07:06:10Z</time>
      </trkpt>
      <trkpt lat="50.54815" lon="5.57765">
        <ele>188.56</ele>
        <time>2010-04-06T07:06:11Z</time>
      </trkpt>
      <trkpt lat="50.54917" lon="5.57659">
        <ele>204.42</ele>
        <time>2010-04-06T07:06:17Z</time>
      </trkpt>
      <trkpt lat="50.54945" lon="5.57593">
        <ele>212.59</ele>
        <time>2010-04-06T07:06:20Z</time>
      </trkpt>
      <trkpt lat="50.54951" lon="5.57568">
        <ele>214.51</ele>
        <time>2010-04-06T07:06:21Z</time>
      </trkpt>
      <trkpt lat="50.54957" lon="5.57543">
        <ele>216.91</ele>
        <time>2010-04-06T07:06:22Z</time>
      </trkpt>
      <trkpt lat="50.54987" lon="5.57464">
        <ele>224.61</ele>
        <time>2010-04-06T07:06:26Z</time>
      </trkpt>
      <trkpt lat="50.54998" lon="5.57445">
        <ele>226.05</ele>
        <time>2010-04-06T07:06:27Z</time>
      </trkpt>
      <trkpt lat="50.55029" lon="5.57388">
        <ele>228.45</ele>
        <time>2010-04-06T07:06:30Z</time>
      </trkpt>
      <trkpt lat="50.55035" lon="5.57364">
        <ele>228.45</ele>
        <time>2010-04-06T07:06:31Z</time>
      </trkpt>
      <trkpt lat="50.5504" lon="5.57337">
        <ele>227.97</ele>
        <time>2010-04-06T07:06:32Z</time>
      </trkpt>
      <trkpt lat="50.55045" lon="5.57308">
        <ele>226.53</ele>
        <time>2010-04-06T07:06:33Z</time>
      </trkpt>
      <trkpt lat="50.55051" lon="5.57279">
        <ele>224.61</ele>
        <time>2010-04-06T07:06:34Z</time>
      </trkpt>
      <trkpt lat="50.55093" lon="5.57152">
        <ele>210.67</ele>
        <time>2010-04-06T07:06:39Z</time>
      </trkpt>
      <trkpt lat="50.55107" lon="5.57131">
        <ele>208.26</ele>
        <time>2010-04-06T07:06:40Z</time>
      </trkpt>
      <trkpt lat="50.55121" lon="5.57112">
        <ele>204.9</ele>
        <time>2010-04-06T07:06:41Z</time>
      </trkpt>
      <trkpt lat="50.55135" lon="5.57091">
        <ele>202.49</ele>
        <time>2010-04-06T07:06:42Z</time>
      </trkpt>
      <trkpt lat="50.55147" lon="5.57069">
        <ele>199.61</ele>
        <time>2010-04-06T07:06:43Z</time>
      </trkpt>
      <trkpt lat="50.55176" lon="5.57006">
        <ele>190.48</ele>
        <time>2010-04-06T07:06:46Z</time>
      </trkpt>
      <trkpt lat="50.55187" lon="5.56994">
        <ele>188.08</ele>
        <time>2010-04-06T07:06:47Z</time>
      </trkpt>
      <trkpt lat="50.552" lon="5.56986">
        <ele>185.19</ele>
        <time>2010-04-06T07:06:48Z</time>
      </trkpt>
      <trkpt lat="50.55214" lon="5.56975">
        <ele>182.79</ele>
        <time>2010-04-06T07:06:49Z</time>
      </trkpt>
      <trkpt lat="50.5523" lon="5.56968">
        <ele>181.35</ele>
        <time>2010-04-06T07:06:50Z</time>
      </trkpt>
      <trkpt lat="50.55247" lon="5.56964">
        <ele>180.87</ele>
        <time>2010-04-06T07:06:51Z</time>
      </trkpt>
      <trkpt lat="50.55263" lon="5.56957">
        <ele>180.38</ele>
        <time>2010-04-06T07:06:52Z</time>
      </trkpt>
      <trkpt lat="50.55277" lon="5.56946">
        <ele>179.9</ele>
        <time>2010-04-06T07:06:53Z</time>
      </trkpt>
      <trkpt lat="50.5529" lon="5.5693">
        <ele>178.94</ele>
        <time>2010-04-06T07:06:54Z</time>
      </trkpt>
      <trkpt lat="50.55297" lon="5.56906">
        <ele>178.46</ele>
        <time>2010-04-06T07:06:55Z</time>
      </trkpt>
      <trkpt lat="50.55305" lon="5.56884">
        <ele>177.98</ele>
        <time>2010-04-06T07:06:56Z</time>
      </trkpt>
      <trkpt lat="50.5531" lon="5.56862">
        <ele>178.46</ele>
        <time>2010-04-06T07:06:57Z</time>
      </trkpt>
      <trkpt lat="50.55315" lon="5.56843">
        <ele>178.46</ele>
        <time>2010-04-06T07:06:58Z</time>
      </trkpt>
      <trkpt lat="50.55324" lon="5.56794">
        <ele>179.42</ele>
        <time>2010-04-06T07:07:01Z</time>
      </trkpt>
      <trkpt lat="50.55325" lon="5.56774">
        <ele>179.42</ele>
        <time>2010-04-06T07:07:02Z</time>
      </trkpt>
      <trkpt lat="50.55329" lon="5.56654">
        <ele>178.94</ele>
        <time>2010-04-06T07:07:07Z</time>
      </trkpt>
      <trkpt lat="50.55333" lon="5.56631">
        <ele>178.46</ele>
        <time>2010-04-06T07:07:08Z</time>
      </trkpt>
      <trkpt lat="50.55347" lon="5.56561">
        <ele>178.46</ele>
        <time>2010-04-06T07:07:11Z</time>
      </trkpt>
      <trkpt lat="50.55349" lon="5.56534">
        <ele>178.46</ele>
        <time>2010-04-06T07:07:12Z</time>
      </trkpt>
      <trkpt lat="50.55351" lon="5.56505">
        <ele>177.98</ele>
        <time>2010-04-06T07:07:13Z</time>
      </trkpt>
      <trkpt lat="50.55351" lon="5.56476">
        <ele>177.5</ele>
        <time>2010-04-06T07:07:14Z</time>
      </trkpt>
      <trkpt lat="50.5535" lon="5.56448">
        <ele>177.02</ele>
        <time>2010-04-06T07:07:15Z</time>
      </trkpt>
      <trkpt lat="50.55348" lon="5.56421">
        <ele>176.54</ele>
        <time>2010-04-06T07:07:16Z</time>
      </trkpt>
      <trkpt lat="50.55344" lon="5.56395">
        <ele>176.54</ele>
        <time>2010-04-06T07:07:17Z</time>
      </trkpt>
      <trkpt lat="50.55326" lon="5.56223">
        <ele>174.62</ele>
        <time>2010-04-06T07:07:24Z</time>
      </trkpt>
      <trkpt lat="50.55327" lon="5.56202">
        <ele>174.14</ele>
        <time>2010-04-06T07:07:25Z</time>
      </trkpt>
      <trkpt lat="50.55331" lon="5.56181">
        <ele>174.14</ele>
        <time>2010-04-06T07:07:26Z</time>
      </trkpt>
      <trkpt lat="50.55337" lon="5.56161">
        <ele>174.14</ele>
        <time>2010-04-06T07:07:27Z</time>
      </trkpt>
      <trkpt lat="50.55343" lon="5.56141">
        <ele>174.14</ele>
        <time>2010-04-06T07:07:28Z</time>
      </trkpt>
      <trkpt lat="50.55353" lon="5.56103">
        <ele>174.62</ele>
        <time>2010-04-06T07:07:30Z</time>
      </trkpt>
      <trkpt lat="50.55356" lon="5.56082">
        <ele>174.62</ele>
        <time>2010-04-06T07:07:31Z</time>
      </trkpt>
      <trkpt lat="50.55357" lon="5.5606">
        <ele>174.62</ele>
        <time>2010-04-06T07:07:32Z</time>
      </trkpt>
      <trkpt lat="50.55365" lon="5.55939">
        <ele>173.66</ele>
        <time>2010-04-06T07:07:37Z</time>
      </trkpt>
      <trkpt lat="50.55364" lon="5.55913">
        <ele>173.66</ele>
        <time>2010-04-06T07:07:38Z</time>
      </trkpt>
      <trkpt lat="50.55365" lon="5.55842">
        <ele>173.17</ele>
        <time>2010-04-06T07:07:41Z</time>
      </trkpt>
      <trkpt lat="50.5537" lon="5.55821">
        <ele>173.17</ele>
        <time>2010-04-06T07:07:42Z</time>
      </trkpt>
      <trkpt lat="50.55374" lon="5.55797">
        <ele>173.66</ele>
        <time>2010-04-06T07:07:43Z</time>
      </trkpt>
      <trkpt lat="50.55376" lon="5.5577">
        <ele>174.14</ele>
        <time>2010-04-06T07:07:44Z</time>
      </trkpt>
      <trkpt lat="50.55375" lon="5.55742">
        <ele>174.62</ele>
        <time>2010-04-06T07:07:45Z</time>
      </trkpt>
      <trkpt lat="50.55373" lon="5.55715">
        <ele>176.06</ele>
        <time>2010-04-06T07:07:46Z</time>
      </trkpt>
      <trkpt lat="50.55363" lon="5.55652">
        <ele>178.94</ele>
        <time>2010-04-06T07:07:48Z</time>
      </trkpt>
      <trkpt lat="50.55358" lon="5.5562">
        <ele>180.38</ele>
        <time>2010-04-06T07:07:49Z</time>
      </trkpt>
      <trkpt lat="50.55306" lon="5.55348">
        <ele>188.08</ele>
        <time>2010-04-06T07:07:57Z</time>
      </trkpt>
      <trkpt lat="50.55277" lon="5.55121">
        <ele>193.36</ele>
        <time>2010-04-06T07:08:04Z</time>
      </trkpt>
      <trkpt lat="50.55261" lon="5.55032">
        <ele>195.77</ele>
        <time>2010-04-06T07:08:08Z</time>
      </trkpt>
      <trkpt lat="50.55254" lon="5.55014">
        <ele>196.25</ele>
        <time>2010-04-06T07:08:09Z</time>
      </trkpt>
      <trkpt lat="50.55249" lon="5.54999">
        <ele>196.73</ele>
        <time>2010-04-06T07:08:10Z</time>
      </trkpt>
      <trkpt lat="50.55246" lon="5.54988">
        <ele>197.69</ele>
        <time>2010-04-06T07:08:11Z</time>
      </trkpt>
      <trkpt lat="50.55246" lon="5.54975">
        <ele>198.65</ele>
        <time>2010-04-06T07:08:12Z</time>
      </trkpt>
      <trkpt lat="50.55248" lon="5.5496">
        <ele>199.13</ele>
        <time>2010-04-06T07:08:13Z</time>
      </trkpt>
      <trkpt lat="50.55254" lon="5.54949">
        <ele>200.09</ele>
        <time>2010-04-06T07:08:14Z</time>
      </trkpt>
      <trkpt lat="50.55263" lon="5.5493">
        <ele>200.57</ele>
        <time>2010-04-06T07:08:15Z</time>
      </trkpt>
      <trkpt lat="50.55279" lon="5.54888">
        <ele>203.94</ele>
        <time>2010-04-06T07:08:17Z</time>
      </trkpt>
      <trkpt lat="50.55321" lon="5.54824">
        <ele>207.78</ele>
        <time>2010-04-06T07:08:21Z</time>
      </trkpt>
      <trkpt lat="50.55339" lon="5.54816">
        <ele>210.19</ele>
        <time>2010-04-06T07:08:22Z</time>
      </trkpt>
      <trkpt lat="50.55359" lon="5.54811">
        <ele>212.59</ele>
        <time>2010-04-06T07:08:23Z</time>
      </trkpt>
      <trkpt lat="50.55378" lon="5.54807">
        <ele>214.51</ele>
        <time>2010-04-06T07:08:24Z</time>
      </trkpt>
      <trkpt lat="50.55396" lon="5.54806">
        <ele>216.43</ele>
        <time>2010-04-06T07:08:25Z</time>
      </trkpt>
      <trkpt lat="50.55414" lon="5.54807">
        <ele>219.8</ele>
        <time>2010-04-06T07:08:26Z</time>
      </trkpt>
      <trkpt lat="50.5543" lon="5.54808">
        <ele>221.72</ele>
        <time>2010-04-06T07:08:27Z</time>
      </trkpt>
      <trkpt lat="50.55562" lon="5.54832">
        <ele>239.02</ele>
        <time>2010-04-06T07:08:34Z</time>
      </trkpt>
      <trkpt lat="50.55592" lon="5.54842">
        <ele>242.87</ele>
        <time>2010-04-06T07:08:36Z</time>
      </trkpt>
      <trkpt lat="50.55605" lon="5.54851">
        <ele>244.79</ele>
        <time>2010-04-06T07:08:37Z</time>
      </trkpt>
      <trkpt lat="50.55616" lon="5.54865">
        <ele>246.23</ele>
        <time>2010-04-06T07:08:38Z</time>
      </trkpt>
      <trkpt lat="50.55627" lon="5.54881">
        <ele>248.16</ele>
        <time>2010-04-06T07:08:39Z</time>
      </trkpt>
      <trkpt lat="50.55637" lon="5.54899">
        <ele>249.6</ele>
        <time>2010-04-06T07:08:40Z</time>
      </trkpt>
      <trkpt lat="50.55656" lon="5.54928">
        <ele>252</ele>
        <time>2010-04-06T07:08:42Z</time>
      </trkpt>
      <trkpt lat="50.55667" lon="5.54938">
        <ele>252.96</ele>
        <time>2010-04-06T07:08:43Z</time>
      </trkpt>
      <trkpt lat="50.55679" lon="5.54943">
        <ele>253.93</ele>
        <time>2010-04-06T07:08:44Z</time>
      </trkpt>
      <trkpt lat="50.55694" lon="5.54945">
        <ele>255.37</ele>
        <time>2010-04-06T07:08:45Z</time>
      </trkpt>
      <trkpt lat="50.55711" lon="5.54945">
        <ele>256.33</ele>
        <time>2010-04-06T07:08:46Z</time>
      </trkpt>
      <trkpt lat="50.55745" lon="5.54944">
        <ele>257.77</ele>
        <time>2010-04-06T07:08:48Z</time>
      </trkpt>
      <trkpt lat="50.55761" lon="5.54938">
        <ele>258.73</ele>
        <time>2010-04-06T07:08:49Z</time>
      </trkpt>
      <trkpt lat="50.55776" lon="5.54928">
        <ele>259.69</ele>
        <time>2010-04-06T07:08:50Z</time>
      </trkpt>
      <trkpt lat="50.55793" lon="5.54914">
        <ele>260.17</ele>
        <time>2010-04-06T07:08:51Z</time>
      </trkpt>
      <trkpt lat="50.55811" lon="5.54896">
        <ele>261.14</ele>
        <time>2010-04-06T07:08:52Z</time>
      </trkpt>
      <trkpt lat="50.55945" lon="5.5477">
        <ele>268.35</ele>
        <time>2010-04-06T07:08:59Z</time>
      </trkpt>
      <trkpt lat="50.55962" lon="5.54759">
        <ele>269.31</ele>
        <time>2010-04-06T07:09:00Z</time>
      </trkpt>
      <trkpt lat="50.55982" lon="5.54753">
        <ele>270.27</ele>
        <time>2010-04-06T07:09:01Z</time>
      </trkpt>
      <trkpt lat="50.56003" lon="5.5475">
        <ele>271.23</ele>
        <time>2010-04-06T07:09:02Z</time>
      </trkpt>
      <trkpt lat="50.56024" lon="5.54748">
        <ele>272.19</ele>
        <time>2010-04-06T07:09:03Z</time>
      </trkpt>
      <trkpt lat="50.56123" lon="5.54724">
        <ele>275.07</ele>
        <time>2010-04-06T07:09:09Z</time>
      </trkpt>
      <trkpt lat="50.56133" lon="5.54725">
        <ele>275.56</ele>
        <time>2010-04-06T07:09:10Z</time>
      </trkpt>
      <trkpt lat="50.5614" lon="5.5473">
        <ele>275.56</ele>
        <time>2010-04-06T07:09:11Z</time>
      </trkpt>
      <trkpt lat="50.56145" lon="5.54739">
        <ele>275.07</ele>
        <time>2010-04-06T07:09:12Z</time>
      </trkpt>
      <trkpt lat="50.56149" lon="5.54753">
        <ele>275.56</ele>
        <time>2010-04-06T07:09:13Z</time>
      </trkpt>
      <trkpt lat="50.56151" lon="5.5477">
        <ele>275.07</ele>
        <time>2010-04-06T07:09:14Z</time>
      </trkpt>
      <trkpt lat="50.56154" lon="5.5479">
        <ele>275.56</ele>
        <time>2010-04-06T07:09:15Z</time>
      </trkpt>
      <trkpt lat="50.56161" lon="5.54836">
        <ele>274.59</ele>
        <time>2010-04-06T07:09:18Z</time>
      </trkpt>
      <trkpt lat="50.56165" lon="5.54842">
        <ele>274.59</ele>
        <time>2010-04-06T07:09:19Z</time>
      </trkpt>
      <trkpt lat="50.56171" lon="5.54844">
        <ele>274.59</ele>
        <time>2010-04-06T07:09:20Z</time>
      </trkpt>
      <trkpt lat="50.56179" lon="5.54837">
        <ele>275.07</ele>
        <time>2010-04-06T07:09:21Z</time>
      </trkpt>
      <trkpt lat="50.5619" lon="5.5483">
        <ele>275.07</ele>
        <time>2010-04-06T07:09:22Z</time>
      </trkpt>
      <trkpt lat="50.56202" lon="5.54822">
        <ele>275.07</ele>
        <time>2010-04-06T07:09:23Z</time>
      </trkpt>
      <trkpt lat="50.56227" lon="5.54812">
        <ele>274.59</ele>
        <time>2010-04-06T07:09:25Z</time>
      </trkpt>
      <trkpt lat="50.56239" lon="5.54812">
        <ele>274.11</ele>
        <time>2010-04-06T07:09:26Z</time>
      </trkpt>
      <trkpt lat="50.56252" lon="5.54816">
        <ele>274.11</ele>
        <time>2010-04-06T07:09:27Z</time>
      </trkpt>
      <trkpt lat="50.56265" lon="5.54824">
        <ele>274.59</ele>
        <time>2010-04-06T07:09:28Z</time>
      </trkpt>
      <trkpt lat="50.5628" lon="5.54835">
        <ele>274.59</ele>
        <time>2010-04-06T07:09:29Z</time>
      </trkpt>
      <trkpt lat="50.56398" lon="5.54904">
        <ele>274.59</ele>
        <time>2010-04-06T07:09:35Z</time>
      </trkpt>
      <trkpt lat="50.56543" lon="5.54935">
        <ele>275.07</ele>
        <time>2010-04-06T07:09:42Z</time>
      </trkpt>
      <trkpt lat="50.56734" lon="5.54996">
        <ele>273.15</ele>
        <time>2010-04-06T07:09:50Z</time>
      </trkpt>
      <trkpt lat="50.56868" lon="5.55113">
        <ele>274.59</ele>
        <time>2010-04-06T07:09:56Z</time>
      </trkpt>
      <trkpt lat="50.57039" lon="5.55252">
        <ele>274.11</ele>
        <time>2010-04-06T07:10:04Z</time>
      </trkpt>
      <trkpt lat="50.57191" lon="5.55288">
        <ele>271.71</ele>
        <time>2010-04-06T07:10:11Z</time>
      </trkpt>
      <trkpt lat="50.57469" lon="5.55328">
        <ele>263.06</ele>
        <time>2010-04-06T07:10:24Z</time>
      </trkpt>
      <trkpt lat="50.57723" lon="5.55364">
        <ele>257.29</ele>
        <time>2010-04-06T07:10:36Z</time>
      </trkpt>
      <trkpt lat="50.57871" lon="5.55337">
        <ele>253.44</ele>
        <time>2010-04-06T07:10:42Z</time>
      </trkpt>
      <trkpt lat="50.58086" lon="5.55256">
        <ele>250.56</ele>
        <time>2010-04-06T07:10:49Z</time>
      </trkpt>
      <trkpt lat="50.58327" lon="5.55167">
        <ele>241.91</ele>
        <time>2010-04-06T07:10:58Z</time>
      </trkpt>
      <trkpt lat="50.58496" lon="5.55049">
        <ele>230.85</ele>
        <time>2010-04-06T07:11:05Z</time>
      </trkpt>
      <trkpt lat="50.58614" lon="5.54876">
        <ele>218.36</ele>
        <time>2010-04-06T07:11:11Z</time>
      </trkpt>
      <trkpt lat="50.58802" lon="5.54579">
        <ele>195.28</ele>
        <time>2010-04-06T07:11:22Z</time>
      </trkpt>
      <trkpt lat="50.58955" lon="5.54355">
        <ele>181.83</ele>
        <time>2010-04-06T07:11:32Z</time>
      </trkpt>
      <trkpt lat="50.59084" lon="5.54255">
        <ele>177.5</ele>
        <time>2010-04-06T07:11:39Z</time>
      </trkpt>
      <trkpt lat="50.59291" lon="5.54145">
        <ele>165.96</ele>
        <time>2010-04-06T07:11:48Z</time>
      </trkpt>
      <trkpt lat="50.59434" lon="5.5412">
        <ele>156.35</ele>
        <time>2010-04-06T07:11:53Z</time>
      </trkpt>
      <trkpt lat="50.59601" lon="5.54167">
        <ele>146.26</ele>
        <time>2010-04-06T07:11:59Z</time>
      </trkpt>
      <trkpt lat="50.5987" lon="5.54248">
        <ele>130.4</ele>
        <time>2010-04-06T07:12:09Z</time>
      </trkpt>
      <trkpt lat="50.60024" lon="5.54227">
        <ele>120.78</ele>
        <time>2010-04-06T07:12:15Z</time>
      </trkpt>
      <trkpt lat="50.60304" lon="5.54149">
        <ele>97.71</ele>
        <time>2010-04-06T07:12:26Z</time>
      </trkpt>
      <trkpt lat="50.60482" lon="5.54186">
        <ele>84.25</ele>
        <time>2010-04-06T07:12:33Z</time>
      </trkpt>
      <trkpt lat="50.60646" lon="5.54297">
        <ele>77.04</ele>
        <time>2010-04-06T07:12:40Z</time>
      </trkpt>
      <trkpt lat="50.60771" lon="5.544">
        <ele>74.16</ele>
        <time>2010-04-06T07:12:47Z</time>
      </trkpt>
      <trkpt lat="50.60887" lon="5.54462">
        <ele>63.5</ele>
      </trkpt>
      <trkpt lat="50.61011" lon="5.54517">
        <ele>65.5</ele>
      </trkpt>
      <trkpt lat="50.61051" lon="5.54522">
        <ele>64.5</ele>
      </trkpt>
      <trkpt lat="50.61195" lon="5.53902">
        <ele>66.3</ele>
      </trkpt>
      <trkpt lat="50.61487" lon="5.54061">
        <ele>63.5</ele>
      </trkpt>
      <trkpt lat="50.61487" lon="5.54199">
        <ele>61.2</ele>
      </trkpt>
      <trkpt lat="50.61532" lon="5.54242">
        <ele>59.2</ele>
      </trkpt>
      <trkpt lat="50.61536" lon="5.54242">
        <ele>59.2</ele>
      </trkpt>
      <trkpt lat="50.61653" lon="5.54149">
        <ele>66.6</ele>
      </trkpt>
      <trkpt lat="50.61702" lon="5.5422">
        <ele>63.5</ele>
      </trkpt>
      <trkpt lat="50.61792" lon="5.5427">
        <ele>65.4</ele>
      </trkpt>
      <trkpt lat="50.61797" lon="5.5427">
        <ele>65.7</ele>
      </trkpt>
      <trkpt lat="50.61859" lon="5.5422">
        <ele>72.8</ele>
      </trkpt>
      <trkpt lat="50.6185" lon="5.53974">
        <ele>70.2</ele>
      </trkpt>
      <trkpt lat="50.61904" lon="5.53826">
        <ele>76</ele>
      </trkpt>
      <trkpt lat="50.61963" lon="5.53453">
        <ele>69</ele>
      </trkpt>
      <trkpt lat="50.62057" lon="5.53283">
        <ele>71.2</ele>
      </trkpt>
      <trkpt lat="50.62089" lon="5.53217">
        <ele>72.9</ele>
      </trkpt>
      <trkpt lat="50.62147" lon="5.53327">
        <ele>81.1</ele>
      </trkpt>
      <trkpt lat="50.62214" lon="5.53458">
        <ele>96.7</ele>
      </trkpt>
      <trkpt lat="50.62277" lon="5.5359">
        <ele>107.9</ele>
      </trkpt>
      <trkpt lat="50.62322" lon="5.5376">
        <ele>121.3</ele>
      </trkpt>
      <trkpt lat="50.62306" lon="5.53819">
        <ele>127.3</ele>
      </trkpt>
      <trkpt lat="50.62306" lon="5.53821">
        <ele>127.5</ele>
      </trkpt>
      <trkpt lat="50.62281" lon="5.53862">
        <ele>132.6</ele>
      </trkpt>
      <trkpt lat="50.62292" lon="5.53939">
        <ele>139.5</ele>
      </trkpt>
      <trkpt lat="50.62292" lon="5.53968">
        <ele>142.1</ele>
      </trkpt>
      <trkpt lat="50.62319" lon="5.53941">
        <ele>140.1</ele>
      </trkpt>
      <trkpt lat="50.62335" lon="5.53876">
        <ele>132.9</ele>
      </trkpt>
      <trkpt lat="50.62357" lon="5.53876">
        <ele>137</ele>
      </trkpt>
      <trkpt lat="50.62378" lon="5.53893">
        <ele>142.1</ele>
      </trkpt>
      <trkpt lat="50.62376" lon="5.53937">
        <ele>144.8</ele>
      </trkpt>
      <trkpt lat="50.62323" lon="5.5402">
        <ele>147.2</ele>
      </trkpt>
      <trkpt lat="50.62301" lon="5.54022">
        <ele>146.7</ele>
      </trkpt>
      <trkpt lat="50.6227" lon="5.53987">
        <ele>143.4</ele>
      </trkpt>
      <trkpt lat="50.62243" lon="5.54007">
        <ele>144.3</ele>
      </trkpt>
      <trkpt lat="50.62276" lon="5.54101">
        <ele>150.8</ele>
      </trkpt>
      <trkpt lat="50.62303" lon="5.54143">
        <ele>154.9</ele>
      </trkpt>
      <trkpt lat="50.62364" lon="5.54176">
        <ele>162</ele>
      </trkpt>
      <trkpt lat="50.62387" lon="5.54215">
        <ele>166.6</ele>
      </trkpt>
      <trkpt lat="50.62389" lon="5.54218">
        <ele>166.9</ele>
      </trkpt>
      <trkpt lat="50.62502" lon="5.5427">
        <ele>173.8</ele>
      </trkpt>
      <trkpt lat="50.62626" lon="5.54501">
        <ele>173</ele>
      </trkpt>
      <trkpt lat="50.62716" lon="5.54476">
        <ele>170.7</ele>
      </trkpt>
      <trkpt lat="50.6272" lon="5.54538">
        <ele>169.2</ele>
      </trkpt>
      <trkpt lat="50.62739" lon="5.54555">
        <ele>167.6</ele>
      </trkpt>
      <trkpt lat="50.6277" lon="5.54518">
        <ele>168.2</ele>
      </trkpt>
      <trkpt lat="50.62862" lon="5.54553">
        <ele>168.1</ele>
      </trkpt>
      <trkpt lat="50.62973" lon="5.54698">
        <ele>164.2</ele>
      </trkpt>
      <trkpt lat="50.63109" lon="5.54832">
        <ele>161.2</ele>
      </trkpt>
      <trkpt lat="50.63171" lon="5.54919">
        <ele>157.9</ele>
      </trkpt>
      <trkpt lat="50.63214" lon="5.54933">
        <ele>158.4</ele>
      </trkpt>
      <trkpt lat="50.633" lon="5.54884">
        <ele>159.8</ele>
      </trkpt>
      <trkpt lat="50.63323" lon="5.54891">
        <ele>158.4</ele>
      </trkpt>
      <trkpt lat="50.63341" lon="5.54876">
        <ele>158.6</ele>
      </trkpt>
      <trkpt lat="50.63341" lon="5.54878">
        <ele>158.5</ele>
      </trkpt>
      <trkpt lat="50.63435" lon="5.54963">
        <ele>155.3</ele>
      </trkpt>
      <trkpt lat="50.63528" lon="5.55112">
        <ele>140.9</ele>
      </trkpt>
      <trkpt lat="50.63629" lon="5.55297">
        <ele>130.2</ele>
      </trkpt>
      <trkpt lat="50.63742" lon="5.55459">
        <ele>122</ele>
      </trkpt>
      <trkpt lat="50.63794" lon="5.55529">
        <ele>120.1</ele>
      </trkpt>
      <trkpt lat="50.63859" lon="5.55584">
        <ele>118.3</ele>
      </trkpt>
      <trkpt lat="50.63932" lon="5.55689">
        <ele>114.4</ele>
      </trkpt>
      <trkpt lat="50.63934" lon="5.55689">
        <ele>114.4</ele>
      </trkpt>
      <trkpt lat="50.63975" lon="5.55742">
        <ele>114.4</ele>
      </trkpt>
      <trkpt lat="50.64053" lon="5.55759">
        <ele>114.1</ele>
      </trkpt>
      <trkpt lat="50.64085" lon="5.55781">
        <ele>113.2</ele>
      </trkpt>
      <trkpt lat="50.64083" lon="5.55779">
        <ele>113.3</ele>
      </trkpt>
      <trkpt lat="50.64216" lon="5.55632">
        <ele>109.5</ele>
      </trkpt>
      <trkpt lat="50.64319" lon="5.55518">
        <ele>114.3</ele>
      </trkpt>
      <trkpt lat="50.64362" lon="5.55474">
        <ele>115.9</ele>
      </trkpt>
      <trkpt lat="50.64434" lon="5.55437">
        <ele>113.7</ele>
      </trkpt>
      <trkpt lat="50.64565" lon="5.55378">
        <ele>107.9</ele>
      </trkpt>
      <trkpt lat="50.64615" lon="5.5531">
        <ele>106.3</ele>
      </trkpt>
      <trkpt lat="50.64665" lon="5.55316">
        <ele>101.2</ele>
      </trkpt>
      <trkpt lat="50.64876" lon="5.55393">
        <ele>101.9</ele>
      </trkpt>
      <trkpt lat="50.64978" lon="5.55014">
        <ele>107.2</ele>
      </trkpt>
      <trkpt lat="50.65007" lon="5.54898">
        <ele>105.8</ele>
      </trkpt>
      <trkpt lat="50.65003" lon="5.54775">
        <ele>103.9</ele>
      </trkpt>
      <trkpt lat="50.65093" lon="5.54501">
        <ele>113.9</ele>
      </trkpt>
      <trkpt lat="50.65416" lon="5.53551">
        <ele>155.9</ele>
      </trkpt>
      <trkpt lat="50.65548" lon="5.53198">
        <ele>176.8</ele>
      </trkpt>
      <trkpt lat="50.65619" lon="5.53029">
        <ele>182.9</ele>
      </trkpt>
      <trkpt lat="50.65418" lon="5.52819">
        <ele>183</ele>
      </trkpt>
      <trkpt lat="50.65424" lon="5.52819">
        <ele>183.1</ele>
      </trkpt>
    </trkseg>
  </trk>
</gpx>